GFSGL_sfc_wetblb_000.txt.gz
Wetbulb
77.41 78.34 78.10 77.45 77.95 78.35 77.92 77.76 77.34 75.95 74.33 73.21 72.77 70.74 70.89 70.27 70.49 70.34 70.09 69.09 68.44 68.53 68.38 68.80 69.25 70.47 67.92 66.80 66.79 66.23 65.41 64.82 62.07 63.48 64.94 67.09 67.72 67.74 68.03 68.47 68.18 67.68 67.06
78.21 78.94 77.54 77.55 77.61 77.43 77.48 76.84 75.83 74.05 73.04 72.48 71.48 70.60 70.51 70.34 70.16 70.00 68.93 68.36 68.07 67.47 68.06 69.02 69.11 68.56 69.51 69.70 67.38 68.32 66.86 66.96 64.47 63.60 65.87 65.17 67.27 67.58 67.44 67.64 66.87 66.70 66.53
77.39 77.30 76.97 76.79 76.88 76.90 75.44 73.04 73.84 72.36 70.73 69.45 69.38 70.24 70.39 70.58 70.14 70.34 70.19 69.45 68.54 68.16 68.69 68.85 68.89 69.15 68.39 67.84 67.93 66.26 65.99 65.79 66.13 63.74 63.26 64.91 64.99 65.50 66.05 66.89 67.74 67.37 65.84
76.66 76.99 76.97 76.46 76.52 75.92 74.66 69.66 68.94 69.86 69.87 68.34 69.36 68.90 69.54 70.53 70.50 70.22 69.95 69.53 68.40 67.98 69.02 69.11 69.08 69.12 68.90 68.41 67.21 68.15 67.42 65.85 66.38 63.32 63.19 62.80 63.24 65.18 64.92 62.05 61.97 64.09 63.39
76.79 76.54 76.84 77.26 76.16 74.41 72.61 69.48 68.77 69.07 69.60 66.42 67.19 66.67 68.23 70.17 68.62 70.18 69.39 68.56 68.34 68.48 69.30 69.75 70.03 69.74 67.14 66.86 66.53 68.13 67.35 65.32 63.11 62.10 61.76 61.85 60.73 60.64 62.43 63.00 61.88 62.90 63.60
76.77 76.58 77.35 76.96 74.92 71.79 71.59 70.80 71.60 70.65 69.44 67.67 67.07 67.38 67.58 68.01 64.19 63.71 67.13 68.59 68.98 69.07 69.01 69.80 70.10 68.43 67.35 64.60 63.88 63.44 64.25 64.53 63.08 61.74 61.11 61.24 63.89 63.52 63.65 62.36 61.56 60.26 58.86
76.20 76.62 76.91 75.73 73.15 71.42 71.12 71.06 70.51 69.77 69.69 69.30 68.49 68.57 67.50 69.09 62.31 62.32 63.97 67.97 68.47 69.53 69.89 69.64 67.99 66.39 66.33 68.05 64.78 62.53 61.98 61.03 61.12 63.99 63.06 63.05 63.68 63.84 63.77 62.50 61.67 60.75 59.58
75.78 75.95 75.88 74.37 72.26 72.00 71.00 71.07 70.48 69.24 68.32 69.00 68.98 68.58 68.24 68.68 62.25 61.10 63.34 68.71 69.91 70.11 69.27 67.71 67.02 65.56 65.62 67.12 67.05 65.77 65.37 65.62 66.08 64.99 64.60 63.91 63.96 63.59 62.17 61.35 60.88 60.30 60.47
74.74 74.97 73.90 73.28 71.25 70.48 70.55 70.26 70.88 69.99 69.30 69.70 69.88 69.45 69.03 69.49 58.54 58.60 62.89 68.50 68.63 68.71 66.81 66.24 65.35 65.62 62.30 59.22 63.63 63.85 64.69 64.72 62.25 58.83 57.45 56.48 55.87 55.70 57.06 59.24 58.40 57.04 56.56
74.36 74.50 73.15 72.53 72.04 70.68 71.08 70.81 70.51 70.66 69.28 68.39 68.63 69.48 66.06 69.81 57.97 56.76 61.11 67.57 67.10 65.32 65.40 64.75 60.06 61.89 56.37 56.14 62.16 63.24 62.26 62.76 63.07 62.15 61.88 60.52 58.70 60.72 57.45 60.26 58.07 55.61 56.04
75.21 74.33 72.66 72.83 73.02 72.53 72.08 70.85 70.33 69.94 68.96 69.76 68.75 69.82 68.52 66.16 67.93 55.99 55.93 66.69 64.75 63.74 64.16 66.99 65.99 55.77 53.78 52.69 52.76 62.18 60.41 58.91 59.45 60.21 60.16 59.04 59.30 60.23 60.08 60.59 60.55 57.39 54.91
75.08 72.35 71.97 72.43 71.91 72.29 71.05 69.67 68.98 69.15 69.05 68.48 69.72 69.46 69.05 69.92 59.72 56.27 54.39 56.27 61.36 65.63 66.82 65.92 60.65 51.37 50.48 51.47 53.45 52.94 52.20 52.25 58.88 59.08 58.02 56.42 57.29 57.69 57.89 57.86 58.56 58.28 57.45
72.47 71.32 71.52 71.54 71.05 71.39 70.20 68.14 67.53 68.48 67.76 67.70 67.98 67.32 67.16 68.88 65.65 54.10 53.13 53.07 56.23 64.56 66.53 54.56 50.35 48.99 48.59 49.04 51.85 52.27 50.53 57.87 58.43 56.90 55.53 55.76 56.54 56.88 57.37 58.46 58.25 60.22 60.82
71.88 71.52 70.37 71.02 70.17 70.00 69.48 69.02 69.02 68.53 67.20 68.71 67.77 66.54 65.00 65.80 66.32 63.72 60.49 59.03 54.25 58.48 53.80 58.55 56.08 53.24 50.63 52.89 55.39 54.10 57.71 58.18 56.49 54.91 55.02 55.82 56.02 55.48 54.26 53.85 51.85 52.84 56.37
70.67 70.07 70.01 69.46 68.88 70.04 66.62 61.75 68.94 64.25 61.60 66.57 66.42 64.73 64.75 65.92 65.68 59.55 58.95 63.91 63.80 57.35 59.39 61.13 60.02 59.93 59.27 58.77 58.69 58.10 57.73 56.63 55.05 55.10 54.31 53.88 53.11 52.40 51.54 51.89 51.23 54.09 54.88
68.75 69.12 68.82 68.90 69.81 68.92 66.88 64.03 45.56 46.29 45.64 45.35 44.63 55.79 62.96 50.56 45.95 43.83 43.00 43.09 44.62 45.55 56.09 58.81 58.41 58.70 57.81 57.76 57.06 55.81 55.58 53.14 54.05 53.24 52.61 52.22 51.05 50.46 49.99 50.17 51.64 53.42 53.33
70.47 70.25 69.48 66.97 68.30 67.98 67.52 65.93 63.31 52.36 43.10 41.54 41.76 42.87 45.80 45.46 42.15 41.14 40.65 40.92 41.48 44.25 57.38 58.68 57.44 57.61 56.74 55.98 54.80 53.86 53.00 53.39 53.07 51.84 51.31 50.73 50.27 49.91 49.23 49.67 50.65 52.36 53.72
70.07 60.15 68.48 67.90 67.55 66.83 66.34 65.93 65.80 64.65 62.84 60.01 45.78 47.98 41.04 40.56 40.18 40.14 40.64 44.05 53.47 51.82 58.16 57.86 56.68 56.34 55.26 53.98 53.71 53.03 52.32 51.74 50.82 50.10 49.91 50.05 49.88 49.32 48.83 49.21 49.93 51.29 52.84
66.99 66.74 67.01 66.43 65.96 64.03 65.20 64.96 65.16 64.69 63.73 62.67 54.98 48.83 44.34 39.91 39.91 40.73 42.09 57.80 58.82 58.06 57.60 56.33 56.00 55.08 54.37 54.15 53.68 52.34 50.80 49.25 47.30 48.62 49.34 49.17 49.29 49.07 48.97 49.48 49.80 47.68 49.88
65.88 60.33 62.62 65.89 65.50 65.46 65.39 64.67 64.32 63.82 63.70 63.03 60.94 60.30 56.56 52.76 56.94 57.50 57.44 58.38 57.64 57.09 56.81 55.77 55.28 55.20 54.52 53.84 52.38 50.33 48.47 48.28 49.37 49.09 49.01 48.88 48.92 49.05 48.76 48.93 49.40 49.71 52.78
65.73 65.49 61.62 65.32 64.66 64.14 63.85 63.10 63.00 62.91 62.35 61.83 61.83 60.58 52.11 59.79 59.51 58.23 58.72 57.36 56.67 56.60 56.24 55.54 55.43 54.37 53.74 51.97 49.84 48.29 47.92 48.84 49.44 48.87 48.31 48.43 48.64 48.16 48.87 49.23 49.07 49.98 50.98
65.45 64.34 63.34 61.23 61.51 62.60 62.95 64.52 63.42 62.40 61.89 61.43 60.90 56.74 46.77 58.38 58.81 58.67 58.83 57.64 57.33 56.97 56.45 55.70 54.20 52.93 52.25 50.05 48.77 47.39 48.20 48.47 49.35 48.42 47.87 47.93 48.11 48.39 48.36 48.56 48.58 49.12 49.54
63.12 62.00 62.33 64.06 63.91 59.37 62.88 62.83 62.44 62.13 61.68 61.02 60.58 59.82 58.01 58.79 59.05 58.34 57.88 57.67 56.88 56.07 55.63 54.30 52.86 51.53 50.86 48.21 47.36 48.03 48.18 49.93 48.87 48.27 47.45 47.54 47.66 47.89 48.16 48.14 48.02 48.15 48.37
64.07 63.82 63.60 62.93 62.42 61.45 61.26 61.37 61.74 55.79 60.14 59.37 59.18 58.83 58.74 58.10 58.87 57.82 55.79 56.27 56.28 55.72 55.32 53.55 52.50 51.06 48.73 46.43 46.70 47.52 48.17 48.87 48.00 48.26 47.71 47.64 47.64 47.49 48.42 48.01 47.90 48.27 48.24
62.86 62.60 62.41 62.30 61.25 60.36 60.93 60.37 59.94 59.62 58.69 59.39 58.93 57.73 57.73 58.18 58.08 56.13 55.72 57.00 56.03 55.40 53.97 52.88 51.97 50.08 47.49 46.08 44.94 44.87 35.13 32.17 40.80 33.94 46.61 48.40 48.01 48.61 47.95 47.65 47.52 47.85 48.20
60.68 60.42 60.63 60.42 59.53 59.07 58.65 58.21 58.02 58.00 57.26 57.34 57.67 57.63 57.42 57.39 57.39 56.83 56.15 56.33 55.93 55.18 54.17 53.00 51.78 49.61 47.75 46.59 45.85 35.49 29.96 31.04 38.14 31.04 42.30 47.56 47.69 48.06 46.77 47.36 47.02 47.32 47.42

GFSGL_sfc_wetblb_003.txt.gz
Wetbulb
79.95 79.84 80.00 79.20 79.70 79.99 79.48 79.25 79.02 77.97 77.31 75.96 75.52 74.45 73.08 72.55 71.96 71.94 71.60 70.77 71.28 71.31 71.06 69.71 70.71 72.32 67.85 67.07 66.78 66.54 65.20 64.78 62.03 64.56 65.51 67.97 70.09 69.87 69.02 69.41 68.77 69.66 67.51
79.66 80.55 80.23 80.12 79.60 79.11 79.27 79.48 79.26 78.03 77.30 75.71 75.10 73.47 72.10 71.70 70.95 71.47 69.88 69.48 69.38 68.42 68.58 70.49 69.48 68.63 71.64 72.14 67.79 70.59 68.79 68.92 64.59 65.19 66.36 65.35 67.90 70.19 70.49 70.03 67.55 66.29 67.13
78.71 78.55 79.30 78.88 79.44 78.88 78.95 79.25 78.65 78.33 76.55 74.38 74.14 73.11 71.66 71.49 71.81 71.73 71.40 70.14 69.18 69.02 68.71 69.99 69.59 71.05 71.33 69.22 70.20 68.10 67.23 68.19 67.31 64.04 63.45 64.82 65.53 65.78 66.35 69.20 68.73 67.38 66.03
76.65 77.09 78.67 79.16 78.97 78.78 79.07 78.58 77.31 77.13 75.38 73.44 73.17 72.10 71.64 71.29 70.81 70.65 70.33 69.84 70.22 69.72 70.08 70.36 70.36 70.34 70.33 70.33 69.82 70.52 69.35 67.45 66.72 64.66 63.24 63.16 64.47 63.70 65.87 63.77 63.24 63.95 63.70
77.93 77.26 78.83 79.85 79.45 78.96 78.67 78.25 76.81 75.70 74.17 72.65 71.88 71.31 71.13 70.01 70.34 71.13 70.26 69.97 70.82 69.67 69.44 69.43 70.43 70.57 68.26 67.48 69.26 65.33 68.71 66.43 65.30 64.28 63.16 63.12 62.85 62.66 62.47 64.17 63.03 63.60 62.51
78.85 78.41 79.71 80.09 79.25 78.45 77.90 76.77 74.72 75.09 73.49 72.43 69.94 69.73 69.41 68.29 64.48 65.13 68.89 68.66 70.03 69.89 68.93 69.71 69.89 69.06 67.71 65.21 64.92 64.43 64.34 63.96 64.59 63.04 62.15 62.23 63.76 64.19 64.83 64.03 63.01 60.46 58.36
79.48 79.60 80.71 80.15 78.34 76.36 76.21 75.23 74.01 73.30 73.27 72.18 69.45 69.74 69.19 69.97 62.52 62.76 64.51 68.58 68.09 69.62 70.03 69.25 69.35 68.08 67.13 67.81 65.52 63.34 63.02 62.54 62.09 64.35 63.40 64.00 63.68 64.35 64.94 63.71 62.88 61.12 59.53
79.32 79.55 80.18 79.27 76.59 74.52 73.61 73.19 73.31 73.66 73.11 71.98 70.22 71.25 70.19 70.08 61.43 61.25 64.04 67.72 67.49 69.11 69.78 69.76 69.83 69.34 68.75 65.99 67.11 65.49 65.54 67.49 66.79 64.59 64.94 65.49 65.45 64.73 62.86 61.76 61.62 61.37 61.32
77.48 78.97 79.52 77.84 75.55 73.81 72.12 72.52 73.60 73.09 73.76 70.90 69.82 69.91 70.29 69.90 59.55 59.14 63.47 67.86 67.63 69.34 69.79 69.92 69.55 67.45 64.09 61.03 63.23 62.79 65.01 66.19 64.30 61.80 59.58 57.55 56.34 56.22 57.60 59.25 57.83 56.74 55.68
77.54 78.15 79.16 77.14 75.05 73.16 72.52 72.60 73.43 74.00 72.63 70.32 69.49 69.76 67.74 70.91 57.91 57.19 61.96 66.45 65.36 66.84 71.74 70.12 61.79 63.68 58.49 58.26 64.33 64.33 63.85 64.82 64.59 64.47 63.88 60.61 58.66 60.61 56.96 59.78 59.82 56.41 55.94
76.71 76.85 76.96 75.51 73.88 72.92 73.36 73.76 72.69 72.47 70.96 68.63 68.10 70.79 71.71 69.95 68.30 55.84 55.94 67.13 65.96 67.39 66.39 67.10 65.78 56.56 56.02 54.10 53.96 62.70 62.14 59.64 62.65 61.07 60.33 60.57 61.92 61.63 59.54 61.45 63.34 57.91 54.70
77.56 76.44 74.97 73.85 73.03 72.87 73.44 72.20 71.33 70.87 70.40 70.13 70.39 70.38 70.60 70.79 61.30 56.00 55.00 55.90 62.19 66.87 65.81 66.01 67.89 55.27 54.70 53.63 54.28 54.94 53.51 53.33 58.99 58.52 58.77 59.10 58.87 57.63 58.07 59.19 60.98 59.72 58.53
76.96 74.56 73.49 73.44 73.11 73.79 73.12 72.32 70.58 71.01 69.50 69.19 68.88 67.79 68.33 69.76 71.62 55.74 54.73 54.14 55.88 62.99 65.94 56.10 54.21 52.53 51.41 50.95 51.27 53.50 52.94 56.94 57.59 57.86 57.92 57.16 56.19 57.17 59.96 58.63 60.07 60.17 59.11
73.45 72.39 72.38 71.97 71.93 72.12 72.37 70.33 68.69 68.00 68.14 68.72 68.40 68.57 68.69 70.38 66.95 66.95 64.49 62.30 56.68 60.51 55.78 59.77 57.54 55.80 52.60 54.40 56.27 54.81 57.23 58.07 58.30 56.87 55.15 56.00 56.27 55.33 54.37 53.80 51.71 51.20 50.60
71.67 71.39 72.55 71.90 71.46 71.21 69.02 66.29 70.08 70.69 65.07 68.63 68.55 68.29 67.57 65.90 66.65 61.42 59.49 63.87 65.14 60.22 62.82 63.30 60.98 60.80 60.40 59.69 59.32 59.32 58.81 58.63 56.90 56.30 55.02 54.13 53.29 53.05 52.24 52.08 50.83 50.56 50.72
71.63 71.75 71.23 71.05 71.32 69.52 65.96 62.95 46.96 48.63 46.79 46.68 45.30 56.67 61.93 50.13 45.82 44.90 44.42 46.00 46.89 49.31 59.78 59.81 59.62 59.63 58.81 58.68 58.54 58.28 57.96 56.07 55.97 55.18 53.53 52.74 51.74 51.05 50.29 50.22 50.93 50.75 50.84
71.76 71.70 71.09 69.43 70.35 69.67 68.99 68.48 65.70 53.67 44.37 42.92 42.92 44.76 47.57 47.18 42.72 41.95 41.83 42.30 44.20 46.88 57.79 58.81 58.87 58.78 58.43 58.03 57.08 56.07 54.82 55.11 55.51 52.87 51.97 51.62 51.02 50.34 49.71 49.55 50.09 50.42 51.08
72.33 62.72 70.38 70.53 69.31 68.89 68.58 67.67 66.55 64.74 63.20 61.31 46.58 48.48 41.68 41.38 41.23 41.01 41.50 45.40 53.89 51.62 57.38 58.48 58.35 57.94 57.08 55.96 55.19 54.71 54.43 53.33 52.43 51.47 50.70 50.67 50.39 49.57 48.98 49.17 49.69 50.12 50.09
70.22 69.21 69.70 68.80 68.48 66.36 67.18 66.43 66.04 65.93 65.13 62.85 57.16 51.43 46.53 40.87 41.02 41.81 42.67 58.26 59.45 59.26 59.19 58.09 57.79 56.97 56.29 55.59 55.00 54.36 53.31 51.48 49.32 48.27 49.89 50.06 49.71 49.39 48.96 49.37 49.48 47.20 48.13
68.36 63.02 65.54 67.25 66.11 66.00 65.65 65.00 64.79 64.47 63.65 61.89 62.20 60.67 56.36 52.51 55.57 56.50 56.84 58.84 59.41 59.09 58.84 58.16 57.67 57.08 56.43 55.53 54.52 53.17 51.15 49.52 49.72 50.03 49.79 49.51 49.53 49.33 48.73 48.75 49.09 48.95 49.84
66.46 66.46 62.67 66.67 65.57 65.22 64.69 64.07 63.53 63.01 62.42 62.39 62.11 60.04 52.37 58.34 60.10 59.67 60.00 59.56 59.16 58.96 58.49 58.06 57.65 57.20 56.33 55.24 53.33 51.09 49.39 48.68 49.50 49.46 49.01 49.05 49.16 48.31 49.38 49.35 49.28 49.37 49.42
66.10 65.93 65.86 65.09 64.36 63.52 63.62 64.16 64.03 62.92 62.25 62.13 59.12 56.61 47.74 60.94 60.60 59.90 60.20 59.55 59.18 59.38 59.21 58.27 57.13 56.70 55.30 53.30 51.46 49.50 48.01 48.39 49.31 49.40 48.61 48.62 48.88 48.94 48.97 49.05 48.99 48.93 48.92
64.73 64.26 64.19 63.45 63.45 59.90 62.74 63.25 62.75 62.40 62.00 61.70 60.69 61.33 60.57 60.85 59.79 59.61 59.05 58.95 59.37 58.33 58.58 57.45 56.16 54.86 53.95 52.60 49.88 48.21 47.88 48.79 49.92 49.12 48.28 48.39 48.58 48.89 48.62 49.00 48.62 48.35 48.26
63.51 63.87 62.64 63.46 63.14 62.95 62.29 61.49 62.01 56.50 60.68 60.45 60.46 60.01 59.49 59.19 58.77 59.04 57.79 58.23 58.15 57.51 57.12 56.72 55.36 53.93 53.55 50.96 48.63 47.94 48.40 49.32 48.81 48.28 49.00 48.03 48.55 48.43 49.12 48.94 48.45 48.36 48.49
64.42 62.36 61.87 61.62 61.48 61.66 61.03 60.69 60.66 60.86 59.59 59.59 58.99 59.88 59.56 58.48 57.02 57.61 57.25 58.00 57.41 56.53 55.98 55.98 54.73 53.48 52.05 49.95 48.40 47.36 37.06 34.39 42.17 33.95 45.79 48.24 49.04 49.35 49.24 48.39 48.14 48.11 48.61
61.72 61.54 61.95 62.41 61.07 60.58 60.06 59.71 59.64 59.53 59.24 59.24 58.84 58.85 58.97 58.12 58.07 57.75 58.04 56.47 55.43 55.32 55.70 55.73 54.68 53.50 51.76 49.74 47.93 35.90 30.07 33.46 38.95 31.63 42.08 46.14 48.60 48.95 48.04 47.43 48.01 47.81 47.92

GFSGL_sfc_wetblb_006.txt.gz
Wetbulb
79.04 78.88 78.91 78.85 78.82 78.28 78.82 78.48 76.71 77.53 75.48 75.18 74.18 74.21 73.80 72.83 72.90 71.67 70.98 70.38 69.95 70.14 69.93 69.76 69.15 70.80 68.95 67.95 68.71 67.01 65.40 65.04 62.69 63.52 65.01 66.19 65.94 66.30 66.79 67.39 68.34 67.01 66.84
78.63 78.82 78.66 78.85 78.90 78.54 77.55 78.51 77.52 77.76 76.13 74.66 74.82 74.11 73.56 71.59 72.25 70.98 69.66 68.73 70.02 69.10 69.66 69.60 68.93 68.79 69.59 68.98 68.56 67.47 67.15 67.09 64.72 63.20 64.92 65.09 65.36 66.77 67.05 66.66 66.94 66.17 65.12
78.27 78.26 78.04 78.23 78.12 78.08 77.92 77.33 77.85 77.38 76.23 75.73 74.46 73.81 72.22 70.97 71.10 70.53 70.05 69.68 69.82 69.11 68.85 68.97 68.78 68.75 68.89 68.97 68.51 67.73 66.91 66.19 65.28 63.38 62.44 64.73 64.12 64.10 63.67 64.76 64.30 66.44 67.21
77.57 77.61 77.34 77.43 77.64 77.53 78.06 77.66 77.50 77.42 76.22 75.99 74.53 73.60 72.04 70.79 70.50 70.35 70.22 69.87 69.70 69.50 70.27 70.11 69.99 68.71 68.62 68.86 67.78 67.98 67.75 66.54 64.64 62.83 62.37 62.56 63.86 64.00 64.65 62.21 61.27 64.09 64.03
76.32 77.07 77.24 78.12 77.97 77.93 77.78 77.78 77.59 77.75 77.36 76.66 74.46 73.31 71.97 70.37 70.19 70.17 70.14 69.57 69.44 69.53 68.51 70.15 69.81 70.06 68.26 68.25 67.95 66.92 67.51 65.50 63.42 61.34 60.01 60.50 60.93 61.79 61.02 62.16 61.20 61.65 61.90
75.07 75.74 77.00 77.80 77.98 77.58 77.39 77.60 77.49 77.84 76.92 75.87 72.87 71.72 69.83 69.46 66.22 66.52 69.65 69.45 69.73 69.32 67.34 69.61 70.32 67.78 67.10 65.01 64.83 64.99 66.85 64.94 62.75 60.36 60.29 59.48 60.42 62.16 62.69 61.58 61.06 59.20 57.55
75.20 75.99 76.39 77.67 77.94 77.52 77.56 77.56 77.43 76.85 75.90 74.15 71.87 70.17 68.20 69.63 62.48 63.90 66.47 69.12 68.54 69.07 67.76 69.25 67.95 67.71 67.37 68.05 65.11 63.83 63.64 62.96 62.85 61.96 60.20 60.93 61.30 62.57 62.33 61.06 60.58 59.38 57.80
77.15 76.30 76.94 78.06 77.85 77.68 77.42 77.06 77.28 75.58 74.12 73.50 71.72 69.09 68.53 69.28 61.94 61.82 64.54 66.74 67.74 69.02 68.32 68.58 66.18 67.73 68.63 68.54 66.97 66.77 64.59 64.43 64.66 64.10 62.89 62.31 63.79 64.88 63.05 60.80 59.10 58.48 58.66
76.31 77.53 78.00 79.30 78.06 77.68 76.76 76.20 75.50 73.76 73.14 72.48 71.12 69.24 69.04 69.49 59.67 59.74 62.14 65.62 66.57 66.72 68.18 68.23 67.82 69.07 65.78 61.23 65.09 63.78 63.62 65.05 64.51 61.12 62.51 60.77 58.44 56.80 58.11 59.08 56.37 55.29 54.49
77.12 78.03 79.55 79.24 77.89 76.05 75.27 74.05 73.06 73.80 73.25 73.29 70.75 70.29 66.80 70.71 58.88 57.54 61.55 66.41 66.27 66.81 68.12 68.16 62.54 65.11 60.92 58.90 63.77 64.13 63.59 64.02 64.67 64.28 63.14 60.46 57.98 59.41 57.61 58.25 57.88 55.32 55.29
78.98 78.95 79.58 78.83 77.01 75.04 73.17 72.89 73.00 73.32 74.12 71.75 68.68 68.65 69.45 69.51 67.43 56.12 56.75 66.88 66.65 66.05 65.58 66.58 67.40 58.57 56.60 55.92 56.02 62.60 60.44 57.06 60.44 61.11 60.78 59.59 60.02 60.75 60.14 61.38 60.78 58.93 53.91
78.65 78.74 78.51 76.55 73.86 72.93 72.64 72.92 72.77 72.12 70.40 69.82 69.49 68.91 71.85 71.63 63.27 55.65 55.27 57.54 63.94 66.40 65.82 67.12 62.25 54.21 55.21 56.02 54.10 54.17 53.82 54.49 58.24 58.16 57.70 57.56 58.49 57.73 57.69 57.39 57.92 57.62 56.95
77.18 77.19 76.20 74.32 72.98 72.77 73.30 71.10 70.03 71.58 70.15 69.19 68.82 69.82 69.78 69.92 67.19 57.29 54.30 54.49 55.44 60.99 66.29 57.59 54.68 52.20 55.01 52.49 53.34 54.12 53.89 56.38 56.57 56.23 56.50 57.37 56.06 56.84 57.98 56.71 57.79 57.18 55.62
76.10 74.52 73.59 72.62 73.28 73.96 72.84 71.94 70.80 70.27 69.73 68.80 70.08 69.16 70.07 69.39 68.23 64.92 62.06 59.81 56.70 59.34 56.79 57.20 57.09 57.04 56.21 56.51 56.93 53.65 55.90 57.66 57.52 57.57 56.04 56.48 57.32 55.23 53.66 54.28 52.14 51.25 49.27
73.30 72.45 71.56 71.39 71.45 71.30 64.40 63.73 69.53 60.28 61.01 70.85 71.55 69.86 68.37 67.95 67.41 63.89 63.58 65.53 64.61 61.17 61.05 61.93 59.32 59.91 59.51 58.49 57.96 58.83 58.15 58.11 57.83 58.02 56.46 54.97 53.04 52.94 52.15 52.53 50.84 49.06 48.47
71.54 71.26 71.41 70.46 70.15 67.30 63.50 59.99 46.06 47.03 45.40 45.94 47.55 59.17 58.49 50.80 48.93 47.27 45.86 46.15 47.94 52.67 61.64 63.35 61.67 60.73 59.18 57.79 57.17 57.15 57.64 57.68 57.83 56.00 54.60 52.95 51.52 51.29 50.63 50.38 50.20 50.13 48.91
71.53 71.68 69.74 69.06 69.74 68.19 67.25 65.32 60.17 51.49 44.83 43.39 43.60 44.80 50.32 46.73 43.98 43.18 42.73 43.43 46.60 53.13 62.25 61.21 59.18 60.34 60.28 59.69 58.28 57.57 56.41 57.30 56.10 54.98 53.84 52.90 51.60 50.97 49.57 49.40 49.38 49.51 49.19
72.33 63.26 70.88 69.98 70.84 70.15 69.76 68.45 67.17 62.56 60.58 58.00 45.40 47.73 42.05 41.57 41.36 41.65 43.17 48.61 54.87 53.85 59.09 58.41 59.10 60.29 59.50 58.38 57.57 56.61 56.04 55.11 53.81 52.76 50.89 50.08 50.38 50.51 49.27 48.81 48.92 48.45 48.07
70.92 70.46 69.73 70.12 70.78 68.24 68.43 67.01 67.46 64.45 64.29 58.49 54.22 49.48 44.39 41.69 42.16 43.51 44.06 59.35 59.51 58.82 57.28 57.33 59.43 59.36 58.85 58.39 57.86 57.10 55.46 53.67 50.67 49.89 49.48 49.81 50.89 49.16 48.65 48.71 48.50 46.88 47.43
70.94 65.33 66.57 66.88 66.53 67.52 67.02 66.61 65.86 64.52 60.45 59.43 59.08 56.82 54.32 52.33 54.94 55.49 56.28 57.87 59.01 59.57 60.90 59.49 59.55 58.92 58.41 57.78 57.20 56.10 54.05 52.41 51.11 51.04 50.97 50.49 50.27 49.90 47.84 47.91 48.06 47.44 47.93
68.16 67.87 63.56 65.48 66.53 66.04 65.68 64.66 64.90 64.48 64.08 63.28 61.24 58.52 51.34 58.71 58.95 59.29 59.61 59.34 60.39 60.63 61.10 60.91 59.87 59.55 58.84 57.64 56.51 54.11 51.66 50.08 50.07 50.92 50.05 49.69 49.87 48.19 49.10 49.17 48.00 48.18 47.88
66.19 66.37 66.98 65.31 64.51 65.18 65.51 65.49 64.67 63.20 62.29 62.21 61.26 55.33 47.15 60.31 61.28 61.29 60.26 58.45 60.80 60.59 57.65 59.62 59.27 59.14 57.24 56.15 53.55 52.08 50.44 48.66 50.16 50.50 49.55 48.70 48.80 48.63 49.04 47.62 48.33 47.95 47.81
63.30 65.00 65.19 61.60 61.91 60.68 63.05 63.40 62.89 62.68 62.00 61.89 60.08 57.82 56.86 60.21 61.57 58.73 59.79 60.10 59.66 57.68 56.94 56.61 58.70 57.44 56.66 55.12 52.41 50.98 48.31 48.56 50.23 49.55 48.50 48.58 47.85 48.29 48.21 48.23 47.87 47.19 46.68
64.49 62.28 61.38 63.00 59.06 62.69 60.47 61.58 62.70 56.82 60.71 61.46 61.24 61.35 58.71 58.97 59.52 58.08 58.97 58.92 58.76 57.77 58.60 56.11 54.59 56.00 55.63 53.32 52.61 50.22 49.06 49.16 48.55 47.15 47.12 46.54 46.46 47.79 48.36 48.19 47.83 47.26 47.11
59.89 62.16 61.16 61.00 61.78 58.89 61.06 60.63 60.36 60.96 59.28 60.77 60.39 60.65 60.73 60.49 59.75 58.88 58.81 57.90 57.38 57.52 57.31 57.22 55.74 56.21 55.11 53.81 50.90 43.46 34.28 35.24 41.10 35.72 44.85 46.72 46.49 47.86 48.76 47.13 47.40 46.87 47.92
62.85 61.52 58.86 60.44 59.64 58.48 59.80 59.82 59.13 58.11 57.73 60.25 60.60 60.31 60.93 59.72 59.55 58.99 58.93 58.72 58.03 57.67 57.24 56.54 55.24 55.86 55.09 52.56 48.94 36.04 30.59 34.08 38.88 33.81 40.26 43.54 44.89 47.50 48.18 47.17 47.69 46.76 47.52

GFSGL_sfc_wetblb_009.txt.gz
Wetbulb
76.36 76.29 76.02 75.67 75.17 74.53 74.25 73.97 73.20 72.75 72.05 72.29 72.02 72.53 71.22 69.43 69.30 67.93 65.72 65.46 66.34 63.76 64.64 63.59 64.68 64.78 63.48 63.48 63.92 62.36 62.35 61.70 57.60 59.50 60.08 61.89 61.29 61.51 63.21 63.98 65.16 64.92 64.66
76.55 76.49 76.21 76.33 75.99 75.09 74.16 74.44 74.21 72.96 72.33 72.45 72.39 71.06 71.35 69.98 69.16 68.60 66.30 66.65 64.82 65.34 64.31 63.44 63.26 64.50 63.82 63.71 65.21 64.23 63.07 62.30 60.19 58.43 60.88 61.24 61.32 61.53 62.32 63.16 65.11 66.45 63.90
76.73 76.37 76.25 75.90 76.10 75.90 74.75 75.59 75.36 73.41 73.09 71.65 71.13 70.96 70.64 70.04 69.05 68.78 66.90 65.45 66.09 65.85 65.65 65.48 64.98 64.10 63.29 64.23 65.28 64.94 64.08 63.80 61.69 60.05 59.55 61.84 62.61 61.83 61.57 61.04 61.27 61.68 63.99
76.76 76.24 75.63 75.80 76.01 76.08 76.00 74.79 75.31 74.92 73.21 71.57 71.30 71.11 71.01 69.83 68.96 68.36 67.27 65.67 65.88 66.01 65.42 66.29 65.81 64.83 64.54 64.61 64.44 64.24 64.19 63.47 62.13 61.37 59.64 60.08 60.99 61.86 61.92 59.74 58.19 60.11 60.40
75.65 75.67 75.37 75.89 76.17 76.16 75.99 75.85 74.61 74.40 73.77 73.36 71.42 71.45 70.45 69.27 68.92 67.25 67.33 66.25 65.90 65.44 65.75 67.07 66.56 67.46 67.42 65.56 64.93 64.76 64.46 63.58 62.12 60.07 57.98 57.44 58.24 57.82 59.37 58.67 58.68 58.94 59.49
74.82 75.02 75.32 75.40 75.34 75.58 75.61 75.37 75.18 74.29 74.07 73.69 72.18 71.13 69.69 69.47 66.01 66.23 67.54 66.79 66.10 65.57 66.06 66.82 65.60 68.01 67.00 65.23 65.23 65.36 65.56 63.08 59.31 58.38 57.50 57.24 57.31 59.31 58.65 58.05 57.86 56.84 55.28
73.88 74.78 74.79 74.69 74.69 74.73 75.12 74.68 74.78 74.56 74.83 73.89 72.11 70.77 69.07 67.82 63.66 64.30 66.57 66.66 65.99 66.05 66.86 66.58 66.08 67.00 66.05 64.96 63.72 63.54 63.30 63.48 62.61 60.10 58.26 57.05 57.45 58.63 58.67 56.89 56.28 56.20 55.14
72.31 73.65 74.28 74.57 74.44 75.05 74.95 74.61 74.97 74.95 74.27 72.86 71.15 69.75 68.08 67.36 61.56 61.87 64.42 66.33 65.95 65.91 67.10 66.56 64.86 64.02 65.42 63.72 63.92 62.74 63.51 62.61 61.94 62.08 60.27 60.93 60.07 60.82 59.93 58.87 57.13 54.99 54.53
70.95 71.82 73.48 73.97 74.42 75.05 74.59 74.41 75.00 74.48 72.91 72.02 70.56 68.02 66.84 66.79 60.40 59.13 61.69 64.04 65.03 65.11 65.71 65.68 64.33 64.30 63.35 61.17 62.53 61.66 60.97 60.90 62.39 60.79 61.36 61.12 59.58 58.36 58.98 55.92 53.76 51.65 50.80
70.77 71.91 73.39 73.97 74.61 75.00 74.71 74.41 73.37 72.46 71.42 71.55 69.82 67.66 65.21 66.83 59.55 58.65 60.18 63.84 63.09 63.05 63.52 64.98 62.43 63.24 60.96 59.46 60.94 59.73 58.79 60.18 57.82 58.18 58.54 57.98 57.09 56.65 57.41 55.24 55.98 53.67 50.59
71.45 74.19 75.08 76.00 75.68 74.60 73.14 71.59 71.04 70.72 71.21 70.88 69.45 67.41 66.82 66.82 63.10 56.54 56.60 63.74 62.60 62.96 62.32 62.57 63.36 59.51 57.14 57.04 57.94 59.65 58.33 53.23 54.77 53.79 54.57 55.16 54.73 55.41 57.05 57.74 58.32 55.94 52.63
75.92 76.66 76.04 74.43 73.56 72.25 70.68 70.66 70.32 70.38 69.12 67.46 66.79 66.32 66.97 67.35 60.23 55.32 55.62 57.81 61.98 62.77 61.84 61.69 57.04 54.93 55.13 57.42 54.56 52.63 52.51 53.44 52.83 52.67 52.41 51.99 52.40 51.62 52.46 52.36 52.36 54.16 53.26
76.19 74.93 72.83 72.16 71.36 70.52 69.89 69.63 69.67 67.64 67.21 66.66 66.10 65.19 65.63 66.63 64.10 56.66 54.17 54.57 55.93 59.44 61.29 59.29 53.64 53.68 54.58 53.15 53.83 53.44 54.00 50.82 50.83 50.98 51.07 51.92 51.00 53.16 50.44 49.55 49.33 48.37 47.20
73.88 72.29 71.03 70.14 70.08 70.38 69.53 68.85 68.41 67.80 67.26 65.86 65.43 65.54 65.33 65.09 62.26 59.07 56.17 56.22 57.44 57.32 56.70 55.49 54.86 53.93 52.78 53.79 53.53 52.41 50.80 51.38 52.11 51.55 51.60 51.13 50.53 47.73 47.18 47.39 45.38 44.67 42.85
71.09 70.50 70.20 70.17 69.95 61.54 54.84 56.68 62.40 53.38 60.57 65.86 66.51 65.50 63.63 64.13 64.23 60.03 58.55 59.86 59.15 57.84 55.78 53.86 52.92 52.80 52.84 52.56 53.01 53.59 52.90 53.83 53.40 52.94 52.06 48.14 45.88 46.08 45.85 45.25 43.99 42.45 41.14
69.33 69.31 69.49 69.06 62.93 59.78 57.98 53.71 45.95 46.25 45.02 45.76 50.89 59.22 54.50 50.76 52.95 51.32 49.49 50.78 51.24 51.94 57.14 56.20 54.64 55.14 55.04 54.98 54.00 54.18 55.83 56.39 55.00 48.99 46.95 45.95 44.97 44.98 43.72 43.97 43.02 42.27 42.14
68.93 69.20 68.91 66.10 64.63 62.46 60.43 58.53 53.49 48.88 44.96 43.64 43.96 50.05 50.72 47.57 46.75 44.41 43.32 44.63 48.13 52.85 56.46 56.22 55.28 53.93 53.60 53.40 54.13 53.57 51.02 51.30 48.75 46.94 45.89 44.76 43.68 43.36 44.31 42.68 42.23 42.58 42.21
69.76 63.00 68.80 67.53 66.09 64.88 63.64 60.92 58.05 56.16 55.40 52.43 44.02 44.80 42.64 42.83 42.89 43.13 43.90 49.06 52.61 52.03 54.30 53.17 52.45 53.11 51.70 50.51 49.17 48.43 47.79 46.37 45.08 42.79 41.64 41.31 41.17 42.68 42.15 41.71 41.76 41.02 41.04
69.03 68.83 68.97 68.43 67.71 65.31 65.45 64.54 61.20 59.19 56.81 51.86 47.65 45.50 42.17 41.40 42.02 43.49 44.94 54.42 53.11 51.93 51.61 51.61 54.94 52.73 50.49 50.29 49.50 48.77 46.82 45.04 42.72 41.60 40.92 41.65 43.56 41.38 40.93 41.30 41.66 44.11 43.51
68.34 64.87 65.94 67.28 65.79 66.18 65.48 65.16 62.70 61.55 55.20 53.06 52.53 50.32 46.62 46.39 48.40 49.04 50.34 52.00 52.43 52.95 53.59 52.87 54.19 52.92 50.45 49.83 49.09 47.55 45.76 44.50 43.09 42.79 42.56 42.59 41.56 41.59 40.69 41.21 41.63 40.64 41.32
65.02 62.91 62.98 63.72 64.02 64.14 62.81 60.83 62.88 60.46 57.30 55.69 55.93 52.18 47.90 51.84 52.15 51.64 51.62 52.89 53.31 54.08 53.63 52.75 52.34 51.42 50.67 49.86 48.87 46.51 44.46 43.28 41.50 41.68 41.43 40.53 40.79 40.98 41.56 41.76 40.77 41.68 41.69
64.08 62.06 61.88 61.45 62.33 61.52 59.97 59.30 59.11 60.03 59.02 58.35 56.94 51.55 45.89 53.27 54.73 54.62 54.59 54.61 55.40 54.33 55.42 53.83 53.30 52.37 50.74 49.44 47.73 44.89 42.58 41.03 40.50 41.34 40.87 40.66 40.69 41.11 41.55 40.69 41.23 41.55 40.65
61.37 61.54 60.93 60.26 60.23 58.27 58.90 58.40 57.61 57.71 58.43 57.16 53.91 51.42 50.64 52.93 55.56 55.33 55.47 55.72 55.43 54.98 54.54 53.91 52.96 52.30 50.60 45.91 43.98 42.47 40.92 39.63 41.29 41.40 41.04 40.68 39.68 39.98 40.87 40.94 40.91 41.01 39.14
61.55 60.92 59.92 59.43 59.23 57.70 57.24 56.93 56.50 55.33 57.83 56.63 54.52 53.80 53.48 54.66 54.83 55.09 54.81 54.37 54.52 53.91 53.86 51.72 52.39 49.65 48.04 46.73 42.25 39.60 41.11 40.40 39.75 39.13 38.62 37.77 37.76 39.79 40.71 41.39 41.26 40.37 39.94
60.52 60.37 60.30 58.85 58.94 57.84 56.95 55.86 56.04 57.40 57.33 58.50 57.18 56.44 56.25 55.30 54.62 54.66 54.90 54.03 53.19 52.28 50.87 50.96 50.43 51.67 49.53 41.29 38.25 36.12 35.27 35.57 35.38 35.98 37.27 38.24 38.23 38.64 39.68 40.27 39.26 39.99 40.52
58.88 58.83 57.65 57.61 57.63 57.58 56.27 55.79 54.88 56.02 54.71 55.14 57.06 57.84 58.06 55.89 55.41 54.68 54.17 53.60 52.90 52.34 52.20 51.17 50.43 49.77 48.04 42.16 39.05 34.70 31.59 34.02 35.05 34.02 34.63 35.25 35.99 37.77 40.20 40.47 40.41 40.82 40.70

GFSGL_sfc_wetblb_012.txt.gz
Wetbulb
73.93 73.90 73.87 73.47 73.21 73.35 72.49 72.59 72.92 71.80 70.97 71.59 71.30 71.07 69.66 67.94 67.20 66.29 64.89 64.98 63.48 63.96 64.42 63.35 62.91 62.49 61.64 61.72 61.79 61.09 60.23 59.19 56.61 57.72 59.10 59.68 61.09 60.08 60.98 61.55 63.54 63.51 63.76
74.28 74.29 74.10 74.30 73.98 73.04 72.69 73.04 72.37 72.28 71.36 71.56 71.27 71.59 70.55 68.97 67.14 67.01 64.78 65.09 64.76 63.39 62.67 62.64 62.13 64.38 64.19 62.06 62.67 62.07 61.60 60.35 58.76 57.48 58.91 60.21 60.48 61.32 61.32 61.32 62.87 64.55 63.60
74.29 74.17 74.55 74.16 74.07 73.59 72.83 73.21 73.10 72.33 70.95 71.17 70.85 71.38 70.97 69.55 67.96 67.23 66.28 64.97 64.07 64.78 63.95 62.60 62.54 63.46 62.06 61.84 62.55 61.61 62.21 62.80 61.55 59.39 58.74 60.54 60.72 60.46 60.34 60.37 60.48 60.72 62.28
74.72 74.54 74.15 74.46 74.54 74.49 73.94 73.31 72.98 73.32 71.41 70.97 71.17 70.75 71.20 70.31 68.56 68.25 66.86 65.35 64.91 64.69 64.67 64.49 63.81 64.24 64.01 63.46 63.11 63.64 63.36 62.36 62.70 61.55 60.90 59.92 58.86 59.68 59.41 58.70 58.56 58.25 58.76
74.19 74.56 74.31 74.91 75.14 75.04 74.54 74.06 73.37 74.21 72.26 71.48 70.01 70.54 70.13 70.11 69.42 68.07 67.56 65.95 64.84 64.40 64.55 64.63 64.81 65.97 66.05 64.67 64.54 62.82 61.94 62.53 62.51 61.14 59.61 57.90 56.92 56.58 56.56 57.24 57.26 57.48 58.13
74.26 74.24 74.92 75.16 74.91 74.79 75.14 74.64 73.55 73.21 73.45 71.25 70.20 69.51 69.53 70.21 66.50 65.87 67.67 66.71 65.84 64.59 63.77 64.02 64.96 67.12 66.26 65.73 64.76 63.90 63.95 63.13 61.73 59.87 57.20 56.04 56.46 56.14 56.84 56.80 56.22 54.92 53.64
74.11 74.76 74.82 74.75 74.39 74.49 74.79 74.64 74.30 73.16 72.54 71.91 70.44 70.16 69.70 69.67 64.20 64.09 65.98 67.04 65.80 65.11 64.07 64.13 65.07 66.39 65.27 65.38 63.51 62.99 62.75 63.17 63.02 60.79 57.99 57.42 56.34 56.66 56.86 56.20 55.58 55.12 54.52
73.62 74.21 74.88 74.52 74.16 74.39 74.51 74.36 74.22 74.27 72.89 72.64 71.35 70.86 70.10 69.64 62.91 62.32 64.89 66.96 66.14 65.20 64.98 65.00 65.85 65.51 64.41 63.67 63.08 63.07 62.42 62.10 63.03 62.67 60.69 60.50 58.85 59.56 58.56 58.41 57.06 55.30 53.84
72.43 73.39 74.04 74.43 73.68 73.87 73.61 73.98 73.98 74.20 73.74 73.18 71.98 70.67 70.00 69.51 60.21 59.86 63.46 66.38 65.95 64.47 64.73 65.49 66.29 65.36 61.58 60.61 63.19 60.63 60.36 61.12 61.20 59.66 59.63 59.41 58.71 58.18 58.98 56.74 54.71 51.72 50.82
71.60 72.63 73.96 74.39 73.59 73.32 73.60 73.74 74.22 74.39 73.80 72.22 70.82 70.27 66.99 67.95 58.03 57.93 60.91 63.65 63.97 63.75 64.80 64.89 61.60 62.41 59.29 58.23 62.00 59.96 59.25 59.90 59.12 56.86 56.47 56.65 57.60 56.81 57.38 56.20 54.15 51.44 49.75
72.21 72.41 72.76 73.87 73.58 73.69 74.09 74.31 74.41 73.29 72.57 71.31 69.15 67.07 66.76 66.58 64.41 57.82 56.41 63.41 62.90 62.76 62.54 63.08 63.64 58.86 55.98 55.35 56.68 59.27 59.17 57.24 55.93 52.75 52.84 53.38 53.35 53.01 53.62 54.69 54.32 53.74 51.29
71.27 70.91 70.89 72.49 73.11 74.45 73.85 73.41 72.78 71.47 70.64 69.62 67.81 66.53 65.84 66.22 60.53 55.60 54.99 58.15 60.21 62.77 62.68 61.86 59.99 54.00 52.11 54.64 57.34 56.44 52.96 53.72 52.15 51.31 50.33 50.42 50.73 50.15 50.02 50.53 50.06 51.75 52.99
69.18 70.61 71.78 73.02 73.92 73.76 72.39 71.59 70.19 69.92 68.65 67.02 66.62 64.40 64.17 64.88 62.09 55.23 54.16 54.85 58.29 63.03 63.12 59.15 52.29 50.11 51.56 54.08 53.65 52.78 52.71 50.75 49.61 49.38 49.26 50.09 50.34 49.87 48.78 47.38 47.36 46.24 45.09
72.58 73.67 73.40 72.35 71.28 71.19 70.64 70.36 68.92 67.79 66.78 65.80 65.31 64.95 64.83 64.38 62.25 59.21 56.46 55.96 55.89 58.25 57.70 55.47 54.85 55.04 53.68 53.48 52.64 52.51 51.52 50.11 50.42 50.14 49.80 50.26 49.45 45.60 45.17 45.38 43.74 42.81 40.61
72.60 72.10 71.45 70.10 70.03 64.69 57.71 63.92 67.07 64.04 65.42 65.65 65.00 65.18 64.48 63.58 62.41 57.81 56.50 58.65 58.99 55.85 53.95 53.27 52.13 51.76 51.30 51.17 51.06 51.40 50.62 50.04 50.78 50.51 50.65 48.96 44.68 44.14 44.21 43.13 42.20 40.34 39.40
70.14 69.96 69.10 64.40 62.09 60.50 58.87 55.11 47.50 46.40 47.50 51.56 54.64 61.77 56.26 56.16 50.29 48.30 47.21 47.03 47.39 49.96 54.13 52.43 51.37 51.67 51.72 51.70 51.56 51.64 51.82 53.44 51.76 50.91 47.19 44.46 43.20 43.55 41.76 41.60 40.86 39.63 38.95
70.00 68.79 65.56 63.86 63.52 63.49 61.82 58.55 53.63 48.76 45.36 44.53 46.67 49.65 52.60 52.11 47.76 45.76 44.86 45.40 46.67 51.39 55.06 54.47 53.76 53.51 53.58 53.34 53.33 52.41 51.89 51.39 48.91 45.72 44.53 43.50 42.00 40.99 41.19 41.13 39.88 39.40 39.42
68.06 60.45 65.75 64.46 62.84 62.73 62.06 59.87 57.81 57.53 56.85 52.98 44.51 44.98 42.97 45.04 45.40 43.96 44.04 48.64 52.46 52.34 54.68 54.66 53.88 52.21 51.46 49.96 49.43 47.60 46.20 44.28 42.37 41.41 40.62 40.14 39.18 39.81 40.96 39.48 39.01 38.04 38.86
67.97 66.85 65.78 64.49 63.85 62.28 61.28 59.86 58.04 56.90 56.17 50.82 48.02 46.39 42.58 41.39 41.97 43.11 46.98 54.07 52.85 52.45 52.04 51.58 51.16 50.55 49.23 47.75 47.01 46.33 45.05 43.80 42.27 40.53 39.42 39.54 40.94 40.67 38.95 38.83 38.92 42.35 41.61
66.53 63.52 66.20 65.52 63.96 63.69 62.68 60.64 59.54 56.97 53.83 51.92 53.42 51.44 46.04 48.22 50.21 50.29 50.94 52.66 52.62 51.95 51.69 51.14 50.83 49.11 48.33 47.75 46.90 45.44 44.38 42.93 41.84 40.85 40.39 39.73 40.21 39.74 38.36 38.59 39.47 38.66 38.36
63.34 63.52 63.44 65.40 65.08 64.93 64.84 62.85 61.60 57.72 55.90 54.63 54.57 50.86 46.64 53.59 51.33 50.74 50.40 51.46 51.80 51.87 51.92 50.71 50.07 49.69 49.16 48.62 47.41 45.22 43.95 42.70 40.54 39.36 39.57 39.81 39.00 38.69 38.49 39.11 38.38 38.67 39.25
62.32 62.78 62.97 62.75 63.30 63.12 62.96 62.90 62.62 59.67 57.71 55.44 53.50 48.39 43.58 51.27 51.74 51.59 50.97 51.75 52.29 52.82 52.59 50.90 50.04 50.54 48.88 48.36 47.12 44.85 43.51 41.71 39.29 39.31 39.35 38.47 38.51 38.58 38.84 38.63 39.08 38.85 38.93
61.71 61.25 60.38 60.15 60.51 58.89 59.08 59.35 61.23 59.76 57.96 56.31 53.90 50.91 49.87 51.71 53.29 52.92 52.70 52.69 53.36 52.72 52.08 52.51 53.18 51.03 50.21 49.66 47.35 43.25 40.62 39.39 40.74 40.01 39.45 39.13 37.95 37.32 37.59 38.40 38.49 38.84 37.41
60.66 59.99 59.85 59.11 58.49 58.67 58.31 57.72 57.70 55.27 58.28 56.65 54.39 52.75 52.56 53.06 53.69 54.04 54.26 53.84 52.55 51.92 52.03 51.86 50.38 49.11 45.89 44.68 41.50 39.29 39.61 40.39 40.02 39.95 39.26 37.43 35.83 35.54 37.00 36.98 37.77 37.98 37.40
59.25 58.97 58.95 58.30 57.87 57.09 56.83 57.00 56.22 55.30 55.29 55.16 54.01 53.24 52.72 53.28 53.93 53.79 53.79 52.84 52.24 51.67 50.80 49.72 47.29 45.48 44.62 43.71 41.75 39.02 36.73 36.02 36.10 35.00 35.24 35.98 36.38 36.13 36.22 36.81 38.19 37.39 38.58
58.17 58.14 58.27 58.41 58.04 57.22 56.13 55.31 54.41 54.92 56.52 56.48 55.66 54.98 54.45 54.62 54.29 53.91 53.69 52.53 51.40 50.63 49.61 49.11 48.47 46.75 42.76 40.26 38.77 36.49 32.06 33.30 35.27 34.06 34.94 34.23 34.09 34.26 36.20 37.81 39.04 38.06 37.48

GFSGL_sfc_wetblb_015.txt.gz
Wetbulb
70.97 71.57 71.70 72.10 72.24 72.07 71.05 71.37 71.43 71.32 71.23 71.53 71.53 71.05 69.61 67.46 66.77 65.78 64.68 63.80 63.13 63.47 63.48 61.98 61.23 61.23 60.49 60.79 60.42 59.76 58.46 57.04 55.52 58.17 58.30 58.59 59.75 60.64 60.59 60.79 61.71 61.31 62.11
71.41 71.71 71.48 71.82 72.10 72.37 71.55 71.38 71.84 71.42 70.97 71.30 71.14 70.99 69.81 68.17 66.87 66.06 65.39 65.25 63.31 61.96 63.25 62.67 62.29 63.03 61.31 61.52 60.60 60.87 59.55 59.14 57.83 56.24 58.87 60.74 60.28 61.43 60.39 60.53 61.71 63.37 62.44
71.65 71.89 71.94 71.90 71.65 71.97 72.39 72.24 71.88 72.07 70.53 71.03 70.75 70.54 69.82 68.56 66.71 66.63 65.76 65.34 64.95 63.66 62.41 62.35 62.34 61.62 60.56 61.01 60.83 61.21 60.45 61.03 59.47 58.47 59.15 59.47 60.03 60.28 60.66 59.46 59.47 59.90 61.41
71.82 72.04 71.94 72.10 72.42 72.11 72.30 72.31 72.34 72.15 70.98 70.38 70.51 70.78 70.74 69.74 68.54 67.20 66.36 65.34 64.80 64.77 64.57 63.25 62.16 62.03 61.38 61.14 60.62 60.88 60.97 60.28 60.44 59.38 60.08 59.14 59.09 60.46 58.94 57.75 57.38 57.49 58.09
71.35 71.91 72.13 72.71 73.19 73.04 72.64 72.14 72.16 71.92 71.61 70.87 70.01 70.29 70.77 70.31 69.38 67.86 67.17 66.06 65.34 64.65 64.45 64.23 63.41 64.04 64.85 63.53 62.59 61.74 61.33 60.03 59.85 59.81 60.27 58.75 58.12 57.54 55.90 56.46 56.20 56.44 57.02
71.69 71.83 72.47 73.08 73.18 73.23 73.06 72.58 72.02 71.69 71.73 70.46 70.03 69.70 69.30 70.35 66.47 65.79 67.98 66.97 66.10 65.27 64.10 64.24 64.00 66.05 65.57 64.50 63.97 64.08 62.93 60.83 60.45 58.67 58.87 57.45 56.90 56.08 55.70 56.00 55.10 54.04 53.94
71.72 72.39 72.73 72.83 73.01 73.27 73.42 72.94 72.22 71.56 72.09 70.17 69.73 69.56 69.25 69.43 64.61 63.98 65.96 67.33 66.25 65.56 65.65 65.20 63.83 65.38 65.10 65.30 63.80 63.32 62.78 62.68 62.36 59.97 58.68 58.74 57.72 58.66 56.58 54.73 54.40 54.50 54.03
71.90 72.18 72.94 73.10 72.96 73.40 73.55 73.19 73.01 72.29 72.46 70.48 69.84 69.31 69.45 69.52 61.85 62.15 64.97 67.31 66.72 66.79 66.10 65.21 63.26 63.11 64.00 64.79 63.78 62.66 61.25 61.65 62.28 61.76 60.25 61.25 60.45 59.14 57.68 57.42 56.12 54.86 53.84
71.42 71.87 72.75 73.49 73.09 73.50 73.24 73.41 73.81 73.35 72.13 71.81 70.99 70.26 69.99 69.66 60.46 60.44 62.86 67.10 66.74 66.41 66.41 63.93 63.93 63.70 62.44 60.80 62.65 61.09 60.61 61.37 61.24 59.80 59.18 58.54 57.93 57.69 58.61 58.39 56.82 54.33 50.95
71.93 72.40 73.18 73.84 73.40 73.16 73.44 73.69 74.42 74.36 73.09 72.68 72.01 71.41 68.54 69.89 58.57 58.57 62.75 67.33 66.45 64.66 62.39 63.48 62.40 64.47 58.51 58.15 63.04 60.81 59.09 60.24 60.04 58.03 56.93 54.65 54.83 54.74 57.04 55.94 54.70 52.18 48.96
72.06 72.97 73.19 73.90 73.89 73.88 73.72 73.94 74.09 74.12 73.62 73.01 72.53 71.96 71.08 68.79 59.48 56.84 59.71 66.18 64.89 62.94 62.44 62.58 63.41 57.74 54.82 54.05 56.92 61.29 59.88 57.94 57.39 54.18 52.05 51.90 51.78 51.75 51.94 52.28 53.08 52.53 49.99
70.99 71.32 72.05 72.93 73.84 73.51 73.35 73.62 73.84 73.83 73.21 72.63 72.00 68.25 68.52 65.47 59.85 56.08 57.08 59.24 60.55 62.55 61.72 63.13 62.92 55.74 52.07 51.32 54.20 55.25 54.04 54.91 52.84 51.00 49.73 49.38 49.87 49.68 48.98 49.14 48.10 50.36 52.54
70.08 70.15 70.53 72.31 73.21 73.09 72.94 73.27 73.30 73.31 72.46 70.95 68.36 66.73 66.08 66.23 65.02 55.42 53.97 55.01 57.39 61.94 63.40 60.40 53.14 49.51 49.51 52.41 54.77 54.21 52.84 51.77 50.04 49.16 48.57 48.98 50.22 48.98 47.09 45.91 46.21 44.57 43.56
68.48 69.34 69.99 71.21 72.05 72.84 73.44 73.80 73.25 72.41 71.35 69.11 67.64 66.21 65.17 64.83 62.98 57.83 55.52 57.75 57.10 61.17 56.78 54.87 54.67 54.39 53.99 54.16 52.86 52.39 51.59 50.18 49.88 49.27 48.59 48.93 49.02 45.70 44.19 44.05 42.68 41.56 39.61
66.50 67.64 68.98 70.82 72.13 70.48 61.93 68.88 72.13 68.20 68.00 67.57 66.91 66.28 65.10 63.88 62.84 56.82 55.88 57.94 59.48 57.00 55.57 54.25 54.07 52.92 51.96 51.13 50.63 50.65 50.21 49.77 49.77 49.16 49.26 49.19 46.82 43.42 43.12 42.11 40.95 39.27 38.06
69.05 71.09 71.24 71.61 63.50 61.22 60.16 57.36 50.07 53.70 55.33 54.24 54.79 61.97 62.20 56.40 49.35 48.44 47.54 47.72 47.72 49.47 54.53 53.49 52.78 52.31 52.05 50.91 50.47 50.15 50.03 51.69 49.27 49.57 49.52 47.28 43.65 42.09 41.77 40.42 39.83 38.04 37.41
68.84 71.09 67.59 63.43 64.07 65.20 66.31 64.61 59.94 55.49 48.37 44.93 48.62 52.07 53.88 52.97 47.35 45.36 44.45 45.00 46.09 52.24 56.04 53.25 52.69 51.74 51.43 51.41 51.39 51.07 51.19 51.31 50.83 49.92 45.35 43.42 42.76 40.97 40.04 39.79 38.32 37.89 37.26
58.98 57.14 65.76 65.72 66.42 66.24 65.43 63.97 61.83 61.92 62.06 57.63 46.54 46.49 44.82 45.36 43.55 42.46 43.19 47.28 52.69 53.49 53.96 53.53 53.09 52.71 52.51 52.13 51.07 50.86 48.42 46.40 45.02 43.49 41.12 39.96 38.80 38.45 39.80 38.26 37.66 36.20 36.82
61.86 63.57 64.63 64.74 64.12 61.64 61.22 60.36 59.89 61.62 58.74 52.31 50.48 47.36 43.24 41.88 42.46 43.00 46.79 58.83 57.30 54.63 53.71 53.63 53.70 52.95 51.52 49.69 48.54 46.82 45.16 42.85 41.75 40.57 39.87 38.59 39.26 40.02 37.99 37.75 37.25 41.00 40.39
64.29 60.73 62.72 62.69 61.36 60.81 60.12 59.16 58.52 58.20 56.28 55.11 55.78 52.44 48.14 51.69 55.30 55.16 53.29 54.58 54.43 54.25 53.27 53.06 51.23 50.35 48.82 47.38 46.28 45.03 44.12 43.14 41.33 40.03 39.07 38.26 38.59 38.80 38.26 37.28 37.71 37.39 36.86
65.44 64.66 61.87 63.59 62.10 61.14 60.61 60.04 58.61 56.82 55.80 56.36 55.90 52.28 48.66 58.85 57.16 55.88 54.11 53.42 52.96 52.65 51.98 51.58 50.13 48.64 47.75 47.15 45.92 45.31 46.32 42.77 41.31 40.16 38.58 38.88 38.99 37.73 37.19 37.47 37.47 37.45 37.38
62.50 63.07 63.41 63.23 63.19 62.60 61.62 60.91 59.10 58.43 57.53 56.62 53.62 48.13 45.13 53.79 54.58 53.51 52.60 52.68 52.51 52.16 52.01 50.83 49.99 49.09 49.07 48.52 47.34 45.39 43.61 42.29 40.62 38.85 38.82 38.09 37.37 37.39 37.50 37.39 37.69 37.30 37.26
60.49 59.80 59.73 60.46 60.68 58.49 60.96 61.81 60.67 58.83 57.34 55.30 52.91 50.31 50.19 51.89 52.55 52.51 52.52 52.10 51.87 51.72 51.81 50.42 49.32 50.12 50.64 50.60 49.72 48.47 44.43 42.47 40.87 39.37 38.84 37.74 37.46 36.86 36.36 36.92 36.91 36.89 36.40
59.14 59.00 58.63 58.29 59.75 59.80 59.38 59.19 60.04 55.82 57.92 56.12 54.73 52.67 52.61 52.60 52.87 52.58 51.99 52.12 52.29 52.14 51.57 51.41 52.76 51.75 49.46 48.05 47.93 46.33 43.24 40.08 39.80 39.69 39.43 38.25 37.01 35.58 35.11 35.38 36.15 37.21 36.13
59.04 58.96 57.87 56.56 57.34 57.71 57.49 58.18 58.53 57.86 58.21 56.72 54.40 53.46 52.88 53.09 53.46 53.19 52.98 52.68 52.26 51.64 50.44 50.29 49.15 48.11 46.29 43.74 41.64 42.01 39.15 36.77 38.83 37.19 36.86 35.55 34.44 34.35 34.21 34.84 37.22 37.18 36.87
57.80 58.39 57.74 57.06 55.25 55.15 55.32 54.78 55.53 55.98 56.08 55.44 55.09 54.17 53.06 52.75 53.03 53.36 52.80 52.37 51.86 50.78 50.07 48.77 47.20 46.07 44.21 42.37 41.50 38.51 33.08 34.17 35.82 33.35 34.39 34.05 33.66 32.66 33.21 36.23 37.81 37.92 36.94

GFSGL_sfc_wetblb_018.txt.gz
Wetbulb
71.31 71.76 71.93 71.91 72.06 72.28 71.68 71.29 71.26 71.83 72.02 72.44 72.62 72.45 71.59 70.11 68.85 67.51 66.79 66.23 65.90 66.02 65.35 64.45 64.62 64.84 63.42 63.39 63.83 63.36 62.26 61.11 60.24 62.30 62.30 63.98 64.43 65.62 66.01 65.86 65.70 65.99 65.99
70.54 71.71 71.86 72.15 72.25 71.98 71.57 71.88 71.88 71.36 72.03 72.30 72.33 72.38 71.71 70.35 69.11 68.09 67.02 66.70 65.78 65.15 65.40 64.91 64.49 64.00 64.47 64.05 63.70 64.16 63.25 63.25 63.39 62.51 62.88 63.73 63.98 65.06 65.78 65.80 65.33 65.69 65.96
70.33 70.79 71.50 71.73 71.86 71.65 71.80 72.11 71.97 71.94 71.59 72.01 72.15 71.92 71.45 70.67 69.27 68.87 68.15 67.30 66.46 66.01 65.61 65.66 65.48 65.00 64.71 64.38 64.44 63.76 64.27 63.94 63.40 63.03 62.75 63.72 63.76 64.03 64.56 64.70 64.18 64.59 64.20
70.34 70.15 70.44 71.18 71.53 72.01 72.28 72.08 71.81 72.25 71.58 71.75 71.82 71.89 71.70 71.10 70.04 69.30 68.44 67.64 67.32 66.84 65.77 65.48 65.17 64.89 64.64 64.09 64.23 64.59 64.68 64.55 63.98 63.45 63.28 63.91 63.79 63.28 63.21 62.26 61.93 62.57 62.64
70.21 70.14 70.38 71.29 71.60 71.88 72.27 72.34 72.31 72.04 72.14 71.60 71.70 71.66 71.87 71.16 70.38 69.21 68.77 67.77 67.17 66.79 66.13 65.79 65.42 65.24 65.08 64.46 64.25 64.50 64.68 63.91 63.66 63.56 63.17 62.86 61.81 61.72 61.51 61.83 60.83 61.32 61.80
69.96 70.05 71.05 71.48 71.69 71.63 71.77 72.06 72.34 72.11 72.31 71.56 71.16 71.30 71.09 71.31 67.02 65.75 68.35 68.44 67.86 67.17 66.18 65.84 66.78 66.38 65.75 63.50 63.35 63.85 64.93 64.52 64.00 63.71 63.23 62.39 63.06 61.46 61.45 60.65 59.95 59.11 59.42
69.97 70.57 71.21 71.59 71.63 72.19 72.31 71.83 71.61 71.60 72.08 71.32 71.24 71.17 71.13 71.57 64.28 64.48 66.15 69.45 68.52 67.72 67.27 66.49 66.02 66.73 65.80 66.61 63.75 63.20 63.04 62.56 63.84 65.37 63.84 62.71 62.10 62.02 61.77 59.80 58.91 60.33 60.20
69.91 70.40 71.34 71.73 71.80 72.22 72.51 72.23 72.01 71.83 71.60 71.47 71.15 71.02 70.87 70.78 63.01 62.43 64.95 70.24 68.84 67.67 67.33 67.35 67.14 66.87 66.44 66.51 66.86 65.84 65.51 65.17 65.15 65.44 65.35 65.07 64.37 63.98 63.45 62.69 61.63 60.66 59.38
70.21 70.53 71.29 71.88 71.85 72.29 72.37 72.34 72.60 72.19 71.73 71.63 71.75 70.80 70.64 70.70 61.55 60.27 63.79 69.36 68.15 67.27 67.70 67.60 67.18 66.96 62.30 61.23 66.31 65.64 64.84 64.42 60.75 59.93 60.53 59.31 58.22 58.22 61.33 60.83 58.84 57.36 57.14
70.69 71.25 72.07 72.57 72.35 72.17 72.82 72.99 73.33 73.07 72.45 72.58 71.60 71.20 68.67 71.11 59.15 58.38 63.72 68.58 67.00 66.48 67.40 67.36 62.06 64.86 58.33 58.15 66.44 65.55 62.57 62.18 63.69 62.17 60.39 57.97 57.53 57.22 57.89 61.25 59.57 57.03 56.42
71.16 72.16 72.42 72.97 72.99 72.92 73.28 73.67 73.66 73.47 73.18 72.61 71.66 71.61 71.60 70.32 65.35 57.11 59.10 68.28 67.74 67.04 65.38 64.51 65.40 58.17 55.29 54.76 59.02 64.78 64.03 63.14 60.77 61.41 58.42 57.06 56.97 57.35 57.18 57.92 58.99 57.84 55.83
71.41 71.91 72.18 72.97 73.31 73.33 73.46 73.42 73.68 73.77 73.19 72.15 71.65 71.72 72.21 71.50 60.60 55.50 58.22 62.23 63.73 66.31 65.12 65.60 64.90 55.34 52.80 52.98 56.05 56.59 53.41 57.71 59.20 57.18 55.95 55.46 56.53 55.66 55.65 55.41 55.23 56.78 57.73
69.69 70.55 71.97 72.85 73.29 73.89 73.59 73.44 73.18 73.43 72.77 71.89 70.94 71.22 70.04 66.24 63.15 56.03 56.25 58.60 59.46 64.72 65.60 62.75 55.16 50.25 50.07 52.36 54.23 53.43 54.53 58.83 56.73 55.49 54.93 54.99 56.18 55.86 54.91 53.29 53.42 52.27 52.24
66.94 68.50 70.04 71.51 72.11 73.76 73.73 73.76 73.48 73.07 72.72 71.59 71.30 69.86 68.26 65.68 64.23 62.46 62.76 60.86 57.53 59.95 57.60 57.64 55.73 55.97 56.37 57.03 56.43 56.25 58.14 57.02 56.36 55.68 54.76 54.88 55.21 54.58 52.91 51.75 51.45 49.96 49.13
68.67 66.92 68.45 69.79 70.13 72.81 73.25 72.74 73.19 74.08 72.02 72.60 71.51 68.78 66.32 65.09 63.87 58.02 59.09 61.89 62.12 58.39 57.56 58.61 58.45 58.14 57.56 57.24 56.56 56.02 55.52 55.47 55.09 54.70 54.74 54.75 54.65 52.64 51.22 50.15 49.20 48.31 47.81
66.24 68.69 67.42 69.24 70.31 71.94 64.43 60.35 50.57 56.79 52.62 53.35 55.34 62.73 63.96 56.25 51.90 52.80 50.99 48.82 49.36 50.63 59.81 59.97 58.75 58.41 57.98 56.48 55.92 55.08 54.80 54.69 55.24 55.02 55.02 54.89 54.39 52.15 50.07 48.14 47.86 47.48 46.66
61.64 68.53 69.69 68.10 68.24 64.33 66.16 64.73 60.29 55.48 48.63 50.45 52.08 54.25 56.07 56.61 52.62 47.00 45.19 46.82 48.82 52.49 60.15 59.91 59.76 58.48 57.29 56.33 55.87 55.53 55.30 55.59 55.76 54.73 54.82 54.43 52.00 49.60 47.77 47.50 47.15 46.15 46.17
62.09 56.97 66.70 66.92 66.29 67.18 65.93 65.75 64.20 63.61 62.11 60.67 51.53 51.72 50.99 48.27 45.37 44.65 44.83 48.22 54.43 57.21 61.44 59.70 58.93 57.72 56.89 56.35 55.72 55.74 56.04 55.30 55.38 55.03 53.71 51.87 49.23 47.83 46.34 46.69 45.96 45.59 45.62
61.99 64.71 64.73 64.41 64.15 66.36 66.41 65.37 64.28 63.39 62.35 60.57 53.99 49.68 45.07 42.47 42.65 44.07 47.91 60.79 59.27 59.73 59.58 59.13 58.92 57.87 57.30 57.07 56.50 55.93 55.30 53.88 53.07 51.70 49.64 47.71 46.88 46.53 47.21 46.53 46.05 42.80 44.15
62.63 59.67 60.92 62.40 61.67 60.24 61.35 61.81 62.14 60.23 57.92 57.50 59.14 53.94 48.79 52.32 54.01 54.57 60.25 60.94 60.72 60.46 58.83 58.49 58.00 57.93 57.51 56.33 54.41 53.76 52.45 50.03 49.59 48.93 48.60 47.25 46.84 47.54 46.95 46.20 45.79 45.95 46.05
64.48 63.58 60.77 62.70 61.34 60.69 60.17 60.13 60.61 60.16 59.66 60.45 59.08 54.64 51.90 61.26 58.91 59.04 58.03 59.33 59.17 59.06 58.69 58.19 56.96 57.01 55.95 54.48 53.36 52.34 51.97 50.88 50.04 49.44 48.30 47.19 46.49 45.96 46.66 46.22 46.37 45.70 45.69
63.49 63.99 63.73 62.33 62.15 61.27 60.35 60.04 59.66 59.64 59.70 58.11 54.86 50.86 48.82 62.69 60.81 59.94 59.53 58.90 58.84 59.36 59.25 58.37 56.18 55.44 54.53 53.70 53.03 51.87 51.25 50.97 49.82 49.15 48.12 46.76 46.30 46.20 45.65 45.82 45.82 45.72 45.79
61.90 61.96 61.57 61.93 62.27 59.10 60.69 60.36 59.84 59.53 58.41 56.69 54.16 53.82 56.13 58.03 58.94 58.48 58.48 58.37 57.60 57.03 56.42 56.09 55.34 53.95 53.79 53.52 53.15 52.94 51.19 49.90 50.34 49.20 47.29 46.15 45.51 45.44 45.48 45.53 45.34 45.11 45.45
61.11 60.76 60.61 60.32 60.11 61.06 61.71 61.03 59.40 54.48 57.09 56.21 54.48 53.91 55.67 56.30 57.44 57.38 57.43 56.91 56.50 56.22 55.77 55.05 55.19 54.94 53.87 53.70 53.30 52.77 53.44 52.46 50.27 48.67 47.85 46.51 45.69 43.12 44.89 44.27 44.27 44.67 45.39
59.00 58.69 58.45 58.13 57.81 58.02 58.98 60.05 59.80 59.79 58.42 57.27 56.17 54.92 55.38 55.38 54.47 56.02 56.53 56.39 56.41 56.24 56.03 56.01 55.44 55.38 55.06 54.00 53.07 51.92 45.24 38.33 46.95 42.03 46.73 46.71 45.76 44.37 42.92 42.74 43.05 44.83 45.18
56.01 57.50 56.93 56.49 55.65 55.32 55.71 56.32 56.57 57.41 56.57 56.85 55.91 55.73 55.63 55.62 55.78 55.58 55.32 54.46 55.80 55.82 55.61 55.13 55.26 54.79 54.25 53.31 52.03 44.44 33.42 34.39 40.62 36.88 45.23 44.93 43.26 42.41 42.03 42.31 43.81 45.44 45.58

GFSGL_sfc_wetblb_021.txt.gz
Wetbulb
74.81 75.19 75.12 75.30 75.46 75.80 75.85 76.28 76.41 76.64 76.57 76.32 76.39 76.24 76.32 76.23 76.00 75.18 74.86 73.99 71.82 71.60 70.78 70.41 70.43 71.02 69.20 69.13 69.09 68.77 68.00 67.02 64.36 66.55 67.67 69.36 69.55 69.72 69.45 70.37 69.88 70.11 69.45
74.76 75.07 75.01 75.65 75.51 75.38 75.52 76.12 76.68 76.51 76.65 77.33 77.18 76.27 76.34 76.39 76.02 74.84 74.35 73.75 72.26 71.39 71.10 70.27 69.62 69.21 69.75 69.89 68.73 69.27 68.59 68.66 66.55 66.57 68.18 67.83 68.81 69.86 70.13 70.25 69.35 68.66 69.13
74.52 74.58 74.95 75.31 75.46 75.26 75.58 76.13 76.54 76.62 76.53 75.90 76.90 76.82 76.01 75.83 75.53 75.22 75.01 74.33 73.05 72.54 71.79 70.40 69.69 69.38 68.68 68.64 68.60 68.05 67.79 68.25 67.77 66.33 66.35 68.60 68.63 68.86 68.91 69.51 69.51 69.28 68.10
73.65 74.14 74.37 74.91 75.28 75.53 76.02 76.08 76.34 76.65 76.40 76.65 76.97 76.68 76.42 75.71 75.63 75.13 74.73 74.65 73.80 72.90 72.65 71.46 70.49 69.46 69.21 68.87 68.91 68.85 68.53 67.67 68.02 66.92 66.54 66.72 67.47 69.04 68.10 66.64 66.28 67.58 66.52
73.68 73.47 74.02 75.24 75.83 75.95 75.83 75.99 76.31 76.48 76.23 76.57 76.61 76.67 76.67 75.73 74.90 75.28 74.67 74.33 74.06 72.98 72.63 71.61 70.86 69.88 67.75 68.39 68.93 68.99 69.04 67.78 67.11 66.28 65.75 65.98 65.80 66.38 66.30 66.73 65.69 65.97 66.51
73.63 73.33 74.21 75.06 75.65 75.57 75.87 75.98 76.21 76.09 76.27 76.29 76.02 76.31 76.14 75.04 69.07 67.66 72.94 74.55 73.86 73.68 72.71 71.96 71.26 67.89 67.01 64.75 64.68 66.05 68.70 68.31 67.78 66.68 66.23 65.66 68.14 67.62 67.15 65.83 65.18 63.69 62.04
72.09 73.85 74.60 74.94 74.99 75.28 75.71 75.89 75.43 75.55 75.93 75.78 75.90 76.11 75.87 76.26 65.39 65.28 67.35 74.67 74.04 73.94 73.55 72.55 71.03 70.47 68.33 69.18 63.98 63.36 64.00 64.07 66.06 69.84 67.90 67.57 67.38 68.53 67.67 65.63 65.58 64.66 63.96
73.35 73.90 74.53 74.70 74.51 75.17 75.07 75.23 75.56 75.79 75.45 75.54 75.46 75.84 75.92 75.77 64.02 63.30 65.75 73.74 74.51 74.48 73.61 73.12 71.96 71.56 70.59 69.70 69.96 68.65 68.43 68.92 67.94 68.15 69.41 70.13 69.39 69.24 67.79 67.57 67.55 66.31 65.41
72.94 73.46 74.30 74.62 74.54 74.98 74.68 74.71 75.30 75.45 75.48 75.43 75.90 75.78 75.39 75.85 62.90 61.34 65.06 72.68 73.98 73.84 73.51 73.15 72.47 71.84 66.40 62.63 68.29 69.51 69.60 69.79 64.24 61.71 62.47 61.15 59.83 60.52 63.83 66.01 63.65 62.20 61.33
73.27 73.77 75.07 75.68 75.33 74.98 75.38 75.58 75.88 75.81 75.37 75.23 75.62 76.02 72.31 75.53 62.40 59.79 64.26 73.35 73.20 72.21 72.80 72.51 63.87 69.78 59.13 59.50 67.67 69.65 68.56 68.98 68.13 65.91 65.38 59.00 61.12 60.75 59.77 65.92 63.47 59.88 59.15
73.87 74.75 75.48 75.78 75.50 75.95 76.17 76.14 75.99 75.81 75.29 75.35 75.19 75.46 75.77 74.17 74.24 58.63 58.83 73.84 73.01 70.43 70.63 70.01 71.63 59.38 55.78 55.72 59.70 70.60 68.11 69.11 65.07 66.40 64.17 63.79 63.93 62.83 61.84 62.50 63.38 61.16 58.94
74.50 75.04 75.84 76.16 75.67 75.76 76.33 76.35 76.38 75.49 74.72 74.57 74.52 74.42 74.42 75.62 65.22 56.78 57.10 63.78 67.14 71.76 70.59 69.19 68.05 56.34 54.34 54.43 58.41 59.69 56.04 61.92 66.85 65.65 64.14 63.05 61.32 60.80 60.78 60.94 61.91 61.78 62.00
74.23 75.06 75.61 76.35 76.47 76.73 76.27 76.03 75.28 75.30 73.70 73.19 72.43 72.00 71.75 72.91 73.28 56.30 56.40 59.31 61.22 70.35 69.77 65.57 58.53 53.82 53.58 54.22 55.92 54.75 56.56 66.44 65.52 64.09 63.03 61.67 61.34 61.24 61.45 60.19 59.90 59.84 59.31
73.79 74.69 75.48 75.24 75.73 76.70 75.87 75.93 75.41 74.65 73.13 73.40 72.65 72.10 71.64 71.75 68.59 62.65 62.78 63.18 59.24 63.32 61.94 60.99 58.51 58.65 58.97 61.71 58.60 58.36 66.48 66.36 64.85 63.82 62.68 61.50 61.05 59.87 59.37 59.37 58.25 57.77 55.76
71.35 73.01 73.20 73.88 74.50 75.67 76.43 76.42 75.84 76.53 74.17 74.29 74.40 73.54 71.97 67.19 64.48 59.70 61.65 64.16 63.05 58.45 59.68 61.11 61.33 62.46 62.16 63.48 63.39 64.52 64.33 63.39 62.58 62.41 60.91 59.53 59.52 59.60 59.14 59.04 58.04 56.66 53.59
68.12 68.42 69.00 70.82 72.24 73.49 74.85 74.77 53.46 52.42 56.16 56.54 57.12 67.33 67.80 58.57 50.74 50.74 52.01 52.01 50.74 53.28 61.45 60.72 60.66 62.19 62.42 62.50 61.90 62.41 62.24 60.80 62.35 60.95 60.18 60.11 59.39 59.06 58.85 57.46 56.17 54.26 53.13
67.79 67.42 68.37 68.09 70.73 70.64 73.15 72.68 70.01 61.98 48.02 50.74 52.01 53.10 52.73 53.44 52.01 51.10 50.92 50.74 51.10 54.73 63.64 62.19 62.16 62.05 62.97 62.99 62.82 60.98 61.27 61.93 62.54 60.47 60.34 60.15 60.23 59.90 55.69 55.74 54.26 53.52 51.58
66.83 57.75 67.93 63.49 63.20 65.69 67.63 69.14 70.06 64.82 65.81 58.75 50.18 54.32 50.19 49.29 50.38 49.47 50.38 51.63 53.88 60.08 63.55 62.13 63.26 63.15 63.26 62.73 62.49 61.85 62.30 61.35 60.61 60.39 60.54 60.76 59.84 58.04 55.41 54.19 53.23 51.61 50.87
66.66 66.88 66.63 64.18 62.63 60.29 60.54 59.76 59.87 64.44 66.36 60.74 56.00 52.78 50.99 47.11 46.03 46.39 47.48 61.60 60.07 62.31 63.32 64.22 65.49 65.04 64.30 64.19 62.94 62.26 61.93 60.97 60.82 60.79 60.51 59.44 58.17 55.87 54.28 53.28 52.02 46.73 47.45
67.06 59.64 62.88 67.59 65.85 65.10 64.83 63.38 58.83 59.66 60.25 60.82 60.72 56.80 52.70 52.21 54.23 54.33 60.71 61.95 62.38 63.88 65.51 65.25 65.66 64.66 65.06 64.45 62.79 61.58 61.19 59.77 59.91 59.97 58.70 57.34 55.88 54.83 53.44 52.13 51.35 50.26 50.15
65.16 65.30 61.37 66.01 65.25 64.87 63.73 64.16 62.41 60.57 60.01 60.48 61.04 56.50 50.38 60.15 57.84 59.06 62.58 61.93 62.87 64.75 65.86 65.96 64.88 65.26 64.76 63.08 61.62 60.68 60.26 59.71 59.34 58.34 57.25 56.36 55.31 53.48 53.06 52.34 51.51 50.71 50.20
64.68 64.77 64.27 63.76 63.71 62.84 63.61 63.05 61.88 61.63 60.98 59.39 56.02 53.03 48.20 61.06 60.23 61.67 63.15 64.84 65.59 66.45 66.45 65.36 63.99 63.74 63.16 62.14 61.31 60.94 60.16 59.25 58.29 57.68 57.17 56.10 54.72 53.30 52.37 51.61 51.02 50.36 50.15
65.81 64.52 63.00 62.95 63.33 59.69 62.28 61.63 61.19 59.94 57.80 57.06 57.10 58.51 62.12 62.05 61.67 62.22 63.16 62.70 63.61 63.78 64.71 63.68 63.27 63.12 63.18 62.24 62.17 61.64 60.07 59.07 58.46 58.43 57.10 55.59 54.08 53.05 52.18 51.07 50.49 49.83 49.22
62.74 63.60 63.64 63.84 63.62 63.28 63.76 62.33 60.85 55.98 59.01 59.38 60.46 61.56 62.37 63.51 62.41 61.08 61.14 62.29 62.33 63.52 63.43 63.78 63.42 62.74 61.69 61.31 60.58 60.69 60.84 60.23 59.72 58.84 57.88 55.64 54.00 50.79 52.02 51.05 50.40 49.52 48.27
58.84 57.42 59.74 60.15 59.84 59.66 61.79 62.23 61.46 61.19 60.61 60.38 58.89 59.39 59.69 59.65 61.15 61.46 62.84 62.67 62.48 61.84 61.70 62.09 61.67 61.61 60.92 60.68 60.36 60.21 49.41 43.30 56.07 50.06 56.30 54.97 53.51 52.56 50.91 50.32 49.64 48.18 47.73
56.32 54.49 53.50 54.28 57.13 58.03 58.31 58.07 57.98 57.44 56.70 56.40 57.56 58.77 60.04 60.82 59.87 61.12 61.42 62.63 62.59 62.42 61.63 61.33 61.30 61.45 61.35 60.82 59.78 48.69 35.61 36.57 47.09 40.78 53.54 52.85 51.70 51.13 50.05 49.17 48.22 47.52 47.78

GFSGL_sfc_wetblb_024.txt.gz
Wetbulb
78.07 78.56 78.50 78.17 78.38 78.67 78.69 79.71 80.15 79.39 79.97 78.99 78.84 77.93 77.61 77.93 78.39 78.36 78.38 77.55 76.59 76.01 74.82 73.67 73.00 73.33 70.03 70.16 70.30 69.61 68.55 68.01 65.51 67.07 68.78 70.91 71.61 71.55 70.85 71.01 71.74 71.36 70.52
77.77 78.80 78.72 79.15 78.96 78.17 78.87 79.42 80.19 79.78 80.08 79.74 79.02 78.41 77.84 77.56 78.65 78.05 77.46 76.71 76.53 75.73 74.96 74.02 73.22 71.80 72.10 73.01 70.40 72.08 70.94 71.07 67.49 68.00 70.02 68.74 70.83 72.07 72.37 72.05 71.11 70.35 70.31
77.54 76.89 77.18 77.80 78.12 78.51 79.25 79.15 79.90 79.90 79.98 78.40 79.31 79.55 78.68 77.90 78.29 78.26 78.13 77.57 76.80 76.45 75.93 74.93 73.90 72.52 71.60 70.94 70.88 70.11 69.74 69.44 69.84 67.49 67.39 69.52 69.57 70.56 70.94 71.82 71.53 71.77 70.43
75.81 76.28 77.40 78.33 78.38 78.74 79.50 79.47 79.82 80.07 80.01 79.74 79.94 80.18 79.32 78.64 78.22 77.73 77.75 77.66 77.50 76.94 76.84 75.96 74.97 73.16 72.15 71.49 70.60 70.89 70.75 69.10 70.12 67.90 67.24 67.19 68.57 70.72 69.48 67.47 68.27 70.36 68.93
76.78 75.86 77.49 78.68 79.44 79.50 79.34 79.64 79.83 79.92 79.78 80.12 79.95 80.00 79.92 78.29 77.07 78.72 78.42 77.44 77.87 77.52 77.37 76.74 75.94 73.50 69.48 70.11 70.59 72.04 72.91 69.39 67.54 67.52 66.95 67.07 66.95 67.39 67.64 67.82 66.91 67.40 69.07
77.43 76.79 78.01 78.81 79.26 79.25 79.59 79.51 79.70 79.71 79.76 79.76 79.39 79.66 79.37 77.92 70.60 68.67 75.59 78.31 78.48 78.25 77.16 76.95 76.49 71.27 69.89 66.00 65.88 66.69 71.06 71.32 70.78 67.46 67.12 67.54 69.31 68.77 68.73 67.51 66.70 65.60 63.85
76.83 77.73 78.32 78.72 78.69 79.12 79.42 79.53 79.09 79.21 79.57 79.38 79.34 79.48 79.51 79.68 66.63 66.11 68.69 77.65 78.25 78.00 78.19 77.35 75.81 74.96 71.28 72.72 66.00 64.77 65.18 65.07 66.80 71.24 69.62 69.61 69.67 70.38 71.05 70.19 67.97 67.06 65.74
77.07 77.51 78.30 77.76 78.24 78.72 79.17 78.87 79.05 79.06 78.85 78.74 79.00 79.36 79.40 79.26 66.15 63.76 66.74 76.88 78.33 78.45 77.71 77.23 77.07 76.40 74.35 73.09 72.89 69.49 69.75 70.15 69.78 69.48 70.48 71.53 72.59 71.99 71.56 70.29 69.45 68.46 68.48
76.67 76.94 77.56 77.74 77.36 78.04 78.26 78.69 78.97 78.66 78.69 78.58 78.95 79.21 79.19 79.17 64.54 61.91 66.21 75.95 76.10 78.27 77.84 77.65 77.40 76.76 69.73 64.01 72.86 72.10 71.23 70.60 65.12 63.06 64.20 62.57 63.22 63.52 65.60 68.53 66.33 64.83 63.87
76.25 76.26 77.93 78.41 78.33 77.88 78.38 78.80 79.22 79.11 78.36 77.51 78.25 79.09 75.16 79.03 65.71 60.24 65.91 74.90 75.24 75.15 77.74 78.58 66.21 74.02 62.80 60.80 71.83 72.85 71.31 70.83 70.19 70.55 69.60 65.05 63.19 64.47 60.66 68.17 67.11 64.36 63.07
75.78 75.92 77.27 78.40 78.66 78.89 79.25 79.42 78.77 78.41 77.87 78.38 78.36 78.78 79.37 77.63 77.81 58.51 60.08 75.81 75.40 74.83 74.55 74.99 75.94 62.28 56.39 57.18 62.48 71.93 71.16 71.22 68.04 70.46 69.70 68.89 68.08 67.95 66.33 66.68 66.90 64.00 61.25
76.55 76.08 77.68 78.60 77.33 76.86 79.35 79.38 78.74 78.14 78.00 77.81 77.93 77.69 78.07 79.14 68.31 58.84 58.34 63.90 70.00 75.94 75.20 75.57 74.57 57.94 54.82 55.18 59.93 61.42 58.58 62.01 70.67 68.51 67.88 66.58 66.32 65.95 65.54 65.22 65.57 64.71 64.54
76.13 76.30 76.67 77.22 77.31 78.45 78.72 78.13 76.64 78.16 76.13 76.04 75.64 75.52 76.41 77.93 78.50 61.29 57.08 59.13 61.69 74.02 75.94 71.25 61.56 55.00 52.83 55.79 57.98 58.02 58.83 68.13 68.67 67.21 67.16 66.78 66.64 66.07 66.04 64.38 64.27 64.22 63.70
76.21 76.58 76.89 76.93 76.57 77.29 76.76 76.76 76.37 76.10 75.80 75.42 75.34 75.61 75.88 76.13 76.72 76.24 66.92 63.63 62.26 67.70 61.85 63.95 60.62 59.17 59.45 61.39 59.19 60.96 68.62 68.33 68.72 67.58 67.53 67.17 66.26 63.63 62.57 62.24 60.65 60.64 59.64
76.02 76.00 76.60 76.45 76.77 76.88 77.62 76.77 76.37 78.19 74.94 76.31 76.00 76.20 75.57 75.23 74.38 68.28 64.81 65.92 67.83 64.30 60.66 61.84 62.02 63.16 62.76 63.49 64.13 64.40 67.22 67.30 66.76 67.89 66.85 65.50 63.18 62.21 61.50 62.17 61.16 60.21 58.45
71.67 71.10 71.65 72.64 73.72 75.07 75.22 76.22 54.81 57.65 53.01 50.65 50.95 66.18 76.12 67.32 54.48 52.28 51.92 53.01 51.92 52.10 63.23 63.43 63.81 64.65 64.62 64.19 64.48 64.16 65.91 65.45 66.36 66.48 65.60 63.74 62.26 61.71 61.32 61.41 60.67 59.38 57.79
71.11 72.07 72.37 69.42 73.17 72.47 72.58 73.09 72.90 67.49 52.10 51.74 49.02 48.66 53.01 57.24 50.11 50.11 48.84 49.75 50.65 55.55 65.52 64.67 64.70 64.29 64.48 63.37 64.12 64.91 64.73 66.05 68.00 65.76 64.50 63.60 62.60 61.86 60.63 60.32 59.46 58.36 57.18
70.23 59.98 69.89 69.85 70.88 71.73 71.96 71.14 70.64 70.16 70.08 71.89 59.49 51.56 49.02 47.93 48.48 48.30 48.11 52.08 56.31 62.49 66.51 64.62 64.64 64.64 64.62 64.93 65.19 65.48 65.99 66.09 65.98 65.06 64.08 63.10 62.36 61.86 60.81 59.50 59.00 57.87 56.52
69.67 69.41 68.96 67.78 66.84 64.77 68.01 67.95 67.01 66.96 66.01 66.30 60.73 54.56 51.52 44.49 47.57 48.48 49.37 63.62 62.92 64.54 65.80 65.35 66.36 65.87 65.99 65.73 66.17 66.70 67.11 65.87 65.05 64.34 62.92 62.71 62.45 61.47 60.23 59.43 58.18 50.77 50.78
68.48 61.02 62.54 68.73 68.36 68.45 68.04 67.88 65.88 66.23 65.57 63.37 60.32 58.00 58.31 57.71 56.09 55.90 60.48 63.94 63.59 64.77 65.17 65.71 66.42 66.63 67.11 66.93 66.20 65.72 65.31 64.14 64.39 63.29 62.87 62.63 61.68 61.00 59.41 58.26 57.06 55.22 53.21
67.67 66.30 61.49 65.59 65.31 65.78 67.14 66.69 66.64 65.42 63.90 64.68 63.85 58.74 48.84 60.21 58.33 58.69 60.48 62.51 63.57 64.58 65.48 66.32 67.08 67.22 68.49 67.94 65.70 65.30 64.39 63.44 63.11 63.31 62.72 61.59 60.85 59.23 59.25 57.78 56.46 55.10 53.79
66.73 64.71 64.72 64.63 64.91 64.39 64.23 64.34 64.93 65.06 65.27 64.88 65.03 59.79 48.30 61.80 60.53 60.76 62.31 63.69 65.43 65.84 66.77 67.26 66.46 66.76 67.16 66.40 65.69 64.82 63.94 63.04 63.02 62.83 61.89 60.85 60.25 59.33 58.31 56.98 55.76 54.70 53.62
66.99 67.13 65.00 65.31 65.74 61.60 63.04 62.51 61.74 60.64 59.60 58.99 60.68 58.12 59.94 61.39 61.28 62.36 63.67 65.47 66.22 66.07 66.69 66.70 67.61 66.71 66.69 66.47 65.97 65.10 63.37 62.56 62.53 62.52 61.04 60.37 59.55 58.59 57.49 55.91 55.12 54.03 52.97
64.35 64.64 63.69 63.76 63.42 64.62 64.74 63.63 63.17 57.89 59.80 59.83 59.91 60.10 61.87 62.63 62.57 63.14 63.40 64.15 65.46 66.64 66.06 64.35 64.44 64.04 65.00 65.03 65.18 64.77 63.96 63.90 63.28 62.33 62.01 60.47 59.17 55.99 57.16 56.09 55.12 54.31 53.14
60.20 60.64 61.27 61.54 61.00 60.79 61.12 60.60 60.24 60.37 60.51 60.15 60.32 60.53 60.45 60.35 61.25 61.68 62.01 62.90 62.34 61.81 62.83 62.95 63.03 64.21 65.17 65.08 64.84 64.70 55.10 46.38 60.43 54.99 61.54 60.78 59.00 58.16 56.49 55.59 54.82 53.89 53.13
59.17 57.89 56.73 56.01 53.91 55.55 55.78 54.43 55.16 55.24 56.07 54.96 55.18 56.57 60.22 60.60 60.33 61.19 62.04 62.49 61.34 61.11 62.46 63.67 64.39 65.08 64.84 64.41 63.48 49.20 37.78 40.74 53.82 45.95 60.09 59.45 58.04 57.19 56.45 55.13 54.06 52.95 51.45

GFSGL_sfc_wetblb_027.txt.gz
Wetbulb
79.11 79.49 79.48 79.69 79.98 80.53 80.08 80.70 80.53 81.09 81.65 80.15 80.91 79.94 79.81 79.69 80.26 80.26 79.66 79.34 78.66 78.57 77.92 77.59 76.06 76.51 70.79 70.61 70.61 69.89 69.14 68.33 65.78 67.57 69.57 73.23 74.28 72.27 71.33 71.73 71.43 72.63 70.34
79.20 79.70 79.42 79.92 79.70 79.78 79.92 80.20 81.10 80.81 81.13 81.70 80.98 80.62 80.32 79.66 80.08 79.83 79.05 77.56 78.77 77.65 76.97 77.06 75.47 73.24 75.22 75.60 71.01 74.88 71.54 73.28 67.93 71.95 72.37 70.26 72.44 74.06 74.27 74.63 71.46 70.33 71.54
78.56 78.56 79.77 79.57 79.66 79.31 79.95 80.25 80.79 80.91 81.06 80.76 80.92 80.94 80.43 79.75 79.78 80.09 79.80 79.21 79.08 78.66 78.07 77.43 76.19 75.70 75.15 71.46 72.18 71.80 70.25 71.03 71.21 68.31 68.00 69.63 70.21 71.19 72.50 73.47 73.92 73.00 71.25
77.33 77.43 78.47 79.51 79.45 79.80 80.22 80.53 80.52 81.07 80.84 80.82 80.82 80.87 80.58 80.41 79.65 79.68 79.58 79.46 79.23 78.84 78.67 78.51 77.69 76.42 75.27 74.91 73.93 73.48 73.52 71.08 70.62 68.82 67.72 67.54 68.84 72.36 70.71 68.89 69.44 70.45 69.57
78.30 78.12 78.19 79.86 80.67 80.90 80.70 80.64 80.92 80.90 80.82 80.97 80.72 80.68 81.14 80.60 79.23 79.38 79.21 79.21 79.39 78.95 78.88 79.12 78.72 76.58 71.93 73.03 72.28 73.07 72.62 71.02 67.56 67.60 67.41 67.40 67.07 68.62 69.04 69.04 67.40 69.59 69.11
78.60 77.99 79.11 79.67 80.44 80.65 80.88 80.87 81.08 80.57 80.73 80.85 80.48 80.13 80.15 79.94 72.12 69.21 76.26 78.81 79.26 79.28 78.71 79.32 79.34 73.28 71.07 67.62 67.09 67.94 71.63 72.82 70.80 67.77 67.14 67.52 72.48 71.05 69.64 68.34 68.50 66.78 66.08
77.96 79.23 78.68 79.80 79.81 80.41 81.12 80.93 80.35 80.34 80.94 80.54 80.21 80.36 79.95 80.49 68.41 66.45 68.71 78.70 79.08 79.06 79.39 79.13 78.33 76.82 73.64 74.59 67.05 65.85 65.28 66.33 68.33 73.11 70.96 71.40 72.61 73.46 73.52 70.59 71.85 69.12 66.81
78.50 78.25 79.52 79.16 79.95 80.43 80.43 80.20 80.62 80.51 80.20 80.23 80.15 80.63 80.21 80.08 68.39 64.08 66.76 77.18 78.36 79.34 79.22 79.33 79.11 77.84 76.66 75.74 74.63 72.03 71.84 71.59 71.73 70.47 72.64 73.43 74.09 74.77 73.50 72.52 72.55 71.41 69.62
77.93 78.85 78.81 79.67 79.67 79.94 79.59 79.83 80.40 80.09 80.01 79.81 80.37 80.28 79.90 80.12 66.22 63.23 65.39 76.32 77.02 77.87 79.24 79.52 79.06 78.74 71.54 66.23 75.29 74.32 72.69 71.67 66.33 64.33 64.87 64.54 64.09 65.66 69.31 71.68 67.16 65.98 64.39
77.95 78.81 79.64 80.15 79.83 79.77 79.86 80.22 80.49 80.54 80.01 79.67 79.87 80.31 76.38 80.09 67.87 62.14 64.82 76.67 76.18 76.66 77.84 79.22 68.09 76.14 64.55 62.48 74.50 74.64 72.97 71.73 71.32 69.37 66.66 64.60 65.07 65.46 62.05 71.95 68.64 65.68 64.57
77.35 78.56 79.99 80.33 80.35 80.43 80.35 80.77 80.66 80.40 79.66 79.75 79.53 80.11 80.43 78.98 78.98 60.84 59.27 77.06 76.47 76.14 76.39 76.70 78.10 64.28 59.86 58.84 65.18 74.69 72.55 72.52 69.28 71.30 68.50 69.45 69.72 70.09 69.02 68.11 69.53 67.60 64.83
79.50 79.03 79.73 80.41 79.10 78.78 80.66 80.51 80.68 80.19 79.56 79.18 79.24 78.79 79.64 80.36 69.73 64.24 57.83 62.94 71.90 76.36 76.32 76.79 76.74 60.08 56.46 56.99 62.00 64.61 59.75 66.45 73.13 70.36 68.13 67.56 67.61 68.15 68.79 68.58 69.00 69.26 67.72
79.59 79.98 80.23 80.41 80.05 80.34 80.23 80.11 78.51 79.41 77.28 77.27 76.77 77.05 77.56 78.49 79.81 63.25 57.26 58.47 62.21 73.65 77.11 72.88 66.55 56.32 56.08 57.43 59.26 58.70 59.87 71.86 71.37 68.05 67.87 67.73 67.82 67.85 69.88 67.60 68.29 67.96 66.85
77.82 78.97 79.00 78.72 78.50 79.36 77.83 78.09 77.09 76.78 76.45 76.32 75.86 76.56 76.24 77.61 78.49 79.95 72.58 65.62 60.52 66.18 69.69 72.98 64.48 63.64 63.89 68.13 61.92 62.33 70.39 71.85 70.17 67.85 68.21 69.07 68.91 65.67 63.33 64.68 63.04 62.63 61.11
77.36 77.35 77.70 77.21 77.52 78.26 78.67 77.13 77.04 78.70 75.02 76.86 76.78 76.47 76.41 76.48 76.95 71.38 72.85 77.20 73.56 68.44 69.27 69.98 66.90 66.01 65.76 64.59 65.68 66.04 68.18 68.99 68.22 68.55 68.16 67.99 65.95 62.27 63.08 64.98 63.40 62.02 59.91
75.77 76.14 75.71 76.32 76.83 76.94 76.75 77.34 64.94 62.89 58.12 53.45 50.37 61.89 75.06 63.64 55.11 52.44 51.08 54.48 55.35 54.72 68.14 66.96 65.76 65.47 64.53 63.98 64.39 65.07 67.12 66.61 67.33 67.47 66.66 65.70 63.43 62.28 63.68 63.82 63.50 61.77 60.39
73.18 73.43 72.63 68.99 72.33 72.91 73.73 73.77 73.40 68.25 55.08 54.18 50.37 48.20 47.65 46.58 47.11 49.28 47.11 49.46 50.91 55.08 69.06 67.24 66.74 66.02 65.52 64.64 64.94 65.84 65.41 65.66 67.04 67.06 65.91 67.21 64.39 64.75 63.02 63.03 62.55 61.62 60.11
71.48 60.09 72.06 71.52 72.41 72.52 72.29 72.04 71.83 70.25 69.08 69.62 57.01 53.54 48.46 44.75 44.57 45.11 46.02 48.54 59.35 59.83 69.44 68.50 66.97 66.02 65.44 64.87 65.82 66.23 65.44 65.41 65.89 67.03 67.70 67.24 64.90 64.59 63.13 62.11 61.94 61.14 59.25
70.40 70.56 70.92 69.69 68.53 66.97 70.76 71.04 70.30 69.24 68.26 67.00 66.81 59.35 57.24 45.10 44.21 43.30 42.76 61.15 65.23 62.00 67.06 68.70 66.77 66.34 65.75 65.60 66.16 65.87 64.44 66.10 66.12 65.95 66.09 66.24 65.61 64.16 62.58 62.41 61.06 54.72 56.92
68.58 63.29 64.38 69.76 69.14 69.82 69.86 69.32 68.66 67.48 67.03 66.53 65.13 63.84 63.98 64.00 64.50 63.98 60.07 55.97 58.68 63.07 64.09 65.43 66.85 66.59 65.69 65.33 65.06 65.22 65.21 66.41 65.60 65.70 65.37 66.06 64.61 63.62 62.24 61.62 60.17 58.49 57.16
68.05 67.72 62.83 68.51 67.78 67.48 67.51 67.45 67.19 67.20 66.84 65.76 65.04 60.75 46.91 63.27 63.45 63.84 64.50 62.96 64.09 64.63 64.20 64.43 64.32 65.06 65.13 65.54 65.49 65.61 65.58 65.39 65.46 65.34 64.87 63.94 63.08 62.29 62.75 61.59 59.64 58.66 57.22
67.99 67.02 66.25 65.17 65.46 65.81 65.12 65.11 64.84 64.28 64.41 63.67 63.72 63.41 49.65 65.04 64.07 63.87 64.41 64.17 64.70 65.52 66.68 65.15 65.05 65.54 65.77 65.94 65.57 65.28 65.15 64.55 64.31 63.86 62.84 62.97 63.29 61.83 61.12 59.64 58.49 57.36 56.42
67.02 65.19 64.88 64.10 65.51 62.63 64.90 64.25 63.14 61.79 61.28 61.54 61.78 62.80 63.87 64.95 65.41 64.58 65.94 66.80 66.90 66.87 67.14 66.81 66.46 66.08 66.44 66.55 66.12 65.58 64.80 63.57 64.02 64.17 63.81 63.17 61.94 61.18 59.88 58.63 57.91 56.76 55.76
64.31 63.00 62.58 62.37 61.85 62.29 61.78 61.56 61.66 57.08 59.79 59.89 59.68 60.51 60.35 61.26 61.85 63.40 65.12 66.66 67.18 67.06 66.32 65.59 65.32 65.04 64.76 64.74 64.33 65.64 64.93 64.13 64.49 64.73 64.34 62.38 61.28 57.71 59.52 58.73 57.68 56.79 55.83
61.92 61.35 61.39 61.30 60.04 59.31 59.49 58.95 58.85 58.32 57.82 55.51 54.79 54.37 53.27 56.85 59.62 61.57 62.21 62.34 62.19 63.36 64.00 65.68 65.65 65.03 64.84 64.86 63.87 64.58 57.56 46.94 62.22 56.43 63.58 62.39 61.36 61.77 59.09 58.56 57.67 56.54 55.78
59.82 59.43 59.16 58.92 57.91 57.25 56.26 55.86 55.07 54.99 54.47 52.98 52.86 52.06 52.14 52.45 53.10 56.67 57.57 57.81 60.94 62.02 61.75 62.17 62.95 62.93 63.26 62.85 62.49 47.15 37.42 41.86 53.42 48.07 62.16 61.78 60.59 59.77 58.50 57.14 56.48 55.67 55.31

GFSGL_sfc_wetblb_030.txt.gz
Wetbulb
77.70 77.75 77.69 77.86 76.96 77.19 77.25 76.92 78.54 77.31 80.11 77.67 79.62 78.35 78.03 77.83 78.09 78.18 77.29 76.85 77.30 76.35 76.36 75.73 73.87 72.97 71.89 71.87 71.35 71.34 70.08 69.50 65.70 67.60 70.65 71.38 70.56 69.28 68.95 69.91 70.13 69.09 67.97
78.19 78.12 77.75 78.12 78.36 77.55 76.44 77.34 78.12 79.20 77.93 79.66 78.85 78.41 78.18 77.73 78.00 77.54 77.18 76.08 76.53 76.38 75.91 75.72 74.31 73.28 73.25 73.57 73.37 70.50 70.33 70.81 68.38 68.00 70.10 70.11 69.99 71.04 71.89 71.54 70.16 69.36 69.74
78.09 78.10 78.05 77.73 77.67 77.83 77.90 76.92 78.37 77.89 79.29 78.05 79.36 78.66 77.82 77.77 77.39 77.98 77.50 77.16 75.91 77.13 76.62 75.57 74.78 73.68 72.62 70.99 71.56 72.00 70.82 71.78 72.23 68.33 68.34 70.80 70.60 71.27 70.52 71.29 71.69 70.88 71.02
77.86 78.00 77.46 77.98 77.87 77.89 78.12 78.29 77.53 78.45 77.76 78.57 78.40 78.47 78.79 78.06 77.86 77.63 77.55 77.48 76.99 76.59 77.26 76.68 75.81 74.03 73.12 72.75 71.61 70.01 71.83 69.28 69.38 69.51 67.81 67.34 69.92 70.26 70.14 67.97 68.60 69.94 69.26
76.04 77.14 77.24 77.90 78.62 78.40 78.20 78.40 78.75 78.11 78.23 78.19 78.22 78.37 78.48 78.63 78.33 77.51 77.40 77.17 77.30 76.72 76.74 77.32 76.72 75.32 71.98 72.33 71.43 71.71 69.33 71.23 69.14 67.11 66.72 67.57 67.24 68.30 67.44 68.28 67.81 67.94 69.08
76.30 76.27 77.01 77.52 78.01 78.65 78.45 78.50 78.65 78.47 78.48 78.69 78.25 78.21 78.05 78.40 72.52 70.16 75.24 77.05 77.24 76.87 76.45 76.57 77.10 73.57 72.03 68.77 68.27 68.74 70.56 68.64 67.93 66.63 66.37 65.66 66.49 68.33 69.06 67.47 67.00 66.02 64.00
76.91 77.22 77.24 77.54 77.59 77.95 78.71 78.67 78.10 78.40 78.70 78.29 78.46 78.54 77.73 78.22 69.04 67.78 69.62 77.14 76.76 76.86 76.76 76.87 76.65 76.75 73.37 73.49 67.67 67.02 66.58 66.78 67.87 68.59 66.69 67.31 68.57 69.92 69.63 69.49 68.51 67.85 66.15
77.99 77.71 78.76 78.36 77.66 78.23 78.19 78.31 78.55 78.71 78.68 78.30 78.36 78.78 78.42 78.36 68.20 65.23 67.30 75.88 76.63 76.84 76.94 77.07 76.74 76.39 75.96 74.48 72.59 70.31 70.10 69.41 68.33 69.92 70.18 69.61 71.81 72.85 72.48 71.36 69.64 69.26 68.85
76.34 77.24 77.58 79.03 78.23 78.18 78.19 78.27 78.77 78.79 78.43 78.72 78.70 78.76 78.52 78.43 65.95 63.69 65.19 74.67 75.33 75.93 76.96 77.26 77.22 76.71 71.91 66.27 73.22 70.75 70.04 70.04 66.19 64.31 65.14 66.49 65.48 65.15 69.91 69.70 67.81 66.25 64.56
76.23 76.76 78.24 77.79 78.23 77.94 78.40 78.55 79.21 79.32 78.84 78.94 78.71 79.01 75.20 78.82 68.42 61.81 64.58 75.75 74.54 74.81 75.84 76.69 68.44 74.88 67.22 61.98 73.15 72.80 70.67 70.21 70.02 68.53 67.52 64.55 64.62 65.98 64.35 70.00 68.18 64.89 64.38
77.19 78.06 78.46 79.22 78.21 78.48 79.18 79.52 79.30 79.24 78.86 78.60 78.50 78.89 78.96 77.82 77.81 61.40 59.44 76.24 76.17 75.11 74.83 75.05 76.00 63.93 62.35 58.81 65.03 73.77 71.89 71.96 68.77 69.58 67.90 67.38 67.32 67.56 66.93 68.86 70.00 67.52 65.12
79.86 78.02 78.82 79.80 78.54 78.80 79.18 79.68 79.42 78.96 78.26 78.04 78.11 78.10 78.79 79.24 68.95 65.31 58.51 61.29 71.51 76.20 75.47 75.57 75.10 62.37 59.04 57.30 61.27 66.57 60.96 66.33 72.08 69.57 67.33 66.11 66.42 66.61 67.96 67.92 67.80 68.23 67.52
82.23 80.20 79.55 80.46 79.41 79.05 79.13 78.71 78.33 78.65 77.94 77.45 77.24 76.95 77.69 78.49 78.85 63.18 59.04 58.34 60.45 70.71 76.83 73.21 59.54 56.59 56.80 58.38 58.79 61.41 60.92 71.41 71.94 69.40 68.08 66.60 67.19 67.76 68.13 67.36 66.40 67.54 65.33
82.01 81.45 80.91 80.31 78.90 79.29 79.09 78.68 78.07 77.45 77.22 77.01 76.54 76.49 76.81 77.27 77.75 78.30 73.91 65.62 61.29 65.44 68.60 72.16 70.33 67.10 61.15 65.27 63.60 62.55 70.98 72.66 71.87 69.56 68.42 68.39 68.48 67.58 66.76 66.40 63.91 62.73 61.91
79.89 79.83 80.34 79.09 78.59 78.90 78.85 77.42 78.03 78.29 75.22 77.02 76.83 76.57 75.66 76.32 67.67 56.64 59.94 71.93 73.46 69.35 70.87 74.85 73.99 72.50 73.07 68.56 69.68 68.32 70.39 72.26 71.05 70.20 68.43 67.53 66.60 66.28 64.67 63.99 62.26 61.25 59.00
78.23 77.62 77.03 77.01 77.73 77.21 77.30 77.37 66.15 61.56 56.38 49.13 49.85 62.29 69.41 53.56 47.48 46.05 46.95 49.67 51.12 54.20 67.80 72.17 72.49 72.39 69.66 70.25 69.59 68.23 69.40 69.58 70.51 69.49 68.05 67.07 65.04 63.33 61.47 61.06 61.71 60.33 58.93
76.10 77.90 73.66 72.79 75.46 77.18 77.23 77.64 76.07 62.08 51.48 50.59 47.50 46.59 46.39 44.84 44.60 44.05 43.33 44.05 46.23 52.03 71.56 70.83 71.40 72.05 70.70 69.71 69.41 68.66 68.30 69.50 70.01 68.28 66.75 65.85 64.14 63.20 60.99 60.32 60.43 60.33 59.03
72.73 60.92 73.07 73.17 73.11 72.27 71.45 71.43 71.51 70.94 71.59 69.27 57.66 54.18 48.49 46.16 42.96 42.24 43.87 50.54 62.22 58.45 67.28 70.20 70.54 70.77 70.35 69.22 68.84 68.64 68.98 68.48 67.89 67.04 65.26 64.74 64.10 62.75 61.37 60.78 60.47 59.37 58.59
72.79 70.99 71.38 70.01 69.49 68.79 71.98 72.35 70.18 70.35 69.28 68.70 68.19 60.56 58.70 53.44 46.05 44.05 47.13 58.18 58.13 59.97 62.41 63.37 64.34 65.43 67.27 69.25 69.18 68.59 68.44 67.81 67.38 66.23 64.93 63.93 63.98 62.82 61.43 61.27 60.35 56.46 56.95
68.15 63.04 65.44 70.67 69.93 71.05 70.50 69.94 69.22 69.20 68.47 67.23 66.11 63.55 63.39 63.08 64.53 65.17 64.83 64.24 62.07 61.54 64.27 64.75 64.95 65.26 65.13 65.29 66.66 67.71 67.56 67.04 66.61 65.73 64.20 64.22 64.35 63.52 61.54 60.56 59.90 58.01 57.83
67.85 68.01 65.31 68.04 67.27 67.18 67.11 66.61 66.54 66.23 66.09 65.58 64.74 60.55 47.84 61.68 64.64 64.37 64.66 65.37 65.03 65.26 66.24 66.19 64.30 63.69 63.99 64.40 64.37 64.44 64.66 64.48 64.54 64.43 64.36 64.65 63.71 62.04 61.36 60.42 59.59 58.12 56.04
67.58 66.31 66.20 65.70 65.54 64.77 63.76 62.97 62.38 62.03 61.79 61.64 61.87 60.66 51.65 63.71 63.77 64.15 65.29 65.90 66.30 66.90 66.78 66.98 65.87 65.59 65.38 63.87 64.08 64.08 64.10 63.80 64.20 64.14 63.66 63.01 62.39 61.19 60.44 59.34 58.40 57.72 56.53
65.13 63.85 63.74 63.15 62.42 60.96 62.66 62.70 61.63 60.45 58.69 57.56 57.86 59.19 60.00 60.19 60.61 61.96 64.27 65.91 66.76 66.76 68.28 68.21 67.78 67.42 67.85 67.89 67.27 66.23 64.66 63.93 63.57 63.11 61.74 60.90 60.55 59.67 58.93 57.73 57.35 56.45 55.45
62.83 62.15 61.26 60.54 60.21 60.12 59.75 59.45 58.71 54.07 56.13 55.38 55.07 54.79 55.01 55.13 56.16 57.32 58.11 59.51 62.15 64.22 67.84 68.02 66.57 67.08 66.96 65.55 66.24 65.33 63.98 63.25 63.00 62.67 61.66 60.18 59.71 56.21 58.34 57.35 56.82 56.44 55.26
60.78 60.44 59.62 58.82 58.15 58.11 57.60 56.92 56.46 55.09 55.29 54.84 53.79 53.49 52.95 52.82 53.46 54.23 55.66 57.52 57.60 58.90 60.53 63.30 65.66 65.86 63.99 63.46 63.40 63.57 57.62 49.51 60.43 55.11 61.66 61.21 59.70 58.96 58.25 57.82 57.30 56.40 55.77
58.16 58.12 57.66 58.00 57.31 56.46 55.37 54.58 54.10 53.87 53.14 52.66 52.25 51.59 51.13 50.93 50.82 50.71 50.92 51.77 53.81 54.23 55.22 54.93 53.43 60.55 65.94 65.21 64.00 50.73 38.20 41.32 51.73 46.96 59.84 60.51 59.45 58.14 57.89 57.90 58.12 55.61 55.30

GFSGL_sfc_wetblb_033.txt.gz
Wetbulb
74.30 74.17 74.60 73.97 73.56 75.02 73.92 71.78 73.36 73.46 73.50 73.19 74.96 74.48 74.88 74.78 75.66 74.58 73.65 73.74 73.92 73.07 72.80 72.24 70.91 69.58 66.44 66.33 66.08 66.09 63.83 63.34 59.75 61.34 64.41 64.76 64.93 65.90 66.31 66.42 67.96 66.85 65.52
75.06 74.39 74.38 74.86 74.56 73.36 74.66 74.11 72.05 73.73 73.80 75.53 75.88 75.22 75.32 75.18 75.11 75.30 74.55 74.71 73.37 73.30 73.29 71.96 71.65 71.63 67.77 67.63 68.35 64.61 64.47 64.71 61.77 59.52 65.13 66.22 64.50 64.26 64.67 64.29 66.82 67.91 65.96
75.06 75.04 74.51 74.66 75.06 73.91 73.90 74.26 74.42 72.68 75.32 74.11 75.68 75.70 75.61 75.54 75.36 75.19 75.18 74.96 73.66 73.83 73.97 73.38 72.57 71.09 68.95 68.71 67.78 67.18 65.19 65.23 65.20 62.41 63.97 65.28 65.44 66.42 66.19 66.27 66.16 65.81 67.08
75.03 75.22 75.06 74.94 75.09 75.34 74.97 74.36 73.70 74.94 74.16 76.15 74.19 75.57 75.80 75.81 75.44 75.62 75.24 74.93 74.86 73.67 74.29 74.61 73.79 72.08 70.82 69.69 68.18 66.97 66.78 65.60 65.42 63.39 62.47 63.04 65.44 66.46 65.74 65.59 65.13 67.44 66.90
74.75 75.19 75.22 75.61 75.81 75.86 75.63 75.92 75.61 73.86 75.13 75.17 75.82 74.78 76.04 75.70 75.94 75.28 75.35 75.19 74.78 74.48 73.68 74.81 74.73 73.77 71.15 70.52 70.30 67.83 66.15 66.21 65.00 64.57 62.97 62.33 62.02 64.84 65.87 65.40 64.48 65.47 66.35
73.96 74.59 75.68 75.68 75.76 75.56 75.70 75.47 75.88 75.63 74.25 75.46 75.01 75.15 75.40 76.39 71.31 69.27 74.01 75.30 75.10 74.65 74.31 73.90 75.20 72.61 71.16 68.06 67.84 68.03 68.35 65.66 66.41 65.15 64.41 63.90 64.23 62.95 65.25 66.10 65.67 63.54 62.33
73.00 74.14 74.96 75.42 75.34 75.67 75.82 75.64 75.26 75.55 75.86 74.72 74.69 75.45 74.89 75.87 68.09 67.04 69.13 75.66 75.00 75.04 74.83 74.77 74.34 75.54 72.18 73.21 67.57 66.82 66.81 65.96 65.89 67.33 65.12 64.46 64.31 65.42 65.89 65.16 65.40 64.20 61.87
72.68 72.98 73.78 75.06 75.08 75.41 75.90 75.38 75.75 75.86 75.70 75.94 75.68 75.33 76.03 75.92 67.02 65.25 66.86 74.81 75.29 75.14 75.34 75.26 74.96 74.57 74.39 73.59 72.84 70.06 69.98 68.77 68.06 67.22 67.21 66.53 66.37 66.55 67.43 67.21 66.22 65.08 65.03
73.01 73.26 73.85 74.61 74.72 74.98 75.02 75.75 76.00 76.01 75.94 76.13 76.48 76.18 75.94 76.23 64.53 63.80 64.94 73.06 74.67 74.90 75.32 75.39 75.55 75.20 71.01 65.58 73.34 71.85 70.14 70.23 65.90 63.37 64.35 63.93 64.22 65.16 67.89 68.18 65.47 63.86 61.54
73.11 74.47 75.67 75.23 75.33 74.83 75.27 75.60 76.30 76.49 76.26 76.81 76.27 76.88 73.29 76.55 66.36 61.59 64.37 74.38 73.97 74.43 75.04 75.12 67.69 72.57 66.34 62.36 72.27 72.67 70.69 70.12 69.74 68.83 65.96 63.66 64.17 65.06 64.70 68.69 66.98 64.25 62.09
73.17 73.05 74.22 75.27 75.67 76.14 75.68 76.14 76.45 76.48 76.54 76.40 76.46 76.80 77.08 75.81 75.52 60.84 59.73 74.19 75.08 74.81 74.39 74.26 74.67 63.90 60.96 59.72 61.37 73.99 72.00 71.97 69.05 69.35 68.78 68.06 66.97 67.16 66.73 68.22 68.08 67.01 63.78
73.09 72.97 73.76 74.36 75.27 76.03 75.61 76.19 76.55 76.54 76.20 76.06 75.93 76.28 76.90 77.32 66.67 61.97 58.98 61.11 70.43 75.45 75.37 75.77 74.86 61.88 58.92 58.99 59.88 65.14 62.29 64.00 71.98 69.66 69.03 67.40 66.78 65.83 66.88 68.13 68.41 67.72 67.45
74.63 72.97 73.86 74.66 75.63 74.56 75.38 76.09 76.31 76.36 76.28 75.76 75.74 75.42 75.55 76.57 76.63 61.78 59.07 59.04 60.74 71.86 76.51 73.16 65.27 59.43 56.21 58.70 58.88 61.25 60.38 69.94 72.33 70.93 69.20 68.91 67.82 67.51 67.26 66.30 67.48 67.44 64.83
72.97 75.36 74.87 75.79 75.24 75.11 76.51 76.46 76.28 75.74 75.61 75.26 74.75 74.67 74.95 74.90 75.21 71.87 69.31 64.56 60.11 63.77 67.17 71.52 69.51 66.38 65.18 66.21 64.12 61.75 66.27 71.83 72.69 72.45 71.46 70.90 69.49 66.85 65.66 66.30 65.32 65.79 63.64
73.61 75.29 75.42 75.60 75.25 75.60 74.85 74.69 75.43 73.05 72.84 75.17 75.05 74.41 73.18 68.11 61.27 53.38 55.57 66.07 68.86 66.16 66.49 71.53 72.55 73.55 72.68 73.26 69.50 69.28 66.42 67.91 70.85 72.31 72.51 71.21 68.56 66.42 65.72 66.47 65.77 64.66 63.09
73.49 73.84 73.65 73.61 75.01 74.84 74.86 68.40 53.43 54.18 52.33 50.08 52.33 58.79 56.43 53.38 48.32 45.47 44.38 45.47 46.20 47.28 62.38 69.08 69.98 71.67 72.80 73.06 72.99 72.96 70.77 67.30 68.89 70.78 71.26 71.02 68.06 66.46 66.04 65.81 65.16 63.31 61.98
70.27 71.45 70.95 69.64 72.89 72.98 73.84 71.22 60.62 56.27 48.53 47.00 48.30 50.87 50.47 47.41 44.38 43.11 42.75 45.47 47.65 53.63 64.24 67.77 67.88 68.99 71.39 72.52 72.49 72.15 71.98 70.95 70.24 69.60 70.88 70.88 68.67 67.66 65.31 64.40 63.07 62.01 60.49
68.48 62.04 67.37 67.88 66.61 67.12 67.76 70.63 65.18 64.04 63.84 59.37 50.51 52.26 45.49 42.75 42.93 44.93 46.20 51.09 58.22 57.86 60.29 61.01 61.76 62.53 63.14 63.86 64.59 65.11 66.23 69.08 70.34 70.12 70.02 70.60 69.44 67.07 65.10 62.95 61.69 61.19 60.82
65.26 65.03 65.28 65.22 65.76 66.13 66.78 65.56 66.10 65.23 64.32 62.78 60.77 56.22 55.38 45.29 44.93 46.01 50.00 58.74 58.08 58.62 60.03 58.96 59.77 60.85 61.55 62.07 63.14 64.11 64.45 64.53 64.90 66.61 67.50 69.23 69.51 66.35 63.61 63.01 62.15 58.20 57.61
64.89 62.17 64.19 65.77 65.30 65.00 64.90 64.43 64.17 63.77 62.33 61.22 59.42 58.67 58.81 58.51 59.48 60.02 60.11 59.60 59.37 59.43 61.13 61.39 61.51 61.89 63.10 62.65 61.87 61.91 63.12 63.29 63.17 64.97 65.83 65.34 64.03 62.57 61.55 61.17 60.26 58.96 58.13
64.28 64.56 62.72 63.24 62.26 61.80 61.68 61.16 60.74 60.57 60.61 60.36 59.18 56.09 47.28 59.50 61.74 62.11 62.61 61.55 60.83 60.67 60.53 60.86 61.63 61.73 61.57 61.01 60.75 61.17 62.23 61.50 61.45 60.83 61.01 62.30 62.27 61.53 61.66 61.19 59.98 58.95 58.42
62.56 62.85 62.89 62.32 61.24 60.60 60.31 59.62 58.52 57.22 56.62 56.91 57.36 56.43 49.76 58.76 58.60 59.07 59.93 61.21 62.31 63.51 64.14 63.01 62.80 63.22 63.40 63.95 61.77 60.78 61.04 62.19 61.50 61.84 61.50 61.50 62.35 62.05 61.01 59.84 58.69 57.94 56.47
61.50 61.35 61.05 60.73 60.41 58.27 57.66 57.67 56.83 55.35 54.65 54.36 54.20 53.90 54.48 54.66 55.41 55.97 56.87 57.42 58.09 59.62 60.55 61.77 63.96 63.52 64.34 63.75 64.34 63.78 63.59 63.00 62.35 62.25 61.54 60.74 60.39 59.79 59.74 58.75 56.44 54.63 53.61
59.14 58.62 57.83 57.51 57.78 57.23 56.18 55.49 54.08 50.86 52.79 52.66 52.15 51.81 51.72 51.99 51.93 52.11 52.58 54.82 55.89 55.93 55.75 53.09 53.02 50.43 59.56 63.85 62.34 61.26 61.86 61.49 62.28 61.47 60.98 60.09 59.37 57.57 58.69 56.75 55.50 53.88 53.19
56.23 56.32 56.16 55.61 54.93 54.46 53.30 52.28 51.66 51.39 50.89 50.53 50.25 49.84 50.02 50.06 49.60 49.59 49.29 49.43 50.92 51.05 51.02 50.23 48.45 47.73 45.64 45.70 46.12 57.22 49.62 45.65 58.86 53.37 59.82 59.49 58.70 56.96 55.09 54.12 53.36 53.05 51.47
55.01 54.11 53.39 53.39 52.89 52.05 51.54 50.98 50.40 50.19 50.15 49.38 48.15 47.27 46.94 47.13 46.88 46.89 46.62 46.52 46.60 46.76 47.01 47.35 47.66 46.46 43.65 42.31 40.05 36.27 34.54 36.37 49.76 45.03 58.72 57.98 56.84 55.94 55.17 54.38 53.77 52.66 51.75

GFSGL_sfc_wetblb_036.txt.gz
Wetbulb
73.33 73.28 72.66 71.94 72.07 74.17 72.09 70.25 70.54 71.73 71.14 71.63 73.21 73.39 74.21 73.95 73.61 73.02 72.91 73.58 72.30 72.36 72.30 70.86 69.58 68.88 67.65 65.41 64.79 64.31 62.33 60.98 58.69 59.34 62.84 63.40 63.96 64.26 64.48 65.31 63.85 63.14 63.29
73.62 73.66 73.45 73.09 72.07 72.08 73.80 72.07 71.06 71.10 72.44 71.28 73.29 73.24 73.74 74.26 74.23 73.43 72.49 73.28 73.61 72.19 72.68 71.74 71.05 71.03 68.11 66.14 64.73 64.13 63.58 62.20 59.99 58.47 59.63 64.05 63.09 63.91 63.92 65.14 64.66 65.97 65.24
73.38 73.00 73.03 73.10 72.72 71.79 72.17 74.25 72.81 70.85 71.67 72.73 73.93 73.45 73.39 73.78 73.88 74.55 73.63 73.16 72.95 73.51 72.98 72.51 72.14 70.92 70.23 68.55 65.33 65.71 63.90 63.24 61.89 59.27 59.45 63.51 62.74 63.81 62.41 63.24 63.28 64.66 65.73
73.28 72.92 72.40 72.93 73.26 73.10 72.51 72.40 74.10 73.36 70.36 72.20 73.43 74.56 74.03 74.18 73.95 73.95 74.36 74.12 73.55 73.21 73.39 73.45 72.99 72.07 71.36 70.08 67.60 65.91 65.33 64.30 62.83 61.87 60.26 62.45 62.93 63.96 63.33 62.78 62.56 64.53 64.38
73.29 73.18 72.96 73.08 73.92 74.10 73.66 72.85 72.68 73.13 73.70 71.69 72.70 73.13 75.00 74.83 74.88 74.28 74.15 73.96 73.99 73.79 73.31 73.80 73.85 73.21 71.26 70.69 70.40 68.46 65.37 65.08 63.26 63.26 60.99 60.44 61.94 63.01 63.36 63.39 62.96 64.05 65.50
73.09 73.07 73.71 73.85 73.70 73.80 74.26 74.16 73.29 72.84 72.34 73.53 73.16 74.06 73.16 75.07 70.26 68.95 73.11 74.27 74.01 73.41 73.21 73.12 73.58 72.10 71.01 68.08 67.24 68.02 68.42 66.87 65.02 64.57 64.21 62.69 63.55 62.48 63.89 64.75 64.11 61.33 61.19
72.88 73.20 73.79 73.91 74.08 74.16 74.32 74.33 74.28 74.03 73.73 71.98 72.59 73.73 73.66 74.28 67.08 66.87 68.84 74.44 74.07 73.91 73.71 73.56 73.66 74.04 71.53 73.24 67.52 66.13 66.28 65.30 66.77 66.56 65.32 64.82 64.37 64.81 64.32 63.77 64.98 64.21 64.24
71.39 72.94 73.66 74.19 74.09 74.52 74.60 74.18 74.48 74.62 74.73 74.30 72.93 72.95 74.01 74.28 65.74 64.49 66.80 73.80 74.51 74.27 74.37 74.20 73.88 73.76 73.63 73.00 73.48 70.09 69.52 70.11 67.40 67.00 67.04 66.94 66.95 66.92 65.81 65.55 65.82 65.68 64.24
70.60 70.99 73.23 74.11 74.29 74.36 74.08 74.28 74.55 74.69 74.36 74.66 75.14 74.30 73.37 73.87 63.76 63.14 64.95 72.13 73.66 74.45 74.99 74.78 74.74 74.37 69.75 64.89 72.64 72.43 71.16 70.43 68.16 63.48 64.38 63.42 61.90 61.39 64.06 65.32 64.31 63.42 63.07
70.68 71.40 72.13 73.42 74.16 74.10 74.37 74.41 75.12 74.99 74.86 75.10 74.69 75.46 72.08 74.78 63.85 61.68 64.43 73.89 73.31 73.80 74.66 75.23 67.41 71.69 65.40 62.59 70.87 72.70 71.77 72.34 71.44 71.28 67.76 64.97 62.26 63.18 61.52 66.77 66.62 63.85 63.47
72.36 72.11 72.36 72.63 73.42 74.50 74.66 74.95 74.95 75.10 75.02 74.88 74.98 75.22 75.55 74.05 73.76 60.49 59.98 73.94 74.53 74.38 74.30 74.32 75.06 63.28 60.89 59.60 61.19 73.91 72.96 73.37 72.00 71.54 71.28 69.79 68.95 68.13 66.35 67.62 68.63 66.86 64.49
71.15 71.63 72.82 73.89 73.62 74.06 73.86 74.25 74.68 74.61 74.64 74.60 74.53 74.86 75.65 75.98 65.91 60.69 59.24 61.37 70.30 75.19 75.08 75.79 75.11 62.40 58.52 58.07 60.02 63.89 62.23 63.69 73.37 73.42 71.16 70.23 70.12 68.62 68.38 68.39 68.56 68.57 68.74
70.98 70.46 71.31 72.44 73.83 74.17 74.18 73.69 73.71 74.48 74.24 74.16 74.32 74.40 74.91 75.47 76.24 61.42 59.24 59.38 60.25 71.22 76.14 72.69 64.65 59.70 56.75 58.56 57.82 60.23 59.74 69.23 71.91 72.55 72.53 71.74 70.88 71.23 70.31 68.71 68.58 68.59 68.31
71.03 71.77 71.19 71.80 72.31 73.07 74.53 75.10 74.81 74.69 74.60 74.59 74.70 74.81 75.31 75.38 75.51 69.83 67.86 65.25 59.61 62.67 63.94 68.94 67.54 63.96 60.69 64.99 64.97 63.41 64.44 68.22 70.47 71.30 72.23 73.66 73.44 71.69 70.00 68.88 67.03 67.00 66.16
70.13 72.77 72.86 72.55 72.02 73.02 65.62 65.05 73.69 74.85 73.10 75.19 75.41 75.41 74.30 72.29 64.42 56.13 58.57 66.74 67.07 62.49 63.94 69.28 69.10 69.80 71.34 72.58 73.38 73.17 71.69 68.51 67.16 68.83 70.32 71.51 72.41 72.55 70.19 69.05 67.19 66.51 65.46
68.89 71.71 72.48 72.87 73.48 73.39 66.27 59.70 51.04 48.52 49.18 49.91 52.03 58.32 55.62 51.91 49.07 47.82 46.37 45.47 46.01 48.19 60.77 64.49 66.07 67.38 68.88 70.03 71.79 72.35 72.44 70.11 70.19 69.80 69.76 70.32 70.56 71.01 71.13 68.69 67.14 65.74 64.97
67.28 65.64 70.60 70.16 73.09 72.56 64.94 61.82 58.98 57.23 49.67 46.27 46.72 48.29 50.18 49.09 46.19 44.20 46.92 46.92 47.10 52.17 61.26 60.26 60.68 62.39 62.87 62.74 63.64 63.14 62.76 63.82 64.87 65.20 66.29 67.84 68.98 69.77 68.49 68.46 66.89 65.74 65.09
65.76 61.07 67.87 67.32 69.14 71.34 65.00 62.08 61.03 60.09 59.20 58.58 52.78 49.97 44.82 44.72 44.92 44.74 46.19 48.35 57.79 56.89 57.57 57.43 57.65 58.20 58.70 59.26 59.26 59.56 60.89 62.23 62.71 63.23 63.64 64.31 65.05 65.86 65.18 65.15 65.60 66.67 65.51
64.66 65.94 65.82 66.25 65.53 65.24 67.08 65.01 65.11 62.23 60.48 59.78 59.64 55.18 45.45 42.20 42.20 44.92 45.65 57.73 56.71 56.83 57.79 58.92 58.84 60.50 60.72 60.74 60.02 60.35 60.31 60.08 59.42 61.40 62.91 64.60 63.35 61.52 60.58 60.73 62.59 59.01 60.89
63.08 60.41 61.61 62.87 62.67 62.64 63.44 63.55 62.91 60.94 60.24 59.54 58.23 57.09 57.99 57.45 59.00 58.90 59.16 58.74 58.39 58.35 58.33 58.85 59.70 60.18 59.92 59.74 59.78 59.24 59.36 58.82 58.41 58.27 58.41 58.85 60.44 59.18 59.60 60.02 59.76 58.81 58.09
62.45 61.27 60.20 60.64 60.28 59.50 59.75 59.81 60.10 60.10 58.97 57.81 55.43 52.52 46.74 58.44 58.12 58.27 58.04 59.05 59.92 60.86 61.17 62.32 61.68 59.96 60.31 60.53 60.23 60.41 59.58 59.66 58.33 58.51 57.77 58.09 59.64 60.73 60.22 59.46 59.19 58.61 56.75
61.83 60.83 60.06 59.44 58.83 57.44 56.72 56.98 56.33 55.47 54.92 54.42 54.28 52.99 47.77 55.13 54.95 55.65 56.27 56.91 57.42 57.61 57.54 57.43 58.33 57.42 60.57 63.32 63.38 62.38 61.45 60.16 61.33 61.06 60.64 58.37 59.78 60.81 60.00 59.17 58.21 56.91 55.79
60.31 59.51 58.04 56.39 55.85 55.14 55.19 54.35 53.52 52.82 52.25 51.98 51.82 51.57 51.57 51.49 51.19 50.98 51.07 52.77 53.26 53.21 52.68 51.72 50.92 50.61 49.91 54.51 63.35 63.42 63.44 63.43 62.83 61.73 62.03 61.31 60.49 59.78 57.71 55.99 56.03 55.69 55.77
58.10 57.27 56.47 55.13 54.36 52.91 51.89 51.45 51.03 48.92 50.66 50.43 50.07 49.71 49.31 49.24 48.97 48.72 48.59 49.20 49.35 48.99 49.24 49.23 48.46 47.51 46.81 46.96 47.44 48.12 54.36 53.23 60.23 60.53 60.46 60.14 59.71 56.65 57.92 56.75 56.25 55.98 53.88
56.40 55.47 54.41 53.34 51.89 50.82 50.13 49.45 48.59 47.92 47.53 47.45 47.07 46.64 46.05 46.26 46.39 46.56 46.67 46.80 46.74 46.19 45.91 45.64 45.38 44.46 44.23 44.78 43.26 41.97 38.66 34.90 45.19 45.71 59.00 58.23 57.59 57.79 57.93 56.13 53.23 53.30 51.44
53.98 53.26 52.54 52.21 51.57 50.81 49.97 49.26 48.37 47.58 46.49 46.02 45.43 44.72 44.42 43.47 42.45 42.23 43.62 44.79 44.92 44.69 44.60 44.44 44.28 43.37 41.35 40.45 40.20 36.71 33.95 33.38 40.07 36.03 50.62 56.18 56.02 54.73 52.99 52.43 51.89 52.47 51.61

GFSGL_sfc_wetblb_039.txt.gz
Wetbulb
70.88 71.16 71.24 71.44 71.63 71.55 71.02 70.21 70.82 69.25 70.51 71.54 71.57 71.93 72.59 72.64 72.56 72.06 71.90 71.47 70.49 70.58 71.19 70.11 68.80 68.26 67.68 65.37 63.98 63.51 61.71 59.73 57.96 59.03 60.80 62.26 62.63 62.67 64.69 65.82 64.70 62.45 62.52
71.34 71.20 71.32 71.73 72.18 72.18 71.71 70.53 70.21 70.61 70.42 70.80 71.99 71.99 72.46 72.76 72.65 72.16 71.81 72.82 71.76 70.75 71.03 70.90 70.71 70.34 67.66 66.38 64.44 63.06 62.64 61.42 59.62 58.25 58.73 62.19 61.69 62.89 63.34 63.52 65.13 64.55 62.46
71.35 71.42 71.26 71.06 70.86 71.36 73.03 72.77 70.12 69.22 70.49 70.56 71.17 71.59 72.02 72.85 72.98 72.83 72.56 72.02 72.54 72.72 72.36 71.58 71.67 70.40 69.55 68.22 66.31 64.14 63.20 63.15 60.93 58.91 59.49 60.29 62.90 62.09 61.88 62.54 63.06 63.44 63.61
71.44 71.55 71.40 71.57 71.53 71.08 71.32 72.60 72.70 70.68 70.05 71.08 71.63 72.05 72.30 72.53 73.10 73.24 73.09 72.63 72.06 72.50 73.26 73.13 72.77 72.00 71.37 70.53 69.29 67.48 65.18 63.29 61.59 60.70 59.35 60.69 61.62 62.65 62.12 60.94 60.79 61.98 63.51
71.38 71.70 71.78 72.30 72.67 72.15 71.44 71.27 72.48 72.74 71.46 71.14 71.51 72.39 72.93 72.79 73.19 72.93 73.12 73.03 72.51 72.14 72.50 72.95 73.13 72.92 71.08 70.66 71.37 70.03 66.78 65.47 63.88 63.30 62.67 59.47 60.86 61.65 61.79 61.84 62.43 63.34 62.82
71.67 71.41 72.12 71.95 72.43 72.25 72.05 71.57 71.06 71.90 72.92 72.19 70.73 71.32 72.35 73.77 69.40 68.35 71.99 72.79 73.02 72.67 72.23 72.60 72.90 71.45 70.87 67.99 67.65 68.34 69.71 68.28 66.77 65.27 65.77 63.81 63.38 62.59 64.39 63.17 62.14 59.29 59.84
71.67 71.88 71.99 71.96 71.60 72.24 72.61 72.41 71.75 71.02 71.46 71.76 72.31 71.59 71.39 71.98 66.35 66.38 68.30 73.66 73.07 72.84 72.59 72.77 72.96 73.64 71.10 72.91 68.22 66.41 66.25 65.51 67.87 70.23 66.27 67.07 65.46 65.54 64.40 62.64 62.65 62.76 62.53
71.64 71.82 72.34 72.40 72.07 72.07 72.41 72.67 72.78 72.55 71.67 71.39 71.18 71.70 72.32 72.75 65.74 64.11 66.54 72.98 73.66 73.57 73.44 73.34 72.94 73.01 72.82 72.19 72.47 71.85 70.35 71.08 69.28 68.21 70.40 71.51 69.67 68.99 66.12 64.82 64.54 64.91 65.11
70.98 71.71 72.31 72.74 72.72 72.88 72.54 72.48 73.13 73.27 73.37 73.14 72.81 71.75 71.21 72.08 63.43 62.67 64.77 71.79 72.88 73.42 73.96 73.99 73.94 73.64 69.31 64.61 72.02 71.82 72.07 71.77 68.16 64.23 64.30 64.63 63.77 62.06 64.98 65.79 63.55 62.45 62.27
70.23 71.59 72.68 73.12 73.06 72.92 73.51 73.51 73.72 73.89 73.67 74.06 74.03 74.25 70.49 72.38 63.50 60.99 63.33 72.08 72.04 72.63 73.64 74.14 66.63 71.31 65.15 62.42 70.91 72.45 71.61 72.55 73.29 72.36 70.37 66.25 64.10 66.24 60.51 65.84 67.41 64.16 63.26
69.83 70.06 71.15 73.07 73.32 73.91 73.91 74.10 73.97 73.74 73.82 73.56 73.48 73.94 74.29 72.82 72.66 59.89 59.59 72.22 72.87 72.75 72.87 73.29 74.13 63.78 60.74 60.08 61.16 73.52 72.62 73.07 72.47 72.60 73.29 72.37 71.84 70.71 70.45 67.59 66.40 66.83 65.62
69.23 69.34 69.99 70.77 73.17 73.56 73.61 73.93 73.79 73.71 73.42 73.25 73.02 73.37 74.16 74.64 65.96 60.43 59.19 60.53 69.07 73.63 73.94 75.06 74.51 62.21 58.05 57.63 59.06 62.46 61.41 62.79 72.46 73.17 73.18 73.03 72.45 71.95 70.87 70.83 69.73 67.11 68.31
69.49 69.84 69.98 70.57 71.02 72.05 72.73 72.77 73.07 73.29 73.17 72.96 73.05 72.86 73.49 74.13 74.68 61.19 58.29 58.71 59.80 70.36 75.30 71.88 63.87 58.65 54.67 56.76 56.74 58.36 57.65 66.19 69.08 70.57 71.54 72.41 73.43 74.28 73.93 72.63 70.85 70.39 68.35
69.69 70.00 69.57 70.66 71.07 71.73 72.54 72.65 72.67 72.67 72.64 72.66 72.84 72.87 73.53 74.01 75.06 75.50 69.94 64.44 59.36 62.44 64.43 68.33 66.09 62.82 61.19 64.64 64.98 63.35 64.06 66.48 68.29 69.60 70.66 72.15 73.21 73.29 73.43 73.15 71.07 70.34 68.22
68.78 69.97 71.09 70.25 68.83 68.74 58.71 60.64 70.08 71.87 69.95 73.30 73.68 74.18 73.73 74.41 72.85 61.37 63.19 70.01 70.25 62.98 64.59 68.90 69.08 69.08 69.01 68.94 69.87 71.50 71.41 68.69 66.72 67.56 68.26 68.72 68.87 69.59 69.86 71.41 71.45 71.21 69.26
66.90 66.94 68.20 71.16 70.48 66.08 59.52 57.70 48.84 46.87 46.49 49.23 53.76 61.72 55.62 51.71 46.51 46.51 47.05 47.78 48.14 50.32 64.20 66.08 65.76 66.41 66.23 66.30 66.32 63.11 63.93 63.46 63.43 63.12 63.27 63.77 64.23 64.33 64.56 65.86 67.30 68.22 67.21
65.23 65.36 64.67 68.35 71.95 65.64 61.22 61.30 59.20 55.78 48.68 45.06 45.33 45.77 46.78 46.33 44.68 44.33 44.52 45.24 47.23 53.22 63.05 61.47 59.79 58.51 58.15 58.03 58.51 58.61 58.69 59.25 59.39 59.68 59.92 61.25 61.77 62.46 62.82 63.84 63.64 63.25 63.01
62.60 56.92 65.43 67.23 71.23 65.44 61.93 60.60 61.44 60.78 59.35 57.95 50.04 47.81 44.12 43.94 44.52 45.60 48.32 52.96 60.25 58.87 58.19 57.49 58.65 60.55 60.95 59.05 57.55 57.87 58.93 59.31 58.91 58.55 59.01 60.74 62.25 61.68 60.05 59.34 59.62 58.62 58.12
63.35 62.99 63.46 64.64 67.04 62.82 63.06 61.19 60.59 60.31 59.78 59.58 59.82 54.90 50.44 45.60 45.78 46.33 47.78 58.69 56.78 56.70 56.92 57.22 57.30 57.85 58.35 58.69 58.57 58.61 58.61 58.47 57.89 57.41 57.24 56.82 56.86 59.40 59.67 59.31 59.23 54.06 54.72
60.62 58.60 60.42 63.34 64.74 65.38 63.47 61.41 60.85 59.71 58.71 58.07 57.22 57.33 59.60 58.53 59.35 59.75 59.91 59.89 59.81 59.61 60.14 60.19 61.05 60.68 59.26 58.71 58.71 58.91 60.02 59.12 58.11 57.35 56.86 56.88 57.55 57.99 58.47 58.79 57.98 56.92 55.84
59.43 59.59 59.15 59.98 60.62 61.42 61.04 60.22 59.53 57.98 55.92 54.72 53.83 50.96 47.60 57.18 56.22 56.04 56.04 56.22 56.00 54.94 53.66 55.10 56.32 54.56 54.40 56.02 60.41 61.51 61.61 61.29 58.17 58.29 59.47 59.21 58.01 60.05 60.11 58.65 57.75 56.38 55.88
59.23 58.73 58.16 57.91 58.33 57.77 57.01 56.55 55.80 55.07 54.27 53.31 52.47 51.03 46.78 52.20 51.82 51.35 51.76 51.99 52.06 51.63 51.14 50.61 50.05 49.94 49.40 49.74 52.09 55.58 60.39 62.21 62.27 60.46 61.53 61.30 59.01 59.89 59.83 58.91 57.16 54.35 54.51
58.43 56.82 56.16 55.56 55.34 53.75 53.91 53.42 52.63 51.81 51.18 50.74 50.31 49.72 49.40 48.90 48.43 48.24 48.52 48.76 48.50 48.19 48.18 48.45 47.40 46.77 47.07 47.31 47.43 47.15 47.49 51.78 52.22 57.40 60.72 61.44 61.21 59.86 57.12 55.90 55.48 53.65 52.65
57.56 56.05 54.93 53.17 52.53 52.17 51.50 50.61 50.07 47.82 49.07 48.44 47.77 47.50 47.25 47.04 46.77 46.68 46.73 46.79 46.70 46.47 46.31 45.88 45.06 44.23 43.69 44.01 44.60 44.23 44.22 41.65 39.65 46.46 57.32 60.38 60.40 58.01 58.53 56.12 54.31 54.06 53.10
54.55 53.65 53.02 52.05 50.51 49.57 49.09 48.31 47.36 46.41 45.69 44.90 44.09 43.39 42.96 43.04 43.41 44.22 45.19 45.51 45.18 45.09 44.87 44.55 44.52 44.39 42.70 42.36 41.39 40.38 37.63 34.30 37.05 37.83 50.21 57.54 58.82 58.85 58.29 56.22 53.75 53.19 51.22
53.04 52.22 51.14 49.86 48.05 47.37 46.33 44.93 44.24 43.64 42.73 41.90 40.97 40.83 41.06 40.22 39.19 38.73 38.76 39.05 39.26 39.43 40.05 40.93 41.78 42.47 41.91 40.49 38.44 35.95 33.52 34.22 36.46 34.80 41.83 52.40 56.16 56.98 56.00 54.71 53.81 51.74 50.99

GFSGL_sfc_wetblb_042.txt.gz
Wetbulb
69.26 69.47 69.86 69.94 70.28 70.51 70.38 70.35 69.93 70.37 71.37 71.72 71.98 72.39 73.18 73.54 73.91 73.44 73.44 73.16 72.21 72.52 72.83 72.48 72.28 71.71 70.87 69.91 67.74 67.38 66.04 64.24 63.45 65.55 64.79 67.43 67.79 67.69 68.21 69.38 68.37 68.64 68.40
69.69 69.89 69.98 70.65 70.83 70.65 70.69 70.74 71.05 70.18 71.33 71.93 72.31 72.20 72.65 73.18 73.44 73.53 73.09 73.61 72.74 72.26 72.36 72.56 72.51 72.32 71.58 71.17 69.42 68.39 67.18 66.16 64.99 64.98 65.86 66.25 66.83 67.90 67.97 67.68 67.94 67.67 67.73
70.13 69.99 70.12 70.38 70.92 70.84 71.19 71.36 71.12 71.52 71.01 71.55 72.16 72.33 72.35 72.98 73.34 73.54 73.51 73.34 73.51 73.45 73.18 72.65 72.60 72.82 72.44 72.11 71.03 69.62 68.07 67.14 65.48 64.19 65.29 65.12 66.23 66.78 66.60 66.31 67.25 68.01 68.08
70.40 70.37 70.13 70.52 71.05 71.66 71.96 72.19 70.58 71.25 71.64 71.55 71.84 72.18 72.70 73.20 73.71 73.76 73.61 73.51 73.38 73.88 74.08 73.63 73.36 73.17 72.85 73.22 71.83 71.23 70.64 68.77 66.97 65.32 65.48 65.07 66.11 67.19 66.06 65.91 65.46 65.74 66.63
69.75 70.41 70.29 71.14 71.64 71.78 72.21 72.99 72.30 71.11 71.31 71.57 71.83 72.17 72.72 73.02 73.13 73.76 73.94 73.61 73.43 73.08 73.64 74.10 74.38 73.66 71.25 71.65 73.27 72.71 71.80 70.24 70.00 67.74 67.12 65.78 65.10 65.46 65.23 67.63 65.23 66.92 67.48
69.49 70.04 71.08 71.39 71.46 71.25 71.17 71.37 72.74 72.60 72.15 71.76 71.59 71.84 71.98 72.47 68.26 67.60 72.12 73.76 74.02 73.53 73.00 73.35 73.97 71.76 71.17 67.95 67.37 68.37 71.82 71.46 70.68 69.77 69.15 68.76 69.28 68.12 67.51 66.46 65.63 65.15 64.50
70.07 70.66 71.37 71.73 71.71 71.77 71.91 71.39 71.10 71.85 72.84 72.31 71.79 72.01 72.00 72.86 66.07 65.65 67.68 73.73 73.77 73.80 73.82 73.78 73.66 73.90 71.58 74.04 69.09 66.20 66.52 65.74 68.01 72.75 70.84 70.24 70.07 71.27 70.48 67.88 66.46 66.18 66.32
70.46 70.83 71.73 72.03 71.76 72.21 72.31 71.97 71.57 71.59 71.50 72.39 72.72 72.55 71.75 72.23 64.90 63.84 66.12 72.71 73.57 73.82 74.21 74.24 74.06 74.19 74.21 73.54 73.92 73.80 73.60 73.01 70.95 70.02 71.69 72.80 73.84 74.23 72.87 71.17 69.62 68.73 67.75
71.00 71.29 71.71 72.05 71.65 71.80 71.87 72.19 72.56 72.30 71.74 71.46 71.90 72.28 72.52 72.74 62.43 62.24 64.44 72.08 73.21 73.48 74.39 74.67 74.59 74.31 69.23 64.57 73.46 73.25 73.42 74.06 69.23 64.93 65.36 65.41 63.90 62.81 66.15 71.66 68.28 64.45 63.70
71.19 71.74 72.45 72.67 72.34 71.92 72.14 72.35 73.09 73.49 73.16 73.26 72.58 72.86 69.43 72.40 63.40 60.92 63.09 71.91 71.86 72.45 74.01 74.71 66.28 71.75 64.97 62.15 71.38 73.22 72.64 73.48 73.99 74.07 73.08 67.73 64.71 67.73 62.57 66.39 69.09 67.80 67.19
71.77 72.39 72.77 73.12 72.91 73.26 73.22 73.48 73.15 73.42 73.65 73.70 73.80 74.37 74.34 72.21 72.02 59.73 58.91 71.83 72.72 72.82 72.92 73.57 74.80 62.95 60.57 60.13 61.07 73.40 72.32 72.96 72.48 73.44 74.01 74.15 73.75 73.20 73.01 72.54 70.15 67.93 68.00
70.53 71.59 72.32 72.87 73.41 73.63 73.56 73.88 73.99 73.76 73.27 73.39 73.59 73.77 74.56 75.30 65.24 61.64 58.23 59.62 68.20 73.12 73.44 74.50 74.32 61.87 58.14 57.23 58.72 61.80 60.68 62.75 72.25 72.76 72.72 72.92 73.54 73.80 74.44 73.37 72.74 71.51 69.75
69.06 69.42 70.14 72.21 72.99 73.77 73.65 73.55 73.46 73.94 73.34 73.19 73.15 73.15 73.63 75.03 75.12 60.50 58.14 57.73 59.04 69.39 74.62 71.46 64.92 60.68 55.24 56.99 56.99 58.20 57.57 65.26 67.39 68.47 69.85 71.34 72.80 73.70 74.64 74.56 74.91 74.94 72.85
70.25 69.99 69.94 70.04 70.69 72.92 73.62 73.96 73.69 73.31 73.12 73.38 73.52 73.38 74.09 74.58 75.18 75.81 69.65 65.36 59.21 62.83 64.64 69.02 65.39 63.58 61.22 64.85 65.19 64.44 64.70 66.89 68.68 69.53 70.24 71.22 72.24 71.76 70.48 71.69 70.82 70.48 69.15
71.17 72.78 71.29 71.28 70.88 69.35 60.76 62.43 71.39 72.23 70.22 73.58 73.80 74.44 73.99 73.99 74.34 68.50 69.51 73.04 71.19 65.89 66.98 69.69 69.81 70.37 70.53 70.37 70.46 71.30 71.35 69.29 68.77 69.26 68.43 68.29 67.65 67.78 67.36 67.61 66.67 65.83 63.85
69.00 69.27 71.53 71.29 70.32 64.97 62.53 59.17 47.97 46.36 46.34 51.07 57.05 66.15 60.54 51.52 47.06 47.44 48.17 48.71 49.44 52.88 67.28 68.47 67.68 67.66 67.21 66.37 65.19 65.85 66.63 64.18 64.87 64.74 64.92 64.56 63.71 63.49 63.45 64.78 64.63 62.69 61.26
67.17 67.49 67.10 69.35 68.23 64.51 63.68 62.49 59.37 53.64 46.77 44.42 43.35 45.62 49.16 46.99 44.16 43.27 43.82 45.27 47.62 54.88 64.84 62.78 61.82 61.66 62.22 63.02 63.57 63.57 63.76 64.20 63.82 64.06 63.40 62.94 62.70 63.66 62.54 60.31 61.13 61.17 58.20
65.43 56.10 66.96 71.75 68.90 65.08 64.10 63.07 63.40 62.96 60.89 59.00 48.37 47.86 43.98 44.00 44.36 44.91 48.53 54.34 61.15 60.02 61.50 61.34 61.74 63.11 63.31 63.17 63.15 63.32 63.88 64.34 63.94 63.61 63.13 62.77 62.03 62.09 61.86 61.36 61.14 60.10 59.16
64.70 64.43 65.89 69.13 66.19 62.53 63.33 62.37 61.96 61.24 60.63 59.85 60.56 55.00 49.07 45.45 46.90 47.81 50.89 60.69 60.00 60.57 61.66 61.96 62.01 62.21 62.14 62.60 62.87 63.14 62.95 62.51 61.93 61.77 62.90 62.53 62.23 62.07 61.52 60.53 59.44 54.25 54.99
61.97 59.02 61.65 65.69 64.21 62.94 62.26 62.34 61.99 61.14 60.29 59.66 59.72 59.68 61.22 59.29 58.45 57.43 58.27 58.53 57.65 56.37 56.09 57.71 56.43 56.25 56.01 56.61 58.60 60.85 61.44 61.49 62.03 62.46 63.35 62.34 61.78 61.57 61.50 60.01 59.38 57.31 56.99
61.10 61.10 59.89 62.90 62.90 62.19 61.79 60.72 59.76 58.34 56.51 54.64 53.06 51.02 48.35 56.67 55.11 54.27 53.69 53.00 53.05 52.38 51.64 51.79 52.24 51.56 51.41 51.72 52.18 53.42 55.67 60.26 62.67 62.21 62.33 62.36 62.20 61.27 63.12 62.93 61.64 58.62 57.93
60.00 59.75 59.96 59.37 59.41 59.26 58.78 58.14 56.81 55.16 53.71 52.17 50.91 49.18 46.00 51.60 51.12 51.01 50.42 50.00 50.06 49.58 49.84 49.78 48.95 48.52 48.63 49.02 49.15 48.68 48.95 50.19 53.26 53.53 54.77 60.78 62.37 61.81 61.54 61.96 62.22 59.31 59.45
58.67 58.39 57.38 56.44 55.68 54.13 54.80 54.39 53.39 52.60 51.58 50.75 50.36 49.78 49.16 48.55 48.18 47.83 47.45 47.43 47.43 47.11 47.27 47.03 46.42 45.80 46.01 46.32 46.78 46.17 45.63 46.22 46.24 45.62 45.48 54.13 60.27 62.37 61.86 60.91 62.02 59.63 59.08
57.64 57.40 56.42 54.89 53.59 52.34 51.44 50.21 49.37 46.94 48.59 47.92 47.31 46.90 46.76 46.71 46.46 46.62 46.41 46.60 46.63 46.38 46.43 45.98 45.69 44.62 44.66 44.31 43.53 43.04 43.72 40.46 39.50 41.98 43.85 49.17 56.93 60.21 60.59 59.76 60.37 58.46 58.53
55.39 54.16 53.02 52.27 50.97 49.25 47.76 46.74 45.96 45.57 44.88 44.09 43.21 43.09 42.76 43.48 43.35 43.28 44.13 44.27 43.80 43.93 43.19 43.85 43.56 43.24 42.90 42.33 40.79 41.00 36.64 33.39 38.59 37.28 45.70 48.32 53.68 58.78 60.62 59.08 57.82 57.83 58.65
52.43 50.93 49.75 48.59 47.51 46.86 45.56 44.36 43.22 42.07 41.09 40.60 40.48 40.63 40.71 40.61 40.56 40.76 40.82 40.68 40.39 40.31 40.35 40.24 40.49 40.51 39.82 39.95 38.23 34.98 32.29 32.96 36.99 34.40 46.16 52.34 51.20 52.64 54.23 57.62 58.84 57.25 55.23

GFSGL_sfc_wetblb_045.txt.gz
Wetbulb
73.07 73.48 73.78 73.76 74.06 74.71 74.19 74.55 75.54 75.17 75.44 75.75 76.44 76.61 76.55 76.72 77.16 77.24 76.97 76.89 76.59 76.88 76.91 76.18 76.32 76.95 75.37 74.79 74.13 73.24 72.06 70.91 68.41 69.94 71.70 72.68 73.04 73.42 73.25 72.89 72.87 73.29 72.52
73.30 73.42 73.37 73.89 74.25 73.37 74.26 74.42 75.51 75.46 75.67 76.00 76.22 76.21 76.52 76.56 76.80 76.68 76.06 76.15 76.45 76.13 76.54 76.60 76.12 75.82 76.22 76.36 75.27 74.88 73.59 73.70 70.67 71.26 72.56 71.58 72.62 73.99 73.96 73.70 72.67 72.16 72.54
73.36 72.60 73.09 73.34 73.40 74.13 74.64 74.91 75.53 75.61 75.68 75.32 75.61 75.85 76.04 76.33 76.38 76.67 76.59 76.60 76.47 76.55 76.75 76.71 76.57 76.71 76.04 75.70 75.86 75.07 74.84 74.45 73.48 71.34 71.03 72.21 71.66 71.58 72.39 73.14 72.58 73.44 72.49
72.65 72.73 73.18 73.73 74.06 74.28 75.24 75.60 74.93 75.98 75.83 75.57 75.77 75.91 76.00 76.30 76.47 76.41 76.55 76.59 76.74 76.69 77.00 77.03 77.03 76.97 76.64 76.64 76.18 76.14 76.02 75.19 75.11 73.09 72.31 72.41 72.90 74.52 72.75 70.66 70.72 72.30 71.48
73.39 73.12 73.42 74.33 75.14 75.49 75.70 75.83 75.43 75.69 75.98 76.18 75.82 75.77 75.83 75.79 75.57 76.19 76.64 76.63 76.67 76.71 77.14 77.31 77.36 76.25 72.33 73.77 76.24 77.30 76.74 75.05 73.94 72.97 72.28 72.19 72.07 72.21 71.97 72.55 71.72 72.46 73.48
73.48 73.39 74.42 74.74 74.96 75.08 75.70 75.79 75.69 75.57 75.91 76.01 75.51 75.60 75.44 74.95 68.97 67.90 73.84 76.18 77.00 76.85 76.38 77.02 77.41 73.85 73.12 68.46 67.64 68.46 73.82 77.00 74.91 73.90 73.51 73.21 75.78 74.94 74.85 73.81 73.07 71.98 71.15
73.23 74.17 74.68 74.92 74.79 75.15 75.79 76.10 76.19 75.69 75.61 75.75 75.11 75.39 75.87 76.51 66.27 65.49 67.84 75.45 76.27 76.50 76.90 77.02 76.80 76.69 74.27 76.80 70.77 66.72 67.12 66.03 68.36 75.62 75.56 75.80 76.22 76.52 76.86 75.50 75.72 74.85 73.52
73.28 73.89 74.73 74.87 74.71 75.42 75.56 75.43 75.96 76.12 76.18 75.70 75.51 76.04 75.80 76.43 65.36 63.70 65.58 74.41 76.52 77.31 77.56 77.31 77.63 77.61 77.11 76.14 76.67 76.33 76.77 77.06 75.67 73.58 74.59 75.99 77.47 78.20 78.53 76.88 75.67 74.00 73.10
73.08 73.57 74.59 75.05 75.00 75.29 74.95 75.21 75.39 75.05 74.96 75.40 75.77 75.91 75.97 76.31 63.46 62.67 65.83 74.35 74.96 76.63 77.31 77.59 77.25 77.26 71.02 65.49 75.86 75.54 76.15 76.72 71.82 66.21 67.21 66.25 63.99 62.70 66.07 71.81 70.71 70.59 69.39
73.76 74.25 75.34 75.81 75.50 75.57 75.96 76.08 76.45 75.86 74.95 74.97 74.98 75.94 72.34 76.50 65.17 60.51 64.40 73.86 74.49 74.30 77.01 77.41 67.60 73.00 65.87 62.48 74.72 75.23 75.07 76.06 77.11 77.90 78.04 72.77 68.17 70.52 63.18 68.18 70.86 68.95 68.90
74.58 75.02 76.00 76.33 76.26 76.59 76.77 76.98 76.15 75.67 76.14 75.81 75.17 75.89 75.96 74.64 75.04 60.34 58.68 73.62 74.11 74.43 74.62 75.06 76.08 63.18 61.12 59.88 60.94 76.09 75.43 75.83 74.87 75.90 75.62 75.67 76.17 76.15 77.02 76.89 73.74 71.52 70.75
76.41 75.96 76.32 76.49 75.53 75.58 76.56 76.27 76.26 76.25 75.66 75.61 75.64 75.55 76.11 76.76 66.29 62.35 58.43 59.93 69.35 75.03 75.69 76.76 76.74 62.36 58.25 57.52 60.26 63.21 60.66 62.74 72.89 72.83 73.21 73.19 73.47 73.97 75.21 75.49 75.03 74.18 72.94
76.17 76.21 76.08 76.54 76.17 77.13 76.25 75.98 74.92 75.72 74.94 75.00 74.83 74.92 75.54 77.05 77.50 61.11 57.89 57.36 59.17 71.47 76.40 72.80 64.28 59.88 55.71 59.70 57.71 59.05 58.23 65.57 68.18 68.97 69.83 70.64 72.21 74.29 75.17 74.68 75.46 74.89 74.10
75.18 75.69 76.11 75.92 75.52 76.45 75.75 75.75 75.49 75.25 74.83 75.07 75.10 75.03 75.84 76.56 77.30 77.84 73.79 68.38 59.73 63.94 66.26 72.02 69.12 66.58 63.87 66.93 67.13 64.75 64.67 66.68 67.68 69.08 70.57 72.07 72.72 72.58 71.26 70.83 69.14 69.07 67.63
73.67 74.05 74.33 74.58 74.56 75.44 76.50 72.84 75.75 76.97 73.26 75.65 75.94 76.22 75.79 75.89 76.46 70.96 71.79 76.67 74.59 68.64 69.86 73.32 73.03 72.80 72.13 72.42 71.77 71.52 72.31 70.53 69.31 70.54 71.06 70.18 69.47 68.60 67.94 68.57 67.61 66.81 65.35
75.24 74.23 73.07 73.25 73.10 74.39 69.90 64.59 47.83 48.16 46.79 51.00 55.89 69.63 70.29 55.44 51.54 51.18 51.00 54.44 56.62 53.72 68.79 71.16 70.82 70.17 69.49 69.26 68.52 68.21 68.98 67.80 70.62 69.73 68.81 67.76 66.69 66.61 66.36 66.67 66.30 65.24 63.55
70.71 69.71 72.79 69.92 72.21 71.73 70.69 69.84 65.32 54.66 46.41 43.86 44.11 48.82 52.99 51.77 45.16 44.82 45.02 46.10 48.82 57.06 68.86 67.21 64.73 64.40 64.70 65.32 66.07 67.69 68.71 68.87 69.00 67.95 67.45 67.11 66.63 66.02 64.93 65.49 65.38 64.54 63.76
70.48 56.92 71.90 72.63 71.61 70.09 70.17 71.35 70.24 67.94 66.81 61.64 49.60 48.24 44.24 44.29 44.84 45.92 47.74 54.35 64.43 63.38 66.73 65.08 64.85 65.04 65.36 67.50 68.17 68.02 68.12 67.50 66.39 65.98 66.60 67.08 66.52 65.44 65.14 65.33 65.08 61.17 59.56
69.54 71.07 72.78 70.48 69.17 68.34 71.06 70.75 70.59 67.76 64.78 60.23 59.65 54.34 50.66 45.56 45.74 47.01 52.07 67.11 65.47 64.85 64.30 63.22 64.25 64.38 63.51 63.74 63.08 63.62 63.82 64.00 63.76 63.58 63.87 66.02 65.86 64.81 64.61 63.56 62.26 54.91 56.32
68.43 61.01 64.47 65.81 65.83 67.45 68.56 68.31 67.82 67.12 65.41 64.78 63.33 61.93 63.57 62.47 62.76 61.06 60.64 61.07 61.44 58.88 59.04 59.77 59.12 58.77 57.63 56.78 57.08 58.24 59.56 61.32 63.37 63.35 64.12 64.78 64.77 65.13 64.51 64.19 64.07 61.46 60.41
67.20 65.87 62.27 66.04 64.56 64.17 64.14 63.83 62.87 61.43 58.93 56.82 55.20 53.27 49.17 59.55 57.91 56.48 58.08 57.66 56.59 55.94 55.13 54.65 54.69 53.97 53.97 53.94 54.77 54.28 54.50 55.68 56.43 57.37 57.64 58.69 62.42 63.38 64.19 64.23 63.62 63.05 62.53
65.93 65.83 64.74 64.60 64.32 63.13 61.63 59.62 57.42 55.76 54.39 53.16 52.15 50.63 47.41 55.47 54.88 54.26 52.05 51.76 51.86 52.68 52.68 52.45 50.82 50.31 51.02 51.98 52.68 53.30 54.23 53.93 54.32 54.78 56.26 56.08 57.62 61.09 63.30 63.33 62.93 62.42 62.67
65.08 64.32 62.15 61.06 60.14 56.58 58.35 57.56 55.17 53.77 52.57 52.33 51.91 51.86 52.41 51.94 51.50 49.86 49.68 49.65 49.88 49.47 49.60 49.96 49.74 49.24 49.24 49.49 49.37 49.52 50.14 50.54 49.51 50.54 52.20 54.08 53.77 57.40 61.31 62.55 62.26 61.96 61.51
62.60 62.71 60.12 58.39 57.58 56.76 55.54 53.80 51.10 48.37 49.91 48.96 48.58 48.52 48.41 48.14 48.02 47.91 48.14 48.40 48.63 49.26 50.49 50.83 50.45 49.88 50.28 49.98 50.42 51.82 50.35 46.76 43.77 47.84 51.69 52.59 53.94 53.63 58.10 60.99 60.71 60.94 61.06
59.86 58.83 56.75 54.88 53.23 50.92 49.73 49.07 48.18 47.81 46.68 46.03 45.22 45.27 45.25 45.71 45.44 47.26 48.49 50.32 50.66 49.07 48.06 47.76 47.31 46.73 46.10 45.66 45.18 44.69 37.06 32.64 42.80 37.38 55.24 55.43 54.41 54.60 55.09 56.34 60.05 59.23 58.61
58.06 55.63 54.42 52.24 50.22 49.03 47.55 46.02 44.64 43.49 42.53 41.75 41.35 41.35 40.93 41.39 42.56 44.29 43.98 46.04 46.29 45.87 45.47 45.48 44.82 44.29 43.96 43.20 40.42 34.71 31.02 31.66 38.82 32.85 49.86 55.65 53.63 52.19 52.30 52.61 53.61 55.24 58.57

GFSGL_sfc_wetblb_048.txt.gz
Wetbulb
75.32 76.14 76.14 75.54 75.89 76.46 75.98 76.51 76.95 77.22 77.41 77.43 76.81 76.55 77.16 77.88 78.34 78.25 78.22 77.60 77.80 77.96 78.03 77.31 77.51 78.54 76.11 75.20 75.00 74.45 73.72 73.02 70.12 71.17 72.21 74.57 76.07 75.74 75.77 76.24 75.57 75.43 74.26
76.49 77.16 75.87 76.46 76.55 75.59 76.09 76.48 77.40 77.06 77.42 77.60 77.43 77.04 76.97 77.09 78.27 78.16 77.65 77.05 77.25 77.15 77.66 77.77 77.15 76.76 77.58 77.84 75.97 77.01 75.87 76.38 72.36 74.04 75.12 73.16 76.22 77.32 76.11 75.61 75.09 74.55 74.34
75.35 74.89 74.85 75.22 75.35 76.08 76.52 76.75 77.36 77.21 77.36 77.41 77.28 77.25 77.03 76.84 77.79 78.30 78.14 77.76 77.50 77.56 77.77 77.65 77.60 77.98 77.61 77.03 76.81 75.94 75.86 76.08 76.23 74.47 73.81 74.52 74.57 75.49 76.17 77.66 76.73 76.97 75.20
74.78 74.61 75.59 75.51 75.85 75.49 77.59 77.83 76.85 77.77 77.16 77.37 77.75 77.29 77.36 76.93 76.95 77.67 77.76 77.76 77.53 77.70 78.27 78.24 78.16 78.42 78.31 78.47 78.14 77.97 77.76 76.96 76.94 74.94 73.82 73.23 73.42 76.29 75.30 73.93 73.74 75.33 75.06
76.36 74.57 75.84 77.22 77.54 77.72 78.07 78.05 77.53 78.13 77.55 77.88 77.62 77.36 77.66 76.78 76.13 77.03 77.06 76.93 77.38 77.64 78.14 78.65 78.78 77.42 73.25 74.72 77.89 79.79 80.02 77.31 75.42 74.18 73.39 73.60 73.55 74.08 75.31 75.41 74.88 75.65 77.31
77.25 76.19 77.31 78.02 78.21 78.08 78.52 78.79 78.49 78.30 77.93 77.80 77.54 77.53 77.08 76.53 69.23 67.60 73.28 76.22 77.13 77.21 77.38 78.09 79.00 75.20 74.27 69.20 68.40 68.75 73.04 77.64 78.67 75.75 74.44 74.20 78.20 77.14 76.55 75.46 74.95 74.12 73.59
77.25 77.25 77.72 78.12 78.04 78.35 78.64 78.94 78.46 78.40 78.13 77.76 77.53 77.80 78.29 78.35 66.77 65.41 67.77 75.92 75.94 77.03 78.06 77.55 77.28 76.61 75.45 78.30 70.86 67.61 68.28 66.92 67.95 75.36 75.68 76.44 77.69 78.45 79.44 78.59 77.87 77.56 76.37
77.03 77.24 78.01 78.22 77.90 78.52 78.63 78.65 79.09 78.26 78.46 77.98 77.58 78.73 79.00 78.60 66.25 63.90 65.90 76.17 76.91 77.58 78.05 78.05 78.59 78.52 77.92 77.03 77.73 77.44 77.63 78.20 77.00 75.39 76.49 76.95 77.09 78.36 79.28 79.34 78.65 77.82 77.31
76.58 77.23 77.98 78.21 77.84 77.79 77.93 78.14 78.24 77.86 77.95 77.85 77.80 78.74 78.85 79.10 63.99 63.06 66.51 75.92 75.91 77.59 77.66 78.47 79.14 78.93 72.08 65.58 77.08 76.63 76.94 77.36 71.90 65.26 66.66 66.85 65.67 64.53 68.40 75.47 73.05 73.37 72.36
76.41 77.22 78.47 78.64 78.32 78.13 78.29 78.55 78.91 78.14 77.55 77.44 77.49 78.56 74.18 78.54 65.34 61.02 66.57 75.82 76.14 75.43 78.49 79.65 68.04 73.47 66.14 62.21 76.58 76.19 75.86 76.02 77.37 78.50 79.96 71.62 67.48 73.56 64.35 73.33 75.12 72.01 72.58
76.03 76.27 77.76 78.58 78.83 78.94 79.27 79.44 79.02 77.90 78.11 78.27 77.89 78.90 79.18 77.26 77.09 60.26 59.30 76.00 75.38 75.04 75.01 75.16 76.23 63.33 61.58 60.28 60.58 76.39 75.53 76.07 75.75 78.52 78.28 78.50 79.01 78.34 78.25 77.71 74.07 72.19 72.35
77.79 77.46 78.25 79.13 77.18 77.25 79.40 78.96 78.54 78.32 78.01 78.36 77.72 77.37 77.55 78.41 67.09 61.18 58.33 61.14 69.74 75.88 75.77 76.30 78.14 61.38 57.62 57.91 61.81 64.16 61.28 63.71 75.56 76.11 75.46 74.29 74.73 75.70 76.01 76.91 77.28 77.29 77.17
77.42 78.18 78.02 78.16 77.83 79.38 78.40 78.21 77.12 77.98 76.91 76.21 76.17 75.98 76.27 77.54 78.34 61.97 57.55 57.83 60.35 71.89 76.98 72.63 62.30 60.25 56.63 60.64 57.77 59.32 58.03 73.59 71.39 69.26 70.39 71.41 73.25 73.16 75.78 77.11 78.07 78.48 76.67
76.94 77.53 77.53 77.22 76.84 77.80 77.57 77.60 76.84 76.52 76.11 76.20 76.11 76.06 76.69 77.33 78.23 79.37 75.09 69.42 60.79 66.40 68.67 74.04 71.89 66.54 60.99 65.94 72.27 70.66 72.36 70.53 69.85 70.55 70.08 71.79 74.39 74.96 74.78 74.75 71.47 70.98 69.86
76.54 76.78 77.20 77.27 76.83 77.06 77.84 72.89 76.95 78.94 73.24 76.68 77.00 77.41 77.03 76.98 77.74 72.44 73.37 78.71 77.46 72.26 73.61 76.52 75.84 75.50 75.44 75.29 75.04 74.57 73.22 71.23 70.10 69.81 71.77 72.90 74.55 73.50 71.53 71.22 70.11 69.58 68.01
74.66 74.98 75.75 76.14 76.68 76.65 76.36 73.68 49.26 48.72 46.34 47.39 51.25 66.75 74.66 59.49 55.05 57.05 56.50 57.59 56.87 54.87 71.32 74.83 74.47 74.45 73.21 72.90 71.74 70.45 71.04 69.61 72.39 72.17 72.64 72.24 70.66 69.51 69.29 69.59 69.26 68.10 67.37
73.46 76.78 75.00 73.49 75.22 73.60 73.50 73.04 71.63 67.43 48.13 45.38 44.31 48.35 54.67 55.14 46.72 46.17 45.99 46.72 48.53 58.14 73.71 72.50 71.39 70.30 68.19 67.99 68.29 68.62 69.34 70.65 72.01 70.39 70.19 70.01 69.67 69.18 67.81 68.47 68.44 68.26 67.43
74.11 63.58 77.21 75.00 73.45 73.26 69.38 65.43 65.51 67.53 71.08 73.79 52.67 51.10 44.44 44.72 44.54 46.35 49.62 57.27 67.36 66.29 69.33 67.45 66.31 66.22 66.85 67.17 68.02 68.72 70.11 69.93 69.02 68.30 68.38 69.26 69.55 68.86 68.20 67.69 67.24 66.08 65.31
72.14 72.24 72.83 72.02 71.71 68.61 66.72 65.68 65.29 66.57 71.28 64.14 61.37 54.65 49.01 44.00 45.63 47.98 48.53 72.74 74.33 72.49 71.06 69.88 69.45 68.07 67.22 65.10 65.69 66.13 66.59 66.27 66.41 65.89 66.51 67.66 66.60 65.92 66.01 65.25 64.69 56.85 59.03
69.89 62.23 64.67 69.86 69.47 72.00 72.75 71.70 71.30 71.32 67.58 65.20 64.33 63.39 62.56 60.88 65.56 67.50 69.04 67.89 66.47 64.82 65.90 64.73 64.79 62.97 62.05 63.59 64.55 64.42 65.07 64.90 64.84 63.96 63.94 65.30 65.91 66.32 65.01 64.95 64.66 64.16 63.11
70.28 69.45 63.00 66.51 66.07 67.01 69.72 70.75 71.74 68.63 65.90 62.12 61.59 60.22 53.01 66.40 66.01 65.93 65.60 64.32 63.11 61.44 61.49 62.74 62.27 62.30 62.36 62.51 63.15 62.65 61.27 62.44 62.86 62.86 64.12 64.91 65.07 64.69 66.13 65.34 64.66 64.56 63.93
67.33 68.21 68.64 66.91 64.69 62.84 61.73 63.15 61.86 61.24 59.59 59.09 59.16 57.98 49.24 63.71 62.24 60.98 58.70 58.70 58.11 58.97 57.91 58.81 58.42 59.07 59.43 59.79 60.37 60.68 61.08 61.22 61.46 61.57 61.90 62.47 63.10 63.26 62.91 63.71 64.50 64.08 64.15
64.97 66.51 66.37 66.41 64.24 59.33 61.09 59.63 59.07 58.58 57.65 56.90 58.58 59.51 60.77 59.51 56.00 56.48 53.08 54.48 54.70 55.62 55.08 55.12 54.87 56.43 57.85 58.31 59.26 59.06 57.76 57.05 56.88 56.65 57.82 59.66 60.99 61.64 60.63 60.93 61.63 62.48 62.59
65.43 63.67 64.85 64.89 63.82 62.13 61.05 57.68 54.92 51.67 54.49 54.21 54.01 56.17 56.75 56.57 54.71 53.57 51.93 52.02 52.86 53.82 54.25 54.55 55.25 55.90 55.64 55.77 55.22 55.52 52.16 50.46 52.01 56.40 57.57 59.17 59.97 58.70 58.76 58.26 61.04 61.37 61.15
61.56 61.19 59.89 57.87 58.77 57.63 55.59 53.86 52.59 51.64 51.39 51.02 50.57 50.82 51.16 51.56 50.85 51.29 51.42 51.94 53.78 52.79 53.60 53.61 52.83 51.31 49.73 48.39 47.27 45.74 36.51 31.96 42.29 37.37 55.73 59.62 59.33 59.48 57.98 56.28 56.74 57.52 60.28
62.64 60.90 59.81 55.42 52.91 53.03 51.59 49.64 48.14 47.28 46.33 46.52 46.36 46.75 46.63 47.10 47.25 48.96 49.51 51.53 51.86 49.80 51.13 48.38 49.06 48.60 47.87 46.10 43.17 34.48 30.73 31.37 39.04 31.66 44.70 58.05 57.90 57.93 57.56 57.69 56.07 57.25 58.08

GFSGL_sfc_wetblb_051.txt.gz
Wetbulb
77.09 77.26 76.57 76.65 77.18 77.99 78.46 79.03 79.40 79.23 79.99 79.39 78.75 78.21 77.89 77.76 79.12 80.22 79.76 78.94 77.75 79.11 78.84 78.21 78.72 80.16 75.84 74.69 74.84 74.27 73.59 73.01 70.48 71.73 72.84 76.44 79.54 78.62 77.91 77.76 76.24 77.49 75.13
76.75 77.96 77.17 77.28 77.19 76.81 77.47 78.74 79.84 79.72 79.29 79.51 79.26 78.98 78.42 78.08 79.59 79.56 77.83 77.37 77.47 77.46 77.86 78.80 77.14 76.67 79.19 79.54 76.65 79.65 76.82 77.92 73.03 74.91 75.10 74.59 77.65 79.01 78.75 79.12 75.74 75.87 75.99
76.55 76.55 77.10 76.63 77.16 76.74 77.95 78.26 79.38 79.71 79.74 77.85 79.46 79.56 78.58 78.33 79.17 79.80 79.72 78.67 78.30 78.24 78.33 78.64 78.32 78.93 79.38 77.57 79.02 76.31 75.58 76.68 76.80 74.72 74.62 76.07 76.18 76.47 77.28 79.39 79.04 78.26 77.41
75.11 75.24 76.40 76.96 77.40 77.22 78.08 78.87 79.05 79.69 79.65 79.48 80.03 79.90 79.10 78.78 78.56 78.40 78.94 79.12 79.06 78.21 79.17 79.26 79.13 79.13 79.69 80.16 78.70 79.92 78.61 77.45 76.48 74.97 74.48 75.20 75.66 78.28 76.76 75.32 75.66 77.06 77.27
76.14 75.56 76.49 77.70 77.70 77.98 77.78 79.04 79.20 79.65 79.81 80.33 80.11 80.01 79.75 77.97 76.78 78.27 79.13 79.16 79.26 78.68 79.07 79.13 79.29 78.22 73.51 75.96 77.76 79.37 79.52 77.97 75.45 74.70 74.13 74.22 73.90 74.54 75.63 76.33 75.51 77.15 78.21
76.85 75.96 76.78 77.75 77.94 77.74 78.02 78.73 79.44 79.62 79.86 80.12 79.91 79.86 79.14 76.92 69.92 68.01 75.13 78.11 78.96 79.11 78.94 79.69 80.05 75.14 74.34 69.71 69.05 69.27 73.50 77.61 78.93 75.72 74.34 74.11 76.67 76.55 76.84 75.75 75.45 74.21 73.97
77.69 77.26 77.64 78.27 77.91 78.27 78.51 78.97 79.04 79.38 79.98 79.97 79.84 80.04 79.53 79.69 66.72 65.59 68.05 76.63 77.88 78.48 79.17 79.45 78.62 76.64 75.94 79.49 71.38 68.80 69.13 67.16 68.44 76.33 76.06 76.39 76.45 78.13 78.78 77.94 76.47 77.28 77.22
77.47 78.52 78.03 78.83 78.39 78.95 78.99 78.93 79.18 79.40 79.35 79.41 80.00 80.25 80.03 79.94 66.91 63.50 66.02 77.06 77.15 78.07 79.45 79.68 79.77 79.36 79.60 78.61 79.45 78.97 78.42 79.07 77.58 75.55 76.74 77.57 78.80 79.62 79.50 78.54 79.00 78.83 78.27
78.24 78.39 78.62 78.97 78.84 79.21 78.87 79.13 79.54 79.54 79.57 79.56 80.17 80.34 80.20 80.18 65.11 62.99 66.26 76.75 76.42 77.93 78.81 79.04 79.24 79.58 73.17 66.45 77.96 77.41 78.08 78.61 72.20 65.36 65.80 66.52 65.83 64.00 67.85 75.18 75.09 74.65 73.94
78.25 78.28 79.33 79.35 79.42 79.06 79.49 79.75 80.28 80.07 79.77 78.91 79.43 80.53 76.21 80.50 65.84 61.54 66.29 76.31 76.38 75.93 78.50 79.35 69.08 74.37 67.41 62.53 77.54 78.09 77.23 78.15 78.26 78.48 79.22 74.99 68.60 73.05 64.75 72.93 75.57 73.62 73.82
78.88 79.47 79.96 79.77 79.92 80.02 80.40 80.48 80.34 79.91 78.73 79.77 79.36 80.11 80.58 78.87 79.30 60.69 59.32 77.48 76.22 75.53 75.36 75.03 76.40 64.21 62.00 61.01 61.86 77.67 76.46 76.65 75.16 77.98 78.00 79.04 79.06 79.84 79.90 80.40 78.82 76.20 74.76
79.02 78.94 79.52 80.21 79.29 79.03 80.39 80.37 80.40 80.06 79.59 79.77 79.57 79.30 78.95 80.73 69.10 61.41 58.66 62.23 71.17 76.61 75.64 74.17 75.36 61.25 58.32 58.99 61.82 63.82 60.97 63.70 75.49 75.69 75.98 76.73 76.79 76.81 76.44 77.57 78.08 76.75 78.70
79.05 78.72 79.41 80.09 79.93 80.23 79.75 79.75 78.58 79.66 77.10 77.06 76.90 76.27 76.32 77.90 79.08 61.98 58.27 58.89 61.50 72.72 76.58 69.84 62.50 59.86 57.80 59.73 57.91 61.34 59.89 74.74 75.29 75.90 75.57 75.37 74.65 75.03 76.89 76.03 77.32 80.11 79.65
78.91 78.73 79.25 79.08 79.06 79.62 78.62 78.45 77.22 76.67 76.52 76.06 75.79 75.41 75.31 75.79 75.92 77.51 73.99 67.85 61.24 67.52 69.34 74.05 71.69 65.86 62.67 68.03 71.88 66.23 75.43 76.95 76.68 74.49 71.78 72.68 74.53 73.99 74.20 76.66 75.21 73.66 71.02
78.52 78.60 77.98 77.81 77.33 78.37 79.58 76.46 77.51 71.99 71.69 76.36 75.34 74.73 73.75 74.41 74.60 70.85 73.67 77.09 76.02 72.16 73.44 76.06 75.73 76.04 76.34 77.01 77.21 77.91 78.07 75.52 72.78 71.77 72.00 73.08 72.11 75.12 75.70 75.34 72.15 70.84 69.42
76.92 76.09 76.71 76.52 76.66 77.03 73.75 71.91 51.76 56.15 49.02 48.47 49.11 61.80 75.06 56.90 55.21 51.57 55.20 55.00 57.17 57.39 73.26 75.95 75.97 76.05 75.44 76.32 75.65 74.55 73.29 70.88 72.05 72.53 72.93 73.58 73.52 72.95 71.78 71.27 70.86 69.67 68.75
75.46 77.97 77.00 74.72 75.90 76.66 76.12 74.87 72.90 63.16 47.95 46.50 49.03 49.58 50.81 51.85 48.85 48.85 49.40 50.12 52.30 60.35 76.48 76.06 76.50 75.45 73.52 72.68 72.25 71.61 71.18 72.15 73.25 72.64 72.00 72.23 71.65 70.91 69.07 69.33 69.61 69.36 68.99
77.14 63.01 76.92 75.96 76.33 76.61 76.52 76.84 75.37 73.93 71.93 71.78 51.99 54.44 46.34 48.85 47.77 49.76 51.75 58.58 71.33 69.90 74.93 72.62 70.85 69.76 68.27 68.06 68.31 68.89 70.08 71.51 71.01 71.30 70.68 70.32 70.04 69.79 69.43 69.27 68.84 68.34 67.53
76.13 76.15 76.45 77.02 76.42 74.38 74.64 72.76 71.52 71.33 70.95 68.41 65.86 57.86 52.31 45.77 44.68 46.32 49.94 75.91 74.58 71.96 70.91 70.68 70.21 68.75 68.87 69.16 68.66 69.00 69.62 67.96 67.97 68.98 68.41 68.36 68.39 68.01 67.49 66.98 66.29 57.58 60.86
71.27 63.66 66.92 71.37 70.77 70.93 71.00 70.59 69.10 68.96 67.95 67.88 66.08 64.80 62.39 61.28 65.97 66.59 69.23 70.39 73.47 74.95 73.73 70.94 69.31 68.18 67.28 67.63 67.50 67.58 67.10 65.54 66.00 66.55 66.41 67.11 66.80 66.43 65.83 65.57 65.46 65.13 65.04
69.48 69.31 65.24 72.21 72.05 71.66 70.26 69.98 70.29 70.83 67.99 66.34 65.06 62.50 56.97 65.64 66.48 67.60 68.66 68.82 68.76 68.89 68.55 67.94 66.35 65.88 65.74 65.81 65.81 65.03 64.63 65.38 64.99 64.25 64.39 64.89 65.59 64.28 65.43 65.26 65.29 65.61 66.01
68.15 67.74 66.75 65.95 66.25 67.19 66.73 68.86 67.84 65.33 63.40 62.04 60.85 57.78 52.02 65.66 65.86 65.35 64.41 66.02 65.55 65.61 65.74 65.58 64.78 64.46 64.01 64.02 64.28 64.59 64.42 63.97 63.17 62.81 62.81 63.30 63.93 64.35 64.05 62.71 62.56 64.10 64.60
68.13 68.00 66.39 64.11 62.41 59.94 63.81 64.06 62.48 62.79 61.61 60.51 61.34 60.85 62.64 62.09 61.68 62.73 61.69 61.50 60.75 60.50 60.27 59.71 59.83 57.70 59.85 61.14 62.07 60.71 59.03 57.60 57.67 59.12 59.83 60.77 61.78 62.64 62.45 61.23 60.04 61.45 61.64
64.79 66.62 66.49 65.47 65.31 62.85 58.74 57.13 57.41 53.59 57.99 57.20 58.49 59.89 57.62 57.21 56.38 56.72 56.50 57.59 57.80 58.71 57.28 59.45 59.77 59.79 58.62 57.13 55.46 52.43 48.75 48.32 52.89 56.36 56.31 59.39 60.18 59.05 60.38 59.57 59.82 58.19 58.71
64.25 65.66 64.00 63.90 62.32 60.87 58.68 54.81 53.39 54.17 53.92 52.85 52.95 54.01 54.88 54.77 55.59 56.10 56.84 57.09 56.41 56.73 55.99 55.10 53.72 52.49 50.10 48.37 46.12 44.84 34.93 32.15 44.55 35.31 53.59 57.21 59.08 59.28 58.93 58.66 59.04 59.30 59.65
62.67 59.79 59.55 58.01 56.34 55.71 54.92 53.02 49.24 47.82 47.18 48.26 48.91 50.36 50.39 51.29 51.65 51.19 53.25 53.63 54.31 53.00 53.51 53.05 51.94 50.64 48.54 45.71 42.87 34.16 31.32 32.06 38.61 32.21 43.40 52.94 54.58 55.31 55.04 54.71 56.65 56.88 57.74

GFSGL_sfc_wetblb_054.txt.gz
Wetbulb
75.90 75.01 74.79 74.29 74.48 74.01 75.31 72.97 77.20 76.45 80.21 79.08 79.50 78.58 77.78 77.70 78.90 78.95 77.74 77.71 77.23 77.43 78.38 78.38 77.37 77.88 76.86 76.73 76.24 74.88 74.01 74.22 71.09 72.03 74.60 74.57 76.32 76.48 74.84 75.59 76.29 75.10 74.26
76.08 75.26 74.79 75.31 74.43 73.95 72.72 76.51 76.45 78.57 77.99 80.71 78.71 79.58 78.12 77.87 78.11 77.90 77.33 75.95 76.43 76.79 77.24 77.33 77.57 77.28 77.80 77.53 76.72 76.56 76.80 77.76 74.88 72.52 74.18 73.73 74.03 75.38 76.52 77.05 76.09 75.15 74.46
76.38 75.57 75.24 74.91 75.01 74.90 74.01 74.50 77.09 76.59 78.08 77.45 79.19 77.81 78.10 77.09 77.37 77.93 77.82 76.91 76.86 77.31 77.11 77.32 77.00 77.84 77.53 77.41 77.41 75.59 75.13 75.81 75.29 74.14 73.34 76.16 75.99 76.12 74.88 77.25 76.84 75.30 75.49
75.65 75.54 75.18 74.72 74.84 74.52 75.73 74.51 76.37 77.62 77.05 77.48 77.56 78.22 78.01 77.40 76.95 77.74 78.03 77.44 77.20 76.98 77.94 77.30 77.78 77.52 77.34 77.86 77.24 77.17 77.25 76.45 75.58 74.96 73.67 73.46 74.44 75.08 76.37 74.72 74.59 76.29 74.95
74.91 74.82 75.10 75.94 75.60 75.23 75.20 75.78 75.23 76.34 77.06 77.75 77.46 78.09 78.15 77.48 76.80 76.76 77.01 77.55 77.29 77.08 77.36 77.84 77.96 77.32 74.02 75.45 77.56 77.41 77.22 76.58 75.56 74.70 73.96 73.92 73.02 74.23 73.39 74.28 73.88 74.92 74.63
74.49 74.38 75.30 75.70 75.62 75.65 75.11 75.80 76.23 76.00 76.91 77.37 77.56 77.63 77.72 77.39 71.07 68.84 74.53 76.20 77.58 76.97 76.52 77.14 78.30 73.91 73.22 69.59 68.65 69.58 73.11 76.14 75.16 75.49 75.01 73.54 73.53 74.29 74.71 73.51 73.48 72.59 71.33
74.88 74.97 75.08 75.87 75.92 75.44 76.23 75.35 76.07 75.80 76.71 76.94 77.43 77.90 77.51 77.75 67.80 66.62 68.69 75.83 76.15 76.94 77.52 77.24 77.35 77.19 74.08 77.56 70.53 67.95 68.39 67.46 68.96 74.34 73.48 73.44 73.24 74.29 75.21 75.11 74.80 74.46 74.48
74.91 75.50 75.33 75.91 75.62 76.14 75.65 75.86 75.32 76.44 76.23 76.79 77.31 77.84 77.90 78.12 67.78 63.78 66.40 74.12 75.65 76.52 77.06 76.90 77.09 76.97 77.15 77.51 77.35 76.92 75.77 76.06 74.84 72.67 73.02 74.56 75.86 76.86 77.15 76.71 76.18 75.93 75.96
75.41 75.55 75.55 75.67 75.76 75.70 75.36 75.35 75.77 76.44 76.74 76.73 77.46 77.85 77.73 78.01 65.62 64.03 64.91 72.94 74.15 74.76 75.37 75.97 77.25 77.93 72.01 67.90 74.64 74.70 75.18 75.98 71.82 66.86 68.76 68.05 67.66 66.36 68.63 72.22 71.80 71.91 73.12
75.49 76.02 76.99 75.93 76.47 75.64 75.91 75.93 76.49 76.91 76.92 77.33 77.26 77.98 74.69 78.06 66.28 63.02 64.97 74.73 74.00 74.10 75.60 76.29 67.75 72.46 66.95 63.48 74.44 76.04 74.81 75.18 76.26 76.76 76.80 74.56 68.00 70.84 62.97 69.18 72.84 72.68 73.29
76.50 77.38 77.30 77.22 76.57 77.26 77.28 77.43 77.20 77.26 77.37 77.12 77.07 77.67 78.47 77.35 77.23 61.02 59.73 75.16 74.92 74.75 74.65 74.90 76.17 64.74 62.05 60.66 62.05 75.25 74.24 75.15 74.75 76.45 75.91 76.64 78.02 78.42 79.02 78.04 77.39 76.30 74.25
77.98 76.83 78.25 78.29 77.47 78.10 77.74 77.93 77.91 77.53 77.32 76.96 77.24 77.54 78.34 79.16 68.77 62.03 58.83 61.90 70.33 75.28 74.94 75.81 75.05 61.93 60.01 60.32 61.84 63.51 61.43 63.35 74.39 74.33 74.41 74.70 75.47 77.43 77.25 76.95 77.23 76.72 77.24
78.26 76.77 77.90 78.37 78.39 77.88 77.99 77.62 77.52 77.89 77.13 76.71 76.64 76.41 77.00 78.14 78.68 63.44 58.81 58.39 61.30 72.67 76.41 70.70 61.68 59.73 57.13 57.76 58.13 61.43 60.23 71.19 73.69 74.02 74.26 75.16 77.00 76.21 75.63 76.29 77.17 76.65 76.65
77.17 77.34 77.51 77.99 77.48 77.85 78.42 78.24 77.70 77.25 77.00 76.76 75.98 76.36 76.55 77.30 77.73 78.57 70.27 65.27 61.54 65.80 68.41 72.45 69.57 68.63 63.63 67.42 67.94 63.86 72.07 75.06 75.26 75.37 75.60 75.88 74.33 74.32 74.14 74.65 74.11 75.12 73.22
77.48 77.20 77.06 77.52 76.73 77.55 77.58 77.79 77.76 78.09 75.65 76.68 76.77 76.36 76.42 75.62 75.82 70.83 72.26 74.22 73.49 69.51 71.83 74.82 74.72 74.18 73.83 75.69 76.80 76.79 75.20 76.12 75.51 74.77 73.35 72.35 72.96 73.08 73.10 75.00 74.98 73.22 69.72
76.80 76.98 76.61 76.96 77.12 77.35 76.37 73.27 51.28 54.57 49.80 52.87 56.37 69.52 70.58 57.31 52.16 51.62 51.66 58.48 58.57 57.33 71.49 74.00 73.98 74.21 74.06 74.73 75.37 75.41 74.99 72.23 72.64 72.09 72.35 72.23 71.92 72.51 72.88 73.00 71.44 69.38 68.48
76.98 76.75 76.97 74.80 76.60 76.40 75.89 72.62 68.62 59.21 46.68 45.45 46.17 50.71 54.45 54.94 49.08 47.81 45.99 51.39 54.12 58.68 73.59 73.46 74.27 75.80 76.38 75.46 74.77 72.71 72.03 72.95 72.65 72.32 72.47 72.00 71.37 71.07 69.06 69.72 69.43 69.82 68.86
76.24 66.77 76.62 75.87 75.85 76.45 75.76 74.64 72.44 69.92 69.84 67.76 53.85 53.09 47.62 47.81 48.71 50.71 54.69 59.57 69.29 67.91 74.44 74.64 75.01 73.81 72.95 71.57 71.11 70.31 70.32 71.52 71.31 71.47 68.77 69.27 69.09 69.99 69.80 69.28 68.38 67.40 66.04
70.58 71.11 72.91 75.66 75.27 74.92 76.28 75.64 75.31 74.60 74.30 71.41 66.62 58.86 53.93 49.08 49.08 49.80 52.34 75.23 74.29 74.03 71.68 70.73 70.01 69.41 68.65 69.25 68.85 70.11 69.45 67.78 66.43 68.83 68.12 66.90 67.89 67.72 67.09 67.17 66.12 58.96 60.43
68.14 63.99 66.08 71.87 73.04 74.61 74.80 73.61 74.10 72.76 71.66 69.01 69.10 67.71 63.59 61.41 67.52 68.54 68.29 68.05 68.81 71.59 69.42 68.56 68.50 68.50 68.11 67.75 69.31 69.03 66.43 65.29 66.97 67.75 67.02 66.13 66.68 66.72 66.07 65.15 64.96 64.52 64.21
67.82 67.41 64.38 68.81 70.16 71.21 72.47 71.14 70.78 69.77 69.31 68.91 68.14 66.24 57.03 69.72 68.45 68.20 66.53 65.36 65.96 66.40 67.34 66.51 66.52 66.70 67.05 66.91 67.07 66.47 65.86 65.42 66.09 65.55 65.58 65.57 65.92 64.34 64.54 63.81 62.99 63.03 64.02
66.45 65.52 65.82 64.64 67.44 67.71 67.57 69.22 67.42 67.66 65.51 63.71 63.24 60.79 49.80 68.32 65.68 65.22 64.49 63.67 63.89 64.24 66.03 65.96 64.52 63.99 64.61 64.49 65.03 65.32 64.60 63.81 62.55 62.08 62.24 63.00 63.76 63.98 64.15 62.96 61.53 61.00 60.98
66.86 64.87 63.50 62.63 62.01 59.00 60.47 61.51 62.66 63.49 63.33 64.21 65.00 64.77 64.17 62.39 60.83 61.04 60.89 61.57 61.75 61.51 61.36 59.93 58.68 59.25 59.99 56.53 52.46 51.05 52.04 52.71 55.51 58.14 58.46 60.07 61.19 62.06 61.45 61.24 60.28 58.91 59.17
65.08 64.63 64.15 62.11 58.71 57.47 56.67 55.75 54.87 51.75 54.79 55.47 57.45 56.64 56.63 57.12 56.60 57.13 57.21 57.15 56.95 57.73 56.47 53.49 50.12 47.82 48.10 47.34 46.93 44.29 42.25 41.81 45.99 50.10 51.60 55.83 58.17 58.68 59.53 59.24 59.39 59.49 59.08
61.45 60.49 58.61 61.28 58.70 56.87 55.13 54.47 53.78 53.97 53.03 53.93 54.03 53.84 54.78 55.65 55.79 55.27 55.06 55.86 55.56 53.87 52.69 51.32 48.60 46.52 45.04 43.87 42.74 41.62 32.82 32.69 40.81 34.46 47.57 51.46 55.75 57.33 56.22 55.68 55.50 55.77 57.44
54.79 55.48 53.82 52.28 50.88 52.81 51.52 49.68 48.94 49.24 48.85 50.23 49.39 47.94 49.76 49.36 46.63 47.99 52.69 52.52 51.55 52.13 50.86 49.42 47.93 46.20 43.96 42.45 39.31 33.68 31.30 32.35 36.50 32.28 39.87 51.08 51.61 50.36 48.24 48.82 50.43 53.61 53.36

GFSGL_sfc_wetblb_057.txt.gz
Wetbulb
71.34 72.45 71.18 70.32 72.39 71.79 70.17 68.92 71.48 70.85 74.25 75.13 75.48 74.83 75.10 74.85 74.67 73.98 72.80 73.75 72.82 73.09 73.65 72.46 72.79 72.91 72.25 72.39 73.73 72.19 69.16 68.77 65.74 66.88 69.93 70.61 70.54 71.08 72.04 71.37 71.66 71.54 71.21
72.43 72.01 72.28 71.04 71.03 71.97 70.65 69.78 68.53 71.38 71.97 74.73 75.46 74.88 74.20 73.78 74.57 73.92 73.63 73.57 72.91 73.39 73.21 72.74 72.74 74.84 72.84 72.31 73.10 71.95 72.07 72.39 69.99 67.24 69.18 69.64 70.49 71.87 71.78 71.94 73.89 75.29 72.69
73.17 72.22 72.31 71.90 70.27 70.98 70.52 70.30 68.91 72.85 71.58 73.97 74.66 74.55 74.53 74.43 73.66 74.04 74.19 73.89 73.15 73.35 73.48 73.53 73.14 72.61 72.90 73.65 72.47 72.17 71.69 71.96 72.12 70.48 69.78 71.77 72.74 72.90 72.12 71.82 73.73 74.28 74.58
73.26 73.06 72.16 71.94 71.98 70.25 70.58 69.68 71.99 71.47 74.30 73.40 75.10 74.31 74.50 73.74 74.18 74.20 74.70 74.37 73.70 73.52 74.55 74.15 74.18 74.14 73.39 73.46 73.86 73.34 73.09 72.51 71.85 71.09 70.69 70.49 70.71 72.46 72.12 71.63 70.56 71.91 72.17
73.28 73.33 72.84 72.59 72.46 72.42 71.04 70.71 68.86 73.47 72.48 74.06 73.98 74.84 74.52 74.77 74.43 73.61 74.78 74.85 74.25 73.88 73.32 74.18 74.43 74.23 73.39 73.05 74.90 73.99 74.04 73.05 72.57 72.05 71.12 70.89 70.09 70.35 70.01 71.62 70.34 69.97 71.00
73.22 73.23 73.39 72.98 72.59 72.37 72.40 72.67 70.70 70.33 74.09 73.45 73.69 74.06 74.61 75.65 70.52 69.13 72.73 74.32 74.90 74.45 73.96 73.64 74.60 73.03 72.31 69.67 69.41 70.45 73.73 73.60 72.60 71.94 71.30 70.88 70.33 70.33 71.26 70.46 69.86 70.29 68.80
72.15 73.27 73.34 73.03 72.88 72.28 72.45 72.06 72.68 70.65 71.75 73.83 74.30 74.48 74.34 75.25 67.99 67.38 69.08 73.83 73.41 74.55 74.49 74.27 74.23 75.67 72.51 74.30 69.75 67.54 67.47 66.81 68.53 72.07 70.61 70.94 70.78 70.96 71.40 70.97 71.46 71.69 71.81
71.79 72.22 73.05 73.06 73.01 73.21 72.94 72.16 72.41 73.27 72.02 72.42 73.68 74.55 74.55 75.17 67.69 65.49 67.07 72.16 73.23 73.40 74.60 74.88 74.38 74.18 73.48 72.96 73.45 73.56 72.32 71.65 71.03 70.49 70.33 72.33 72.94 73.46 73.24 73.61 73.40 73.54 74.52
71.56 71.80 72.78 73.09 72.88 73.24 72.28 72.73 72.42 73.13 73.25 73.03 74.08 74.48 74.82 75.16 65.78 64.60 64.91 68.54 71.47 72.47 73.60 74.24 74.52 74.27 70.40 66.82 72.07 72.41 72.91 74.15 71.39 66.13 66.98 66.77 66.33 65.53 68.55 71.19 71.56 72.36 69.49
68.32 72.51 73.03 73.19 73.45 73.12 73.18 72.86 73.84 72.98 73.01 74.15 73.59 74.66 72.61 75.21 66.13 63.60 64.56 72.25 69.38 70.88 71.86 72.00 67.00 71.88 67.63 64.82 71.70 72.20 70.70 71.50 71.67 72.51 72.66 68.10 65.20 67.43 63.70 68.23 71.57 69.05 69.62
72.34 73.60 73.71 73.25 73.44 73.72 73.91 73.91 73.70 73.65 73.20 73.23 73.76 74.28 75.12 74.53 74.72 61.82 60.47 73.55 72.67 71.11 71.12 71.63 73.04 63.27 60.08 59.83 61.23 72.08 72.07 72.97 71.14 73.03 73.64 73.25 73.28 75.15 75.33 71.57 71.58 72.24 71.18
73.24 73.06 73.27 73.57 73.66 74.33 73.77 73.92 73.66 73.49 72.91 72.93 73.51 73.93 74.85 75.85 67.78 63.53 59.68 61.19 69.74 72.72 72.01 72.84 72.35 64.53 60.52 59.70 60.85 62.40 61.14 63.11 71.91 71.57 71.21 71.28 71.61 72.61 74.78 75.05 74.44 74.82 75.87
73.91 73.03 73.94 74.72 73.67 74.62 73.89 73.63 73.46 73.68 73.28 73.44 73.47 73.53 74.10 75.45 76.25 63.41 59.66 58.87 60.70 71.67 74.19 70.91 65.29 61.74 58.27 59.41 59.17 60.45 59.75 66.45 69.91 70.08 70.63 71.53 72.79 74.30 73.11 72.99 74.62 75.52 74.45
72.86 74.15 73.56 74.28 74.10 73.98 75.24 74.80 74.69 74.30 73.93 73.70 73.87 73.69 74.52 74.83 75.56 76.87 69.36 64.24 60.87 64.18 67.92 68.00 66.22 65.57 64.86 67.02 63.35 59.51 65.42 68.32 69.44 70.56 71.62 72.50 71.72 71.44 71.40 72.33 72.76 72.24 71.13
72.31 74.40 74.13 74.87 73.57 74.61 75.30 75.26 75.42 75.88 74.21 74.83 74.74 74.96 74.26 74.35 74.76 71.01 71.56 72.29 71.42 67.75 68.87 72.09 69.41 69.09 69.86 70.07 71.71 67.79 67.27 70.81 71.87 72.71 73.01 72.15 71.38 71.74 71.38 72.51 72.78 71.29 67.48
69.66 73.23 74.53 74.30 74.69 75.18 74.55 67.22 50.12 52.54 51.43 56.32 61.81 71.46 74.91 62.41 61.85 57.55 54.15 57.43 58.29 56.94 67.97 71.34 71.29 71.77 71.74 71.07 71.51 73.50 72.08 71.09 73.60 72.67 71.77 71.38 71.07 70.50 70.79 71.30 70.44 64.45 63.13
67.81 72.68 74.77 72.47 74.83 74.65 74.48 72.52 68.37 57.79 47.82 45.46 46.37 54.71 56.16 59.54 50.90 49.81 47.84 52.17 50.18 57.79 70.56 71.70 71.62 71.84 71.89 71.50 71.50 72.55 72.52 72.67 72.12 71.56 70.12 69.91 70.59 70.99 69.15 65.39 65.57 64.38 63.99
66.28 63.41 73.33 74.16 74.44 74.78 74.79 73.58 71.45 66.93 67.36 65.54 51.26 51.01 46.37 46.73 46.37 45.10 45.10 53.60 62.06 66.09 70.78 70.63 71.05 70.00 69.78 70.25 70.79 70.36 70.02 70.27 70.23 69.75 67.88 66.87 65.84 66.71 65.31 64.53 62.77 61.94 60.96
65.60 68.13 71.17 71.76 73.53 72.90 74.87 73.05 69.67 69.25 69.07 67.65 62.04 55.25 51.05 47.82 46.91 51.99 56.34 70.22 69.91 70.12 69.10 67.79 68.08 67.90 67.74 67.54 67.26 67.04 66.86 66.43 66.80 65.73 64.62 64.35 64.82 63.42 62.99 62.83 61.67 57.34 57.98
63.23 64.29 64.64 71.28 72.20 71.75 73.51 73.15 70.21 70.25 69.88 66.73 66.66 64.87 62.40 60.85 67.11 67.47 66.11 69.64 70.00 68.42 67.77 67.16 66.80 66.80 66.88 66.77 66.52 66.05 65.03 65.31 65.19 64.74 63.99 63.51 62.43 62.61 62.63 62.10 60.92 60.56 60.51
62.75 65.79 63.93 68.40 68.35 69.46 69.10 68.46 70.11 71.30 68.42 66.97 65.14 62.12 56.16 67.83 67.20 66.70 65.25 63.57 65.32 66.82 66.98 66.89 65.80 65.74 65.63 65.53 64.45 63.98 63.95 63.59 63.26 62.43 61.35 61.16 61.50 60.54 61.16 60.83 60.73 60.42 59.60
63.31 63.46 62.93 62.57 62.59 63.47 65.66 66.12 65.21 64.54 63.95 63.17 62.74 60.45 52.35 66.93 64.09 62.83 61.78 61.77 63.24 64.64 64.40 64.92 64.51 63.88 61.88 61.52 61.39 63.10 61.96 58.46 57.62 57.37 56.69 57.61 58.05 58.27 59.17 58.77 57.09 56.51 56.54
63.56 61.41 60.14 59.84 59.66 58.71 60.60 62.81 62.95 63.82 63.05 61.73 62.05 60.75 59.76 60.10 59.65 58.62 58.53 57.98 58.02 57.30 56.76 58.58 53.44 49.51 49.05 48.38 48.91 49.79 50.24 50.68 50.80 52.15 52.63 53.46 55.22 56.64 55.86 56.44 55.65 54.72 54.86
62.01 59.27 57.86 56.44 55.64 55.40 55.94 55.64 56.06 55.15 58.15 57.01 56.82 56.58 56.54 56.45 56.24 56.10 56.06 54.58 51.54 49.10 47.79 46.03 46.12 46.62 47.46 43.68 41.79 40.48 40.85 41.25 43.02 43.23 44.58 47.37 50.87 51.39 52.84 52.73 53.07 53.81 54.62
52.90 51.53 54.58 53.89 53.30 51.97 50.65 51.05 51.43 52.31 52.73 53.47 53.67 53.26 53.64 54.03 54.71 54.85 54.11 52.49 50.44 48.26 46.37 43.82 42.63 42.18 41.97 40.03 38.57 36.64 32.46 33.36 37.25 35.07 40.40 43.64 46.67 44.12 44.27 43.38 44.08 46.52 48.94
45.75 45.89 45.27 45.15 45.05 46.19 45.55 44.77 43.59 44.23 45.11 45.40 45.41 45.15 45.47 45.73 46.65 48.15 51.17 49.81 47.49 45.73 44.67 43.04 41.83 42.63 41.36 39.71 36.95 35.01 31.47 32.38 35.03 32.29 38.02 43.88 44.19 42.30 42.13 41.89 43.27 43.51 43.97

GFSGL_sfc_wetblb_060.txt.gz
Wetbulb
71.07 70.27 69.13 69.35 70.43 70.25 68.40 68.77 69.65 69.60 70.46 71.74 73.82 73.27 73.37 73.10 72.38 72.87 71.35 71.39 71.68 71.28 71.65 71.27 71.44 71.14 70.64 70.68 71.70 71.28 69.73 67.00 64.11 65.74 67.22 69.69 69.96 69.48 70.23 70.68 71.07 69.58 70.17
71.33 71.00 70.14 69.10 69.79 71.08 70.54 68.90 68.29 69.38 71.83 73.19 74.07 73.42 73.25 73.84 73.01 72.03 72.06 72.36 71.97 71.16 71.60 71.98 71.89 73.60 71.70 70.84 70.99 70.70 70.23 69.95 67.93 66.60 66.79 68.35 69.37 71.49 71.81 71.75 73.15 74.36 73.35
70.50 70.94 70.82 69.72 68.84 69.65 71.15 69.79 67.58 68.12 69.47 73.23 73.63 73.75 73.52 73.72 73.50 73.16 72.70 72.30 71.77 71.79 72.23 72.10 71.85 71.21 71.73 71.93 71.25 71.01 70.83 71.38 70.48 69.18 69.59 70.21 71.44 71.06 70.77 70.92 71.24 72.72 74.18
70.23 70.53 70.42 70.86 69.85 68.87 70.26 70.71 69.97 67.37 68.38 70.61 73.54 73.50 73.52 73.47 73.32 73.55 72.93 72.24 71.99 72.09 72.52 72.68 72.75 72.49 71.26 71.46 72.21 72.09 72.04 71.07 70.41 69.27 68.75 69.30 69.95 71.34 70.83 70.54 69.91 70.27 70.52
70.57 70.67 70.03 71.24 71.62 70.31 68.88 70.24 69.25 70.01 69.56 70.43 72.08 73.29 73.67 73.46 73.41 72.48 72.80 72.52 72.19 72.12 72.37 72.84 73.31 72.93 71.47 71.32 72.78 72.22 71.87 71.14 70.78 70.38 69.73 69.82 69.82 70.22 69.74 70.33 69.18 69.28 70.52
71.19 71.06 71.52 70.90 71.46 71.29 69.98 68.97 69.24 68.57 70.83 70.09 72.35 73.25 72.90 74.10 69.23 68.70 71.83 72.70 72.53 72.34 72.28 72.24 72.53 71.92 71.22 68.89 68.69 69.51 71.84 72.12 71.27 70.76 70.79 70.47 70.35 69.43 69.25 69.18 68.48 68.37 68.06
71.52 71.92 72.06 72.12 71.32 71.06 71.13 69.94 69.02 68.66 67.91 71.13 70.36 72.56 73.43 73.45 67.05 66.45 68.75 73.01 73.17 73.26 72.94 72.97 72.81 74.64 71.76 73.31 69.03 66.78 67.02 67.25 69.39 72.33 71.13 70.18 69.28 69.98 69.61 68.84 69.07 69.14 69.79
67.08 71.59 72.44 72.43 71.90 71.67 71.12 70.92 70.55 70.52 68.35 67.99 71.88 71.30 72.32 73.72 66.40 64.98 66.89 72.37 72.35 72.53 73.86 73.78 73.31 73.45 72.36 72.37 72.25 72.11 71.87 71.28 69.41 68.69 69.59 71.50 71.71 72.05 71.55 72.30 71.03 70.89 73.45
66.21 65.88 70.62 72.94 72.34 71.89 71.14 71.05 71.35 71.62 71.09 69.02 70.69 73.08 72.55 72.65 64.62 63.73 65.20 71.39 72.03 71.85 72.23 73.27 73.80 73.45 68.78 65.53 71.90 71.61 71.76 72.45 70.31 64.33 64.89 64.64 63.89 63.30 66.35 71.08 70.94 71.15 70.90
65.85 65.97 67.01 70.71 72.78 72.16 72.08 71.68 72.02 71.73 71.70 72.11 70.91 71.10 70.46 73.72 64.75 62.52 64.30 72.71 70.92 71.07 71.91 72.10 66.13 71.58 65.23 63.29 71.02 71.75 70.59 70.97 70.36 70.22 71.17 67.72 64.03 67.18 63.70 68.44 71.32 70.18 69.95
66.85 66.40 67.20 68.15 71.46 72.87 72.79 72.99 72.51 72.04 71.84 72.04 71.97 72.06 72.62 72.36 72.75 61.40 60.61 73.05 73.01 71.24 70.38 70.79 71.67 62.76 60.78 60.03 61.14 72.03 71.09 71.68 69.77 70.91 71.53 72.21 72.65 72.87 73.52 70.59 68.96 70.54 68.94
65.60 65.74 66.67 68.56 71.26 73.02 72.74 72.99 72.74 72.29 71.55 71.14 71.65 72.18 72.84 73.51 66.44 62.64 59.89 61.55 69.69 73.16 71.87 71.26 71.12 61.51 58.12 57.89 58.62 61.42 59.82 60.45 68.03 70.29 70.63 71.08 70.68 71.06 71.94 73.35 74.19 73.25 74.28
69.86 70.21 70.00 72.23 72.69 72.82 72.53 72.36 72.24 72.21 72.12 71.55 70.88 71.05 72.13 73.40 74.14 62.65 59.76 59.27 61.08 71.11 74.22 69.98 63.47 58.58 57.83 59.71 59.37 59.71 58.42 63.57 67.11 68.46 69.95 70.62 70.69 71.96 73.69 73.34 73.43 74.05 74.66
66.48 68.28 71.97 72.35 72.35 72.31 72.98 72.67 72.58 72.11 71.75 71.82 71.62 71.38 71.90 72.88 73.56 74.70 70.10 65.05 61.42 63.60 67.64 70.35 66.35 64.73 62.73 65.46 63.95 61.43 62.22 65.34 67.09 68.22 69.46 70.26 71.08 71.24 72.13 72.06 72.24 70.97 70.95
62.69 65.76 69.97 72.35 70.82 72.23 72.78 72.63 72.80 73.36 71.92 72.23 72.20 72.57 72.17 72.10 73.09 69.11 70.21 72.93 71.69 67.99 67.24 71.02 66.93 66.75 68.08 68.55 68.94 68.21 64.29 65.32 66.54 67.88 69.18 70.63 71.54 71.99 72.08 71.69 70.41 70.20 70.20
60.32 63.52 68.73 72.74 72.60 73.29 72.12 67.43 51.67 53.89 56.27 56.55 58.16 68.36 73.11 65.51 60.98 55.78 53.12 56.56 57.11 55.66 65.18 70.28 70.53 70.00 69.72 70.26 69.52 70.15 68.42 66.61 69.23 70.54 71.85 72.42 71.45 69.82 69.80 69.48 70.14 68.55 64.84
57.69 61.04 64.99 67.63 73.46 73.03 73.42 71.12 69.78 58.92 47.48 46.59 50.40 53.12 56.49 63.68 53.30 52.39 53.12 51.31 51.31 54.75 71.68 70.52 70.97 70.78 71.28 71.39 70.76 70.95 71.34 71.53 70.80 71.99 72.14 69.66 69.95 68.71 67.94 68.42 65.10 63.12 62.48
56.57 55.88 61.08 66.29 72.25 73.56 73.94 73.62 71.88 71.09 69.65 67.35 50.22 54.39 50.58 50.04 50.94 49.86 46.96 52.94 58.90 59.58 70.69 70.90 70.87 71.01 70.74 70.92 70.00 70.02 70.45 70.27 69.55 69.00 68.37 68.30 67.76 66.47 63.82 62.76 62.86 61.56 60.58
55.56 58.17 64.09 67.17 70.90 71.99 74.20 74.10 72.52 70.22 71.02 71.00 59.99 53.48 48.35 44.42 44.24 44.96 47.86 68.98 67.34 67.51 69.70 70.16 70.16 69.07 68.73 67.99 67.06 66.86 66.45 66.36 66.49 66.04 65.45 65.41 65.84 64.88 63.06 62.47 61.33 56.67 57.72
55.63 56.83 58.49 65.32 69.23 70.36 70.81 71.22 68.82 68.71 69.30 67.26 66.54 66.90 60.81 57.97 66.26 64.71 63.69 67.08 67.88 69.32 70.16 69.66 68.76 67.72 66.65 66.04 65.50 65.26 64.85 64.61 64.98 64.99 65.33 64.82 65.05 64.02 62.66 62.15 62.02 61.09 60.12
55.10 56.41 62.50 65.05 66.36 68.96 69.64 70.59 68.69 68.91 68.60 66.92 66.08 62.71 53.84 68.85 66.81 66.08 64.82 65.54 68.05 68.03 67.62 67.40 66.34 65.79 65.25 64.77 63.85 64.69 63.85 64.26 64.35 63.51 62.92 62.76 62.83 62.45 62.37 60.74 59.84 58.86 57.70
55.88 57.79 62.24 62.26 63.35 65.52 66.97 66.56 66.74 65.29 63.76 62.63 62.24 61.58 52.21 63.96 63.06 61.88 61.51 61.69 63.12 64.39 65.11 63.24 58.53 56.95 57.21 57.25 60.20 60.66 57.27 56.29 57.71 59.14 59.21 59.18 60.09 60.15 59.93 59.42 56.99 56.14 55.87
57.67 60.05 58.81 58.56 59.30 59.44 62.76 63.96 64.62 64.01 63.33 62.45 62.65 62.36 62.38 60.73 59.94 59.32 57.67 56.41 53.96 54.38 54.69 53.58 51.42 49.15 47.03 45.43 45.89 48.75 49.43 48.25 48.65 52.82 53.37 54.34 54.67 56.14 57.13 57.25 55.99 54.97 54.76
57.47 56.39 54.57 53.28 53.95 55.36 56.53 57.03 56.71 55.62 59.64 59.44 59.26 58.76 58.31 57.79 56.69 53.04 50.67 48.67 46.51 46.35 46.55 45.55 44.22 42.07 41.55 40.50 40.56 39.96 39.47 40.51 43.55 45.21 49.35 49.56 48.80 50.25 51.34 50.85 49.70 52.56 53.21
48.25 47.82 47.71 48.73 47.79 46.76 47.86 50.25 51.19 51.35 51.58 52.43 52.67 52.99 54.62 54.51 52.62 49.86 47.98 45.63 43.45 41.80 41.25 40.46 39.62 39.86 40.37 39.75 38.95 37.58 33.10 35.31 40.58 39.26 43.88 45.02 44.36 44.18 42.25 42.01 42.38 43.03 45.85
43.57 43.59 45.14 44.19 44.36 45.08 45.26 43.33 44.48 45.35 44.45 45.22 46.16 46.43 46.85 46.90 48.61 46.82 45.38 43.86 42.15 41.15 41.08 41.07 40.97 40.95 39.73 37.92 36.72 34.85 32.39 34.05 37.52 35.91 45.07 43.08 42.03 41.44 41.55 41.35 42.39 42.23 41.59

GFSGL_sfc_wetblb_063.txt.gz
Wetbulb
68.88 69.15 68.84 68.34 70.00 68.91 67.24 68.08 69.07 70.11 70.76 70.76 72.34 71.91 71.36 71.80 71.89 71.49 70.59 70.36 70.70 70.20 70.16 70.40 70.08 69.98 69.80 69.80 70.23 70.12 68.41 65.55 63.89 65.66 65.72 69.19 69.22 68.76 70.75 71.26 71.96 71.27 70.92
69.13 68.84 68.45 68.28 68.56 69.83 68.56 67.51 67.95 68.32 68.96 69.80 71.12 72.28 71.79 72.03 71.76 71.60 71.37 71.71 70.19 70.18 70.46 70.24 70.55 71.66 70.71 70.23 69.85 69.40 68.88 68.39 67.09 65.62 66.49 68.45 69.05 70.86 70.94 71.32 72.26 73.32 72.91
69.54 68.96 68.38 68.08 67.82 68.26 69.42 69.12 67.14 67.50 68.31 70.72 71.50 72.09 71.77 71.99 72.19 71.65 71.53 71.46 71.34 71.31 71.16 70.59 70.57 70.75 70.36 70.48 69.98 70.05 69.90 70.56 68.80 68.17 69.16 69.23 70.17 69.97 70.74 70.80 71.04 71.51 72.43
69.34 69.63 69.04 68.61 68.13 68.29 68.69 69.29 69.17 67.05 67.53 68.49 72.01 72.62 72.59 72.23 72.62 72.56 72.02 71.28 70.99 71.22 71.47 71.42 71.73 71.45 70.53 70.13 70.48 70.88 70.59 70.21 69.49 68.48 67.81 67.99 68.91 70.45 70.14 69.61 70.61 69.97 70.36
68.49 69.06 69.43 69.87 69.34 68.53 68.23 68.68 68.82 68.79 67.82 67.55 69.52 72.63 72.68 72.85 72.95 72.15 72.33 72.10 71.44 71.17 71.33 71.60 71.99 72.09 70.63 70.15 71.24 70.46 70.30 69.77 69.41 68.93 68.44 68.44 68.89 69.18 69.52 69.29 68.73 69.04 69.31
68.63 68.31 69.46 69.76 70.22 69.10 68.18 67.80 68.23 68.35 68.76 67.22 67.99 69.39 71.95 73.17 68.84 67.99 71.15 71.96 71.77 71.34 70.72 70.86 71.72 71.15 70.59 68.01 67.40 68.38 70.81 70.48 69.51 69.11 69.07 69.50 69.40 69.16 68.78 68.10 67.51 67.06 67.06
69.29 69.14 69.19 69.50 69.68 70.19 69.55 68.11 67.55 68.02 68.21 68.31 68.73 69.67 69.73 71.80 66.23 65.99 67.73 72.02 71.27 71.44 71.48 71.34 71.19 73.10 70.48 72.08 68.59 66.60 66.28 65.92 68.12 71.70 70.64 70.48 69.74 69.42 68.50 67.65 67.83 67.63 67.92
69.33 69.92 70.14 70.12 69.43 70.09 70.28 69.33 68.18 68.09 67.97 67.19 67.67 68.82 70.39 71.20 65.59 64.27 66.21 71.34 72.03 71.84 72.08 72.04 71.74 71.87 71.59 71.87 71.89 71.40 71.15 70.91 69.13 68.89 70.48 72.53 71.99 72.07 70.27 70.35 69.89 69.18 70.56
66.72 68.43 70.85 71.16 70.73 70.09 70.06 69.94 70.10 68.81 68.16 68.12 67.40 67.56 68.76 69.94 63.57 62.94 64.44 70.32 71.17 71.44 71.66 71.95 72.73 72.59 68.37 64.73 71.41 70.70 71.03 71.41 68.67 63.77 64.70 64.51 63.28 62.57 65.14 69.56 68.75 68.23 69.07
66.56 66.20 66.50 69.74 71.58 71.25 70.98 70.56 70.77 70.58 69.69 69.76 68.52 67.66 66.40 69.62 62.14 61.82 63.72 71.59 71.08 71.42 71.87 71.17 65.17 70.15 64.40 62.05 69.62 70.88 70.38 71.40 70.96 70.15 69.29 65.87 62.89 66.30 62.10 68.46 70.33 70.27 69.39
66.84 66.04 65.95 66.41 66.83 71.56 71.96 71.54 71.12 70.63 70.84 70.39 70.41 69.59 68.84 69.73 70.66 59.44 59.64 71.69 71.75 71.20 71.05 71.21 71.57 62.12 60.03 59.35 60.24 71.84 70.68 71.25 69.53 69.25 69.09 69.61 70.47 71.50 71.91 69.16 70.01 71.24 69.64
69.30 65.75 65.46 65.54 67.60 69.30 69.60 71.76 71.38 70.94 70.14 70.09 70.02 70.53 70.97 70.45 63.52 61.00 58.88 61.02 67.90 71.81 71.20 71.54 70.94 60.15 57.94 57.69 58.87 61.52 60.28 61.25 67.81 68.32 68.37 69.32 69.36 70.49 71.69 72.18 73.25 71.23 72.31
64.52 65.58 67.94 69.29 66.92 67.39 68.76 70.09 71.51 71.61 70.81 70.36 69.97 70.00 70.61 71.77 71.75 60.40 58.14 58.35 60.60 69.80 73.16 69.65 63.16 58.62 55.80 57.74 57.68 59.83 58.73 63.58 66.60 65.35 67.27 68.14 69.71 71.16 70.81 71.43 73.51 74.22 73.88
61.60 63.47 64.62 65.81 68.41 71.65 71.47 71.07 70.83 71.44 71.12 70.85 70.41 69.95 70.40 71.24 72.03 72.41 67.54 63.09 59.98 63.40 67.32 69.65 66.91 63.64 62.08 64.79 63.77 61.57 63.48 64.74 65.68 66.72 67.78 69.10 68.62 69.14 70.18 71.58 72.19 72.24 71.17
58.72 61.26 62.12 64.53 67.90 70.92 71.67 70.92 71.40 72.28 70.93 71.35 71.40 71.41 70.36 70.07 70.92 67.98 68.92 71.35 70.40 67.13 67.96 70.65 71.53 67.67 69.01 67.96 67.36 67.81 65.05 63.63 64.87 66.36 66.63 67.17 68.12 68.96 70.22 71.42 71.74 70.88 69.89
56.50 59.45 60.43 61.96 64.27 67.88 71.01 69.83 52.37 56.02 55.01 55.42 56.22 66.40 71.41 63.54 59.90 55.37 54.00 54.36 55.81 54.55 66.22 70.70 70.22 70.73 70.75 70.60 70.17 69.40 68.46 65.73 66.28 66.68 67.22 67.92 68.51 69.88 70.31 69.48 70.11 70.02 68.80
53.59 56.18 58.39 59.26 62.32 64.97 69.09 71.45 69.62 60.14 48.56 50.01 48.74 51.46 53.06 62.61 51.28 51.83 51.10 51.64 51.64 53.46 70.96 71.04 70.97 70.67 70.48 70.31 70.48 70.04 70.19 69.86 69.06 69.23 69.43 70.02 69.84 70.22 67.55 67.89 67.64 65.13 63.04
52.53 52.75 55.86 57.56 60.06 63.59 67.31 71.10 72.38 70.21 69.54 68.80 54.87 53.28 50.92 50.19 49.11 50.19 50.01 53.08 59.06 55.92 71.21 71.99 70.81 70.67 70.58 70.54 70.42 70.69 70.87 71.51 70.79 70.72 70.63 70.38 69.43 68.66 65.63 66.11 65.77 63.53 61.96
51.67 54.19 56.84 58.37 60.25 62.56 66.01 69.34 72.71 71.47 71.21 70.48 64.77 53.64 51.28 47.29 46.75 46.39 48.74 70.41 69.81 67.96 67.67 70.74 71.73 71.03 71.19 71.17 71.15 71.17 71.26 71.03 71.35 70.70 69.61 69.21 67.85 66.25 64.41 63.56 62.90 57.73 58.45
52.01 54.17 55.22 56.38 57.46 61.69 64.21 67.90 71.68 72.12 71.31 71.16 69.25 69.02 58.47 58.03 64.02 63.82 60.06 65.34 70.29 70.51 70.17 69.18 70.85 70.40 70.63 70.85 69.21 69.25 68.37 67.33 67.80 67.15 64.36 63.92 63.99 63.06 62.71 61.85 61.79 60.66 60.39
52.40 53.84 54.93 56.20 57.04 61.98 64.73 67.96 71.36 70.65 70.24 70.56 69.66 65.70 55.27 66.04 69.30 70.40 67.33 66.40 67.51 67.20 67.92 68.82 67.37 66.42 66.06 66.17 65.47 65.45 65.79 65.11 64.10 63.33 62.75 62.69 62.49 61.86 61.74 61.49 61.15 61.95 60.79
53.47 53.43 55.04 56.18 59.53 63.56 65.28 68.23 69.79 69.57 69.48 68.21 64.25 59.74 50.38 66.06 66.20 64.36 63.66 62.96 63.12 62.44 63.68 62.21 59.16 59.68 60.46 62.26 63.62 63.26 62.89 61.83 61.45 61.04 60.70 60.19 60.97 61.37 60.79 60.07 59.77 59.59 58.68
52.22 55.04 56.28 58.49 59.71 59.16 64.03 66.54 67.49 68.41 66.63 64.98 64.62 62.67 63.24 61.99 60.58 58.73 56.72 55.58 55.20 55.05 54.69 54.63 53.46 49.77 51.47 50.38 51.91 55.28 56.94 56.02 56.70 57.91 56.46 55.49 56.84 57.96 58.89 57.93 57.34 55.88 55.76
49.02 51.36 53.90 52.48 51.64 53.04 55.11 56.60 58.41 56.18 63.24 63.69 63.85 62.49 59.60 56.44 52.77 50.34 49.78 48.90 47.08 47.26 47.81 44.81 44.94 45.08 44.83 44.60 44.26 44.90 47.04 46.77 47.04 49.78 51.51 51.58 52.25 51.69 54.61 53.86 53.71 53.44 53.63
45.05 45.89 45.85 47.33 46.37 45.92 46.99 47.51 47.89 48.45 49.93 53.97 54.83 53.65 50.72 47.64 45.49 44.90 43.75 43.12 41.99 43.88 42.41 41.68 40.80 40.22 39.28 39.56 38.86 38.77 34.69 36.08 43.91 42.53 48.15 47.87 46.79 45.04 43.82 43.26 44.44 47.22 47.09
42.45 42.07 41.74 43.53 44.05 44.70 43.01 43.00 44.30 44.84 45.74 46.84 47.76 48.72 46.25 44.30 42.77 41.95 41.84 41.00 40.53 39.00 38.93 38.89 38.66 38.69 38.76 37.63 35.95 34.24 32.22 34.12 39.24 36.91 44.14 45.21 45.54 43.02 41.47 41.71 41.67 40.68 40.68

GFSGL_sfc_wetblb_066.txt.gz
Wetbulb
69.22 69.27 69.22 68.89 68.11 68.16 68.78 70.04 71.22 72.03 72.21 72.67 73.48 73.48 73.19 73.16 73.78 73.15 72.91 72.51 72.15 72.17 72.27 72.83 73.02 72.95 72.48 72.58 72.65 72.77 71.34 69.00 68.82 70.88 69.76 72.79 73.82 74.68 75.72 75.87 76.17 76.49 76.10
69.11 69.29 68.85 69.18 69.86 68.46 68.14 68.93 70.10 70.79 71.85 72.71 72.88 73.50 73.18 73.03 72.86 73.28 72.91 73.15 72.17 71.97 72.60 72.30 72.56 72.83 72.87 73.26 72.55 72.84 72.47 71.91 70.85 70.32 71.31 72.73 73.70 74.88 74.97 75.40 75.43 76.00 75.60
69.12 69.12 68.95 68.29 68.62 69.65 69.44 68.84 69.11 69.55 69.93 70.81 72.10 72.50 73.18 73.32 73.28 73.42 73.37 73.35 73.20 72.66 72.67 72.56 72.80 72.77 73.09 73.39 73.28 72.87 72.73 72.86 72.12 71.25 72.45 73.01 73.28 73.72 74.62 75.52 75.51 75.76 75.02
69.00 68.70 68.58 68.34 68.10 68.76 69.67 70.01 68.96 69.37 69.45 69.70 71.35 72.14 73.07 73.35 73.51 73.51 73.06 73.10 73.23 73.27 73.49 73.39 73.50 73.32 73.31 73.54 73.02 73.29 73.69 73.22 73.07 72.38 71.83 71.85 72.36 74.35 73.77 73.30 73.77 74.41 73.84
68.69 68.87 68.56 68.92 69.12 68.81 68.77 69.33 70.11 69.35 69.47 69.72 69.93 72.10 73.31 73.54 73.23 73.43 73.63 73.11 72.93 72.88 73.44 73.57 73.65 73.17 70.83 71.56 73.88 74.08 73.40 72.62 72.58 72.25 72.01 72.16 72.41 72.93 73.36 73.83 72.41 72.58 73.89
68.20 68.40 69.83 69.90 69.70 68.87 68.57 68.61 69.19 69.77 69.45 68.87 69.18 70.24 71.78 72.78 68.58 67.85 71.92 73.44 73.51 73.22 72.82 73.20 74.04 71.46 70.98 67.76 67.18 67.94 72.34 73.89 73.53 72.82 72.93 72.16 73.61 73.11 73.73 72.98 71.94 71.91 71.42
68.04 68.68 69.00 70.14 70.01 69.83 69.48 68.75 68.35 68.59 69.64 69.10 68.55 69.11 70.20 71.67 65.71 66.00 67.65 73.75 73.35 73.21 73.48 73.34 72.86 73.28 71.42 74.03 69.19 66.26 66.24 65.79 68.10 74.59 73.32 73.69 73.90 74.87 74.11 73.36 72.46 71.78 72.10
67.66 69.20 69.42 69.40 69.67 70.07 70.29 69.14 68.57 68.68 68.61 68.63 69.17 69.24 69.41 70.12 64.38 64.11 66.26 72.55 73.15 72.95 73.10 73.17 73.22 73.60 73.64 73.60 73.93 73.83 74.15 74.30 72.63 71.03 72.26 74.28 75.28 76.00 74.66 74.53 73.73 73.28 73.55
67.33 68.28 70.37 69.72 69.46 69.70 69.81 70.16 69.81 68.92 68.50 68.78 68.94 68.99 69.30 69.89 62.18 62.20 64.82 71.45 71.84 72.53 73.20 73.65 73.55 73.68 68.38 64.63 73.62 73.45 73.81 74.02 69.57 64.12 65.10 65.06 64.18 62.92 67.35 72.76 71.81 71.80 71.91
67.31 67.87 68.32 69.17 70.94 70.08 69.61 70.29 70.87 70.71 69.51 69.41 69.27 68.95 66.44 69.45 61.61 60.40 63.15 70.81 70.17 70.93 72.64 73.12 65.54 71.42 64.34 61.76 71.93 73.31 72.45 73.13 74.00 74.15 73.42 68.90 64.63 68.36 61.61 70.11 72.64 72.08 73.00
68.61 68.33 67.46 67.35 68.12 71.69 71.70 71.27 71.26 71.07 71.10 70.18 69.56 69.92 68.99 67.74 68.60 58.67 59.10 70.85 70.58 70.37 70.83 71.69 73.11 61.72 59.95 58.49 60.74 73.44 72.08 72.86 71.69 73.23 73.61 73.23 73.23 73.45 74.35 70.79 72.29 73.51 73.59
65.82 66.51 67.18 67.33 67.17 68.91 69.87 72.07 71.80 71.03 70.43 70.34 70.29 70.36 70.54 69.63 62.03 58.91 57.53 60.32 67.19 71.01 70.63 71.86 71.95 59.74 57.65 56.82 58.43 61.54 60.22 61.12 72.23 72.52 72.28 72.16 72.58 73.44 73.73 74.44 75.24 74.12 75.42
64.47 63.94 64.25 66.04 68.21 68.07 68.00 68.62 71.34 71.71 70.82 70.29 70.15 70.09 70.75 71.92 70.76 59.37 57.02 57.38 60.22 69.45 72.40 68.88 63.19 58.46 56.62 58.20 57.42 59.07 58.19 66.59 69.42 70.18 70.18 70.93 72.24 73.21 74.10 74.02 74.98 75.75 75.56
61.44 62.09 63.37 63.64 64.14 66.80 69.52 68.27 68.20 70.88 70.86 70.82 70.33 70.32 70.79 71.40 71.99 72.28 66.88 63.01 59.68 63.28 66.47 69.68 67.30 64.40 62.94 66.12 65.42 62.96 65.53 68.45 69.12 69.45 70.14 71.25 72.54 72.01 72.23 73.41 72.92 74.49 74.08
58.83 60.20 62.10 62.98 63.56 64.31 67.96 70.01 70.55 69.68 69.87 71.53 71.52 71.67 70.86 70.56 71.45 67.60 67.72 69.96 69.04 66.61 67.91 71.23 71.54 71.46 71.16 71.26 70.15 70.34 69.64 68.38 67.70 68.71 69.61 70.37 70.96 71.79 72.02 72.71 73.54 74.50 73.34
56.64 57.80 59.44 61.58 62.06 63.42 64.22 66.58 58.69 56.64 52.33 52.12 56.68 66.91 72.10 64.09 57.28 54.34 53.26 52.17 53.80 52.53 66.20 70.13 69.96 70.44 70.61 70.65 71.07 71.91 71.23 68.03 69.65 70.19 69.86 70.33 70.45 70.72 71.59 72.87 73.32 72.60 72.02
53.74 54.99 56.72 56.91 59.61 61.20 62.47 63.69 65.02 66.08 52.35 49.63 48.18 49.27 53.24 62.48 51.99 52.17 50.17 49.27 51.81 53.62 70.41 70.66 70.54 70.96 70.64 70.82 71.79 71.85 71.96 71.80 71.63 70.85 70.86 70.82 71.13 71.62 70.27 72.44 71.58 71.62 71.53
52.86 51.40 53.85 55.27 57.25 60.02 61.93 63.36 65.53 66.77 69.78 70.20 54.65 53.80 49.81 48.18 47.27 49.09 47.64 49.81 62.17 55.35 70.96 71.30 71.68 71.97 71.65 71.11 71.24 71.39 72.36 72.75 71.91 71.43 71.28 71.91 71.55 71.16 71.12 71.26 71.48 71.30 71.09
50.88 52.19 53.21 54.47 56.20 58.44 61.11 61.94 63.19 63.95 66.88 71.07 70.13 54.53 51.22 45.28 47.64 45.64 45.64 69.92 69.91 69.99 67.67 70.83 72.50 73.29 71.95 71.63 71.66 72.31 72.56 72.45 71.98 71.98 71.55 72.13 71.95 71.84 71.74 71.49 69.57 59.24 63.01
49.98 51.89 52.46 53.18 54.61 56.58 59.18 60.95 62.42 64.40 66.15 69.90 71.86 71.43 59.60 56.76 59.80 61.12 59.39 65.23 71.06 71.95 71.98 70.35 71.36 72.54 72.65 72.13 72.20 72.16 72.05 71.42 71.58 71.74 71.58 70.52 68.39 67.04 66.27 65.11 66.23 66.34 65.75
49.93 50.63 52.13 52.71 53.72 55.55 57.63 60.29 61.67 63.26 65.26 69.36 70.97 71.09 56.88 67.56 69.07 69.00 68.51 66.41 68.53 71.23 72.68 72.67 71.42 71.80 72.43 72.32 72.16 71.39 71.03 70.68 70.09 68.23 66.49 65.93 66.00 64.96 65.35 65.95 65.98 66.03 65.44
49.77 50.86 51.47 51.56 53.62 55.13 57.32 60.61 62.02 63.16 65.23 67.76 70.58 69.52 49.27 67.81 70.00 70.67 71.14 70.44 69.56 69.36 70.47 70.85 69.53 70.32 70.18 70.02 69.48 68.94 67.69 65.89 65.32 64.92 64.74 64.74 65.40 65.63 66.26 65.64 65.17 64.03 62.93
50.56 50.82 50.62 51.64 52.96 54.20 56.14 58.58 62.47 63.18 64.78 67.31 69.90 66.56 60.00 65.02 63.89 59.54 55.60 53.73 51.94 51.00 51.54 53.79 54.67 52.70 52.14 54.09 59.55 65.02 64.54 63.62 64.62 64.32 64.04 64.40 64.32 64.45 64.46 63.65 61.79 60.42 60.08
48.73 49.43 49.60 51.93 54.25 53.98 56.08 58.66 60.68 57.89 62.92 66.35 66.75 64.14 63.22 58.17 52.62 49.50 46.93 46.05 45.80 44.83 44.85 43.66 43.62 42.95 43.73 43.92 44.46 44.61 45.48 51.42 56.10 58.50 61.20 60.65 59.82 57.70 60.44 59.99 59.29 58.73 57.92
44.36 44.40 45.62 45.58 46.63 45.83 46.41 48.03 49.59 51.15 53.32 56.06 55.11 51.94 49.12 47.26 44.97 43.75 43.71 43.37 42.71 42.11 41.74 41.87 41.63 42.29 43.90 44.18 42.34 40.47 36.56 36.28 44.00 42.29 51.09 54.82 54.52 54.87 55.56 54.80 54.38 55.02 55.24
42.52 41.97 41.60 41.84 41.99 43.65 43.34 43.01 44.29 46.01 47.42 47.93 46.06 44.62 43.60 42.55 42.05 41.20 41.05 40.39 39.94 40.19 40.42 40.84 41.00 41.48 41.86 40.79 39.58 37.44 35.53 37.26 40.22 38.54 45.61 45.58 45.63 45.88 46.17 46.13 46.75 46.74 46.82

GFSGL_sfc_wetblb_069.txt.gz
Wetbulb
72.57 73.45 73.31 72.76 73.12 73.75 73.78 74.78 75.74 76.33 76.50 76.52 76.83 76.80 77.19 76.96 77.31 77.03 76.65 76.33 76.06 76.16 76.25 76.07 76.17 77.11 75.09 75.53 76.37 76.17 75.27 74.60 72.10 73.89 75.65 77.02 78.22 78.22 78.47 79.31 79.13 79.08 77.20
72.92 73.32 72.82 73.53 73.18 72.71 72.95 73.89 75.50 75.73 76.44 76.83 77.08 76.90 77.19 77.03 77.30 76.84 76.56 75.87 75.67 75.62 75.77 75.92 75.50 75.64 76.79 76.87 75.86 76.75 75.86 76.49 74.24 73.80 75.95 75.72 76.95 78.46 78.72 78.81 78.03 77.41 78.48
71.50 71.35 72.15 72.62 72.79 72.90 73.18 73.48 74.00 74.80 75.86 75.95 76.94 76.80 76.93 76.94 77.04 77.24 77.02 76.76 76.41 76.05 75.91 76.13 76.00 76.33 76.22 75.85 76.69 76.02 75.90 76.27 76.29 74.96 74.21 75.87 76.56 77.14 77.46 78.05 78.34 78.80 77.87
71.53 70.49 71.43 71.11 72.08 73.13 74.45 74.16 73.62 74.54 74.47 75.05 75.66 76.41 76.91 77.17 77.31 77.19 76.97 76.99 76.94 76.71 76.63 76.55 76.52 76.41 76.65 77.19 76.41 76.83 76.72 75.94 76.12 75.27 74.33 74.58 75.23 77.18 77.12 75.69 74.93 76.47 76.78
71.73 71.66 71.71 72.90 72.73 71.55 72.23 74.76 74.21 74.08 74.14 74.97 74.47 74.94 75.62 75.67 75.59 76.64 76.92 76.80 76.69 76.55 76.72 76.72 76.79 75.77 72.20 73.37 75.77 76.72 77.04 76.05 75.04 74.35 73.77 73.97 74.07 74.14 74.42 75.72 74.92 75.91 77.49
69.34 71.18 73.14 73.67 74.07 73.72 73.67 73.21 74.68 74.23 74.02 74.56 73.83 73.97 74.28 73.88 68.19 68.16 73.87 76.45 76.61 76.45 76.18 76.58 77.14 73.14 72.55 68.01 67.59 68.25 72.57 76.33 75.82 74.45 73.67 73.53 74.99 75.58 75.83 75.10 75.02 74.45 72.24
68.99 69.47 71.80 73.18 73.40 73.89 73.49 73.65 73.78 73.83 74.37 73.67 73.82 74.13 74.31 75.39 65.51 65.93 68.34 75.71 76.30 76.83 76.81 76.66 76.22 75.97 74.01 76.91 69.69 66.67 67.03 66.00 68.37 76.10 74.86 74.75 75.05 76.19 76.96 76.16 76.29 75.75 74.41
70.04 69.15 70.97 72.27 72.50 73.57 73.35 73.17 73.38 73.42 73.76 73.82 73.61 74.37 74.38 74.25 64.47 63.76 66.18 74.86 76.28 76.37 76.82 77.05 76.83 76.90 76.63 76.16 76.48 76.13 76.33 76.56 75.53 74.16 75.48 76.49 77.33 78.20 78.18 77.67 77.25 76.71 76.39
67.16 69.87 71.39 72.20 72.16 72.57 72.57 73.66 73.44 72.75 72.71 73.25 73.39 74.00 73.77 74.22 62.40 61.77 65.40 73.73 74.09 76.27 76.74 76.71 77.22 76.97 71.16 65.56 75.58 75.39 76.05 76.21 70.34 66.45 66.67 66.34 66.09 64.41 68.68 76.07 74.58 73.42 72.16
62.95 67.66 69.81 71.43 70.96 72.82 72.92 73.34 73.86 73.88 72.89 72.79 72.60 73.49 70.32 74.27 63.99 59.97 63.75 71.93 72.79 72.83 75.58 76.84 66.75 73.35 65.73 62.49 74.24 75.24 74.75 75.14 75.62 75.79 76.51 71.18 66.67 71.79 62.30 73.91 75.48 73.39 72.76
62.05 67.31 67.63 68.71 70.64 71.17 71.80 74.45 73.74 73.55 73.69 73.67 73.00 73.56 73.96 72.50 72.86 59.40 58.53 72.18 72.28 72.56 72.05 72.64 73.38 62.73 61.16 58.86 61.81 76.21 75.07 75.13 72.68 75.54 75.43 75.69 76.48 77.02 76.99 75.33 76.27 75.43 73.61
60.01 65.07 65.88 66.84 68.22 70.13 71.58 71.35 74.16 74.38 74.02 73.61 73.73 73.15 73.50 74.25 64.89 61.49 57.65 59.37 68.01 72.90 73.42 73.71 73.57 60.47 57.93 57.57 59.76 63.98 61.47 63.41 74.26 73.33 73.06 73.92 74.45 74.97 75.76 76.91 78.67 77.81 77.31
59.17 63.77 63.69 65.34 67.16 68.62 70.62 71.11 71.01 71.37 72.89 73.26 72.51 72.42 73.23 74.60 74.36 59.68 56.84 57.14 59.16 70.40 73.92 70.91 63.19 56.91 56.04 58.93 57.65 60.31 59.16 71.54 72.84 72.22 72.10 72.73 74.26 75.48 76.99 76.95 77.31 77.83 78.12
55.63 60.89 62.63 62.74 64.43 66.72 67.60 69.48 70.23 70.50 70.94 71.71 72.32 72.19 73.25 74.23 74.68 75.15 71.15 66.41 59.20 63.28 66.91 71.18 68.77 65.96 63.96 68.12 68.52 64.09 69.84 72.96 72.62 72.41 72.21 73.46 74.88 75.15 74.71 75.38 74.56 75.42 75.48
53.56 58.00 60.63 61.15 62.54 64.84 66.09 67.16 69.81 71.58 70.23 71.02 72.45 73.42 72.76 73.04 73.64 69.10 69.99 73.77 72.48 68.39 68.98 72.35 72.79 72.65 72.59 73.07 73.45 73.97 74.28 73.59 72.53 73.26 73.54 73.51 73.91 74.44 74.35 75.56 75.40 75.26 74.19
54.22 55.90 58.03 58.83 60.62 62.76 64.52 64.62 57.27 55.66 54.33 53.62 54.52 61.65 73.22 65.01 58.70 53.73 53.08 52.90 52.72 53.42 68.98 72.21 72.44 72.44 71.69 71.52 72.17 73.45 74.00 72.12 73.88 73.55 73.58 73.57 73.42 73.82 74.14 75.21 75.49 74.78 74.05
54.42 56.51 56.93 56.48 58.11 59.59 62.06 64.04 63.35 62.48 53.26 50.72 49.09 50.54 50.00 59.66 52.17 51.63 51.27 51.09 50.91 54.09 71.23 72.38 72.55 72.72 72.24 72.12 73.01 73.53 73.42 74.28 75.92 73.59 73.21 73.25 73.67 73.76 73.09 74.31 74.78 74.73 74.08
53.12 52.42 55.07 55.60 56.17 57.63 59.38 62.69 64.07 63.83 64.82 66.80 55.96 53.12 49.89 48.55 49.09 48.19 48.37 49.40 63.50 56.10 72.01 72.43 72.89 72.69 72.65 73.23 73.33 72.85 73.11 74.45 74.66 74.10 73.50 73.56 73.51 73.56 73.48 73.69 74.05 74.36 73.99
50.46 51.27 53.09 54.17 54.93 55.94 57.07 58.94 62.64 63.49 63.89 64.57 66.75 61.76 56.77 46.55 49.27 50.18 49.27 69.40 71.23 72.11 68.45 71.52 73.11 73.81 73.91 74.60 74.51 74.48 74.53 72.31 72.17 73.70 73.59 73.67 74.09 74.55 73.91 74.28 74.20 64.67 68.67
49.27 50.82 51.51 52.60 54.01 55.13 56.02 56.60 58.70 61.12 62.72 63.77 64.77 67.29 71.57 59.61 63.03 61.06 60.16 64.12 71.73 73.82 74.49 73.09 73.21 74.52 73.99 74.17 74.47 74.49 74.79 72.08 72.06 72.60 72.81 73.17 73.14 73.63 73.24 73.56 73.18 68.56 66.89
47.98 48.86 50.83 52.53 53.41 54.00 53.66 54.83 57.48 60.12 61.95 63.45 64.85 66.39 56.49 66.71 68.56 68.15 67.57 67.23 70.83 73.70 74.52 75.14 74.79 74.40 75.03 75.72 74.76 73.94 73.48 73.18 72.40 72.33 72.48 72.86 72.76 71.69 72.12 70.62 69.07 68.96 69.80
48.41 48.97 49.82 49.55 51.12 52.44 53.91 55.25 56.41 58.37 61.93 63.59 64.20 64.56 51.81 64.86 70.93 72.91 71.03 69.55 70.74 73.11 74.80 75.83 75.48 74.87 74.19 73.94 74.22 73.86 72.78 72.36 72.37 71.71 71.38 69.69 69.08 68.74 67.82 67.59 69.12 69.72 68.82
48.66 48.44 49.07 50.06 51.08 51.29 53.00 54.36 55.53 56.45 59.49 63.51 65.45 65.08 67.35 64.75 69.19 71.01 65.89 60.45 57.19 56.45 56.77 59.06 63.60 61.31 55.94 55.58 55.50 61.85 71.35 71.35 70.18 69.46 68.36 67.73 67.52 67.83 68.74 69.36 69.08 68.34 67.87
47.22 47.65 48.48 49.37 50.66 51.54 52.58 53.90 55.18 53.47 57.41 61.93 65.21 66.10 66.86 65.22 59.73 54.23 52.04 50.86 49.92 48.64 48.40 50.35 49.14 49.96 47.44 47.91 48.73 47.69 48.77 54.70 61.86 66.29 67.14 67.91 69.06 66.40 68.94 68.22 67.65 67.04 66.67
43.88 44.92 45.83 47.42 48.07 49.41 50.68 50.53 51.86 53.08 53.89 55.91 59.65 61.25 53.56 50.26 47.39 46.16 45.62 45.11 44.94 44.61 44.59 45.04 46.06 44.59 45.33 45.58 44.49 44.20 41.43 39.70 50.37 50.62 64.00 65.02 63.64 62.67 64.40 63.74 60.48 60.44 60.20
42.46 42.58 42.81 43.15 43.86 45.55 45.96 45.78 46.49 47.03 48.80 47.97 47.12 46.74 45.44 43.47 42.52 42.25 42.09 41.94 41.79 42.11 42.09 42.36 42.10 41.56 40.70 40.15 39.39 37.08 36.32 40.75 43.72 41.31 51.86 52.52 50.38 48.41 47.90 46.62 46.35 46.65 48.66

GFSGL_sfc_wetblb_072.txt.gz
Wetbulb
75.83 76.07 75.92 75.85 76.11 76.71 76.32 76.58 76.93 76.87 77.41 77.91 78.04 78.18 77.61 77.22 77.96 78.64 77.69 77.04 77.21 76.88 76.68 76.36 77.05 77.80 75.30 75.02 75.75 75.54 74.76 74.46 71.71 73.38 76.33 78.36 79.22 79.19 79.29 79.89 78.70 78.30 76.74
75.71 76.08 75.54 75.75 76.01 75.60 75.93 76.29 76.98 76.79 77.25 78.03 78.76 78.23 78.21 77.82 78.31 77.95 76.72 76.53 76.28 76.18 76.60 76.65 76.16 75.61 77.44 77.45 75.70 76.77 76.27 76.51 74.12 74.23 76.63 76.08 77.92 79.12 79.08 79.45 78.01 77.59 78.30
74.70 74.90 74.70 74.60 74.96 75.41 75.60 76.26 76.38 76.54 76.84 77.09 77.60 77.99 78.06 77.91 78.39 78.59 77.57 76.96 77.28 76.90 77.06 76.70 76.82 76.64 76.35 75.69 76.71 75.51 75.56 76.04 76.26 74.93 74.36 75.76 76.50 77.62 77.97 79.50 78.65 79.07 77.40
74.33 74.18 74.34 74.08 74.51 75.28 75.85 76.29 76.14 76.51 76.27 76.60 77.15 77.63 77.81 77.10 77.76 78.05 78.26 77.40 77.44 77.12 77.79 77.50 77.09 76.87 77.08 77.48 76.98 77.51 77.33 76.11 76.71 74.86 74.35 74.39 75.27 77.54 77.20 75.21 74.48 75.93 76.49
72.61 73.82 74.13 74.85 75.39 75.49 75.74 76.32 76.50 76.36 76.20 76.39 76.28 76.74 77.38 77.21 76.30 77.37 78.14 78.10 77.73 77.64 78.01 78.30 77.92 75.80 72.57 74.06 76.68 78.23 78.80 76.52 74.77 73.89 73.63 74.03 74.15 74.27 75.68 74.62 74.32 74.70 77.62
71.39 71.99 73.22 75.37 75.63 75.52 75.66 75.28 76.31 76.40 76.44 76.44 75.77 75.53 75.57 75.22 69.38 68.22 74.35 77.62 77.82 77.64 77.28 78.25 78.45 74.10 73.42 68.95 68.85 68.88 72.59 76.93 76.12 75.00 73.94 74.06 77.49 76.23 75.89 74.33 74.30 73.00 72.15
65.03 71.31 72.73 73.19 74.63 75.37 75.90 75.75 75.24 75.10 76.35 76.70 76.04 76.00 76.07 76.38 66.05 65.16 68.55 75.87 76.29 76.99 77.41 77.24 77.34 76.89 75.18 77.57 70.22 67.30 67.77 66.43 68.01 76.03 75.51 75.99 76.53 76.85 77.80 76.56 77.68 75.49 74.62
62.40 66.57 70.69 72.25 73.14 74.32 75.35 74.99 75.62 75.69 75.48 76.11 76.41 77.31 77.21 76.62 65.38 63.71 65.83 75.50 76.20 77.34 77.43 77.50 78.11 78.33 77.66 77.03 77.35 76.64 76.99 77.30 76.20 75.32 75.89 76.35 77.79 78.27 78.96 78.82 78.55 78.19 77.12
58.77 62.10 66.70 67.50 72.21 72.86 73.71 74.90 74.60 74.97 75.29 75.30 75.62 76.56 77.13 77.46 63.07 62.70 66.09 74.55 74.28 76.37 77.54 78.40 78.87 78.63 71.98 65.71 76.91 76.41 76.88 76.99 70.83 66.49 67.15 66.57 64.70 64.81 69.32 75.78 73.71 72.48 71.08
55.18 58.32 62.02 67.71 68.04 70.22 73.27 75.35 76.98 75.70 75.19 75.05 75.39 76.19 72.13 76.53 65.37 60.28 65.09 73.67 74.09 73.03 76.16 77.89 67.84 74.32 66.42 62.93 76.76 76.80 75.83 75.87 75.39 75.72 76.57 72.97 69.09 73.81 65.03 74.98 75.57 72.43 71.14
56.74 57.33 59.93 64.99 67.11 66.48 70.10 74.85 74.77 76.05 76.61 75.95 75.03 76.24 76.43 75.06 75.07 59.49 58.57 73.53 73.26 73.36 73.04 72.75 73.47 63.12 62.01 59.43 62.53 77.82 75.81 75.09 72.65 74.91 74.55 74.39 75.33 76.57 77.78 77.42 77.69 76.04 72.49
58.19 56.01 56.67 59.45 64.58 64.74 68.49 67.86 72.97 75.90 75.80 75.65 76.53 75.20 75.84 76.74 66.59 62.46 57.55 59.45 68.62 73.95 74.88 74.68 75.08 60.01 57.84 58.98 61.31 64.83 61.02 64.12 73.30 71.16 70.74 70.92 71.48 72.85 74.36 76.66 80.38 79.68 78.49
57.58 58.43 56.85 59.23 62.41 65.35 66.81 68.04 66.84 72.33 73.22 75.13 75.67 73.91 74.37 75.73 76.78 61.31 57.55 57.23 58.76 69.21 74.62 71.63 62.39 57.12 54.00 58.27 58.80 61.41 60.50 72.42 72.14 70.17 70.27 70.49 71.66 72.34 77.38 78.59 80.38 82.42 80.85
55.89 57.27 58.71 56.31 58.79 63.12 63.73 65.53 66.85 66.26 70.38 71.95 72.87 74.51 75.53 75.06 75.79 77.07 74.12 68.80 60.07 64.38 66.49 70.27 69.47 66.03 62.08 67.54 69.69 65.24 70.99 73.19 72.36 71.97 71.16 71.60 72.84 72.24 72.39 74.23 74.53 75.08 75.06
54.95 55.85 57.50 59.10 59.30 61.16 63.27 64.19 66.18 66.96 66.04 70.35 72.77 74.17 73.96 73.66 74.53 69.47 70.92 76.89 76.46 70.57 70.17 73.84 73.83 73.80 73.81 74.24 74.15 74.30 74.46 73.86 72.81 73.32 73.43 73.22 72.62 72.05 71.95 73.64 73.97 74.19 73.22
52.70 54.43 56.04 58.21 59.21 60.21 61.00 61.93 56.89 55.52 54.57 52.98 51.76 57.21 71.13 63.18 55.25 55.63 53.14 54.04 55.12 55.28 70.89 72.65 73.64 74.21 74.08 74.47 73.99 73.88 74.28 72.48 74.69 74.57 74.23 73.78 73.02 72.40 72.05 72.99 73.71 73.40 73.02
49.40 52.20 54.57 54.23 58.80 59.70 60.16 59.99 59.88 61.62 51.48 50.01 49.50 49.87 50.21 56.68 54.02 49.14 47.51 49.87 49.32 53.74 71.12 73.00 73.78 74.40 75.14 75.34 75.29 75.11 74.35 74.81 76.74 74.60 74.26 74.05 73.35 73.44 71.95 72.52 72.84 73.52 74.48
49.26 48.73 51.81 53.77 54.35 56.54 58.74 59.40 59.69 61.10 62.54 64.75 55.69 53.08 51.01 47.69 48.96 47.33 48.96 53.83 66.82 57.80 71.01 71.79 72.98 75.00 75.62 76.23 75.69 75.91 75.81 76.02 75.92 75.53 75.22 74.73 74.42 73.42 72.75 72.80 73.05 73.73 73.74
48.98 49.27 50.33 52.72 54.82 54.55 56.58 57.27 57.99 59.20 61.23 63.17 65.58 60.73 55.59 47.69 44.97 44.07 47.15 64.36 71.30 71.71 71.78 72.47 72.52 73.98 75.14 75.40 75.62 76.32 76.97 76.55 75.98 76.27 76.16 75.74 75.26 74.65 73.80 73.87 73.56 64.63 68.65
47.09 48.73 50.05 51.35 52.12 53.20 55.54 56.60 57.88 58.16 59.37 61.26 62.77 64.63 66.04 65.54 68.91 70.38 61.56 61.87 69.65 72.93 74.10 74.18 74.40 74.73 75.09 76.47 76.73 76.87 76.41 75.75 75.51 75.20 75.72 75.90 74.80 75.43 75.45 75.29 75.09 74.65 74.88
46.28 47.72 48.85 49.09 51.94 52.08 53.69 55.00 56.97 57.20 57.36 59.95 61.84 63.17 53.11 65.63 67.82 69.08 71.79 68.22 69.66 72.64 74.26 75.37 75.64 75.69 76.06 76.30 76.50 76.16 76.18 76.20 75.25 74.93 75.18 75.05 74.77 73.05 73.41 73.37 73.35 73.52 74.08
46.22 46.95 48.39 48.51 49.62 50.41 51.07 52.65 53.60 56.16 57.68 58.60 61.10 62.54 50.90 65.44 65.98 66.96 69.36 72.73 72.46 71.78 71.96 74.96 76.17 76.16 77.21 77.34 76.26 76.43 77.15 75.92 75.43 74.85 74.47 74.50 74.20 73.14 73.14 72.52 72.44 71.72 71.55
45.96 46.51 47.76 48.26 48.80 49.41 50.53 51.38 51.97 53.53 56.10 58.32 60.67 61.91 63.21 65.11 66.11 67.45 68.83 71.41 68.18 66.22 62.96 60.53 64.80 69.87 65.93 64.53 62.99 66.00 70.95 74.78 75.80 75.29 73.49 73.27 71.89 71.73 70.63 69.64 69.70 69.33 69.66
45.87 46.22 46.73 47.68 48.60 49.27 49.90 50.32 51.64 50.28 54.00 57.91 59.80 61.52 63.02 64.21 65.54 68.02 64.92 57.91 54.64 52.27 51.52 52.06 52.09 53.41 52.55 52.03 51.07 52.32 53.18 53.74 57.04 67.48 71.57 70.75 69.73 65.85 69.25 68.83 68.47 69.28 70.09
42.17 43.44 44.33 44.88 45.85 46.88 48.37 49.53 50.57 52.05 53.87 55.65 56.95 59.48 62.47 62.04 59.30 53.50 52.33 50.97 48.71 48.03 46.52 46.39 47.20 47.24 46.12 45.29 45.13 46.88 43.71 44.07 53.30 50.57 64.54 65.68 66.06 65.68 66.43 67.52 67.85 65.74 66.83
38.85 40.12 42.15 43.00 43.09 43.96 45.10 46.36 48.28 50.09 51.60 53.75 56.04 57.46 57.77 55.62 50.53 49.07 47.51 46.59 45.60 44.56 44.06 44.22 44.14 44.04 44.17 43.95 43.90 39.47 36.45 41.89 46.83 41.71 54.06 53.86 53.09 53.19 53.82 55.18 56.25 53.69 51.47

GFSGL_sfc_wetblb_075.txt.gz
Wetbulb
76.62 76.95 76.99 76.96 77.38 77.60 76.72 77.00 77.42 77.13 77.62 77.48 79.47 78.08 77.79 77.26 77.39 78.43 78.82 77.59 76.64 77.45 78.10 76.84 77.70 79.85 75.47 74.44 74.45 74.38 74.10 74.04 71.56 72.92 75.19 79.08 79.59 80.45 79.83 80.69 79.10 80.05 77.78
76.44 77.57 76.82 77.18 77.22 76.85 77.06 77.23 78.34 78.13 77.41 77.73 78.12 77.86 77.77 77.42 78.28 77.98 76.76 76.09 76.47 76.05 76.56 77.83 75.93 75.46 79.17 79.20 75.73 80.22 76.75 78.28 74.23 76.96 76.66 74.65 79.03 81.20 81.52 81.81 78.54 77.34 78.36
75.77 75.80 76.27 76.43 76.60 76.65 76.99 77.20 78.63 78.31 77.87 76.35 77.58 77.97 77.25 77.13 78.43 78.79 78.31 77.09 76.95 76.55 76.64 77.04 76.72 77.68 78.28 76.64 78.09 75.71 75.53 76.06 76.22 74.40 74.52 75.47 75.95 77.13 78.48 80.54 81.31 80.67 78.51
72.65 75.33 75.55 76.09 76.26 76.12 77.57 78.41 77.26 78.89 78.03 77.64 78.09 78.82 78.05 77.03 77.34 77.45 77.99 77.74 77.83 77.49 77.50 77.81 77.53 77.54 78.42 79.09 77.15 79.23 77.50 76.65 76.33 74.01 73.35 73.65 74.90 78.62 76.99 75.43 74.89 75.42 75.32
69.92 72.35 74.29 76.22 76.87 75.81 77.35 78.59 78.28 78.56 78.35 78.15 78.11 78.37 78.21 77.24 75.97 78.21 78.31 77.73 77.92 77.82 78.27 77.95 78.65 76.72 72.98 74.97 76.06 78.22 78.96 77.14 74.26 73.24 72.70 73.19 73.45 74.16 76.46 75.84 74.43 75.05 78.13
65.55 69.65 73.96 75.02 75.39 76.94 77.24 77.30 78.45 78.34 78.82 79.09 77.54 77.80 77.56 75.39 69.50 68.02 74.77 78.09 78.77 79.12 78.74 79.59 79.88 74.37 73.59 69.19 68.92 69.42 72.60 77.15 78.81 74.90 73.75 73.79 78.67 76.81 75.25 74.36 73.98 72.35 70.86
62.42 64.17 67.41 71.52 74.16 74.56 76.49 76.49 77.04 77.15 78.15 78.96 78.39 77.83 78.06 78.26 67.44 65.29 68.35 75.94 77.74 79.11 78.93 79.62 77.96 75.97 75.40 78.22 70.34 68.38 69.06 67.10 67.81 76.32 76.53 76.59 76.67 78.46 78.77 78.49 76.71 76.52 74.41
60.02 59.50 62.10 64.62 69.26 72.32 74.85 74.93 76.14 76.32 76.16 77.52 77.69 78.87 78.84 78.37 66.66 63.88 65.82 77.25 77.16 77.76 78.69 79.37 79.21 79.16 79.07 78.43 78.46 77.50 76.89 77.47 76.85 74.88 75.76 76.79 78.02 79.02 79.26 78.49 79.02 79.23 77.79
59.02 58.98 59.89 61.52 64.83 67.97 68.15 73.17 77.03 76.26 75.82 75.87 76.81 78.30 78.61 78.94 64.71 63.30 65.52 74.79 74.88 76.77 77.97 78.13 78.65 79.30 73.13 67.13 77.39 78.27 78.31 78.69 71.20 67.75 69.11 68.79 68.12 66.22 69.43 75.63 73.72 72.32 70.62
58.58 59.53 60.14 59.98 62.65 67.21 67.94 67.10 72.06 76.07 75.87 75.66 76.05 77.18 73.68 78.32 67.84 61.44 64.48 74.76 74.48 74.89 76.25 77.18 68.24 73.88 67.05 64.26 77.29 77.52 76.65 77.55 78.66 76.70 76.40 72.06 68.46 73.01 65.06 74.40 75.33 72.93 71.76
60.87 61.02 61.70 61.67 60.94 63.14 67.55 68.14 68.81 71.50 75.13 75.65 75.06 76.66 77.88 76.58 77.41 60.71 59.28 75.03 75.10 74.75 74.61 75.02 75.55 64.11 61.90 60.20 61.17 77.95 76.46 77.60 75.73 76.70 75.93 75.10 75.13 77.07 77.72 77.77 78.41 76.22 73.41
59.97 59.96 60.60 61.63 61.83 60.15 64.32 67.34 67.86 69.21 70.20 74.07 75.79 75.67 77.17 77.59 68.20 63.78 58.85 60.03 70.50 74.96 75.23 75.36 75.66 60.35 58.37 59.31 62.18 65.70 62.84 65.53 76.24 75.08 73.51 72.17 72.14 73.25 73.62 75.04 79.57 79.47 78.41
58.45 58.55 59.23 60.12 61.18 62.68 61.49 64.67 64.74 69.04 67.91 68.61 72.60 73.30 74.56 77.25 76.34 62.77 58.63 58.14 59.76 70.66 75.70 72.11 59.98 57.59 54.51 56.96 57.39 60.49 60.55 72.27 73.81 73.72 73.25 72.82 72.48 72.63 74.61 75.62 77.23 82.05 81.00
55.62 56.47 57.34 58.05 58.88 60.61 61.59 59.83 61.55 62.70 65.30 66.19 69.31 72.65 74.11 75.79 77.11 76.68 75.62 68.24 61.32 65.12 67.76 71.87 69.82 65.89 60.84 65.53 69.36 65.47 69.77 73.39 73.75 73.62 73.66 74.11 74.02 72.68 72.30 73.71 72.82 73.07 73.78
53.97 53.96 55.06 56.66 58.05 60.16 62.34 61.66 61.25 62.94 62.73 64.97 67.01 69.06 69.06 68.94 73.22 62.90 60.50 69.06 75.15 70.96 70.87 74.45 73.78 73.62 73.63 74.71 75.67 76.21 76.55 75.19 73.69 74.08 74.41 73.93 73.58 73.34 72.74 73.83 73.19 73.06 72.82
51.46 52.27 53.35 54.46 56.08 57.59 59.18 60.91 54.49 53.02 51.36 49.64 49.24 56.45 65.64 57.87 54.34 54.53 53.25 53.61 51.44 51.98 69.63 73.08 73.62 74.26 75.01 75.01 75.55 75.87 76.68 73.75 75.77 75.67 74.79 74.35 73.85 74.14 74.21 74.66 73.90 72.86 72.43
48.11 50.29 51.11 51.42 53.61 55.63 56.84 58.35 59.58 60.02 49.36 48.38 47.37 48.91 49.23 52.83 49.76 47.74 46.54 51.07 53.61 56.88 69.79 73.63 73.88 74.38 75.18 75.99 75.85 75.91 75.84 76.22 76.94 75.80 75.76 75.98 75.51 75.18 73.91 74.06 74.05 73.54 73.14
47.51 47.61 49.72 49.73 51.35 52.97 54.87 56.55 57.92 59.00 59.48 61.21 55.06 49.74 49.36 46.54 46.39 45.64 44.55 49.87 64.86 63.01 69.60 71.98 73.80 74.98 75.76 76.35 76.14 76.42 76.41 76.42 76.70 76.96 76.82 76.15 75.74 75.33 74.77 74.33 74.06 73.63 73.18
46.68 47.93 48.08 49.13 50.50 51.14 53.20 55.29 57.05 57.62 58.99 59.89 61.29 57.71 57.11 46.46 44.85 44.19 44.35 64.84 68.56 69.84 72.28 72.97 73.60 74.78 75.36 76.36 76.97 77.35 77.77 76.77 76.72 76.47 75.66 75.48 75.25 75.10 75.20 75.16 74.46 64.65 68.05
45.72 46.88 47.83 48.29 47.58 48.76 51.47 52.86 54.82 56.45 57.16 58.81 59.26 60.01 62.07 62.67 65.67 66.90 64.62 66.75 69.13 70.42 71.01 74.28 74.40 74.46 74.62 76.45 77.06 76.93 76.81 77.16 77.76 77.03 76.26 77.03 77.79 76.90 75.17 74.84 74.16 72.69 74.55
45.65 45.82 46.90 47.31 47.49 48.50 50.38 51.16 53.30 54.70 56.32 58.62 59.22 60.18 50.23 60.03 63.27 66.27 67.28 65.93 68.08 70.65 71.45 73.63 76.35 76.45 76.15 77.15 76.81 76.62 76.32 76.51 76.65 76.50 76.66 76.26 76.95 75.70 76.59 76.21 76.22 75.49 75.21
45.18 45.59 45.82 45.45 46.09 47.03 48.81 49.92 49.97 52.68 54.52 56.12 57.78 59.72 48.44 59.26 61.15 64.35 66.71 68.12 68.30 71.01 71.98 73.19 74.39 76.80 76.02 76.75 76.70 76.54 76.25 75.98 76.73 77.41 77.11 76.37 75.23 75.72 75.93 75.42 74.79 73.82 74.19
45.25 44.67 44.76 45.15 46.18 46.67 47.97 48.65 48.92 49.69 51.71 53.63 55.60 57.27 59.55 60.40 60.91 64.08 66.05 68.02 68.79 67.90 67.67 69.59 71.86 71.85 67.53 67.49 66.27 69.20 74.70 75.23 75.54 76.67 76.80 76.43 75.06 74.18 73.85 73.15 72.70 72.00 71.87
43.82 42.80 42.87 42.68 43.97 45.92 46.83 47.90 48.37 47.06 49.49 51.22 54.19 55.60 57.56 60.66 60.63 62.34 64.23 67.25 68.05 61.53 56.65 55.85 55.81 56.20 57.01 59.98 59.98 58.17 56.69 55.60 56.02 59.75 63.48 69.42 73.57 70.49 72.28 71.70 71.36 70.63 70.19
40.62 39.54 39.70 39.85 41.93 42.83 43.71 44.92 45.90 46.58 49.44 51.23 52.13 53.44 56.44 59.17 61.60 62.54 64.45 63.60 60.59 58.52 53.78 51.54 50.57 49.83 49.48 49.52 49.97 51.91 46.44 40.38 49.83 49.26 59.20 63.45 67.15 68.09 68.27 68.43 68.77 68.61 68.86
39.82 39.74 38.99 38.86 38.45 39.77 40.50 41.67 43.02 44.03 45.18 48.41 50.83 51.74 53.09 55.32 58.48 59.76 61.01 58.52 55.93 52.55 50.25 47.98 47.03 46.31 46.25 46.11 44.62 40.36 36.57 39.11 49.87 41.10 59.36 58.14 56.14 54.40 54.92 54.54 53.11 52.98 54.98

GFSGL_sfc_wetblb_078.txt.gz
Wetbulb
76.81 76.85 76.83 77.02 77.69 78.09 77.84 79.32 78.82 79.44 72.81 70.82 67.27 68.37 74.40 77.49 78.42 78.02 76.47 75.11 75.83 76.17 77.98 76.72 76.35 77.36 74.68 76.38 75.13 75.40 74.61 75.01 72.66 73.56 75.52 79.63 78.74 78.80 77.99 79.27 79.27 78.09 76.68
76.69 77.25 76.98 77.57 77.55 77.55 77.39 78.00 79.41 78.64 78.88 74.26 70.13 70.25 74.86 76.70 76.85 77.43 75.94 76.39 75.27 75.76 76.52 75.97 76.37 76.03 77.01 77.42 76.18 75.76 76.31 76.26 74.78 72.92 74.68 74.55 74.63 76.29 79.52 78.57 78.91 77.49 76.85
72.59 76.54 76.69 76.75 77.20 77.09 77.62 77.75 78.43 78.58 78.58 77.73 77.92 78.44 78.37 77.19 77.75 76.68 77.27 77.03 76.02 75.86 77.43 77.05 76.40 77.10 76.47 75.77 77.31 76.54 75.28 75.92 76.01 74.08 72.84 75.77 76.20 76.53 76.54 78.47 78.46 78.47 78.93
68.65 70.79 73.87 76.42 76.57 76.83 77.74 77.76 77.76 78.65 78.04 77.74 78.05 78.10 77.64 77.79 77.70 77.17 76.89 77.16 76.83 76.77 77.13 77.69 77.39 76.74 76.59 76.63 76.15 76.38 75.71 75.82 75.00 74.68 73.22 72.58 73.47 74.68 77.17 75.05 75.14 74.99 74.39
66.14 68.73 69.15 69.71 76.53 79.03 78.79 77.99 78.34 77.66 77.81 77.99 77.82 77.38 77.49 76.88 76.31 76.86 77.38 76.80 75.83 75.28 76.32 76.98 77.45 77.50 74.33 75.17 75.75 76.33 75.96 75.42 74.33 72.94 72.09 72.52 72.70 75.16 75.07 75.94 73.97 74.78 74.75
62.96 64.83 66.37 70.54 72.71 74.54 76.93 77.41 78.52 77.68 77.95 77.63 77.32 77.04 76.41 76.50 70.25 68.60 74.73 76.58 76.92 76.63 75.52 76.96 77.85 75.22 73.10 69.14 68.86 69.11 73.12 76.14 75.12 74.44 74.04 72.75 73.24 75.24 75.32 74.84 73.74 71.76 69.31
60.10 60.96 62.83 66.20 68.18 70.70 74.49 76.61 77.45 77.21 77.85 77.30 77.06 77.07 76.74 76.85 68.40 65.21 67.39 75.64 76.67 76.96 76.72 76.36 76.69 75.67 73.94 75.83 69.03 67.72 68.06 66.82 68.98 73.24 72.28 73.43 73.55 74.39 75.49 75.15 74.43 74.50 73.64
61.57 60.86 60.78 61.57 63.85 68.36 70.75 69.55 72.20 76.69 76.99 76.72 76.51 77.21 77.35 77.22 67.88 65.77 65.51 73.57 75.60 75.69 76.43 76.89 76.48 76.18 76.67 77.04 77.05 75.69 74.25 74.59 73.31 71.31 71.61 72.02 73.20 74.19 75.59 75.14 74.36 74.96 75.72
61.37 62.13 61.69 60.32 60.17 63.05 67.75 68.61 69.62 71.84 74.81 75.60 75.86 76.31 76.70 77.18 65.74 63.54 65.84 73.15 73.42 74.57 75.69 76.00 75.68 77.18 71.51 67.64 74.84 75.57 76.36 76.62 71.47 67.61 68.54 67.88 67.41 66.27 69.01 74.54 72.77 71.24 69.71
60.52 61.79 62.98 63.29 62.30 61.31 62.27 66.77 68.75 70.37 71.16 74.13 74.78 75.73 72.20 76.27 67.87 63.31 64.02 73.94 73.39 73.12 73.77 74.62 68.04 71.64 66.20 62.87 73.36 74.78 73.66 74.19 76.34 76.63 72.82 69.12 66.85 69.61 64.77 71.09 73.62 71.59 71.19
60.47 60.87 61.66 62.08 62.29 63.67 64.37 63.69 67.07 67.55 69.12 71.03 71.50 74.68 75.26 74.66 75.25 61.92 60.58 74.73 74.55 73.78 73.66 73.64 74.06 64.13 61.11 60.16 60.69 74.81 74.09 74.34 73.39 74.95 75.17 74.74 74.51 75.15 75.30 74.01 73.97 73.26 71.70
59.49 59.67 60.53 61.13 60.85 60.70 62.35 63.68 63.40 65.26 66.14 68.32 69.78 71.60 74.15 75.46 68.02 66.08 59.25 60.01 69.98 74.63 74.14 74.46 74.39 61.27 58.54 59.71 61.33 63.52 62.57 64.81 74.59 74.11 73.73 73.32 72.81 72.51 72.63 72.48 75.81 75.73 75.69
57.29 57.30 57.77 58.84 59.42 60.33 60.86 62.59 62.34 62.65 64.81 65.41 66.83 66.87 69.76 73.83 74.81 63.72 60.57 58.70 59.61 68.90 75.19 72.13 64.98 60.10 56.74 56.74 56.87 58.52 58.31 69.00 71.25 71.39 71.28 72.05 72.98 73.39 72.39 71.32 71.09 76.41 77.17
55.08 55.54 56.22 56.18 55.88 57.38 58.61 59.66 60.00 61.04 60.13 61.59 63.76 66.23 69.77 73.38 74.32 75.43 75.44 71.99 62.81 63.93 65.48 70.82 69.00 65.90 63.29 65.36 66.11 63.10 64.66 69.72 70.47 70.67 70.87 71.94 73.22 73.20 72.39 71.97 69.66 68.98 68.92
52.49 53.02 53.42 54.36 55.26 56.39 58.00 59.00 59.79 61.63 61.12 61.63 61.75 62.65 62.36 63.68 70.19 63.82 62.43 67.04 66.79 66.04 63.00 72.31 72.74 72.92 72.29 72.30 72.51 73.12 73.13 71.06 70.32 71.44 71.76 72.03 72.65 72.82 72.30 72.16 70.33 69.25 68.84
48.65 49.52 50.57 51.04 52.51 53.33 54.04 55.04 53.98 51.12 49.53 48.03 47.29 52.56 60.37 55.02 51.94 50.45 49.95 48.58 52.75 52.57 66.01 70.24 71.22 72.64 73.15 73.32 72.67 72.41 73.15 72.21 74.08 72.92 72.57 72.35 71.91 72.08 71.95 72.24 71.63 70.31 69.37
47.14 47.88 48.41 48.92 49.84 51.04 51.64 51.98 52.25 54.76 51.53 48.04 45.68 46.49 46.69 49.73 47.64 45.96 44.97 46.22 47.67 51.30 64.57 67.80 70.50 72.50 73.33 73.66 73.88 74.26 73.95 74.56 75.00 74.61 74.23 73.89 73.29 72.87 71.17 71.28 71.10 71.36 71.55
46.82 46.56 46.76 48.11 49.14 49.50 50.75 51.83 52.92 53.63 54.78 57.05 54.44 49.15 47.95 44.57 43.82 43.78 43.09 46.63 59.97 55.28 64.97 66.76 68.26 70.25 71.58 72.89 73.65 73.76 74.87 75.57 75.61 74.61 74.23 73.64 73.50 73.48 73.29 72.56 72.44 71.85 71.28
46.13 45.65 46.06 46.78 47.79 48.18 49.11 49.44 50.03 50.98 51.86 53.70 57.26 55.52 55.21 48.24 46.39 42.98 43.11 59.24 63.83 65.09 67.02 68.63 69.70 70.49 71.33 72.44 73.87 74.55 74.38 74.14 74.81 75.26 75.61 74.71 74.69 73.37 71.77 71.43 71.41 63.45 66.15
46.78 47.40 47.00 46.45 46.31 47.35 47.49 47.67 49.36 49.63 50.97 53.59 54.34 56.17 59.03 58.15 59.64 61.04 61.25 62.58 64.76 66.21 66.57 67.01 68.17 69.41 72.82 72.94 73.43 74.84 74.97 74.25 74.10 75.07 75.88 75.21 76.60 75.43 73.23 73.21 73.20 71.90 71.42
45.90 45.81 45.92 44.97 44.87 45.43 46.32 47.07 47.97 48.35 49.90 51.10 52.61 55.10 48.15 54.12 58.79 60.21 61.43 62.25 64.94 68.69 69.36 70.17 71.16 72.01 74.54 74.45 74.29 74.58 74.50 74.45 74.56 74.19 74.78 75.38 75.44 74.46 74.34 74.56 73.68 73.60 72.32
45.43 45.40 45.01 44.51 44.76 44.54 44.57 45.66 47.04 47.35 48.21 49.51 50.90 52.30 47.52 54.06 56.52 58.80 60.49 61.24 62.16 64.49 67.24 70.54 70.64 71.61 72.02 74.41 74.19 74.10 72.73 73.01 73.16 73.59 74.48 74.55 74.73 74.29 74.76 74.51 74.54 73.88 73.22
43.04 42.49 42.31 42.24 42.31 42.59 42.79 43.99 45.40 46.11 46.79 47.96 49.12 50.63 51.76 53.33 55.45 56.91 57.83 60.96 61.09 61.63 63.21 65.28 69.55 71.71 68.57 67.47 67.46 66.47 65.73 67.98 67.64 67.12 68.36 70.86 72.35 73.92 74.38 73.81 73.72 73.39 72.96
42.61 41.13 40.20 39.77 39.93 40.15 40.12 41.17 42.97 43.01 44.74 46.78 48.61 49.08 49.89 51.36 53.82 55.01 56.50 58.09 60.66 61.35 63.17 65.17 62.86 62.94 60.63 59.98 59.81 57.48 59.69 59.26 57.12 60.57 63.37 65.81 67.35 68.52 72.94 72.62 73.02 72.58 72.25
42.15 40.91 40.31 39.48 38.74 38.47 37.80 38.52 39.38 40.83 42.36 44.30 45.98 47.14 47.75 50.36 51.70 53.09 54.36 57.62 60.15 62.24 63.77 60.68 56.83 55.38 54.75 53.85 53.89 52.79 48.57 42.24 46.46 47.91 58.50 61.79 63.42 65.99 68.32 70.33 70.51 70.26 69.63
43.40 41.72 39.75 38.68 37.77 38.09 37.56 36.77 37.44 38.24 38.90 40.30 42.29 44.06 45.14 45.61 48.53 51.17 52.56 54.07 56.96 58.00 57.45 55.83 54.34 51.57 50.98 49.09 48.43 42.14 35.14 35.37 42.49 38.79 51.88 60.21 62.06 61.85 60.60 60.23 58.46 56.86 56.04

GFSGL_sfc_wetblb_081.txt.gz
Wetbulb
73.27 73.12 73.16 73.63 73.91 73.41 73.27 73.47 72.16 71.32 69.49 69.34 69.13 68.16 70.01 72.55 73.17 72.66 72.15 72.10 71.37 70.83 71.98 72.21 71.71 72.95 71.30 72.23 72.43 71.04 71.12 70.80 68.74 70.10 71.92 74.27 72.30 72.97 74.94 75.44 76.06 75.51 74.74
68.71 71.15 73.26 73.88 73.97 73.59 73.40 73.00 73.55 71.94 71.45 69.71 69.35 67.62 68.64 71.62 73.07 72.86 71.97 72.23 71.92 71.28 71.32 71.86 70.54 73.72 72.08 72.94 71.48 70.97 70.76 70.39 69.20 66.63 68.92 69.26 69.89 71.29 72.57 75.57 75.49 77.43 75.03
67.28 68.82 70.67 72.16 73.38 72.83 73.72 74.00 74.42 72.59 70.28 68.42 67.45 68.45 71.18 71.82 72.70 73.30 73.09 73.12 72.39 72.11 71.79 71.83 71.89 71.59 71.48 71.38 70.55 71.65 71.37 73.26 71.86 70.68 69.92 70.85 72.09 71.14 70.66 72.47 74.78 74.91 75.91
66.96 66.11 67.93 67.79 68.71 71.03 73.65 74.76 74.73 74.76 73.81 73.32 73.29 73.11 73.45 73.45 72.82 73.76 73.17 72.43 72.95 72.88 72.98 73.37 72.95 71.59 71.97 71.31 70.89 70.87 71.71 70.49 71.17 70.03 69.25 69.13 68.93 70.56 71.64 71.90 71.05 71.34 71.68
64.38 64.50 65.83 68.92 67.05 67.86 69.78 72.43 74.01 74.63 74.70 74.37 73.77 74.16 73.90 73.97 74.97 73.67 73.32 72.46 72.61 72.31 73.11 73.35 73.62 74.15 73.28 72.67 72.48 71.40 72.08 70.96 70.46 69.94 69.24 69.21 69.99 70.73 71.33 72.35 70.41 71.09 70.19
60.02 61.10 63.85 65.64 68.38 69.59 69.92 70.81 72.05 72.87 73.97 74.69 73.39 73.79 73.46 75.10 70.28 68.78 72.26 73.52 73.29 72.17 71.28 71.99 73.42 73.03 72.45 69.96 69.83 70.43 72.67 72.04 70.32 70.28 70.17 70.40 70.18 71.04 71.84 70.71 71.22 69.18 67.81
59.43 59.31 60.45 62.47 63.37 66.29 68.78 68.26 67.72 71.49 72.54 73.31 73.73 74.05 72.84 73.40 68.17 66.03 67.40 73.26 74.07 73.38 72.55 72.66 73.15 74.66 72.11 73.96 68.87 67.29 67.38 67.43 68.98 70.24 69.28 68.96 68.61 69.26 69.70 68.61 68.68 69.43 69.61
59.20 59.79 60.43 60.91 60.58 62.01 66.11 66.58 66.22 68.20 69.93 72.41 72.34 73.09 73.47 74.37 67.60 66.15 66.25 67.77 69.68 72.89 74.12 74.22 73.57 72.61 72.11 73.05 73.29 71.73 70.22 70.57 68.90 68.83 69.87 70.83 69.46 69.88 69.94 70.16 70.44 70.54 71.54
58.60 59.14 60.71 61.60 60.86 60.65 60.89 62.20 65.98 66.80 67.93 69.89 72.59 72.61 72.28 72.74 66.63 63.24 64.82 69.09 69.52 70.19 72.28 72.85 73.64 73.35 69.77 66.27 71.70 72.66 73.11 73.36 69.91 65.66 66.47 66.17 65.41 64.58 66.99 71.56 70.47 68.80 68.61
56.86 57.61 58.82 59.29 59.01 58.70 61.21 61.42 61.95 65.75 66.06 66.96 69.05 70.11 70.06 72.45 67.16 62.26 63.54 70.20 68.47 71.09 70.39 71.27 66.77 70.58 65.67 64.24 71.01 71.74 70.55 71.96 72.93 74.17 69.74 68.31 65.80 67.69 64.00 68.21 70.40 68.06 68.52
55.09 55.74 56.77 57.55 57.45 57.36 57.82 58.78 60.48 60.90 62.76 65.20 65.91 67.81 70.13 71.91 72.38 63.49 60.05 69.34 72.07 70.36 71.82 71.90 71.69 62.98 59.84 59.72 60.22 71.19 70.89 72.25 71.22 72.01 72.36 72.83 72.51 71.33 71.17 69.57 70.33 71.24 70.22
53.37 53.83 54.27 54.80 55.70 56.17 55.78 57.00 58.42 60.13 59.88 60.56 63.20 65.11 67.49 70.00 65.03 65.02 60.70 59.27 66.98 71.40 72.34 73.17 72.92 62.02 58.13 57.68 59.53 61.91 60.45 62.74 70.76 71.74 71.87 71.82 72.02 71.86 72.39 72.94 73.12 72.42 72.98
50.97 51.15 51.12 52.36 53.33 53.70 52.44 52.62 54.08 54.72 56.89 57.35 57.87 59.50 63.64 65.92 69.36 62.24 58.73 58.95 56.95 61.74 67.25 68.56 60.54 57.64 57.76 56.83 56.24 57.97 58.26 64.77 66.67 67.91 68.70 70.06 71.40 72.50 72.67 70.26 70.06 69.18 73.05
47.20 47.55 48.42 48.57 49.32 50.14 51.69 52.87 53.38 54.06 55.35 56.86 56.98 58.41 60.08 60.26 66.38 67.72 68.58 67.81 60.73 63.43 63.39 65.33 64.92 63.47 62.63 65.84 65.78 63.43 61.87 63.88 66.03 67.22 68.16 69.44 70.59 70.18 70.47 71.39 70.78 70.80 69.15
45.29 45.80 45.87 46.59 46.39 47.68 49.06 49.80 50.75 51.85 51.57 50.92 51.99 54.05 54.83 56.53 58.47 60.86 60.78 63.73 63.68 62.85 61.33 64.33 68.38 70.11 69.85 70.70 71.32 71.54 71.76 67.23 66.01 67.56 68.02 68.41 68.83 69.37 69.77 70.96 70.70 70.50 67.27
43.84 44.37 44.75 44.91 44.99 46.07 46.06 46.98 48.92 47.50 46.78 45.76 45.07 46.28 52.60 50.73 49.24 48.24 46.39 45.87 46.77 49.99 58.76 62.69 65.14 68.75 70.46 70.73 70.82 71.04 71.04 69.88 69.77 69.55 69.01 69.28 69.08 69.39 69.92 70.79 70.94 69.52 68.45
42.09 42.39 43.15 44.10 44.34 44.78 45.55 45.82 45.40 47.74 47.86 46.31 45.11 45.87 46.45 45.26 44.83 43.46 43.63 43.96 45.53 49.88 58.06 58.89 61.50 64.31 68.72 71.20 71.62 71.85 71.46 71.29 71.31 71.57 70.73 70.33 70.31 70.56 69.16 70.14 69.99 69.41 68.65
44.04 46.67 44.35 43.34 43.25 43.54 44.01 44.68 45.03 44.85 44.85 46.23 46.95 46.58 46.94 45.17 45.02 43.93 43.47 42.77 50.27 49.46 54.68 58.69 61.19 63.48 65.44 67.90 69.86 71.31 72.26 72.26 72.25 72.18 71.73 71.86 71.52 71.02 70.58 70.22 70.00 69.34 69.00
42.99 43.03 43.51 44.42 45.33 44.75 44.59 44.37 44.89 45.02 44.95 45.87 47.43 47.06 48.46 45.95 45.82 44.52 40.93 49.55 54.05 56.77 59.30 59.56 62.15 64.36 65.25 66.18 68.48 70.68 71.62 72.01 71.93 71.78 71.97 71.97 72.31 71.67 71.11 71.08 70.74 63.99 65.50
41.69 45.45 45.00 42.69 43.27 43.01 43.57 43.84 43.74 43.64 44.30 44.96 45.31 46.30 48.96 49.43 50.46 50.39 52.27 54.14 55.75 57.44 59.83 61.48 62.94 64.01 64.81 66.55 69.54 70.08 70.34 70.76 71.84 72.27 71.98 71.53 71.79 71.91 71.05 70.38 69.77 69.21 67.97
41.20 41.10 44.72 41.84 42.36 42.67 43.64 43.65 43.86 43.73 43.73 44.64 45.48 46.71 44.73 46.76 47.47 48.25 49.98 52.37 54.12 57.04 58.92 61.04 65.02 66.42 67.79 68.13 69.43 69.98 70.18 71.09 71.33 71.47 72.14 72.24 71.52 71.04 71.25 71.65 70.47 69.92 69.59
39.31 38.68 38.82 38.80 39.60 39.51 40.12 40.08 40.07 41.36 42.46 43.29 44.63 46.12 43.75 46.14 47.01 48.04 49.52 52.21 54.55 55.16 56.74 58.56 59.20 60.77 65.40 67.85 69.11 69.57 68.78 68.94 69.75 69.35 69.33 70.27 70.47 70.09 70.40 69.68 69.50 69.07 68.92
39.20 39.01 38.85 38.25 38.54 39.40 38.38 39.51 39.40 39.56 39.76 41.04 42.90 43.79 45.37 47.05 47.90 47.87 48.79 49.99 51.29 52.41 54.33 55.66 57.80 59.17 61.91 63.35 64.35 65.52 65.05 64.80 64.80 63.37 63.51 66.41 67.85 68.56 69.10 68.58 68.26 68.42 68.47
39.97 39.15 38.72 38.77 39.63 38.80 37.60 38.18 38.38 38.22 38.20 38.93 39.96 41.11 42.39 44.80 45.90 46.68 48.98 49.69 50.46 52.80 54.16 54.94 55.86 57.22 56.85 58.16 57.32 56.91 55.14 56.57 55.71 56.65 59.40 60.98 63.92 64.55 66.57 66.84 66.91 67.25 67.54
42.51 41.20 39.34 38.26 38.03 38.16 37.23 36.78 36.58 37.46 37.41 37.57 37.26 38.16 39.01 40.99 42.83 44.21 46.71 49.50 50.41 51.45 51.84 55.02 55.43 53.84 52.78 52.21 51.54 51.60 47.83 39.76 44.36 45.50 53.20 58.00 60.13 62.62 65.73 67.83 68.67 68.67 68.66
42.05 40.83 39.70 38.28 37.66 38.36 37.20 36.56 35.96 36.09 36.41 36.50 36.24 36.87 37.47 38.21 39.79 41.73 43.85 45.57 46.14 47.88 50.58 52.47 53.94 53.72 51.87 50.70 49.70 45.20 36.24 35.30 40.29 36.11 45.18 52.93 56.17 58.46 61.01 62.93 64.72 65.39 65.74

GFSGL_sfc_wetblb_084.txt.gz
Wetbulb
68.63 68.79 71.34 72.15 71.91 71.61 71.39 71.54 71.57 70.90 71.20 70.72 69.87 69.31 69.95 71.05 72.37 72.12 70.67 70.85 70.29 69.54 69.29 70.86 70.25 71.28 70.53 70.93 70.45 69.58 69.41 69.02 66.13 68.15 71.03 71.27 70.49 69.72 71.11 72.32 74.12 74.53 74.16
68.32 68.86 69.89 70.55 71.30 71.58 71.80 71.86 71.46 70.67 70.18 69.61 68.29 67.54 67.49 69.69 71.39 71.65 70.92 71.82 70.81 70.02 70.20 69.63 70.47 71.42 70.45 71.33 70.42 69.92 70.09 70.12 68.43 66.85 67.84 68.97 69.59 70.59 71.16 70.56 73.18 75.73 74.79
67.08 67.51 68.59 68.57 70.35 70.34 70.98 71.70 72.11 71.08 70.66 69.74 68.22 67.31 66.87 68.51 70.27 71.95 71.65 71.43 71.04 71.14 70.64 69.99 70.51 69.85 69.24 69.84 69.77 69.02 69.56 71.37 70.37 69.50 68.67 69.98 70.50 68.95 69.98 71.01 71.28 72.89 73.11
66.72 67.04 66.94 66.92 66.79 67.44 69.42 70.53 71.17 70.86 70.33 69.04 67.67 67.41 67.82 68.80 70.85 71.91 72.23 71.41 71.95 71.90 71.30 71.29 71.15 70.88 69.98 69.42 69.80 69.13 69.34 69.38 68.96 68.72 68.21 67.93 68.17 69.60 71.14 71.14 69.62 70.42 70.94
65.34 65.77 65.92 67.62 67.42 68.70 68.43 67.26 67.66 70.55 72.36 70.26 69.94 70.35 70.21 71.85 72.49 71.53 72.34 71.18 70.72 70.98 71.95 72.43 72.43 72.64 70.86 69.94 71.27 70.01 69.41 69.46 68.79 68.63 68.52 68.30 69.24 69.66 69.57 70.98 69.11 69.56 69.25
60.66 61.31 63.20 64.87 65.73 66.41 68.43 67.91 68.12 68.34 71.00 72.18 71.78 72.15 72.61 74.25 69.24 68.56 71.73 71.76 70.46 70.78 70.49 71.02 71.61 71.25 70.89 68.92 68.31 68.53 70.07 69.51 69.00 68.82 68.07 68.16 68.43 69.51 70.57 69.87 68.45 66.34 64.45
59.50 60.01 60.39 60.68 60.97 61.89 65.38 67.22 66.14 66.86 68.86 70.53 71.51 71.50 71.78 72.17 67.89 66.31 67.41 70.84 71.79 71.68 71.72 71.17 70.83 72.81 70.87 72.15 69.59 66.77 66.70 66.61 68.47 69.98 68.67 68.20 67.84 68.65 68.18 66.37 66.34 66.50 66.41
59.48 60.28 60.20 60.23 60.50 61.31 61.94 62.24 63.48 66.34 66.90 67.87 69.63 70.75 70.98 72.50 65.78 64.36 65.34 68.08 69.35 71.90 72.86 72.26 71.51 71.60 71.60 71.22 70.98 71.00 70.85 69.71 68.62 68.62 69.89 71.02 69.82 70.63 67.78 67.38 66.00 67.28 68.90
56.30 57.34 58.36 59.09 58.85 59.31 60.46 61.22 62.27 63.48 63.18 64.66 65.92 68.09 68.88 70.69 64.03 61.50 63.62 68.41 68.27 68.38 69.76 71.95 73.32 73.32 68.69 64.32 70.17 71.08 71.58 72.53 69.27 63.67 64.56 64.67 64.08 63.58 65.99 68.05 67.35 67.44 67.20
53.01 54.49 55.76 56.91 56.67 56.45 56.98 58.34 60.67 61.42 62.54 63.65 64.27 65.85 64.75 67.71 64.27 61.50 62.90 68.54 68.59 69.40 70.18 70.12 65.39 69.52 64.91 63.17 68.69 70.49 69.66 70.81 71.35 72.34 71.73 65.85 64.07 66.09 62.29 67.73 69.21 66.91 66.50
51.90 52.77 53.43 53.77 53.94 54.30 54.90 55.41 56.67 58.16 59.86 61.72 62.84 64.62 65.58 65.80 66.63 60.93 60.41 67.66 70.49 70.96 68.43 70.73 71.55 62.58 59.16 58.84 60.45 71.74 71.06 71.37 70.15 70.54 71.80 72.29 71.39 70.81 70.90 68.84 69.14 70.08 68.63
49.68 49.41 49.74 50.59 52.04 52.82 52.15 52.51 53.19 53.25 54.36 56.06 57.87 59.54 63.14 65.54 61.57 61.85 58.96 57.51 62.92 69.06 70.87 71.96 71.82 60.08 55.24 54.97 57.47 59.83 59.12 60.69 68.04 69.17 69.43 70.08 70.76 71.50 72.21 72.37 71.20 70.43 71.71
45.97 45.55 46.19 47.71 48.14 48.66 48.66 50.00 50.77 51.58 51.67 52.42 53.24 53.34 54.90 58.49 60.78 60.62 56.78 58.05 59.12 63.68 67.17 65.42 59.32 55.88 55.15 58.67 59.17 57.94 57.84 62.79 64.45 65.28 66.45 68.06 69.82 71.22 71.95 70.94 71.97 72.56 72.27
43.62 43.60 44.16 43.77 44.60 45.07 47.36 48.81 48.73 49.13 49.36 49.12 48.76 49.19 50.62 52.16 54.43 58.08 57.18 59.49 61.41 61.26 62.10 64.04 62.50 60.99 58.94 62.33 63.55 66.24 63.95 65.36 66.57 67.90 68.66 69.18 69.60 69.25 69.31 70.44 70.04 70.32 69.29
42.54 42.54 42.07 42.73 41.66 42.18 43.87 45.05 46.69 47.18 47.53 47.02 48.23 48.58 48.54 49.24 51.54 48.55 47.04 49.72 52.61 55.55 51.81 58.10 60.70 62.22 62.91 65.64 68.71 69.57 70.19 69.17 66.19 67.48 68.10 68.81 69.05 68.73 68.39 69.12 69.21 69.31 68.18
40.84 41.15 41.08 40.82 40.92 41.89 42.16 43.29 45.89 45.85 45.10 43.86 43.20 44.00 47.82 46.94 45.74 43.80 42.33 42.89 43.60 44.91 51.30 55.19 57.03 59.82 61.52 62.81 64.81 68.01 70.58 69.42 70.79 70.06 69.16 69.03 68.72 68.61 68.15 68.57 68.74 68.22 67.71
39.92 40.61 40.51 41.44 40.84 40.86 41.17 41.21 41.69 44.04 45.08 43.51 42.56 43.13 43.37 43.45 43.20 42.08 41.98 42.55 43.26 46.70 51.73 54.00 56.44 57.53 58.69 60.21 63.14 66.65 69.13 71.03 71.62 70.35 69.81 69.38 69.31 68.94 67.77 68.32 68.71 68.61 68.54
40.78 44.51 40.82 40.66 40.88 40.88 41.18 42.17 42.66 42.29 41.80 42.67 44.14 43.83 43.57 42.37 42.37 42.10 42.15 42.89 50.16 48.23 48.73 51.90 53.80 55.67 57.90 60.12 61.97 63.52 65.47 68.37 70.22 71.14 70.84 70.87 70.76 69.89 69.08 69.11 68.95 68.30 68.48
39.82 39.92 40.32 40.22 40.50 41.92 41.47 41.71 42.18 41.84 41.67 42.07 43.03 43.48 44.34 42.86 42.63 42.63 40.92 46.48 48.51 50.42 52.60 54.39 55.81 57.29 58.71 60.62 62.23 64.15 65.66 66.60 67.49 69.03 70.47 71.07 70.94 70.51 70.12 70.21 69.63 62.22 64.61
39.55 44.10 43.08 39.58 40.31 40.76 41.32 41.31 41.39 41.27 41.37 41.74 42.10 42.72 44.36 44.50 44.26 44.63 45.80 46.55 47.29 48.36 50.29 52.22 55.32 59.22 60.96 62.00 63.30 64.94 65.66 66.84 68.21 69.38 69.96 70.66 70.21 70.15 69.85 69.99 69.11 66.95 67.24
39.28 38.33 42.14 37.67 37.41 37.86 38.42 38.16 38.40 37.90 37.87 38.55 39.18 41.11 41.60 41.80 42.57 44.41 45.20 45.74 46.72 48.23 49.49 52.17 53.73 54.33 56.24 59.39 63.35 65.23 66.43 67.49 68.83 69.58 68.93 70.06 70.67 69.79 70.21 70.03 69.62 69.48 69.35
38.61 37.46 37.39 36.87 37.00 36.87 37.19 38.96 37.74 37.53 37.95 38.40 38.56 39.74 39.45 40.50 42.50 43.55 45.24 47.23 47.50 47.97 48.98 50.05 51.03 51.52 52.34 54.01 57.16 59.39 60.25 61.53 65.75 68.25 67.26 66.58 67.75 68.79 68.79 67.53 67.14 67.71 67.87
38.52 38.03 37.73 37.00 37.01 38.55 36.69 38.47 38.06 37.73 37.65 37.84 38.01 37.70 38.76 39.16 39.65 40.81 42.57 44.41 46.37 48.23 49.57 49.40 49.80 50.43 52.21 54.66 58.61 59.97 59.61 59.53 59.39 60.28 61.22 62.87 63.69 64.42 66.58 66.64 66.08 64.93 64.72
39.27 38.43 38.15 37.20 37.13 36.41 36.00 36.73 37.86 37.40 37.13 36.99 37.20 37.52 37.35 37.85 38.20 37.90 38.88 40.53 42.80 44.02 45.98 49.06 49.19 49.53 50.80 52.44 55.38 55.94 54.48 53.55 52.31 53.25 54.11 55.50 57.91 59.37 62.32 64.57 64.61 64.63 64.20
38.80 38.50 38.00 37.39 37.09 36.13 35.80 36.64 36.92 35.93 36.57 36.39 36.45 36.80 36.83 36.27 36.96 37.25 37.74 38.68 39.54 40.93 43.07 45.45 46.21 49.01 50.67 51.82 53.85 52.84 48.89 42.10 44.85 43.48 48.62 51.35 53.53 55.96 58.49 61.42 64.24 66.27 65.88
39.39 39.16 38.78 38.12 36.67 35.98 34.99 35.76 36.41 35.05 34.74 35.60 35.53 35.45 35.65 35.52 35.77 36.05 36.32 36.83 37.87 39.01 40.55 42.84 44.22 45.91 47.30 48.97 52.67 48.00 39.20 36.05 41.22 36.10 43.89 47.93 50.28 52.93 55.32 57.15 58.74 60.95 63.26

GFSGL_sfc_wetblb_087.txt.gz
Wetbulb
69.80 69.46 70.00 70.02 70.20 69.49 69.46 69.05 68.19 68.96 69.79 71.70 70.95 71.09 71.19 71.17 71.30 70.95 70.44 70.27 69.42 68.62 68.52 69.06 69.71 69.83 70.12 71.09 70.84 68.96 68.87 67.99 65.16 66.93 69.95 70.08 69.83 69.85 70.80 70.86 71.79 72.21 73.33
67.83 68.30 69.04 70.03 70.65 70.03 69.92 70.57 70.43 70.75 70.16 69.45 70.00 69.23 68.96 69.20 70.34 70.93 70.91 70.96 69.91 69.10 69.17 68.48 68.99 70.78 69.21 70.11 70.30 69.97 69.26 69.36 67.95 66.50 67.75 68.55 69.10 69.92 70.10 70.22 72.05 73.69 72.36
67.53 67.40 67.42 66.77 68.14 69.34 69.85 70.74 71.20 70.50 69.47 69.11 68.99 68.01 67.58 66.90 69.06 70.68 71.10 70.59 70.13 69.92 69.45 69.33 69.05 69.37 68.24 67.97 68.98 68.64 68.37 69.74 69.40 68.39 67.69 69.10 69.47 68.48 69.77 71.19 70.78 70.76 71.74
67.67 67.51 66.63 66.74 66.58 66.92 67.15 67.36 68.93 70.66 70.37 69.51 68.59 68.11 67.13 66.85 67.94 69.82 70.91 70.59 70.70 70.99 71.19 70.18 68.92 69.44 69.43 69.03 68.57 68.56 68.24 68.12 67.87 67.87 67.22 67.33 67.87 69.60 70.23 69.96 69.47 69.33 70.08
66.70 66.72 66.33 67.24 66.86 67.78 67.74 67.44 67.72 67.99 69.61 71.19 69.66 68.44 67.81 67.75 69.31 68.79 70.65 71.16 70.20 70.03 70.62 71.31 71.27 70.98 70.28 69.43 69.99 69.27 68.58 67.89 67.78 66.99 66.81 67.02 67.62 67.51 67.56 69.31 68.80 68.75 68.25
62.10 63.44 64.91 65.39 64.91 64.97 67.62 67.17 66.73 66.95 67.92 68.10 69.95 70.28 70.18 71.75 67.59 66.92 69.73 70.94 71.12 70.29 69.72 70.00 70.69 70.58 70.14 67.78 67.07 67.58 69.68 69.23 68.07 67.44 67.38 66.84 66.66 67.45 68.35 68.32 67.15 65.04 62.75
59.61 60.57 61.33 61.72 61.32 61.33 62.01 62.70 64.91 65.73 65.85 66.21 67.22 69.68 70.47 70.87 66.28 64.80 67.35 71.05 71.35 70.84 70.39 70.60 70.79 72.46 69.69 70.83 68.70 66.61 66.39 65.54 66.80 69.80 68.67 68.42 67.91 68.31 67.80 66.10 64.96 64.84 64.10
58.21 58.92 59.89 60.73 60.57 61.12 61.57 61.10 61.47 62.76 62.44 63.10 64.02 65.12 67.74 69.63 63.56 62.07 64.14 67.47 68.95 69.47 70.81 71.47 70.94 70.95 70.29 70.36 70.58 70.07 70.19 70.37 68.94 68.05 69.73 71.30 70.47 70.86 68.52 68.01 66.10 64.68 66.19
54.21 54.84 56.10 56.61 56.45 56.49 56.26 57.79 59.48 60.21 61.07 61.95 63.35 63.86 64.58 64.98 62.29 60.84 62.61 67.30 68.12 68.57 68.79 69.46 71.44 71.86 68.00 64.02 68.48 69.80 70.29 70.95 68.61 63.21 64.46 64.24 63.29 62.68 65.14 67.11 65.96 65.41 67.43
51.30 52.02 53.26 53.61 54.79 54.33 54.01 55.08 56.83 57.81 59.73 61.66 62.17 63.24 62.59 64.17 61.82 59.42 60.62 67.23 67.96 68.28 69.47 69.65 64.30 67.08 63.68 61.77 67.83 69.99 69.43 70.18 70.93 70.68 70.43 66.08 63.14 65.50 62.14 66.61 69.25 66.86 67.86
49.29 49.08 49.39 49.77 50.88 51.71 52.93 52.43 53.09 53.99 55.24 56.41 59.12 60.78 61.43 62.22 63.21 56.94 56.21 64.41 67.26 68.66 69.36 69.38 70.66 63.24 57.14 55.79 56.23 67.90 69.24 68.77 69.75 69.52 70.24 70.79 70.97 70.71 70.65 67.02 68.07 68.98 69.06
46.30 46.20 46.22 46.39 47.71 48.31 48.04 50.08 51.77 51.64 51.44 52.27 51.97 53.90 56.25 54.77 54.53 54.59 52.40 52.67 56.85 64.41 67.04 69.25 68.48 59.39 55.04 54.50 56.25 57.90 56.53 58.98 64.18 66.54 67.84 68.57 68.87 69.53 70.71 71.43 70.81 69.86 71.15
43.76 43.52 43.60 44.21 44.56 44.97 45.20 46.17 47.63 48.48 48.73 48.30 48.57 48.92 50.26 54.53 53.96 53.12 51.34 51.01 52.33 55.92 62.81 60.50 56.93 54.09 53.03 55.99 58.48 58.61 57.50 63.59 63.94 65.44 66.68 67.36 68.58 69.79 70.13 70.12 70.58 71.68 70.90
42.30 41.94 42.21 41.87 42.04 42.11 43.78 45.15 44.65 45.43 46.07 46.54 47.02 46.35 46.83 48.67 49.74 50.77 49.89 48.92 50.47 51.14 52.99 52.47 54.04 55.85 55.99 58.01 58.92 62.98 65.03 65.69 66.19 66.86 67.91 69.21 70.05 69.61 68.70 69.40 68.98 69.54 68.28
40.95 41.26 40.63 40.92 40.14 40.97 41.76 42.18 43.36 43.86 44.13 43.73 44.62 45.05 45.03 45.57 47.41 46.05 44.44 45.68 46.06 47.25 45.98 50.59 54.59 55.50 56.09 57.57 59.87 63.87 67.15 68.01 67.21 67.15 67.31 68.16 69.06 69.42 69.33 69.51 68.63 68.33 67.29
39.71 39.99 39.97 39.84 39.84 40.57 40.17 40.15 43.90 44.18 43.94 42.78 42.05 42.56 45.68 45.08 44.07 42.34 41.10 41.43 42.47 43.52 46.19 50.02 51.94 53.58 55.59 57.00 58.23 59.15 61.24 63.64 67.03 69.24 69.14 68.53 68.70 69.09 69.07 69.14 68.55 67.18 66.44
38.34 38.81 39.24 40.01 39.71 39.42 39.62 39.52 39.34 41.54 44.01 42.93 41.94 42.06 42.32 42.46 41.91 41.04 40.77 41.21 43.35 45.32 48.57 49.76 50.60 52.31 53.77 54.88 56.00 57.54 58.80 61.44 65.43 68.14 69.45 69.94 69.85 69.51 67.80 68.22 68.27 67.54 66.91
38.07 43.43 38.35 38.49 38.93 39.34 39.58 39.73 40.03 39.94 39.99 40.59 42.24 41.86 41.60 40.91 40.93 40.67 40.72 42.04 44.96 45.78 47.67 48.98 50.40 52.58 54.02 54.88 55.86 57.27 58.92 60.79 62.17 63.92 66.51 68.49 69.62 69.85 69.63 69.34 68.62 68.37 67.87
38.33 38.50 38.36 37.97 38.23 39.47 38.62 39.19 39.49 39.00 38.68 38.46 39.15 40.48 41.43 40.58 40.14 40.16 41.29 42.65 43.82 44.50 45.62 46.55 48.32 49.84 51.50 54.53 57.69 59.09 60.20 61.41 62.43 63.76 64.56 66.01 67.78 69.36 69.06 69.69 69.62 61.75 64.27
38.29 43.43 40.38 36.49 36.68 36.59 36.83 36.78 36.46 36.21 36.15 36.54 37.03 37.29 39.03 38.96 37.82 38.54 40.85 42.10 43.09 44.51 45.45 46.37 47.76 48.65 50.37 53.01 53.69 55.75 57.26 58.80 61.50 64.15 65.79 66.84 68.19 68.98 68.68 69.06 69.52 69.13 69.08
37.93 37.33 41.49 36.34 35.98 35.92 35.88 35.64 35.74 36.32 36.01 36.19 36.35 38.15 39.78 38.05 37.37 37.78 38.99 40.60 42.09 43.14 45.17 46.33 46.56 46.96 48.00 49.55 51.13 50.44 51.35 53.10 55.80 59.81 60.24 60.39 65.88 67.04 67.44 67.71 68.32 68.07 68.37
38.04 36.84 36.81 36.52 36.50 36.19 35.96 35.75 35.53 35.78 35.99 35.76 36.05 37.12 38.62 37.63 38.11 38.21 38.52 38.69 39.42 40.83 42.39 43.50 44.48 46.90 48.42 48.68 48.98 49.31 49.88 51.79 57.02 59.58 59.53 60.24 63.40 65.62 66.36 67.20 67.03 67.44 67.64
38.16 37.15 36.97 36.74 36.62 38.19 36.13 35.76 35.17 34.87 35.54 35.97 36.07 36.07 36.45 36.56 36.75 36.81 37.59 38.27 38.57 38.48 39.26 39.75 41.03 42.91 44.96 47.25 49.63 50.87 51.50 51.45 53.28 55.89 55.56 56.03 57.38 59.12 61.89 63.45 64.36 65.02 65.74
38.49 37.75 37.45 36.87 36.60 35.97 35.37 35.27 35.06 36.42 35.70 35.38 35.48 35.29 35.52 36.75 36.64 36.31 36.93 37.09 37.29 37.36 37.97 38.51 38.54 38.90 40.69 43.21 45.61 47.51 50.99 53.10 55.08 54.15 53.47 53.22 53.73 53.93 56.61 58.44 60.15 61.70 63.32
38.84 37.95 37.17 36.85 36.71 36.47 35.60 34.78 34.23 35.45 35.91 35.28 34.37 34.74 34.61 34.59 34.59 35.16 36.39 36.48 36.39 36.27 36.75 36.74 37.70 38.45 39.15 40.05 41.79 43.88 44.82 40.23 45.59 47.43 50.91 50.24 51.07 52.16 53.29 54.59 56.19 57.58 58.94
39.00 38.16 37.47 36.90 36.14 36.02 35.21 34.08 33.72 34.26 35.18 35.16 35.51 35.09 34.88 34.88 34.99 34.79 35.01 35.44 35.71 35.93 36.24 36.50 36.80 37.20 37.97 38.67 40.00 39.91 38.36 37.92 41.94 38.66 44.95 47.95 48.53 49.27 50.63 52.04 53.42 54.15 55.38

GFSGL_sfc_wetblb_090.txt.gz
Wetbulb
69.47 69.89 70.16 70.53 70.87 71.18 70.35 70.47 70.40 70.61 70.34 70.75 71.85 72.56 72.64 72.09 72.87 72.07 72.37 72.28 71.51 71.30 71.30 71.35 72.01 72.65 72.69 73.43 73.08 71.85 72.09 71.38 69.98 71.43 72.54 73.92 74.71 74.96 75.42 75.93 75.97 76.47 75.79
68.60 69.33 70.16 70.98 71.40 71.47 70.34 71.27 72.17 71.34 71.23 70.86 71.51 72.01 72.18 72.32 72.73 72.81 72.30 72.99 71.72 71.42 71.37 71.13 71.15 71.60 72.47 72.95 73.23 72.83 72.41 72.56 71.72 71.10 72.24 72.66 73.67 74.57 74.41 74.76 75.08 75.15 75.00
68.14 67.56 66.88 67.20 68.12 69.00 69.92 71.21 71.62 72.09 71.84 70.73 70.85 70.36 70.12 70.04 70.93 71.83 72.67 71.81 71.98 71.45 72.01 71.43 71.86 71.53 71.73 71.45 71.37 71.45 71.43 71.70 72.38 71.26 71.13 72.27 72.66 72.69 73.62 75.34 75.58 75.81 75.06
67.67 67.33 67.31 67.29 68.03 67.87 67.81 68.28 68.90 70.70 71.74 71.20 70.95 70.46 70.26 69.66 69.15 70.14 71.75 72.14 71.85 71.88 71.52 72.50 72.22 71.67 72.04 72.37 71.77 71.86 71.37 71.17 71.35 70.75 70.69 70.66 71.18 73.11 73.16 72.51 72.68 74.02 73.68
67.63 67.67 67.06 67.02 67.72 68.50 68.21 68.50 68.49 68.81 69.24 71.01 71.56 70.89 70.45 69.59 69.32 69.74 70.89 71.80 72.36 72.34 72.47 72.91 72.98 71.99 69.75 70.57 72.84 73.05 72.02 71.44 71.05 71.01 70.41 70.68 71.06 71.15 71.35 72.59 71.85 72.35 72.57
63.81 64.78 66.11 65.37 64.38 65.06 66.46 66.82 67.16 67.22 67.71 68.99 69.19 70.69 71.26 72.00 67.04 65.59 69.38 72.03 72.65 72.41 72.19 72.95 73.03 70.47 70.41 67.31 66.77 67.33 71.28 72.74 72.48 71.05 71.45 70.86 72.22 71.90 72.29 71.97 71.50 70.20 68.78
60.86 61.44 62.08 62.46 61.79 62.21 62.92 63.24 64.50 63.92 64.77 64.90 65.71 66.55 67.87 69.71 63.11 62.89 65.07 69.67 72.20 72.91 73.10 72.79 72.71 73.25 71.49 72.93 67.99 65.75 66.04 65.50 68.34 73.48 72.08 72.52 72.58 73.53 72.92 72.47 71.07 69.96 69.73
56.47 56.80 58.09 58.93 59.02 60.29 60.58 59.93 61.33 62.13 63.09 63.43 63.93 65.24 65.95 66.77 62.14 60.76 62.67 68.17 69.72 71.21 72.34 72.93 73.03 73.39 73.42 72.66 73.21 72.76 73.26 73.38 72.17 70.24 71.71 73.01 74.00 74.50 73.67 74.09 73.10 71.44 70.42
52.58 53.06 54.43 56.25 55.43 55.76 55.99 57.36 58.13 58.93 60.74 61.33 63.09 63.41 64.50 64.74 54.83 55.22 60.24 67.02 69.62 70.17 71.37 71.34 71.86 72.37 67.90 63.86 71.36 71.57 72.41 72.88 69.28 63.27 64.53 64.68 63.79 62.74 66.88 71.62 70.33 70.21 70.17
50.15 50.62 51.80 53.09 53.34 53.44 54.05 55.12 56.75 57.29 58.62 61.23 61.62 60.91 58.85 60.65 53.48 52.86 57.08 61.74 64.23 67.99 70.66 71.41 65.24 66.98 62.30 59.51 68.43 70.62 70.48 71.92 72.66 73.35 73.63 69.66 65.19 68.45 61.72 68.92 71.67 70.15 70.27
48.75 48.82 48.87 48.98 50.19 50.30 52.37 52.77 53.43 54.51 54.94 55.10 55.65 56.88 57.38 55.18 54.87 51.69 51.64 53.13 54.38 60.67 65.46 67.47 68.28 58.63 56.31 55.22 55.55 66.93 68.77 69.89 68.61 69.89 70.66 71.91 72.62 73.18 73.29 71.89 71.18 71.21 70.71
47.02 46.75 46.58 46.61 47.18 47.42 48.82 49.15 50.59 51.05 51.24 50.20 51.87 52.47 53.30 53.97 53.71 51.09 50.49 50.72 52.47 54.67 56.76 58.32 59.18 55.36 53.20 54.10 56.86 58.61 57.58 58.39 65.43 67.42 68.86 69.84 70.86 71.69 72.81 73.27 73.95 72.63 73.19
45.06 44.63 44.82 45.38 45.49 46.13 46.01 46.54 46.87 48.05 48.00 47.86 48.41 47.27 47.93 49.92 50.73 50.71 49.55 49.63 50.88 51.70 53.92 52.98 51.33 50.09 50.83 55.29 56.88 56.47 56.97 63.78 64.77 64.88 65.39 67.20 69.78 71.71 72.90 72.98 73.72 74.72 74.29
43.84 43.58 43.85 43.96 43.77 44.31 45.10 45.33 44.82 45.07 44.64 44.97 45.50 45.18 46.19 47.86 49.12 48.79 48.15 48.35 49.04 49.87 51.45 50.80 51.51 52.09 53.20 56.00 58.12 61.86 64.36 65.48 65.83 66.01 66.85 68.59 70.37 70.83 71.35 71.81 70.86 71.69 71.19
42.91 42.86 42.73 43.01 42.77 43.26 43.71 43.58 44.23 45.09 44.35 44.06 44.62 44.90 44.75 44.80 46.05 44.53 43.30 45.23 46.00 46.82 46.62 51.38 54.85 55.87 56.22 57.70 59.01 60.75 62.67 64.05 64.92 66.60 67.70 68.09 69.04 69.92 70.22 71.66 71.70 70.91 69.29
42.42 42.50 42.67 42.29 42.52 42.65 42.56 42.67 43.76 43.68 43.19 42.00 41.47 42.69 45.30 44.12 42.62 41.24 40.23 40.73 41.37 43.20 48.93 50.65 50.79 52.13 53.17 54.69 55.75 57.12 58.87 59.78 61.63 62.95 65.83 67.94 68.39 68.22 67.47 68.91 69.68 69.19 68.50
41.59 42.05 42.02 41.97 42.21 41.90 41.70 41.11 40.34 42.48 42.99 41.95 40.96 41.38 41.44 40.78 40.45 39.53 39.21 40.02 42.05 44.52 48.38 47.25 48.20 49.16 50.93 53.17 54.70 56.03 57.02 59.38 62.35 63.12 64.24 65.34 66.93 68.61 66.30 66.49 68.11 68.14 68.22
42.40 42.47 41.38 41.21 41.29 40.51 40.63 40.89 40.93 39.76 39.00 39.58 40.71 40.45 40.49 39.78 39.24 38.65 39.21 41.32 44.02 45.15 45.21 45.69 46.37 47.92 49.00 50.53 51.93 53.47 57.88 58.48 59.86 62.22 63.73 64.41 65.68 66.37 67.04 68.20 69.62 69.67 68.45
41.07 40.95 40.29 40.10 40.47 40.30 40.02 39.63 39.44 39.00 38.52 38.64 39.33 39.80 40.27 39.23 38.50 38.29 39.02 41.61 41.61 42.66 43.97 45.07 46.48 47.10 48.18 49.19 49.89 51.64 52.95 55.54 55.64 56.04 57.78 59.58 63.27 64.61 65.12 66.31 66.91 60.13 62.95
41.61 42.37 40.01 39.44 39.43 39.17 39.21 38.78 38.58 38.29 38.12 38.02 38.14 38.28 39.64 39.35 39.02 39.43 40.30 40.39 40.48 40.65 41.30 42.34 44.28 45.79 46.69 47.59 48.27 49.05 50.20 51.52 51.51 52.04 53.32 55.67 58.65 62.52 62.28 62.87 64.27 66.46 67.77
41.04 43.11 41.50 39.69 39.54 39.44 39.29 38.67 38.44 38.35 37.97 37.80 37.80 38.96 38.75 38.40 38.28 38.58 38.84 39.18 39.50 39.63 39.96 40.17 40.94 41.81 43.16 44.71 45.61 47.74 49.26 49.76 50.71 51.35 52.30 54.27 57.35 58.38 59.44 60.39 63.74 65.53 67.40
40.43 40.29 40.15 39.95 39.83 39.67 39.88 39.62 39.12 38.69 38.21 37.71 37.78 38.57 37.94 38.28 38.15 38.15 38.43 38.39 38.93 39.43 39.54 39.38 38.89 38.49 39.16 40.56 42.67 43.40 45.00 46.08 49.03 50.20 51.18 49.35 51.64 54.81 55.69 57.58 58.86 59.67 63.56
40.65 39.80 39.86 40.09 40.10 40.20 40.56 40.15 39.79 39.21 38.60 38.15 37.93 37.49 37.52 37.56 37.60 37.43 37.59 38.21 38.55 38.60 39.02 38.83 38.27 37.85 38.58 38.43 39.25 40.88 41.59 42.74 44.84 46.33 48.35 50.82 51.89 54.13 56.05 55.16 55.94 57.47 59.40
41.45 40.98 40.64 40.34 40.02 40.04 39.98 40.08 39.90 38.37 38.61 38.13 37.30 36.91 36.95 37.07 36.87 36.90 37.42 37.46 37.75 37.82 38.22 38.27 38.62 38.51 38.78 38.66 39.07 39.10 39.23 40.56 41.16 41.26 40.40 43.65 45.72 48.01 51.90 53.23 54.41 55.08 56.99
41.32 41.22 40.88 40.81 40.49 40.64 40.52 40.31 39.97 39.49 38.98 38.25 37.30 37.19 37.46 37.17 36.62 36.54 37.13 37.12 36.75 36.64 36.51 36.72 36.85 36.66 36.64 36.84 37.54 38.00 37.83 35.85 38.08 37.75 40.03 41.69 42.15 43.90 45.64 48.38 51.45 53.57 54.65
42.43 41.61 41.60 41.15 40.41 40.49 40.27 40.24 39.95 39.64 38.79 38.38 37.46 37.46 37.00 36.37 36.19 35.76 36.10 35.86 35.69 35.22 35.57 35.42 35.48 35.57 35.85 36.24 36.38 35.61 34.12 34.08 36.25 35.02 37.92 38.98 40.39 42.51 45.38 46.69 48.64 51.20 52.46

GFSGL_sfc_wetblb_093.txt.gz
Wetbulb
70.25 71.72 73.26 74.65 74.91 74.87 74.61 74.87 74.89 75.06 74.81 75.14 75.64 75.40 75.99 76.09 76.20 76.00 76.37 75.93 75.24 75.57 75.39 75.16 75.39 76.44 74.89 75.80 76.76 76.00 75.31 75.18 71.74 74.18 75.82 77.20 77.82 77.89 77.40 77.77 77.54 78.82 77.23
72.45 70.75 70.90 73.46 74.31 75.00 74.66 74.97 75.42 74.92 75.17 75.09 75.00 75.27 75.25 75.42 76.43 76.11 75.36 74.86 75.27 75.03 75.39 75.01 74.67 74.55 75.77 76.17 75.37 76.50 75.64 76.02 73.18 72.85 74.76 74.19 75.87 77.47 77.49 77.67 77.03 76.73 77.65
69.17 68.45 68.77 69.82 74.09 74.91 74.75 75.20 75.33 75.46 75.93 75.65 75.27 74.97 75.21 75.04 75.30 75.72 75.85 75.57 75.13 75.58 75.31 75.46 75.11 75.36 75.30 74.51 75.10 74.26 74.10 74.59 74.45 73.43 72.97 74.93 75.46 76.07 76.59 77.20 77.41 77.63 76.19
68.95 68.59 68.29 69.60 70.78 72.17 72.62 73.04 73.81 75.21 75.69 75.80 75.81 75.45 74.64 74.59 74.22 73.86 74.21 74.98 75.18 75.55 75.83 75.85 75.85 75.58 75.42 76.10 75.44 75.82 75.17 74.66 74.83 74.24 73.69 74.03 74.76 76.73 76.53 75.02 74.46 76.10 76.19
67.84 67.66 67.73 68.79 70.33 71.16 71.58 71.73 71.90 72.76 73.49 75.25 75.46 75.31 75.11 74.21 73.63 73.60 73.48 73.61 74.10 74.89 75.43 75.68 76.11 74.58 71.49 72.13 74.70 76.58 76.63 75.49 73.60 73.09 72.76 73.26 73.29 73.33 73.83 74.63 74.67 75.56 76.73
68.25 67.73 67.95 68.69 66.37 66.27 69.88 70.57 70.58 70.62 71.09 71.95 72.99 73.08 73.11 71.65 64.09 65.03 69.66 73.68 74.63 74.93 75.21 76.14 76.30 72.07 72.37 67.64 67.01 67.30 72.16 75.63 74.71 72.62 72.37 72.59 74.81 74.97 75.02 74.49 73.99 73.34 71.66
63.15 63.60 64.21 64.33 64.87 64.15 64.59 65.98 67.04 67.48 67.91 67.97 68.50 70.15 70.40 69.23 60.28 61.11 64.41 74.06 74.81 76.12 76.27 76.77 76.41 75.66 73.64 76.27 69.61 66.23 66.79 65.62 67.50 75.69 73.99 75.11 75.35 77.18 76.75 75.92 75.63 74.69 73.75
58.11 58.24 59.26 60.33 61.00 62.80 63.41 62.65 62.98 64.49 65.50 66.19 66.59 67.55 65.28 59.30 56.12 58.82 61.95 71.73 73.42 74.44 75.12 75.45 76.32 76.31 76.05 75.37 76.12 75.82 76.29 77.08 76.26 74.06 74.80 75.85 77.03 77.59 77.74 76.91 76.06 75.64 75.44
54.60 55.18 56.53 56.84 57.20 57.93 58.06 59.69 60.98 62.60 63.39 64.60 65.04 67.19 61.23 56.38 53.27 55.00 65.07 70.11 70.97 71.63 72.70 73.66 74.16 74.33 61.04 60.61 72.97 74.68 75.45 75.80 71.21 65.07 65.27 65.03 64.36 63.37 66.73 74.23 73.71 72.99 71.96
51.43 52.33 53.38 53.33 54.26 54.47 55.96 58.07 59.67 61.78 62.61 62.98 61.50 60.83 57.30 54.77 51.98 51.89 57.16 61.61 61.61 65.98 69.91 67.68 60.88 58.48 56.07 56.73 66.62 71.74 72.44 74.37 74.55 75.70 75.97 72.77 68.34 73.04 63.17 71.98 74.62 72.84 72.74
51.14 52.84 53.22 53.76 51.62 53.48 55.50 56.42 56.38 57.10 58.23 58.89 58.37 58.54 57.30 56.26 52.09 50.68 50.95 55.22 55.91 58.61 60.28 61.07 61.29 56.41 54.15 53.44 56.21 65.50 65.92 64.80 66.08 68.78 71.53 74.07 75.20 75.80 75.94 76.49 76.45 74.70 73.18
51.32 51.81 51.98 52.24 52.14 51.41 53.37 53.85 53.97 53.90 54.02 55.52 55.76 55.34 54.33 53.94 50.69 50.11 49.71 50.24 51.02 54.54 54.34 55.69 55.96 50.98 49.26 50.59 55.25 57.90 55.24 57.34 65.53 66.48 67.36 67.97 69.09 70.10 71.20 72.40 75.90 76.35 76.31
51.66 50.91 51.18 51.59 51.07 51.69 51.72 51.86 52.39 52.18 50.80 49.43 50.77 51.91 51.65 52.99 52.77 50.12 49.66 49.85 50.67 51.29 52.60 51.85 51.29 49.71 49.84 54.77 55.81 56.13 55.69 65.09 65.56 65.31 65.69 66.35 67.49 68.61 71.15 72.64 73.69 76.47 76.69
50.47 50.06 50.29 50.34 50.07 50.51 50.71 50.71 50.18 50.12 50.11 50.48 49.62 48.29 47.79 49.95 49.43 49.45 49.80 49.88 50.62 52.06 50.18 53.59 53.61 52.09 52.40 55.27 58.83 61.06 63.41 64.10 63.81 64.20 65.60 66.90 68.06 68.39 68.82 70.34 69.97 70.66 70.62
49.63 49.40 49.50 49.73 49.65 49.15 49.02 49.21 49.58 48.75 48.19 49.22 48.54 49.14 48.13 46.97 44.79 42.98 42.52 45.80 46.45 47.43 47.80 54.71 54.98 55.41 56.13 57.53 58.35 59.23 60.03 61.49 61.55 62.50 62.93 63.93 64.83 65.81 66.87 69.00 69.41 69.78 69.36
48.58 48.77 49.10 49.21 49.14 48.77 48.51 47.37 43.58 43.96 42.87 41.28 41.44 44.36 48.30 42.85 41.27 40.18 39.16 39.69 40.80 42.72 50.41 51.19 52.14 52.93 53.22 53.66 54.76 56.03 57.87 58.79 59.95 61.68 62.34 62.94 63.53 64.28 65.19 66.66 68.03 67.67 67.48
48.21 48.39 47.53 48.13 47.85 47.18 47.20 47.30 46.25 44.31 42.62 40.73 39.94 40.67 40.56 39.80 39.69 38.70 38.47 39.14 41.50 44.57 48.90 48.52 49.04 50.47 51.38 52.33 53.35 53.76 54.26 56.83 59.46 58.59 59.19 61.09 63.07 63.91 63.67 64.37 65.23 65.94 66.70
48.41 45.33 47.38 46.79 46.63 46.44 46.48 46.30 46.72 46.04 45.70 45.62 41.83 41.09 39.77 39.26 38.57 38.33 38.66 41.75 47.14 46.95 47.83 47.96 48.26 49.46 49.33 49.57 50.91 51.85 51.87 52.86 53.57 55.06 56.31 56.96 58.21 58.87 59.63 61.96 64.46 64.96 66.31
47.66 46.83 46.33 46.03 45.85 44.99 45.59 45.56 45.59 45.34 45.21 44.97 46.10 43.73 42.73 39.37 39.06 38.71 39.87 45.64 45.13 45.16 45.55 45.70 46.31 46.79 47.31 48.16 48.37 48.58 48.86 49.99 51.40 52.37 53.64 54.30 54.94 55.42 56.19 58.18 60.60 55.99 58.51
47.35 45.06 45.11 45.80 44.90 45.30 45.39 45.34 45.01 44.89 44.65 44.45 44.35 43.64 44.22 44.34 44.64 44.75 45.17 44.84 44.50 44.50 44.37 44.57 44.80 44.89 44.86 45.33 45.87 46.75 47.56 48.15 48.62 50.19 50.98 52.34 53.37 54.15 55.43 57.19 58.16 58.11 61.09
47.03 46.08 45.24 46.23 45.95 45.97 45.86 45.17 44.92 44.86 44.26 44.30 44.11 43.02 37.76 42.56 43.37 43.66 43.79 43.67 43.60 43.50 43.60 43.92 43.84 44.05 43.96 43.80 43.60 43.88 44.65 45.24 45.93 46.09 47.26 48.69 50.67 50.96 51.01 51.17 52.27 55.82 58.70
47.62 47.18 46.56 46.43 45.87 45.79 46.12 46.63 46.31 45.97 45.17 44.42 44.23 43.87 38.75 44.00 43.91 43.56 43.23 43.30 43.66 43.95 44.04 43.69 43.33 43.42 43.38 43.26 42.99 42.41 41.97 41.91 42.92 43.57 44.50 45.42 46.41 47.19 48.59 50.88 52.02 54.29 56.67
47.20 47.05 46.84 46.60 46.39 45.21 45.66 46.85 47.15 47.58 47.08 46.50 45.03 43.95 43.45 43.59 43.49 43.27 43.08 43.45 43.23 43.17 43.41 43.14 42.53 42.12 42.84 42.42 42.32 41.43 40.32 41.29 42.07 42.35 41.20 41.51 40.74 40.43 40.58 42.27 44.09 47.05 53.16
47.41 47.11 46.97 46.82 46.52 46.62 46.62 46.85 47.22 42.62 45.42 46.50 45.97 44.75 43.94 43.40 43.27 43.06 42.93 42.91 42.69 42.70 42.64 42.58 41.74 40.78 40.19 39.95 39.75 39.93 39.98 40.44 40.44 39.21 38.86 39.28 40.00 40.91 41.10 41.26 42.10 43.53 45.88
47.19 46.53 47.10 46.98 46.95 46.75 46.97 46.44 46.94 47.06 46.93 46.50 46.04 45.37 44.77 43.83 42.95 42.73 42.29 41.83 41.38 40.71 40.91 39.96 39.54 39.79 39.44 38.83 38.90 38.94 37.56 34.42 36.34 35.91 37.05 37.23 37.59 37.92 38.67 38.86 40.07 41.33 43.40
45.26 46.65 47.59 47.97 47.64 47.64 47.33 47.20 47.12 47.33 46.98 47.06 46.77 46.14 45.19 44.13 43.21 42.62 42.18 40.48 39.41 38.95 38.35 39.23 39.05 39.10 38.86 39.00 38.59 36.28 33.73 32.93 35.37 33.26 35.02 35.13 35.05 35.70 36.70 37.36 38.05 38.33 40.07

GFSGL_sfc_wetblb_096.txt.gz
Wetbulb
74.29 75.16 74.89 75.22 75.08 75.27 75.07 75.51 76.02 76.74 77.35 77.47 77.20 76.23 76.40 75.90 76.39 77.06 76.91 76.62 76.49 76.39 76.71 76.14 76.17 76.93 74.61 74.21 74.96 75.08 73.97 73.81 71.77 73.28 76.13 77.24 78.61 78.06 78.22 78.68 77.71 77.43 75.99
74.49 74.49 73.63 74.89 75.06 74.76 74.96 75.39 76.52 76.17 77.77 77.46 77.20 77.15 76.95 76.34 76.83 76.39 75.72 75.71 75.95 75.23 75.11 75.79 75.50 74.54 76.10 76.31 74.68 76.72 76.18 75.93 73.26 74.25 76.15 74.80 77.22 78.12 78.10 78.51 76.97 76.27 76.28
71.77 72.13 72.42 72.25 73.94 74.63 75.27 75.56 76.34 76.72 76.49 75.83 76.16 76.00 76.71 76.79 76.27 77.00 77.11 76.45 75.82 75.39 75.39 75.36 75.50 75.55 75.70 74.55 74.84 74.01 73.77 73.80 74.61 72.87 72.78 74.05 75.35 76.61 77.10 78.96 77.62 78.05 77.03
70.25 69.91 69.62 70.15 71.40 72.92 74.41 75.65 75.99 76.67 76.79 76.01 76.24 76.23 76.32 77.11 76.97 76.96 76.71 76.70 76.35 75.80 76.06 75.68 75.27 75.42 75.88 76.06 76.14 76.14 76.12 75.36 75.65 73.15 72.58 72.20 73.41 76.88 75.91 74.01 73.02 74.67 75.27
70.51 69.21 69.93 70.91 71.46 72.25 73.66 74.53 75.79 76.11 76.11 76.91 76.99 77.15 77.44 76.94 76.24 76.51 76.26 76.03 75.66 75.47 75.89 76.28 76.17 75.04 72.01 72.71 75.09 77.26 77.46 74.98 72.97 71.51 71.57 71.71 72.02 73.07 74.37 73.76 73.12 73.82 76.20
70.48 70.00 70.08 71.33 70.94 70.59 71.46 72.60 73.05 73.62 74.43 75.58 75.52 76.07 76.54 75.83 62.48 64.61 70.69 76.14 76.29 75.88 75.92 76.81 76.95 73.72 72.80 68.85 67.77 68.01 71.51 76.23 74.96 73.56 72.54 72.81 75.95 75.42 75.50 74.25 73.89 72.56 71.50
66.65 66.88 67.12 68.05 68.84 67.90 66.02 66.79 69.88 71.27 72.15 72.01 73.20 74.13 69.23 67.65 57.56 59.99 64.07 74.88 76.79 76.70 76.65 76.68 75.90 74.79 74.19 76.15 70.04 66.94 67.21 65.91 67.53 76.59 74.29 74.63 76.41 78.13 76.86 75.88 76.47 75.06 74.07
61.65 61.21 62.67 63.99 65.05 66.12 65.26 65.56 66.87 68.13 71.36 71.79 71.03 71.13 66.03 59.44 54.65 56.84 61.41 73.05 75.62 76.32 76.50 76.46 76.41 76.02 64.38 69.25 76.00 75.80 76.15 76.81 77.21 75.53 76.02 76.85 77.67 78.27 79.10 77.83 77.18 77.43 76.85
58.40 59.24 58.66 58.96 60.26 62.89 64.29 66.17 68.19 69.12 69.33 69.53 70.34 67.01 63.28 58.80 52.41 53.28 62.71 73.23 73.56 74.58 72.65 67.76 70.12 68.78 57.50 57.99 73.33 75.29 75.74 76.08 72.00 65.27 65.36 64.83 64.19 63.83 67.38 74.68 73.75 72.98 72.25
54.46 55.69 57.13 58.45 58.51 58.69 60.32 60.21 63.15 64.23 66.53 67.45 67.19 64.18 57.87 59.69 50.81 51.31 56.79 67.13 68.44 70.39 71.94 68.04 57.97 58.81 53.61 54.25 67.55 70.86 71.79 73.55 73.36 72.98 74.27 73.15 69.22 73.26 64.43 74.46 75.70 73.45 73.22
52.74 53.53 54.75 55.10 55.87 57.09 58.41 59.00 60.79 64.05 64.34 64.27 63.82 63.21 61.09 58.04 53.96 50.22 50.60 53.13 54.18 62.53 66.76 67.02 65.98 53.50 50.81 50.33 52.08 65.66 66.74 64.64 65.54 68.51 71.17 72.91 74.30 75.48 75.78 76.02 79.36 77.32 74.20
53.87 53.70 53.88 55.33 55.32 56.92 57.94 57.55 60.00 59.79 60.11 61.77 61.18 59.53 59.97 59.20 49.97 50.07 49.80 50.26 51.14 52.57 54.02 56.72 57.78 50.70 49.46 49.98 53.66 55.90 54.95 56.78 66.24 68.82 69.36 69.60 70.24 70.87 71.80 72.51 75.01 74.56 74.36
53.49 53.20 53.69 54.75 57.96 58.03 57.66 55.31 55.07 57.85 57.36 56.08 56.94 57.45 58.40 57.29 56.60 50.37 50.03 50.58 52.00 54.58 55.46 52.72 50.42 49.64 49.91 54.11 53.16 55.57 55.22 66.38 67.60 67.24 67.83 68.44 69.61 70.45 71.38 72.65 75.01 77.71 77.86
54.45 54.11 54.48 55.43 56.09 57.52 57.60 57.51 57.45 55.97 55.93 56.34 56.08 54.63 54.83 56.11 52.84 50.50 49.45 52.47 52.79 54.35 53.93 56.40 55.88 53.94 52.78 56.36 58.23 60.46 62.59 62.67 63.23 62.94 63.57 65.38 66.30 66.57 66.84 67.94 68.08 69.01 69.39
54.04 54.50 54.45 54.48 55.14 54.69 54.87 53.65 54.93 51.78 49.49 54.42 54.97 55.85 54.21 54.58 48.10 42.46 42.52 46.13 48.69 48.32 48.38 57.21 57.17 57.33 57.41 58.23 58.84 59.28 60.37 61.17 60.49 61.63 62.52 62.91 63.31 63.78 64.21 65.86 66.03 66.48 66.20
53.33 53.22 53.70 53.92 53.90 54.35 53.07 50.49 43.77 43.88 42.18 41.19 40.97 44.42 49.93 42.11 40.81 40.01 38.92 39.32 40.34 42.52 52.68 52.91 53.88 53.97 55.03 55.71 56.38 57.07 58.04 58.49 59.52 60.41 60.55 60.64 60.85 61.85 63.10 64.62 65.26 64.69 64.56
52.77 53.48 52.22 50.55 52.97 52.51 52.52 52.11 48.67 43.74 42.36 40.75 40.40 40.56 40.40 39.23 39.69 38.77 38.70 39.12 40.44 43.88 54.17 53.29 51.34 52.09 53.07 51.78 52.78 54.32 54.76 56.01 57.12 56.91 57.20 57.98 58.70 58.52 58.29 59.58 60.45 61.23 62.59
52.89 46.51 51.79 51.99 51.48 51.25 51.89 52.33 52.69 51.34 50.56 49.14 41.64 43.10 40.63 39.83 39.36 39.00 38.93 41.55 51.95 51.21 51.85 51.51 51.38 51.65 51.45 51.06 51.62 50.69 51.82 51.98 53.19 54.08 54.70 56.00 56.72 56.79 56.79 57.08 57.77 58.30 59.17
51.78 50.51 51.36 50.97 51.05 50.13 50.95 51.13 51.23 51.36 51.50 51.03 50.53 42.95 43.87 40.88 40.21 39.80 40.02 50.88 50.39 50.34 50.23 50.24 50.46 50.15 49.89 49.95 50.11 50.35 50.20 50.49 50.06 50.25 52.25 53.09 54.13 54.63 55.02 55.97 56.25 52.34 54.50
51.96 49.41 50.02 50.15 48.55 49.66 49.80 49.67 49.62 50.32 49.99 50.76 50.29 48.92 48.91 49.62 51.01 50.61 50.56 49.96 49.78 49.49 49.30 48.98 49.26 49.35 49.09 49.05 48.79 48.55 48.55 48.69 49.13 49.22 49.67 49.91 49.92 51.20 51.76 52.82 53.26 53.30 53.50
51.31 49.36 49.77 50.28 49.78 49.80 49.80 49.53 49.63 49.66 50.01 51.00 49.66 44.46 36.66 47.32 50.12 49.85 49.43 49.17 48.91 48.81 48.54 48.46 48.26 48.53 48.65 48.51 48.32 47.80 47.66 47.63 47.72 47.64 47.68 48.23 48.38 47.39 48.63 49.47 49.82 50.33 51.23
51.12 50.40 49.54 50.25 50.20 49.67 49.72 50.04 49.66 49.56 49.64 49.85 50.34 46.54 40.53 47.33 50.85 50.02 49.61 49.59 49.17 48.99 48.84 47.98 47.77 47.63 47.46 47.18 46.79 46.40 45.89 45.94 46.34 46.40 46.30 46.28 46.25 46.57 46.56 46.48 46.37 45.94 45.68
51.49 51.30 50.39 50.36 50.17 48.67 48.91 50.09 50.01 49.87 49.93 50.11 50.76 50.38 49.63 50.07 50.05 49.90 48.81 49.16 49.07 48.46 48.49 47.80 47.24 46.73 46.92 46.56 45.85 44.98 43.93 43.80 44.28 44.43 43.24 42.82 42.61 42.88 43.39 43.16 43.57 43.91 44.57
52.09 51.58 50.93 50.47 50.20 49.75 49.70 50.05 50.17 45.14 48.44 49.54 49.46 49.60 49.88 49.80 48.83 48.32 48.34 48.79 48.13 48.05 47.77 47.28 46.42 45.50 45.60 44.84 44.08 43.42 42.79 42.07 41.07 40.13 40.07 38.70 38.29 38.88 39.55 39.61 40.55 41.79 42.73
51.86 50.97 51.08 50.72 50.13 49.28 50.12 49.62 50.01 49.96 49.74 49.54 49.46 49.48 49.77 49.70 48.67 48.33 48.39 48.17 47.38 46.65 46.17 46.01 45.93 45.91 45.13 44.51 44.18 43.80 39.95 34.62 37.53 36.55 38.01 37.73 37.24 37.32 36.85 36.80 37.14 38.23 39.62
48.25 50.32 49.79 50.84 50.67 50.27 50.18 49.91 49.67 49.86 49.62 49.80 50.01 50.04 50.08 49.41 49.07 48.31 47.68 47.30 46.47 46.04 45.47 45.80 45.61 45.43 45.00 44.07 43.13 37.70 33.58 32.94 36.77 33.97 36.65 36.53 36.49 36.28 36.04 35.70 35.76 36.00 36.64

GFSGL_sfc_wetblb_099.txt.gz
Wetbulb
75.75 76.21 76.41 75.68 75.96 76.47 75.57 75.63 76.41 76.75 77.28 76.50 77.00 76.60 76.68 76.66 77.01 77.84 77.87 76.96 76.86 77.10 77.49 76.89 76.12 78.39 74.66 74.16 75.31 74.54 73.82 73.39 71.10 72.98 74.79 77.62 79.21 78.71 78.45 79.42 78.37 79.05 76.19
73.24 75.21 75.55 75.21 75.77 75.38 75.17 75.73 76.37 76.48 76.78 76.78 76.94 76.92 77.10 76.48 77.52 77.37 76.15 76.05 76.23 75.66 75.55 75.83 75.36 74.68 78.27 78.32 74.17 77.01 74.77 76.08 73.08 73.61 75.05 73.97 76.96 80.06 80.57 81.10 77.59 76.55 76.60
71.35 73.82 73.06 74.71 74.86 75.16 75.91 75.71 76.33 76.22 76.70 76.31 76.81 76.68 76.24 77.04 77.18 77.26 77.22 76.74 76.18 76.02 75.70 75.74 75.41 75.61 76.82 75.37 76.76 74.93 73.83 73.60 74.85 72.71 72.45 73.96 74.62 75.03 76.51 79.17 79.86 78.61 76.79
72.18 70.56 70.75 71.08 71.76 72.45 73.25 73.46 73.98 76.92 76.23 76.39 76.66 77.03 76.69 76.75 76.05 76.94 76.67 76.58 76.43 76.07 76.11 76.26 75.82 75.46 76.38 77.00 75.26 78.23 76.56 74.92 74.80 72.98 72.10 72.92 73.32 76.51 75.16 74.15 73.31 74.53 74.28
72.01 72.41 72.20 70.68 71.48 72.06 71.87 73.52 74.26 75.86 75.87 76.39 76.43 76.82 76.84 76.29 73.25 72.38 76.87 76.56 76.77 76.22 76.43 76.34 76.59 75.47 72.49 72.60 74.79 78.16 77.40 75.77 73.49 72.80 71.33 71.22 71.39 73.63 73.47 73.31 73.72 73.85 76.06
72.76 72.22 72.53 72.87 73.54 73.01 73.44 72.97 73.39 74.31 74.61 75.79 75.87 76.27 75.71 68.93 61.45 62.84 68.65 76.49 76.38 76.43 75.67 76.62 77.69 73.80 72.90 69.60 68.79 68.65 71.46 75.25 75.01 73.27 72.41 72.19 75.37 74.92 74.46 74.20 74.16 72.26 70.70
71.33 70.89 71.47 71.63 71.46 71.70 72.24 72.22 70.34 71.78 74.30 73.89 74.31 72.27 69.09 64.83 56.55 58.43 63.30 71.96 75.58 77.13 77.34 77.21 75.70 74.47 73.66 76.16 70.32 67.39 67.90 66.48 67.93 75.80 74.12 75.12 75.93 77.46 77.89 76.66 76.10 75.11 73.64
66.90 66.43 66.76 67.37 67.89 68.57 69.51 69.52 67.33 69.56 71.69 72.73 72.56 70.41 66.62 59.08 53.98 55.63 59.04 70.25 74.56 76.14 75.80 75.88 76.31 73.69 64.10 65.78 72.50 75.23 75.77 76.49 75.12 74.83 76.23 76.35 77.91 79.11 78.41 77.81 77.45 77.05 76.66
62.01 62.32 63.30 64.70 66.08 66.77 66.60 69.20 69.32 70.56 70.91 71.42 71.16 69.06 65.91 59.44 52.20 53.14 60.92 73.27 74.82 74.21 71.85 69.81 73.26 71.05 55.65 56.07 70.32 73.73 75.36 76.62 70.45 65.59 66.59 65.54 64.26 63.95 67.90 74.17 73.20 71.80 71.63
54.69 56.31 61.95 61.01 61.32 63.08 65.11 66.08 67.77 69.05 69.39 69.42 66.49 66.80 59.09 61.61 50.93 51.34 55.94 64.07 69.85 68.20 73.43 65.02 55.43 57.28 52.82 52.39 62.05 69.08 71.05 72.95 72.25 71.92 71.39 72.19 69.84 73.42 65.32 72.85 76.13 73.57 74.14
53.96 55.77 56.30 58.11 58.81 59.95 60.94 61.32 62.26 65.51 67.43 67.62 66.46 65.33 60.50 56.65 52.99 50.61 50.77 59.62 56.73 57.80 58.54 59.24 62.04 53.20 50.69 50.76 51.02 62.22 65.74 60.54 63.81 66.78 68.97 71.18 73.05 74.09 73.42 75.01 77.19 76.89 72.93
54.55 54.51 55.78 56.69 57.30 58.17 59.76 60.26 62.29 62.72 63.13 64.11 64.76 63.72 62.80 61.14 51.03 50.24 50.22 50.37 52.24 55.95 58.17 57.69 54.79 50.92 49.56 50.02 53.70 54.58 53.72 56.50 63.86 67.56 69.09 69.46 70.11 70.86 71.90 73.20 74.69 74.90 73.45
54.49 54.21 54.65 56.25 57.30 57.92 59.76 59.11 58.59 59.95 59.43 60.64 60.10 59.68 59.97 60.84 59.60 50.60 50.42 50.78 52.55 53.93 58.54 54.57 50.62 49.16 49.17 52.23 54.68 54.75 55.01 62.15 64.53 64.68 63.84 64.39 66.18 67.24 70.33 70.47 72.63 75.32 76.47
56.41 55.29 55.38 55.42 56.50 58.29 57.15 57.91 58.48 57.85 57.40 58.16 57.14 57.48 57.60 58.01 54.56 51.75 51.92 53.75 54.41 54.70 55.23 56.01 56.86 54.63 51.89 54.27 56.23 60.74 62.06 62.07 61.23 61.04 60.16 62.92 64.98 64.77 64.44 66.38 65.69 66.75 66.65
56.06 55.98 55.68 55.52 54.87 56.72 56.45 52.28 53.56 51.75 48.58 50.78 57.36 56.77 56.13 56.37 48.01 42.97 42.78 45.87 47.80 49.76 47.71 57.37 58.23 58.31 58.17 58.74 59.12 59.84 60.29 60.49 59.85 60.75 60.84 60.72 60.83 61.73 62.37 64.42 64.47 65.36 64.96
56.21 56.05 55.61 56.00 56.02 56.09 55.15 52.45 43.04 43.48 42.46 41.29 41.02 44.13 49.33 42.41 41.20 40.45 39.55 39.55 40.51 41.90 52.05 54.69 54.87 55.19 54.64 55.27 55.79 56.14 57.59 58.00 57.62 57.10 57.65 58.02 57.82 58.38 58.78 59.37 60.51 60.63 60.76
55.72 56.71 55.64 51.72 55.15 54.66 54.67 53.71 50.75 44.46 42.67 41.46 40.56 40.75 40.68 39.77 40.35 39.63 39.12 39.41 40.79 43.42 53.74 55.27 55.00 54.28 54.63 54.60 53.88 52.84 52.10 53.89 55.79 54.25 54.94 54.82 55.98 57.06 56.99 57.31 57.64 58.75 58.52
55.90 48.62 54.65 53.57 54.32 54.13 53.79 53.91 54.16 52.49 51.26 49.66 42.00 44.48 40.93 40.83 40.47 39.72 39.28 40.59 51.58 50.49 54.06 53.41 53.08 53.00 52.77 52.56 52.60 52.41 52.64 52.84 52.85 51.82 52.39 52.60 53.36 53.24 53.31 54.27 55.00 56.48 56.03
54.79 53.41 52.62 53.80 53.57 52.39 53.31 53.17 52.70 53.07 53.23 52.67 50.99 43.14 43.35 41.54 42.05 40.37 40.12 52.96 52.76 52.60 52.46 52.40 52.39 51.97 51.92 51.98 51.72 51.61 51.66 51.07 50.28 51.11 51.11 50.70 50.84 50.33 50.42 51.22 51.84 49.36 50.49
54.83 50.25 52.35 52.74 52.07 51.61 51.76 51.64 51.43 51.90 51.95 52.03 52.03 51.91 51.39 48.86 50.85 52.40 53.22 52.95 52.52 51.84 51.72 51.57 51.41 51.43 51.30 51.25 50.95 50.74 50.39 50.21 50.21 49.79 49.76 49.72 49.96 49.85 48.85 48.55 48.96 48.69 49.24
54.12 52.75 52.12 51.99 51.66 51.38 51.51 51.28 51.44 51.18 50.98 51.28 51.15 46.03 37.74 48.25 52.53 52.37 52.55 51.58 51.56 51.41 51.20 50.94 50.79 50.91 50.66 50.17 49.86 49.19 48.67 48.40 48.46 48.48 48.04 47.83 47.68 46.69 47.63 47.87 47.57 47.70 48.21
53.83 52.81 50.40 51.15 52.08 51.93 51.58 51.66 51.30 50.88 50.80 50.57 50.56 47.01 42.01 48.01 51.89 52.18 52.25 52.19 52.63 52.50 51.75 50.92 50.30 49.91 49.67 49.05 48.53 47.68 46.81 46.56 46.42 46.23 45.69 45.60 45.30 44.98 44.77 44.63 44.83 45.13 44.94
53.96 53.26 51.73 51.40 52.23 50.97 51.00 51.82 51.44 51.28 51.21 51.11 51.08 50.47 49.62 50.47 51.53 51.24 51.75 51.79 51.97 51.49 51.63 50.49 49.91 49.26 49.24 48.70 48.32 47.43 45.92 45.24 45.22 44.84 43.03 42.61 42.18 42.35 42.69 42.04 42.27 42.29 42.66
54.56 53.54 53.04 52.28 52.33 51.83 51.52 51.14 51.79 47.38 51.09 51.55 51.40 50.74 50.62 51.14 50.69 50.45 50.40 51.11 51.31 50.47 50.49 49.80 49.22 48.20 48.60 48.21 48.16 47.79 47.38 44.65 43.70 42.12 41.57 40.46 39.31 38.93 38.63 38.52 39.30 40.49 41.31
52.21 53.49 53.47 53.08 52.75 51.79 51.94 51.72 52.20 52.32 51.69 50.65 50.93 51.24 51.41 51.33 50.84 50.60 50.65 50.44 50.05 49.50 48.82 49.01 48.69 48.20 47.74 47.54 47.18 46.63 38.87 33.99 39.28 37.02 38.83 38.65 38.44 38.60 38.24 37.76 37.75 37.97 38.12
50.82 49.16 51.19 53.05 52.94 52.79 51.98 52.21 52.16 52.36 52.08 51.81 51.80 51.66 51.56 51.31 51.17 50.89 50.76 49.69 49.26 48.80 48.23 48.01 48.06 47.78 47.60 47.30 45.68 37.55 33.40 33.69 37.71 33.90 36.18 36.71 37.08 37.74 37.65 37.27 37.55 37.52 37.34

GFSGL_sfc_wetblb_102.txt.gz
Wetbulb
75.05 73.81 76.92 76.46 76.76 76.98 77.71 78.34 78.49 72.22 69.99 69.57 73.61 76.56 75.71 77.75 78.24 77.54 77.72 77.28 75.16 74.77 75.96 75.58 75.00 76.84 75.54 74.84 74.22 72.91 72.88 72.46 70.29 71.18 71.37 70.75 70.39 70.62 76.93 77.92 78.39 77.40 76.13
73.33 74.46 75.33 73.09 74.01 76.09 73.87 71.65 76.56 77.74 76.96 77.62 78.41 76.54 76.98 76.29 76.55 76.58 76.52 76.28 75.62 75.11 75.51 76.51 76.05 74.00 75.99 76.95 75.74 74.99 74.86 74.95 73.33 71.22 73.29 74.05 74.81 76.84 77.16 78.27 77.90 76.61 75.64
73.21 73.06 73.27 75.06 74.61 75.93 75.34 72.23 72.31 75.66 78.02 77.90 78.06 76.06 75.15 76.21 75.56 75.92 76.67 76.09 75.77 76.03 76.32 75.69 75.81 74.90 75.22 75.12 75.46 74.76 74.02 73.87 73.08 72.38 71.49 72.52 72.59 73.21 72.93 75.02 76.40 75.59 77.41
71.19 71.88 72.14 72.17 72.97 72.27 73.35 74.20 74.91 75.34 74.81 74.49 76.96 75.50 75.28 76.74 75.96 75.92 76.12 75.83 76.07 76.48 76.50 77.07 76.61 76.25 75.12 75.30 74.48 74.72 74.09 73.94 73.46 72.82 72.66 72.44 72.21 73.13 74.65 71.81 70.07 74.33 74.22
70.92 71.43 71.65 72.38 71.06 71.19 72.15 71.72 72.80 72.46 73.13 73.79 74.44 75.77 70.42 69.30 66.25 67.79 70.73 73.61 74.31 75.71 76.50 75.82 76.17 72.99 71.71 71.17 74.79 75.16 74.53 73.57 72.54 71.48 70.93 71.32 72.08 72.44 72.15 73.22 73.22 72.75 73.24
72.17 71.33 72.21 72.67 72.70 72.43 72.03 71.58 71.11 71.00 72.02 72.59 72.32 73.45 69.29 65.30 60.17 61.26 64.88 73.47 75.37 74.89 75.59 76.68 77.28 72.71 73.15 68.83 68.49 68.52 70.73 73.46 72.70 73.28 72.63 71.23 72.08 73.14 73.72 73.84 73.29 72.20 70.91
72.92 72.97 72.46 72.16 72.97 72.43 72.45 72.35 71.96 71.13 70.68 70.41 70.92 68.25 61.76 58.27 55.87 57.64 61.15 69.04 74.03 74.89 74.79 75.44 74.66 71.21 65.93 67.71 70.76 67.89 67.66 66.74 67.08 72.56 72.20 72.69 73.12 74.23 75.17 73.76 73.70 73.50 72.58
68.18 70.40 70.67 71.30 70.53 70.62 70.60 70.10 70.10 71.01 69.28 69.84 69.47 67.02 62.91 55.59 53.88 55.62 59.80 67.78 72.34 75.03 74.91 74.51 73.90 65.14 58.92 58.94 66.23 72.87 74.89 75.74 74.58 72.80 72.33 74.18 75.70 76.11 74.85 74.54 74.03 73.70 74.13
62.32 62.94 65.50 67.29 67.24 67.45 68.12 69.52 70.18 69.75 68.09 70.01 70.54 67.63 63.26 55.20 52.39 53.04 60.81 68.09 74.59 73.30 69.57 60.89 66.83 60.66 55.46 55.15 65.85 68.10 70.56 73.30 68.57 65.38 64.90 63.53 63.07 62.87 65.79 71.55 70.90 71.31 69.91
55.30 56.97 61.56 62.87 64.45 65.15 65.61 66.07 68.13 69.94 70.92 68.16 66.84 65.03 60.91 57.19 51.52 51.68 53.58 63.12 64.66 64.26 66.60 61.44 55.00 54.31 52.71 52.77 59.09 62.30 65.50 66.83 63.68 63.10 65.09 66.61 67.51 70.25 66.04 69.81 71.90 70.72 70.65
56.06 56.83 57.07 58.33 60.89 62.45 63.76 64.55 65.33 65.61 69.32 67.66 66.01 63.10 58.60 56.83 52.53 51.07 50.95 57.00 55.65 60.72 61.21 59.80 59.37 52.98 50.49 50.57 51.41 58.09 62.45 57.87 60.77 61.69 64.63 66.97 69.99 71.71 71.67 72.96 74.83 73.23 70.80
55.15 55.61 57.68 58.28 58.98 57.82 61.44 62.34 63.66 63.61 64.62 65.08 65.86 65.59 62.63 57.83 52.54 50.61 50.44 50.83 52.59 55.36 59.22 61.11 57.78 50.55 48.90 49.65 52.43 55.33 53.72 55.87 61.95 63.55 63.34 62.26 62.43 63.78 64.07 66.95 69.22 71.27 72.51
55.44 55.50 54.61 56.41 57.43 58.85 59.52 59.28 60.20 60.70 59.52 61.45 61.58 62.22 61.99 58.53 52.86 51.05 50.64 51.71 53.57 54.61 57.08 53.55 51.53 49.78 49.33 51.60 53.45 54.83 55.24 61.50 62.39 59.64 58.95 59.88 62.35 63.01 63.50 64.02 65.63 66.56 66.31
55.68 55.60 55.04 55.57 55.20 57.77 57.42 58.55 57.47 58.77 58.59 59.90 60.42 59.68 61.09 60.05 56.66 53.17 50.59 49.83 51.55 53.15 50.55 52.58 54.46 53.98 53.07 54.36 55.94 62.19 62.29 62.76 61.27 58.87 58.11 58.71 59.88 60.28 60.39 62.12 60.02 59.37 59.11
57.62 56.79 57.17 56.92 56.13 55.92 47.50 45.74 50.40 42.84 43.71 47.29 49.22 54.36 52.82 51.42 45.80 42.13 42.33 45.61 46.78 46.59 43.76 52.33 58.19 57.78 57.03 56.23 56.85 56.48 58.17 56.94 54.77 55.13 55.87 56.46 56.69 57.14 57.20 58.38 57.94 58.22 57.37
56.55 55.58 55.78 56.12 55.82 57.26 53.82 49.08 43.27 43.25 42.43 41.04 41.02 44.80 45.98 42.94 41.61 40.72 39.89 40.10 40.62 41.72 50.23 57.21 56.65 57.26 55.17 55.67 54.37 54.03 53.65 53.79 53.37 53.28 52.72 52.81 53.14 53.76 53.29 55.35 56.45 55.92 55.34
58.84 61.66 57.69 55.80 57.25 57.15 57.18 54.99 49.38 42.97 43.20 41.35 40.80 41.19 40.95 40.34 40.98 39.90 39.51 39.71 40.86 43.76 48.72 58.26 56.80 56.05 55.06 54.75 54.38 53.54 52.60 53.83 56.10 52.67 52.71 52.06 51.81 51.72 50.13 50.28 50.88 51.25 50.83
58.45 50.00 56.90 57.00 54.90 57.68 57.22 56.24 55.95 49.88 47.74 45.64 41.93 44.67 41.76 42.55 41.78 40.46 39.59 41.22 49.75 48.24 53.29 54.80 54.71 54.43 53.82 53.04 52.47 51.79 51.56 52.65 50.70 51.37 51.05 50.91 50.40 50.10 49.47 49.02 49.00 48.04 47.59
56.64 55.77 54.83 54.75 56.76 54.98 56.27 55.36 54.22 54.97 55.94 51.01 47.41 42.35 42.91 41.07 42.00 40.59 40.31 46.52 55.25 53.83 53.63 53.38 53.22 52.51 52.37 52.42 52.06 52.12 52.54 50.71 50.97 50.39 50.01 49.34 49.28 48.61 47.74 47.90 47.64 46.66 46.81
57.02 54.56 53.70 54.57 54.23 53.85 53.31 52.94 52.91 53.95 54.17 54.12 52.65 51.11 49.30 48.42 49.07 50.73 54.86 54.98 54.54 52.68 52.55 52.76 52.34 52.83 52.57 52.26 51.55 50.94 49.79 49.14 48.74 48.17 47.71 47.25 46.89 46.57 45.67 45.08 45.12 44.34 44.59
55.88 55.44 53.23 52.82 53.05 51.66 52.21 52.29 52.49 52.43 52.10 52.56 51.80 46.66 40.58 48.30 50.21 53.24 53.93 52.82 52.90 51.85 52.52 51.88 53.26 53.33 52.22 51.19 50.28 48.78 47.67 47.37 46.99 46.12 45.68 45.07 44.64 43.80 44.17 43.92 43.87 43.91 43.50
56.78 55.60 53.00 51.92 52.84 53.20 52.51 52.91 52.55 52.38 52.07 52.02 48.52 44.75 42.86 46.29 49.77 52.17 52.89 52.53 52.41 53.33 52.30 52.94 51.23 51.25 50.07 49.36 48.67 47.20 46.27 45.66 45.64 44.62 43.43 42.94 42.54 42.33 42.44 42.14 42.04 41.65 41.70
56.66 55.25 53.63 51.83 52.17 52.34 52.58 52.68 52.19 51.99 51.80 51.99 51.52 47.79 47.31 48.30 50.76 51.74 51.86 51.49 52.26 52.04 52.42 51.54 50.76 49.67 49.81 49.33 49.17 48.34 46.12 44.48 43.44 43.29 41.54 40.87 40.89 40.92 40.72 40.13 40.27 39.99 39.50
54.94 54.18 53.51 52.47 52.28 52.38 52.13 51.80 52.16 49.00 51.41 51.77 51.69 51.58 51.21 51.49 50.91 51.67 51.09 51.61 51.75 51.24 51.48 50.86 50.41 48.02 49.14 48.49 48.53 47.48 43.57 41.91 42.61 42.22 41.04 39.46 39.07 38.88 38.83 38.73 38.69 38.72 38.45
54.91 54.12 51.65 53.76 51.52 51.78 52.75 51.61 51.93 52.29 51.93 51.48 51.80 52.04 51.58 51.71 51.39 51.12 51.11 51.07 50.91 50.64 50.05 49.88 50.03 48.75 48.14 47.81 47.60 45.73 36.02 34.81 40.41 36.99 40.32 39.63 38.59 38.41 38.29 38.37 38.39 38.48 38.37
54.10 53.75 49.94 49.35 50.69 52.23 51.80 51.58 52.49 52.80 52.74 52.25 51.81 52.33 52.83 52.27 51.98 51.70 51.82 50.81 50.21 49.95 49.61 49.38 48.76 48.09 47.64 47.39 43.80 37.39 34.24 33.78 38.59 33.69 36.73 37.30 37.97 38.48 38.84 38.70 38.90 38.52 38.45

GFSGL_sfc_wetblb_105.txt.gz
Wetbulb
72.80 72.67 72.68 72.23 72.46 71.77 71.73 71.67 70.42 68.90 67.56 66.92 68.96 70.74 72.81 73.29 72.95 72.03 72.00 71.83 71.09 71.29 71.26 71.37 70.79 71.44 72.36 72.01 71.21 70.95 69.89 70.10 67.21 69.03 68.27 67.91 68.22 68.42 69.17 70.88 73.29 74.08 74.39
72.77 71.50 72.11 71.84 69.75 70.93 70.03 70.23 71.06 70.37 70.24 69.82 72.14 73.20 72.75 72.87 72.47 72.63 72.81 72.60 71.33 70.91 71.26 70.50 70.67 72.69 70.47 70.23 71.04 70.40 69.22 69.74 68.18 65.74 68.87 69.84 67.97 70.35 71.45 71.85 74.79 76.90 75.61
71.06 71.17 70.37 68.84 69.76 71.42 70.94 69.44 70.69 72.53 72.21 73.09 72.67 72.32 72.48 72.37 71.88 72.48 72.83 72.46 72.11 72.11 71.60 71.57 71.44 71.58 70.89 70.20 69.33 68.75 70.24 71.09 69.58 68.37 68.25 68.87 69.04 71.20 72.30 71.34 70.71 73.25 74.44
69.46 69.59 68.38 69.30 69.65 70.78 70.92 71.19 70.96 71.19 70.88 71.86 72.58 73.13 72.07 69.74 69.33 69.72 71.20 71.84 71.94 72.72 72.82 72.11 72.15 71.48 70.49 70.43 70.27 70.03 70.30 68.52 69.29 68.61 68.38 68.45 69.78 71.26 71.65 70.51 71.48 72.10 71.00
68.63 68.74 68.74 69.08 68.86 69.14 68.77 68.68 69.22 69.85 70.51 71.98 72.41 69.36 68.30 65.74 63.83 65.05 66.68 69.43 72.44 71.55 72.28 72.65 71.87 71.56 70.44 69.55 70.79 70.14 69.74 68.64 68.27 67.64 67.36 67.83 67.92 68.74 69.08 70.87 70.26 70.72 71.01
69.15 68.59 70.14 70.07 69.28 69.32 69.48 68.97 69.28 69.22 68.94 70.89 69.34 67.02 63.72 60.19 57.48 59.09 61.41 65.00 70.47 72.41 71.61 71.31 71.09 66.48 66.97 67.09 67.69 67.20 67.73 67.82 67.31 68.25 68.08 67.94 68.14 69.15 70.75 70.60 70.35 69.72 68.55
69.49 69.64 69.62 69.67 69.19 69.76 70.27 69.78 68.14 67.38 68.70 69.77 64.42 58.79 54.13 53.23 55.46 57.12 60.50 62.14 67.61 70.10 70.59 70.93 69.80 63.18 60.55 62.31 66.15 68.12 67.96 66.39 67.15 68.34 67.74 68.50 69.15 69.90 70.75 70.10 69.87 69.88 69.65
69.04 68.86 69.02 68.92 68.38 68.03 67.62 67.40 66.77 67.29 67.78 66.03 63.46 60.28 54.34 51.99 54.25 55.58 60.67 64.71 67.35 68.80 65.85 67.85 62.58 56.94 55.26 56.42 63.67 67.50 69.30 66.66 66.44 67.32 68.08 68.32 68.55 68.74 68.77 70.16 70.72 70.39 70.97
61.68 63.71 65.99 66.75 65.34 65.66 64.48 66.44 66.73 67.13 66.77 66.39 64.07 59.62 53.63 50.37 52.76 53.57 59.26 62.59 67.49 62.01 56.75 58.39 55.19 52.22 54.45 55.94 59.02 59.93 63.38 64.75 63.76 61.44 61.20 61.35 61.41 61.30 62.77 65.48 66.08 66.93 67.06
56.84 60.24 61.90 62.39 62.74 61.22 61.48 62.54 62.97 64.55 66.75 63.04 62.09 59.37 55.85 50.14 51.78 51.78 55.27 55.59 57.81 62.49 59.43 55.81 55.17 51.50 51.96 52.42 52.59 54.89 57.91 59.79 57.03 57.36 59.76 62.39 63.46 65.36 64.16 66.48 67.69 66.66 66.48
56.92 57.55 57.85 58.64 60.46 59.98 59.90 60.81 61.02 62.53 64.56 62.91 59.48 56.59 55.35 51.08 49.50 50.83 51.23 49.87 50.37 54.59 56.46 55.17 54.30 52.64 50.10 50.04 51.34 52.27 55.72 54.86 56.25 57.97 60.28 59.46 58.98 60.27 60.83 62.49 64.13 67.29 65.94
55.79 56.34 57.00 57.95 57.98 58.50 58.48 59.48 59.72 59.84 61.20 62.60 62.10 56.94 53.74 52.00 51.73 50.47 50.76 51.20 52.81 50.24 51.61 53.73 50.01 50.42 48.99 49.59 50.95 53.73 52.90 54.72 57.13 57.05 57.50 57.21 57.64 58.35 59.44 60.05 60.47 59.10 60.13
52.85 53.57 54.10 54.50 55.79 57.24 56.32 55.97 55.82 58.05 57.12 58.20 60.32 59.87 54.17 50.41 48.27 50.71 49.62 50.85 51.17 49.99 49.40 50.06 50.85 50.41 51.42 53.11 54.58 55.10 54.52 56.77 54.39 53.17 52.80 53.19 54.94 55.71 56.09 56.71 56.71 56.47 56.34
51.69 51.38 51.47 51.46 51.98 53.26 50.36 52.11 49.62 49.99 52.10 52.98 51.57 53.89 56.17 52.81 49.41 45.69 45.87 45.56 48.27 46.64 45.12 45.41 50.08 53.16 53.61 53.71 53.03 53.50 53.09 52.45 51.20 49.85 50.33 51.31 52.40 53.20 52.03 53.84 53.15 54.60 53.01
53.50 52.56 52.09 52.44 52.51 46.75 42.78 46.00 44.55 42.52 42.43 47.27 44.56 45.64 48.54 46.91 41.21 40.72 40.69 41.44 41.73 41.72 41.98 47.78 51.29 50.66 50.13 50.10 50.47 50.12 50.51 49.82 49.35 48.68 48.61 49.15 49.99 49.97 48.87 50.28 50.76 49.78 49.16
51.72 51.84 51.84 52.15 49.94 47.33 42.85 40.30 42.99 42.45 41.96 41.06 41.44 45.78 42.29 42.00 41.17 40.47 39.28 39.58 40.20 41.69 42.87 47.54 47.98 48.88 48.72 48.28 47.96 47.87 48.57 50.27 47.85 48.21 47.83 47.90 47.39 47.42 47.05 48.30 48.63 47.40 46.11
52.80 52.52 51.08 50.83 50.25 50.96 48.66 45.43 40.96 39.33 42.56 40.61 40.16 40.84 41.86 41.31 40.36 39.41 39.12 39.47 40.56 42.69 43.56 47.51 47.30 47.41 46.82 46.56 46.24 46.14 45.52 46.13 45.78 46.21 46.08 46.05 46.57 46.68 46.17 45.89 45.75 45.36 44.71
52.34 50.09 48.51 49.53 48.45 48.57 51.21 50.12 46.99 42.38 39.71 38.85 40.45 41.16 40.66 41.65 41.06 40.06 39.66 41.44 44.58 43.05 43.45 46.34 46.32 46.36 46.19 45.81 45.63 45.06 45.51 44.64 45.31 45.11 45.06 45.00 44.43 43.98 43.56 42.99 42.89 42.09 41.89
52.34 50.85 48.99 47.95 47.92 48.09 47.75 47.78 47.73 45.49 44.21 42.23 39.91 39.61 40.95 40.00 40.20 39.80 39.88 40.44 44.63 46.32 46.25 45.94 46.49 46.77 46.29 46.17 45.78 45.11 44.51 43.77 43.39 42.83 42.74 42.66 42.31 41.97 41.14 41.18 41.17 42.19 42.05
52.59 54.59 50.75 47.09 47.10 46.08 45.89 45.75 45.65 45.40 46.74 44.10 41.34 40.86 41.84 41.72 41.97 43.45 45.77 45.97 45.68 45.49 46.01 46.42 46.53 46.46 46.20 45.61 44.79 43.89 42.82 42.39 41.47 41.09 41.00 40.72 40.48 40.36 39.70 39.67 39.91 39.45 39.39
51.79 50.83 52.04 46.55 46.44 46.04 45.77 45.56 45.34 45.20 45.13 46.64 46.70 45.92 44.17 43.35 44.40 44.95 46.99 45.50 45.70 45.63 45.07 44.86 45.11 45.11 44.79 44.15 43.17 42.42 41.55 41.40 40.84 40.35 39.19 38.62 38.64 38.28 38.68 39.25 39.25 39.19 39.17
53.51 51.53 47.36 46.11 46.21 46.30 45.13 45.83 45.74 45.36 45.47 44.06 40.02 39.00 41.03 39.96 42.84 44.89 45.09 45.50 45.24 45.54 45.34 44.97 44.03 43.97 43.68 43.26 42.67 41.71 40.97 40.11 39.44 38.92 38.31 38.10 37.90 38.27 38.48 38.25 39.27 39.52 39.43
54.89 54.24 52.80 47.95 46.13 47.12 46.37 46.03 45.56 45.43 45.02 44.90 42.47 40.29 40.04 40.60 40.79 44.55 45.35 45.55 45.08 45.12 44.34 44.21 43.64 42.90 43.09 43.08 42.58 41.54 39.26 38.36 38.53 38.38 37.28 37.20 36.89 36.81 37.58 38.64 38.95 38.65 38.76
54.73 53.58 53.41 49.29 47.76 45.44 45.38 45.52 45.31 45.76 45.48 45.65 44.67 43.12 42.60 42.51 43.41 45.27 44.86 45.21 44.60 44.32 44.19 43.44 42.89 42.33 42.58 42.05 40.23 38.87 37.69 38.09 38.31 37.68 36.82 36.71 38.49 38.81 38.93 38.47 38.61 38.57 38.52
53.04 52.87 50.24 49.60 47.84 46.14 45.61 45.45 45.35 45.88 45.67 45.78 46.02 45.68 45.78 45.15 44.65 44.97 44.53 44.45 44.11 43.51 43.25 42.90 42.53 42.35 42.68 42.25 38.48 36.72 35.05 36.57 37.50 36.38 37.04 37.95 37.78 37.65 38.03 38.17 38.37 38.77 38.91
51.08 51.66 49.30 48.50 48.71 47.75 46.04 46.77 47.15 45.60 45.94 46.22 46.29 45.77 45.79 45.22 45.17 44.94 44.53 43.98 43.42 42.85 42.33 41.89 41.89 42.38 42.04 40.75 39.31 36.15 32.15 34.72 36.72 33.47 34.09 36.32 36.66 37.48 38.59 38.49 39.10 39.08 39.08

GFSGL_sfc_wetblb_108.txt.gz
Wetbulb
71.14 71.48 71.04 71.67 71.33 70.95 69.93 69.42 69.24 68.47 68.11 68.90 68.02 67.86 69.72 71.44 71.69 71.02 70.69 71.04 70.08 69.66 69.97 69.72 69.85 69.49 69.87 70.67 70.27 69.95 68.21 67.86 65.29 67.13 67.60 67.96 67.59 68.05 69.60 69.36 70.54 71.08 73.54
70.34 70.84 71.67 71.89 71.10 71.10 70.32 70.53 69.40 68.17 67.18 65.94 67.27 69.99 71.71 71.89 71.54 71.20 71.02 72.26 70.69 69.92 69.89 69.97 69.97 71.41 69.14 69.62 69.27 68.47 68.53 68.55 66.86 64.31 66.89 68.38 68.12 68.99 69.85 70.14 72.44 74.57 73.24
70.63 71.08 71.24 70.35 69.45 70.68 69.72 69.31 69.71 70.67 70.82 69.75 71.06 71.15 71.51 71.36 71.05 71.15 71.09 71.21 70.91 71.18 70.79 69.89 70.38 70.06 69.81 69.44 68.25 67.46 69.01 69.45 68.55 67.41 67.25 68.32 68.63 69.95 70.48 71.99 72.06 71.89 73.84
70.04 70.65 69.84 68.94 68.89 70.22 70.40 69.40 69.39 70.27 69.17 69.84 70.55 71.13 69.00 66.91 67.20 67.70 69.50 70.06 71.31 72.02 71.87 71.85 70.87 70.81 69.71 69.39 69.59 68.75 69.29 67.66 67.61 66.69 66.24 66.49 68.18 69.69 69.99 69.13 70.15 70.68 70.79
68.58 68.24 68.30 68.62 69.21 69.07 69.32 69.59 69.42 69.52 69.31 69.58 68.60 67.45 65.56 64.44 63.20 63.36 66.04 67.09 70.35 70.77 71.87 72.03 69.97 69.18 67.70 67.61 69.07 68.79 68.96 67.21 67.03 65.77 65.57 66.06 66.17 66.93 67.14 69.39 69.19 69.89 70.31
67.81 67.25 68.21 67.90 67.47 67.11 68.41 69.37 69.04 68.84 68.26 69.10 67.11 64.21 60.97 58.83 57.59 59.05 60.93 64.15 67.27 70.25 70.68 71.06 67.18 65.60 66.53 65.18 65.18 66.01 67.56 67.44 65.93 66.24 66.51 66.19 66.38 67.70 69.07 69.14 68.87 68.19 67.16
67.88 68.40 68.96 68.53 68.37 68.35 69.05 68.78 67.36 67.11 68.24 64.11 58.96 55.24 52.44 53.65 56.27 58.03 60.82 62.41 66.69 69.23 68.40 69.05 65.51 60.43 59.03 60.92 64.64 67.07 66.84 66.07 66.16 66.82 66.08 66.12 66.91 68.44 69.28 68.15 67.25 67.54 67.81
68.04 68.26 68.31 68.13 67.95 67.40 66.80 65.93 65.39 66.04 65.62 61.25 58.39 54.90 52.03 51.86 55.06 57.72 63.02 65.97 65.80 63.08 64.86 61.63 57.11 54.52 54.98 58.37 61.53 63.02 66.46 64.26 63.00 63.09 62.35 64.39 65.08 65.46 64.66 65.29 65.39 67.43 68.96
66.56 67.83 67.90 67.69 66.78 65.40 64.97 65.14 65.36 65.35 64.20 62.26 58.95 55.14 51.06 49.25 53.36 56.28 61.28 66.28 61.37 56.42 55.97 53.96 52.50 51.40 54.07 55.59 55.63 57.52 59.85 60.52 59.27 58.78 58.76 58.98 59.11 59.46 61.71 64.12 65.53 65.26 63.99
60.68 61.78 63.94 64.85 63.88 62.66 62.71 62.03 62.29 65.42 65.13 62.34 58.39 54.81 52.78 48.99 51.94 53.17 54.12 57.77 60.06 58.96 56.53 55.37 54.74 51.08 51.75 52.15 51.88 51.97 53.59 55.56 54.68 57.27 58.85 58.81 58.59 58.77 60.22 62.06 63.60 63.39 63.08
58.66 58.87 59.84 61.73 61.32 60.56 60.20 59.96 61.36 63.60 61.50 59.41 58.04 54.61 50.69 48.83 48.83 51.00 51.25 49.68 51.60 54.54 54.57 54.06 51.83 52.45 50.01 49.61 50.63 51.58 53.33 53.64 55.81 56.48 55.55 56.83 56.72 57.30 57.84 57.57 57.58 58.63 57.42
57.24 58.07 58.07 58.44 59.32 59.34 59.36 59.06 58.93 62.15 61.19 59.51 54.87 52.69 51.84 49.12 50.06 50.37 50.82 51.10 52.64 50.40 50.59 50.62 49.05 50.02 49.66 50.77 52.00 52.42 53.02 55.55 53.56 52.38 51.99 51.84 52.10 52.66 53.67 54.24 54.45 54.40 55.03
54.47 54.09 55.25 55.38 55.68 56.23 55.69 55.41 54.86 57.61 59.61 60.47 59.92 55.24 51.13 49.33 49.14 49.25 49.64 50.32 50.93 49.61 48.27 48.56 49.66 49.03 50.24 51.99 53.21 53.16 52.75 50.75 49.53 49.16 47.61 48.01 48.66 49.55 49.32 50.30 51.19 50.92 52.58
50.18 50.19 50.75 51.55 49.47 47.85 51.20 50.67 48.64 49.41 50.95 51.59 50.72 54.17 51.10 50.63 47.99 44.87 42.85 42.45 45.45 44.06 46.00 46.91 51.94 52.96 52.13 51.38 50.92 50.86 50.68 49.27 47.37 46.16 46.12 47.02 48.27 46.85 47.67 47.95 47.48 48.03 46.80
49.70 49.26 49.07 48.68 45.74 42.79 42.33 43.38 43.61 42.50 43.95 46.23 46.64 46.73 49.44 47.37 44.87 41.43 41.06 41.59 41.29 42.17 44.96 50.90 50.45 48.10 47.83 47.87 47.97 48.42 48.01 46.60 46.10 45.48 45.48 45.27 46.39 46.64 45.97 46.28 46.11 44.90 43.69
49.30 49.62 50.32 50.00 48.07 43.09 41.55 40.31 42.42 41.99 41.29 40.54 41.32 42.64 41.12 42.78 41.26 40.14 39.28 39.54 40.35 41.86 45.12 46.97 46.87 46.60 46.43 45.59 44.78 44.46 44.67 45.77 44.39 45.37 44.24 43.98 43.68 44.13 43.83 44.05 44.03 42.74 41.29
48.61 48.69 48.73 49.40 47.64 46.83 43.80 41.60 39.82 38.60 41.60 39.96 39.58 40.24 41.41 41.16 39.89 39.03 38.90 39.35 40.77 42.96 44.56 46.97 45.09 45.04 44.37 44.24 43.90 43.69 42.74 42.96 43.84 43.61 42.92 41.91 42.24 42.43 41.32 40.91 40.90 40.41 39.95
50.69 50.09 46.67 48.70 48.00 48.15 48.89 46.60 44.17 41.01 39.60 38.19 39.65 39.79 39.58 39.35 39.27 39.07 38.96 41.69 43.02 43.19 44.25 44.94 45.85 45.02 44.24 43.73 43.72 42.94 42.28 42.46 41.56 41.40 41.03 40.49 40.57 40.23 39.64 39.21 39.51 38.52 38.81
50.64 49.89 48.75 45.98 45.67 46.22 46.91 48.27 47.37 44.10 41.83 39.64 38.37 39.37 40.16 39.60 39.07 38.87 39.31 40.56 43.64 44.22 43.34 44.10 44.27 44.34 43.64 43.10 42.56 41.94 41.13 40.62 39.64 39.32 38.56 38.32 38.40 38.24 37.83 38.45 38.55 39.62 39.15
50.47 52.77 50.52 46.85 44.37 44.16 43.62 44.13 43.65 43.90 43.11 41.49 39.11 38.45 38.79 40.14 40.32 41.55 44.05 43.73 43.67 43.60 43.58 43.82 43.63 43.39 43.01 42.41 41.36 40.83 40.62 40.09 38.47 37.91 37.74 38.01 37.98 37.64 37.82 37.83 38.03 38.01 38.28
51.80 50.73 53.23 47.58 44.76 44.44 43.47 43.46 43.24 42.64 44.66 42.95 41.58 41.09 41.61 41.13 42.03 43.49 43.55 43.19 43.45 43.41 43.17 43.05 43.20 42.72 42.15 41.46 40.88 40.51 40.02 38.99 38.13 37.70 36.90 36.74 36.83 36.43 37.18 37.18 39.54 39.64 39.41
51.76 51.93 52.55 50.67 45.87 44.12 43.79 43.35 43.23 42.84 42.65 44.23 43.67 43.12 41.79 41.42 41.85 42.69 44.40 43.38 43.85 43.47 43.15 42.99 42.55 41.79 41.54 41.35 40.75 39.84 38.28 37.47 37.42 37.06 36.49 36.60 36.46 36.47 36.47 36.90 37.94 37.52 37.37
51.75 51.17 51.53 50.30 48.64 47.37 45.50 44.41 43.02 43.33 42.88 42.77 41.93 40.99 40.16 38.79 38.82 42.53 43.73 43.66 43.46 42.89 42.68 42.81 42.18 40.97 40.98 41.17 40.75 39.86 38.00 37.00 37.12 37.14 36.34 36.09 35.70 35.86 36.71 36.58 37.71 36.97 36.73
52.32 52.20 51.56 50.01 49.95 47.98 44.57 43.99 45.45 43.61 43.51 42.78 41.52 40.11 38.71 38.92 39.56 41.73 43.20 43.32 43.11 42.54 42.17 41.93 41.72 41.31 40.27 39.11 38.39 37.65 37.37 37.40 37.13 36.81 36.56 35.53 35.40 36.43 36.26 35.87 36.42 36.70 38.71
50.85 50.73 50.17 50.13 51.32 50.51 47.48 45.28 44.62 44.16 43.96 43.38 43.30 42.13 41.37 41.16 40.45 42.79 42.89 43.21 42.55 42.14 41.68 41.50 40.75 41.37 40.30 38.44 36.91 36.30 35.86 36.23 36.40 35.89 35.77 35.47 35.16 36.30 35.51 35.33 35.35 36.79 39.03
48.19 48.63 48.22 46.63 46.76 48.73 48.51 46.69 44.50 44.23 43.94 44.81 43.92 43.24 42.72 42.51 42.07 43.16 42.50 42.83 41.73 41.03 40.80 40.39 40.68 40.99 40.39 38.66 37.60 36.05 32.49 33.74 36.04 33.98 34.59 33.65 33.70 34.19 34.54 34.79 35.20 36.17 38.48

GFSGL_sfc_wetblb_111.txt.gz
Wetbulb
70.19 69.87 69.64 69.90 69.98 70.12 69.84 69.87 69.63 69.34 68.71 68.86 69.23 67.88 66.92 69.15 70.55 70.69 70.28 70.48 69.64 68.57 69.32 69.28 68.83 69.09 68.58 69.38 68.95 68.78 67.50 66.42 64.52 65.61 67.14 67.34 67.18 68.32 69.45 70.47 71.61 71.76 72.10
70.34 70.22 70.12 69.98 70.16 69.88 69.65 69.62 69.04 67.95 67.50 66.45 67.21 66.64 68.94 70.99 70.86 70.79 70.16 71.73 70.37 69.45 69.03 68.64 69.03 71.35 68.88 68.29 68.64 68.17 67.70 67.83 66.45 63.48 65.87 67.77 68.02 68.71 69.40 69.51 72.08 73.78 71.89
70.02 69.73 70.02 70.09 70.18 69.67 68.76 69.25 69.81 68.75 68.15 67.78 68.14 69.20 70.33 70.60 70.31 70.41 70.87 71.19 71.12 70.95 70.43 69.88 69.81 69.86 69.11 69.33 67.91 67.43 67.92 68.95 67.52 66.33 66.18 67.39 67.83 68.63 69.42 69.91 71.02 71.08 72.82
70.00 70.46 70.20 70.02 70.27 70.02 70.38 69.21 68.63 69.19 68.44 69.57 69.95 70.24 69.47 67.48 67.82 67.99 69.14 69.72 70.16 70.93 71.27 71.13 70.93 70.51 69.31 69.06 69.26 68.66 68.43 67.82 66.63 65.75 65.14 65.37 66.69 68.12 68.62 68.09 68.90 69.91 70.44
69.97 68.95 69.83 70.47 70.97 70.22 70.03 69.39 69.62 69.41 69.47 69.27 68.94 67.32 65.74 65.24 63.42 62.90 64.97 66.49 67.73 69.14 71.37 71.65 70.12 69.12 67.88 67.21 69.51 68.91 68.33 66.96 66.85 65.50 65.09 65.25 65.86 66.17 66.13 68.27 67.99 68.99 69.12
68.76 69.07 69.50 69.46 69.41 68.76 68.24 68.45 68.78 68.73 68.82 69.59 67.00 64.75 62.12 62.38 59.27 58.97 61.41 63.82 66.83 69.86 70.12 68.76 67.84 66.60 64.95 63.90 64.54 65.28 66.45 66.51 65.75 65.38 65.22 65.18 65.63 66.64 67.81 67.86 67.52 65.87 65.06
67.45 67.91 68.22 67.77 67.25 67.46 67.77 68.24 68.13 67.93 68.09 64.22 60.38 57.14 54.39 54.02 56.76 58.26 60.46 62.18 66.52 68.96 69.82 69.06 64.19 59.03 59.69 62.12 64.64 64.31 63.68 63.91 65.17 67.34 66.10 66.01 65.66 67.73 64.76 64.13 64.03 65.02 65.24
67.14 67.11 67.56 67.66 67.70 68.04 67.90 66.84 66.08 66.80 63.41 58.21 54.76 53.30 52.16 53.72 56.54 59.71 64.10 65.89 64.96 65.63 64.71 63.85 59.87 55.38 55.19 57.99 60.61 65.20 62.67 59.79 59.55 60.00 58.41 59.70 60.86 61.68 61.61 63.20 63.52 64.56 66.13
67.18 67.93 67.43 67.93 66.66 66.15 64.96 64.38 65.22 64.04 60.18 57.13 54.49 51.90 50.10 50.42 54.32 57.11 63.12 61.68 59.83 58.02 57.56 57.72 54.58 51.35 53.97 55.36 54.72 56.58 57.24 55.47 57.72 58.42 58.67 57.77 57.54 57.97 59.67 61.98 62.70 61.75 61.25
66.00 67.00 66.82 66.58 65.65 64.68 64.12 63.99 64.12 63.55 61.59 58.19 55.16 51.33 51.49 48.15 52.17 52.76 59.26 58.84 54.60 54.89 56.58 54.99 54.71 51.51 51.48 51.94 51.00 51.81 52.36 53.31 54.99 55.45 55.24 55.86 55.95 55.95 57.49 55.38 56.45 55.94 59.79
62.61 62.61 63.21 63.17 63.19 63.14 62.47 63.00 64.42 63.09 59.75 57.10 55.02 51.07 48.06 48.12 49.27 51.58 51.30 52.15 54.47 55.20 54.25 53.10 49.90 52.03 50.30 49.64 51.06 52.42 52.77 53.42 55.31 52.83 52.16 52.38 52.20 52.35 53.33 52.97 53.92 54.18 53.76
61.49 61.29 60.35 60.00 60.77 59.59 59.89 60.86 62.48 60.92 59.45 57.36 54.45 50.47 49.26 47.69 50.07 50.13 50.45 51.19 52.38 50.30 50.14 49.18 48.12 49.40 50.31 51.01 51.91 52.50 52.85 52.64 50.11 49.03 48.62 47.51 47.11 47.26 48.15 49.71 49.51 50.02 49.61
56.07 55.75 56.63 56.03 55.90 56.53 56.61 55.59 57.11 60.76 61.11 57.93 54.58 52.05 48.35 48.57 46.04 47.81 48.28 48.93 49.96 47.67 46.73 48.54 49.56 49.04 49.81 51.02 52.32 52.15 50.85 48.25 47.67 47.31 45.72 44.93 44.98 45.34 46.22 46.20 46.36 48.37 45.54
51.23 51.69 52.95 52.69 49.81 50.33 51.45 52.07 52.06 53.16 53.20 53.49 53.42 56.47 50.52 51.23 48.43 45.29 44.58 42.76 45.73 45.11 47.45 51.21 52.39 51.36 50.88 50.04 48.83 48.61 48.29 46.83 46.04 45.28 44.74 44.86 44.75 44.65 44.56 44.19 42.57 43.30 42.21
47.76 47.82 47.47 47.60 44.65 43.58 41.93 43.94 44.72 40.77 44.04 47.16 46.52 50.80 49.54 49.59 47.67 44.00 41.71 40.47 42.56 43.46 46.72 48.67 47.64 46.89 46.76 46.08 46.02 45.89 45.45 45.55 44.74 43.86 43.18 42.84 43.16 43.05 42.83 42.32 41.56 40.33 39.56
48.21 48.42 49.08 48.07 43.69 42.19 41.50 40.08 42.37 41.66 41.17 39.91 40.68 43.18 42.05 43.04 41.15 40.12 39.18 39.55 40.28 41.61 47.32 46.33 45.63 45.49 44.58 43.94 42.67 43.11 42.95 44.41 42.49 42.28 41.55 41.38 40.91 40.65 39.84 40.14 39.89 38.29 37.65
48.40 48.31 48.46 49.26 48.25 44.19 42.67 42.13 42.02 40.52 41.31 40.10 39.31 40.20 41.10 41.47 39.75 38.66 38.47 38.78 40.06 42.31 46.25 45.15 45.98 44.40 43.71 43.20 42.69 42.74 41.86 41.83 41.24 40.62 40.03 39.96 40.37 39.64 38.73 38.46 38.42 38.17 37.65
49.48 50.58 46.54 47.60 47.66 47.28 46.77 45.24 42.86 41.39 40.52 39.35 39.15 39.22 39.24 38.95 38.73 38.35 38.77 39.59 41.79 43.37 43.81 43.87 43.70 43.58 42.56 42.34 41.43 40.83 40.68 40.40 40.06 39.54 38.80 38.32 38.14 37.85 37.55 37.26 37.73 36.86 36.69
49.58 49.22 48.21 45.54 45.55 46.00 44.70 46.41 46.21 43.95 42.01 40.18 37.23 39.04 39.42 39.48 38.90 38.87 39.18 40.75 43.33 43.10 43.09 43.32 43.33 42.53 41.57 41.10 40.30 39.67 39.13 38.47 37.62 36.76 36.45 36.79 37.39 37.22 36.60 36.94 37.09 38.83 37.84
49.70 52.01 50.18 47.09 45.57 43.63 42.48 43.46 45.31 45.50 44.07 42.19 39.06 37.92 37.28 39.03 38.49 40.44 43.06 42.58 42.46 42.39 42.55 42.89 42.48 41.94 41.34 40.87 39.71 39.02 38.26 37.15 36.23 35.91 35.86 35.82 36.07 36.44 36.19 36.42 36.78 36.07 35.96
50.63 50.41 52.61 48.85 46.39 44.36 43.16 42.36 41.92 41.96 42.87 42.76 41.99 40.20 40.21 39.54 39.90 41.83 42.54 42.59 42.87 42.84 42.52 42.58 41.68 41.18 40.33 39.94 39.09 38.28 37.31 36.72 36.16 35.72 35.56 35.61 35.90 35.58 35.76 36.14 36.69 36.85 36.67
50.15 50.02 49.95 49.49 49.18 46.75 44.33 43.41 42.56 41.82 41.84 43.08 42.94 41.89 40.76 39.50 40.86 42.20 42.46 42.85 42.84 42.70 43.21 43.13 41.62 40.79 40.52 40.30 39.62 38.23 37.16 36.43 36.21 35.95 35.75 35.81 35.80 35.83 35.73 35.74 35.85 35.90 36.68
50.10 49.73 49.25 48.87 48.34 47.65 45.69 45.20 44.74 43.34 42.03 42.00 42.68 43.01 41.59 41.03 40.10 40.64 43.18 43.04 42.92 41.97 42.04 42.68 41.52 40.00 40.24 40.03 40.06 39.32 37.33 36.32 36.29 36.45 35.74 35.72 35.20 35.11 35.41 35.10 35.29 35.13 38.20
49.79 50.42 49.97 49.37 48.83 48.26 47.18 45.44 44.31 44.04 44.70 42.96 42.34 41.96 42.34 42.65 41.09 39.75 42.64 42.53 42.53 41.78 41.70 41.61 41.46 40.77 39.71 39.20 38.76 37.87 37.26 36.69 36.57 36.41 36.28 35.25 34.83 34.88 34.72 34.41 34.69 34.84 34.92
46.76 48.53 48.86 48.49 48.48 48.58 47.34 45.08 44.04 45.32 45.88 45.17 42.32 41.54 40.69 40.07 38.58 38.60 42.08 43.22 42.93 41.48 41.48 41.57 41.01 40.95 40.01 38.79 37.51 36.83 35.68 35.92 36.10 35.74 35.15 34.71 34.41 34.13 34.03 33.97 33.99 34.09 34.80
45.29 46.17 46.58 46.35 46.18 46.33 45.97 46.08 45.18 45.46 47.24 46.23 44.48 42.93 42.64 41.57 40.03 39.63 41.88 42.82 42.50 41.80 41.20 40.71 41.12 40.70 39.57 38.71 37.74 36.24 32.77 33.40 35.42 33.75 34.60 33.66 33.22 33.19 33.40 33.55 33.36 33.70 34.40

GFSGL_sfc_wetblb_114.txt.gz
Wetbulb
69.87 69.55 69.82 69.95 70.39 70.91 70.91 70.70 70.76 71.35 71.44 70.93 70.45 70.96 69.97 70.27 71.76 72.12 72.20 72.40 71.77 71.59 71.77 71.30 71.94 71.86 71.20 71.65 71.66 71.15 70.10 69.28 67.95 69.76 70.43 71.70 72.09 72.84 73.97 74.23 75.05 75.27 74.73
70.40 70.25 70.20 70.63 70.99 70.81 70.69 70.81 70.42 69.93 69.83 69.94 70.64 70.05 69.19 70.33 72.64 72.54 71.87 72.75 72.01 71.43 71.37 71.41 71.32 71.77 71.90 71.53 71.18 71.71 71.07 70.56 69.68 68.58 69.47 71.30 71.70 72.80 73.01 73.70 73.89 74.53 74.89
70.36 70.53 70.31 70.33 70.51 70.65 70.59 70.65 70.34 69.78 69.86 69.24 68.20 68.51 69.83 72.50 72.68 72.63 72.24 71.73 72.71 72.51 72.68 71.90 71.92 71.92 71.69 71.91 71.17 70.79 70.00 70.69 70.33 69.57 69.41 70.70 70.93 71.74 72.46 73.08 73.55 74.15 74.02
70.19 69.97 69.75 69.57 70.19 69.94 70.08 69.88 69.94 69.68 69.84 70.50 70.73 71.43 71.82 71.34 71.10 70.75 70.59 71.10 71.23 72.09 72.76 72.62 72.66 72.72 72.31 71.77 71.14 71.18 70.94 70.86 69.43 69.26 68.53 68.39 69.33 71.04 71.26 70.84 71.42 72.49 71.77
69.28 69.97 69.41 70.13 70.52 70.24 69.77 69.71 70.40 70.33 69.97 69.50 69.91 69.93 68.75 68.52 66.56 66.02 67.68 68.25 69.22 70.85 71.75 72.75 72.06 70.15 68.01 68.28 71.65 71.24 71.00 70.77 70.08 69.15 67.90 68.52 68.99 69.34 69.83 70.86 70.49 70.42 70.89
69.59 68.22 68.98 69.92 69.25 69.64 69.48 69.32 69.57 69.32 69.10 69.55 68.31 67.12 66.71 65.31 59.15 59.83 61.78 65.13 67.58 69.70 70.94 71.64 68.80 66.93 66.06 64.12 65.40 65.58 67.48 70.17 69.60 68.98 68.49 68.91 69.37 69.99 70.18 67.24 68.72 67.71 66.85
68.11 68.35 68.24 68.74 68.85 68.94 68.65 68.31 68.26 68.24 68.47 68.22 65.82 62.32 59.19 57.68 57.64 58.51 60.91 62.93 66.92 69.07 70.27 68.99 65.69 62.60 62.29 65.20 64.11 63.25 62.88 62.72 64.99 69.92 68.93 68.26 66.41 67.70 64.86 65.81 67.16 67.88 68.06
66.97 67.49 68.17 68.20 67.77 67.61 67.99 68.40 67.99 68.06 66.52 63.21 58.47 56.00 56.18 57.15 56.29 59.34 63.27 66.77 66.78 63.89 64.06 64.02 60.82 59.55 60.07 59.74 67.08 65.85 61.61 61.79 62.13 62.19 63.12 62.56 61.60 61.62 64.34 66.35 66.66 67.81 69.43
66.50 66.79 67.72 67.74 67.68 67.95 67.92 67.45 66.75 65.48 61.47 58.79 57.03 55.63 55.38 54.24 53.64 58.29 63.48 63.26 60.51 58.74 58.15 58.91 57.64 54.85 53.79 55.44 61.01 62.50 59.69 59.79 58.46 57.61 57.75 56.93 56.07 56.01 57.63 63.92 61.58 65.09 65.58
66.18 66.21 67.70 68.17 67.70 66.14 65.89 66.09 66.75 63.76 60.58 57.08 54.62 53.68 52.01 52.79 52.30 53.22 59.95 59.44 56.85 57.15 58.06 57.07 54.44 53.85 52.61 52.80 56.83 58.12 58.45 57.93 59.30 58.27 57.07 56.23 56.29 55.97 56.03 57.97 59.81 62.43 63.26
62.56 63.08 63.60 64.69 65.21 65.12 64.85 65.75 65.75 61.93 59.12 57.15 54.56 52.21 51.82 51.59 51.55 51.31 51.96 58.03 59.66 59.29 57.34 56.26 53.62 51.57 50.97 49.86 52.30 58.23 57.55 58.00 55.76 55.08 53.63 53.05 53.26 53.44 53.22 53.37 53.67 54.93 54.36
61.56 60.18 59.64 60.30 61.59 62.77 62.76 63.52 64.51 62.26 59.06 58.29 53.21 50.98 50.28 50.13 49.85 49.97 49.85 51.34 53.11 55.26 54.62 52.97 51.20 49.81 50.35 50.28 53.72 52.02 51.72 53.59 53.72 51.89 50.84 49.70 49.66 49.92 51.00 51.17 51.22 51.13 50.96
57.71 57.27 58.45 57.75 58.53 58.71 58.40 59.92 61.90 61.11 59.03 55.95 54.10 52.45 50.79 50.56 48.79 47.64 47.74 48.29 49.62 50.96 50.12 50.32 49.77 49.45 49.78 51.37 51.77 51.39 51.25 51.79 51.67 50.08 48.89 48.08 48.49 48.83 49.70 49.68 50.64 50.34 49.49
52.46 54.21 54.86 55.27 53.39 52.89 53.58 53.46 56.99 56.79 58.60 59.00 58.07 55.67 52.15 51.73 51.14 48.79 47.42 47.62 48.22 49.28 51.30 53.78 52.44 51.69 50.78 50.76 51.14 51.12 50.85 50.82 50.00 48.60 48.04 48.10 48.26 46.89 45.79 46.55 45.53 47.21 45.34
49.94 50.19 49.74 48.12 47.83 46.14 43.46 45.04 46.73 43.90 47.18 51.47 51.21 54.79 53.76 52.74 51.60 45.58 44.11 45.24 45.42 44.62 49.81 51.72 50.99 49.90 49.34 49.01 49.00 49.34 48.72 48.30 47.35 47.21 46.57 45.85 44.82 44.43 43.91 45.01 44.12 43.82 42.29
49.34 50.00 49.91 48.21 46.33 46.07 45.72 44.42 42.72 42.09 41.13 40.20 41.01 46.98 47.26 44.46 41.41 40.08 39.32 39.65 40.32 41.79 50.51 50.26 48.64 49.09 48.38 47.68 47.77 46.55 46.75 45.62 45.43 45.72 44.84 44.53 43.49 43.14 42.88 43.41 43.72 42.62 41.34
51.10 51.14 51.33 50.14 49.02 46.94 46.31 46.84 47.83 45.47 41.51 40.22 39.39 40.21 40.79 41.50 39.76 38.75 38.54 38.98 40.57 43.95 50.46 50.16 48.82 48.10 47.28 47.32 46.66 46.12 44.82 44.62 45.34 44.57 43.83 43.37 42.97 42.49 42.49 41.94 41.86 41.86 41.20
51.30 50.27 50.89 50.44 50.68 50.41 49.27 48.71 47.43 47.06 47.50 47.05 41.17 40.68 39.23 38.97 38.63 38.40 38.53 40.99 45.99 45.65 49.20 48.86 47.85 47.33 46.88 46.40 45.60 44.90 44.07 43.49 43.20 42.91 42.62 42.77 42.82 42.54 41.99 41.44 41.49 40.87 40.78
52.17 51.77 50.87 49.23 49.67 49.78 49.60 49.60 49.86 48.53 47.19 46.35 44.17 41.74 41.11 39.26 38.64 38.53 39.05 45.02 46.55 47.35 47.83 47.83 47.72 47.28 46.88 46.28 45.23 44.47 43.87 42.59 41.86 41.84 41.79 41.94 42.07 42.14 41.27 41.44 41.34 40.08 40.31
52.44 52.15 51.77 50.95 49.87 48.32 47.11 46.62 47.82 48.57 48.09 47.78 46.51 45.10 42.77 42.28 43.50 44.33 46.08 46.87 47.20 47.98 47.92 47.83 47.30 46.88 46.30 45.55 44.41 43.91 42.78 41.76 41.30 41.25 41.10 41.57 41.78 41.97 41.38 41.15 41.58 41.00 40.94
53.90 52.98 52.91 51.90 50.04 49.07 47.89 47.14 46.46 46.48 47.55 48.22 48.09 46.47 41.07 44.41 44.58 45.08 47.83 47.31 47.72 47.90 47.96 47.96 46.77 46.56 46.06 45.21 44.23 43.33 42.49 41.44 41.43 41.08 41.13 41.33 41.70 41.06 41.63 41.70 41.80 41.54 41.17
53.08 52.87 52.67 52.26 52.20 51.29 50.29 49.11 48.25 46.68 46.17 46.10 47.45 46.86 40.28 43.60 44.87 46.09 47.72 48.00 48.27 48.91 48.84 48.11 46.84 46.48 45.61 45.09 44.54 43.49 42.38 41.68 41.25 41.38 41.60 41.66 41.72 41.75 41.63 41.57 41.45 41.06 40.96
51.33 51.92 52.60 52.15 51.85 50.91 51.02 50.27 48.75 47.90 47.28 47.05 46.92 46.59 45.15 44.51 44.79 46.24 47.77 48.33 48.00 48.01 47.85 47.87 47.04 45.54 45.44 45.40 45.32 44.67 43.18 42.33 42.07 42.38 41.85 41.61 41.40 41.44 41.70 41.57 41.55 41.34 41.19
49.26 49.85 50.89 51.75 52.20 51.91 51.41 51.22 50.71 46.27 48.01 48.02 46.90 46.80 46.57 46.34 45.92 45.63 47.22 47.88 47.81 47.68 47.54 47.32 46.99 46.26 45.41 45.23 44.96 44.52 44.22 43.42 42.73 42.53 42.55 42.00 41.30 40.09 41.23 41.35 41.59 40.41 41.23
48.32 48.77 49.58 50.29 51.15 51.50 51.35 51.12 50.72 49.99 49.47 49.19 48.72 48.63 48.93 46.74 46.91 46.53 46.17 47.04 47.48 47.03 46.49 46.90 46.52 46.48 46.01 45.25 44.84 44.34 40.19 36.08 41.56 39.06 41.88 41.86 41.33 41.06 40.82 41.08 40.89 41.10 40.56
47.63 47.90 48.28 48.92 49.14 49.39 49.26 49.17 49.13 49.07 48.87 49.59 49.56 49.32 48.61 47.22 46.30 45.27 45.51 46.20 46.75 46.73 46.45 46.64 46.55 46.49 46.19 45.65 45.16 40.62 32.98 33.43 38.45 34.90 41.41 41.20 40.87 40.62 40.62 40.56 40.19 40.49 40.30

GFSGL_sfc_wetblb_117.txt.gz
Wetbulb
73.15 73.86 73.91 73.91 74.26 74.94 74.89 75.44 75.59 75.02 74.96 74.38 74.86 74.83 75.03 75.25 75.43 75.79 76.37 76.24 75.78 75.58 75.54 74.85 75.15 76.58 74.49 74.53 75.00 74.63 73.94 73.47 70.66 71.77 74.35 75.06 75.92 76.33 76.95 76.84 76.66 76.88 76.39
73.43 74.01 73.91 74.07 74.42 74.36 74.72 75.21 75.12 74.93 74.80 74.79 74.68 74.21 74.29 74.76 74.65 75.14 75.20 75.18 75.36 75.20 75.24 75.35 74.93 74.37 75.54 76.78 74.69 75.02 74.24 74.76 72.41 71.79 73.92 73.74 75.04 75.93 75.73 76.11 75.38 75.38 76.20
73.49 73.62 73.77 73.49 73.92 74.44 74.81 74.92 74.78 74.60 74.49 73.87 73.45 73.06 74.26 74.08 74.18 75.40 76.32 75.90 75.42 75.45 75.51 75.35 75.07 75.01 75.41 74.60 76.63 76.60 74.65 74.04 75.03 72.72 72.34 74.04 73.70 73.76 73.95 75.38 75.84 76.34 74.48
73.05 73.31 73.35 73.70 74.28 74.51 74.89 73.91 73.63 73.95 74.05 74.18 74.30 74.57 74.20 74.42 75.73 75.84 75.24 75.19 75.05 75.00 75.24 75.75 75.84 75.46 75.34 75.64 75.60 75.77 74.76 75.40 75.45 73.88 73.57 72.56 72.84 74.61 74.15 73.22 72.74 74.44 73.22
72.23 73.02 73.48 74.95 74.22 74.69 73.70 73.82 73.08 73.35 73.50 74.06 73.84 73.68 74.40 74.17 73.67 73.11 73.95 73.75 73.90 73.87 74.76 75.32 75.73 69.94 67.36 67.65 71.88 75.27 75.00 75.13 74.85 74.24 73.99 72.64 74.40 71.94 73.73 73.32 71.31 72.16 74.92
72.76 73.06 74.00 72.99 71.80 72.78 71.92 72.90 72.77 72.05 71.40 73.00 72.58 69.02 68.60 70.12 60.39 60.54 64.05 71.13 71.94 72.48 73.38 74.38 72.32 68.71 67.18 65.90 66.12 66.59 68.91 73.53 73.69 73.73 73.46 72.23 72.80 72.30 72.94 69.72 70.18 70.08 70.24
71.46 71.69 71.44 70.39 71.36 70.34 70.44 71.19 71.48 70.02 69.52 70.86 69.45 67.07 66.26 62.22 58.19 59.33 60.50 67.80 69.63 71.75 72.67 74.16 70.60 65.87 66.61 68.05 64.49 63.13 62.64 62.18 64.38 72.81 72.48 72.24 70.14 71.43 68.29 69.67 71.87 71.46 71.03
68.06 68.58 69.34 68.69 68.67 69.79 69.48 69.47 69.54 69.41 69.12 68.17 65.10 61.76 60.14 58.80 55.69 58.77 62.47 68.07 70.64 69.16 67.52 69.38 67.82 62.00 60.66 62.29 67.49 64.71 63.58 64.13 66.33 67.56 68.11 64.60 63.90 65.27 68.83 70.72 72.14 72.06 67.41
67.49 68.93 68.53 69.00 68.19 67.99 67.58 68.69 69.12 69.37 67.47 63.75 60.61 58.70 59.06 57.88 54.01 58.91 65.15 67.80 65.85 61.36 60.68 61.01 63.12 59.60 54.61 55.62 64.63 64.47 62.57 61.91 57.55 57.19 56.92 56.74 56.18 56.53 60.17 67.57 67.31 67.08 68.36
66.88 67.20 68.30 68.37 68.71 68.51 68.49 67.92 67.24 66.70 63.95 61.06 59.62 58.20 55.22 57.72 52.61 54.17 63.01 68.39 65.90 63.49 61.14 59.36 54.05 57.00 52.37 52.72 62.78 64.64 63.48 63.60 62.77 62.24 61.65 59.96 60.52 59.10 57.37 61.48 64.10 64.81 65.81
65.00 65.57 64.96 63.94 65.97 66.95 66.65 66.72 64.71 62.38 61.20 60.32 58.89 58.04 56.18 55.95 54.39 51.85 53.27 66.23 65.41 65.37 64.19 62.31 61.58 52.46 51.82 51.01 53.40 62.64 62.58 63.02 59.59 60.92 59.91 59.21 59.16 58.97 58.09 57.91 58.10 58.75 60.58
62.83 63.42 63.51 62.58 61.61 62.51 63.98 65.50 63.22 60.87 59.70 58.47 56.91 55.27 54.81 52.22 50.78 49.52 50.54 52.06 54.80 62.76 63.42 61.85 59.03 50.93 50.46 51.15 56.89 52.81 53.27 57.47 60.29 59.04 58.01 56.70 56.22 56.34 56.27 55.75 55.81 55.36 54.38
59.59 58.91 58.31 60.73 59.49 58.47 60.66 62.94 63.35 62.51 60.44 59.34 56.78 53.83 51.93 52.18 51.70 48.88 48.68 49.13 50.15 57.30 57.39 53.23 51.38 49.52 49.88 52.71 52.15 52.69 54.24 57.21 57.58 53.91 56.24 54.37 53.45 53.90 56.28 54.73 53.51 53.61 52.95
54.69 55.19 56.36 54.19 55.07 55.83 54.62 57.77 60.06 61.31 60.42 58.29 57.77 57.20 54.25 53.52 53.48 52.54 51.83 52.57 51.71 56.21 55.47 55.06 54.07 54.05 51.92 53.58 54.87 56.37 55.99 55.44 54.43 54.57 53.58 52.88 52.76 52.20 50.74 52.03 51.67 52.84 51.43
54.66 52.60 50.90 50.67 50.34 49.93 49.83 50.88 53.00 48.40 49.18 56.77 54.84 58.01 57.56 54.87 53.10 47.05 46.70 49.59 50.23 47.67 55.90 57.16 56.64 55.42 53.21 52.29 51.79 54.25 52.74 53.60 53.99 53.36 52.71 51.12 50.39 50.11 49.79 50.72 50.18 50.96 49.76
53.90 53.65 53.01 51.88 50.34 50.10 49.27 47.68 43.41 43.08 43.15 40.98 41.96 49.08 50.33 45.54 41.75 40.44 39.84 40.36 41.27 43.10 53.96 56.27 55.43 55.43 54.41 54.02 53.87 51.76 51.34 51.31 48.68 49.75 48.57 50.44 49.87 47.65 49.31 49.42 49.68 48.96 48.17
56.84 56.91 54.90 54.20 54.23 53.83 53.97 54.16 53.81 48.64 42.03 40.69 40.12 41.27 41.32 42.68 40.21 39.43 39.20 40.05 41.19 43.97 53.81 54.95 54.78 54.46 53.47 53.34 52.63 52.73 50.97 51.58 51.54 50.20 50.41 49.27 49.02 48.43 49.97 48.26 48.52 49.41 48.07
57.09 51.53 56.61 56.15 56.57 55.78 55.49 55.51 55.52 54.93 54.71 54.58 42.64 42.74 39.89 39.76 39.27 39.12 39.48 41.82 49.93 48.29 52.12 53.99 55.17 54.97 54.33 53.88 53.09 52.11 50.50 50.05 49.79 49.42 48.96 48.93 49.37 49.48 48.62 48.37 49.02 48.46 49.28
58.27 57.56 57.20 56.90 56.25 55.42 57.06 56.83 55.23 54.85 54.59 54.72 54.84 45.72 42.85 39.84 39.26 39.21 39.65 49.73 50.95 51.24 52.13 53.58 55.07 54.33 53.54 52.93 52.16 51.27 50.51 49.77 48.87 48.49 48.61 48.71 49.16 49.22 48.14 49.24 46.27 42.46 44.57
59.23 53.66 54.26 57.84 57.85 57.00 55.79 55.07 54.59 53.97 53.54 54.09 54.44 54.98 53.10 46.51 49.58 51.02 50.42 51.66 52.52 53.06 53.79 54.16 53.97 53.93 53.36 52.56 51.47 50.57 49.51 47.68 47.97 47.86 47.88 48.63 48.78 49.16 47.93 47.60 48.88 48.71 48.86
58.18 58.53 55.23 58.36 58.09 57.33 57.09 56.36 55.86 54.52 54.60 54.45 54.08 53.97 45.38 51.60 52.05 51.86 51.30 52.84 53.48 53.88 54.32 54.55 53.94 53.78 53.21 52.54 51.50 50.34 49.42 48.61 48.12 47.70 47.53 47.63 48.00 47.46 49.03 49.03 48.91 48.87 48.89
55.46 55.97 56.90 56.60 57.42 57.63 57.53 57.83 57.08 56.65 56.22 55.26 55.29 53.92 41.75 49.98 51.86 52.17 52.41 53.78 54.79 55.33 55.46 55.09 54.26 53.94 53.16 52.32 51.44 50.39 49.23 48.16 47.70 47.29 47.17 47.50 47.63 47.77 47.88 47.94 48.33 47.89 47.90
54.11 53.96 54.19 54.83 56.13 54.53 56.37 56.84 56.43 56.10 55.59 55.72 55.93 55.36 53.82 52.57 52.80 52.61 52.72 53.90 54.93 55.26 55.51 55.01 54.48 53.33 53.04 52.41 51.98 51.13 49.32 48.47 48.33 47.88 47.10 46.99 46.67 46.79 46.92 46.85 46.85 47.75 47.97
54.21 53.68 53.43 53.68 54.30 54.84 55.62 55.96 56.02 50.97 54.04 54.65 54.72 54.53 54.78 54.83 52.78 53.29 51.80 52.22 54.29 54.42 54.74 54.58 54.15 53.18 52.35 51.87 51.40 50.96 50.29 49.75 48.98 48.04 47.58 47.11 46.73 44.13 46.66 46.43 46.52 45.96 47.39
53.97 53.58 53.57 53.80 54.14 54.26 54.55 54.50 54.50 54.62 54.26 54.19 54.01 54.11 54.55 54.81 54.86 53.35 51.62 50.82 52.80 53.50 53.52 53.92 53.78 53.11 52.33 51.68 51.16 50.44 43.03 38.92 46.84 42.72 47.59 46.97 46.36 45.98 46.15 46.44 46.33 46.22 45.30
52.84 53.21 53.03 53.20 53.08 53.26 53.07 52.99 53.30 53.48 53.11 53.17 53.44 53.75 53.77 53.70 53.92 53.31 52.14 51.57 50.39 51.15 51.83 51.99 53.13 52.98 52.34 51.94 51.03 43.67 33.17 34.83 42.13 36.57 47.08 47.05 46.05 46.03 46.29 45.69 45.12 45.67 45.31